<?xml version='1.0' encoding='UTF-8'?><gpx version="1.1" creator="JPX - https://github.com/jenetics/jpx" xmlns="http://www.topografix.com/GPX/1/1"><trk><trkseg><trkpt lat="45.53537694342685" lon="9.578879342236691"><ele>130.00000000000003</ele><time>2026-04-25T07:30:34.001Z</time></trkpt><trkpt lat="45.535312895055775" lon="9.57889411628726"><ele>130.0</ele><time>2026-04-25T07:30:36.001Z</time></trkpt><trkpt lat="45.53524513353152" lon="9.578909210396034"><ele>130.0</ele><time>2026-04-25T07:30:38.001Z</time></trkpt><trkpt lat="45.53518401006275" lon="9.57893429122358"><ele>130.0</ele><time>2026-04-25T07:30:40.001Z</time></trkpt><trkpt lat="45.53508486907442" lon="9.578964067267904"><ele>130.0</ele><time>2026-04-25T07:30:43Z</time></trkpt><trkpt lat="45.53501954561935" lon="9.578975937451283"><ele>130.00000000000003</ele><time>2026-04-25T07:30:45Z</time></trkpt><trkpt lat="45.534938578247285" lon="9.578996996102036"><ele>130.0</ele><time>2026-04-25T07:30:48Z</time></trkpt><trkpt lat="45.534877932417245" lon="9.579034306082539"><ele>130.0</ele><time>2026-04-25T07:30:50Z</time></trkpt><trkpt lat="45.53479551640092" lon="9.579034269851027"><ele>130.0</ele><time>2026-04-25T07:30:53Z</time></trkpt><trkpt lat="45.53473832329107" lon="9.578993127633776"><ele>130.0</ele><time>2026-04-25T07:30:55Z</time></trkpt><trkpt lat="45.534720647855494" lon="9.578876882748478"><ele>130.0</ele><time>2026-04-25T07:30:58Z</time></trkpt><trkpt lat="45.534711832483225" lon="9.57878414608825"><ele>130.0</ele><time>2026-04-25T07:31:01Z</time></trkpt><trkpt lat="45.53469143841103" lon="9.578674136802192"><ele>130.0</ele><time>2026-04-25T07:31:04Z</time></trkpt><trkpt lat="45.534677043712186" lon="9.57856134315908"><ele>130.16666666666669</ele><time>2026-04-25T07:31:07Z</time></trkpt><trkpt lat="45.5346535452438" lon="9.578438906836286"><ele>130.33333333333334</ele><time>2026-04-25T07:31:10Z</time></trkpt><trkpt lat="45.534638510232284" lon="9.578321462356897"><ele>130.5</ele><time>2026-04-25T07:31:13Z</time></trkpt><trkpt lat="45.53462521613805" lon="9.578216477369008"><ele>130.66666666666666</ele><time>2026-04-25T07:31:16Z</time></trkpt><trkpt lat="45.53460998160626" lon="9.578120517584155"><ele>130.83333333333331</ele><time>2026-04-25T07:31:19Z</time></trkpt><trkpt lat="45.534597985257804" lon="9.578001325630469"><ele>131.0</ele><time>2026-04-25T07:31:22Z</time></trkpt><trkpt lat="45.53458283765623" lon="9.577902003733595"><ele>130.66666666666666</ele><time>2026-04-25T07:31:25Z</time></trkpt><trkpt lat="45.53457142519389" lon="9.577794594923988"><ele>130.33333333333331</ele><time>2026-04-25T07:31:28Z</time></trkpt><trkpt lat="45.53455516821712" lon="9.577688731072682"><ele>130.0</ele><time>2026-04-25T07:31:31Z</time></trkpt><trkpt lat="45.5345422333058" lon="9.577594493551745"><ele>129.66666666666666</ele><time>2026-04-25T07:31:34Z</time></trkpt><trkpt lat="45.53452786666908" lon="9.577477776591246"><ele>129.33333333333334</ele><time>2026-04-25T07:31:38Z</time></trkpt><trkpt lat="45.53452156176048" lon="9.577382438400376"><ele>129.0</ele><time>2026-04-25T07:31:40Z</time></trkpt><trkpt lat="45.534501099284284" lon="9.57726685237871"><ele>128.99999999999997</ele><time>2026-04-25T07:31:44Z</time></trkpt><trkpt lat="45.53453246435876" lon="9.577179947206847"><ele>129.0</ele><time>2026-04-25T07:32:03Z</time></trkpt><trkpt lat="45.53460822352396" lon="9.57710607908489"><ele>129.0</ele><time>2026-04-25T07:32:06Z</time></trkpt><trkpt lat="45.53466627822244" lon="9.577054942310864"><ele>129.0</ele><time>2026-04-25T07:32:07.999Z</time></trkpt><trkpt lat="45.53472461481332" lon="9.577003140875611"><ele>129.0</ele><time>2026-04-25T07:32:09.999Z</time></trkpt><trkpt lat="45.53478820242543" lon="9.576945991995856"><ele>128.99999999999997</ele><time>2026-04-25T07:32:11.999Z</time></trkpt><trkpt lat="45.53484519190482" lon="9.576891912148595"><ele>129.0</ele><time>2026-04-25T07:32:14Z</time></trkpt><trkpt lat="45.534898042205356" lon="9.576840514143901"><ele>129.33333333333334</ele><time>2026-04-25T07:32:16Z</time></trkpt><trkpt lat="45.53495521569717" lon="9.576790553427637"><ele>129.66666666666666</ele><time>2026-04-25T07:32:18Z</time></trkpt><trkpt lat="45.53503084132646" lon="9.576718573176384"><ele>130.0</ele><time>2026-04-25T07:32:21Z</time></trkpt><trkpt lat="45.53509320650656" lon="9.57665469756626"><ele>130.33333333333331</ele><time>2026-04-25T07:32:24Z</time></trkpt><trkpt lat="45.53516489118875" lon="9.576594687853005"><ele>130.66666666666666</ele><time>2026-04-25T07:32:27Z</time></trkpt><trkpt lat="45.53525722369949" lon="9.576557056613563"><ele>131.0</ele><time>2026-04-25T07:32:30Z</time></trkpt><trkpt lat="45.53532735859171" lon="9.576520911343222"><ele>130.85714285714286</ele><time>2026-04-25T07:32:32Z</time></trkpt><trkpt lat="45.53538806481852" lon="9.576467369932615"><ele>130.71428571428572</ele><time>2026-04-25T07:32:34Z</time></trkpt><trkpt lat="45.53544989047896" lon="9.576414773567574"><ele>130.57142857142858</ele><time>2026-04-25T07:32:36Z</time></trkpt><trkpt lat="45.5355120770586" lon="9.576359384647105"><ele>130.42857142857144</ele><time>2026-04-25T07:32:38Z</time></trkpt><trkpt lat="45.53557550294941" lon="9.576308618496034"><ele>130.28571428571428</ele><time>2026-04-25T07:32:40Z</time></trkpt><trkpt lat="45.53563381220832" lon="9.576264528978786"><ele>130.14285714285717</ele><time>2026-04-25T07:32:42Z</time></trkpt><trkpt lat="45.53569547083085" lon="9.576209435211593"><ele>130.0</ele><time>2026-04-25T07:32:44Z</time></trkpt><trkpt lat="45.53575585261572" lon="9.576163688658575"><ele>130.00000000000003</ele><time>2026-04-25T07:32:46Z</time></trkpt><trkpt lat="45.535814967059146" lon="9.57610706938349"><ele>130.0</ele><time>2026-04-25T07:32:48Z</time></trkpt><trkpt lat="45.53587315367913" lon="9.576048218082972"><ele>130.0</ele><time>2026-04-25T07:32:50Z</time></trkpt><trkpt lat="45.535933280875476" lon="9.576004551943054"><ele>130.0</ele><time>2026-04-25T07:32:52Z</time></trkpt><trkpt lat="45.53601959510488" lon="9.575939184131732"><ele>130.0</ele><time>2026-04-25T07:32:55Z</time></trkpt><trkpt lat="45.53608110790075" lon="9.575885976053982"><ele>130.00000000000003</ele><time>2026-04-25T07:32:57Z</time></trkpt><trkpt lat="45.536140158839245" lon="9.575840036652465"><ele>130.0</ele><time>2026-04-25T07:32:59Z</time></trkpt><trkpt lat="45.53619714562147" lon="9.575793397796746"><ele>130.14285714285717</ele><time>2026-04-25T07:33:01Z</time></trkpt><trkpt lat="45.53626556858293" lon="9.575741218586725"><ele>130.28571428571428</ele><time>2026-04-25T07:33:03Z</time></trkpt><trkpt lat="45.53633111838736" lon="9.575690207329574"><ele>130.42857142857144</ele><time>2026-04-25T07:33:05Z</time></trkpt><trkpt lat="45.53639334017786" lon="9.575632129708453"><ele>130.57142857142858</ele><time>2026-04-25T07:33:07Z</time></trkpt><trkpt lat="45.536459892645134" lon="9.57558953663684"><ele>130.71428571428572</ele><time>2026-04-25T07:33:09Z</time></trkpt><trkpt lat="45.53651958733763" lon="9.57552580915196"><ele>130.85714285714286</ele><time>2026-04-25T07:33:11Z</time></trkpt><trkpt lat="45.53658204293367" lon="9.575474873923916"><ele>131.0</ele><time>2026-04-25T07:33:13Z</time></trkpt><trkpt lat="45.53665495130255" lon="9.575433262670266"><ele>131.0</ele><time>2026-04-25T07:33:15Z</time></trkpt><trkpt lat="45.5367245471391" lon="9.57538565878568"><ele>131.0</ele><time>2026-04-25T07:33:17Z</time></trkpt><trkpt lat="45.53679849065628" lon="9.575358498082466"><ele>131.0</ele><time>2026-04-25T07:33:19Z</time></trkpt><trkpt lat="45.53687189594925" lon="9.575337434476305"><ele>131.0</ele><time>2026-04-25T07:33:21Z</time></trkpt><trkpt lat="45.53694709803918" lon="9.575314849170265"><ele>131.0</ele><time>2026-04-25T07:33:23Z</time></trkpt><trkpt lat="45.53702529764742" lon="9.57527641460368"><ele>131.0</ele><time>2026-04-25T07:33:25Z</time></trkpt><trkpt lat="45.537104279660966" lon="9.575248179124868"><ele>131.16666666666666</ele><time>2026-04-25T07:33:27Z</time></trkpt><trkpt lat="45.53718409874572" lon="9.575219561148124"><ele>131.33333333333331</ele><time>2026-04-25T07:33:29Z</time></trkpt><trkpt lat="45.5372650552273" lon="9.575194552256738"><ele>131.5</ele><time>2026-04-25T07:33:31Z</time></trkpt><trkpt lat="45.537351712299206" lon="9.575138579851718"><ele>131.66666666666666</ele><time>2026-04-25T07:33:33Z</time></trkpt><trkpt lat="45.537425001678166" lon="9.575127739605739"><ele>131.83333333333334</ele><time>2026-04-25T07:33:35Z</time></trkpt><trkpt lat="45.53750496883071" lon="9.575095632475781"><ele>132.0</ele><time>2026-04-25T07:33:37Z</time></trkpt><trkpt lat="45.53758805721895" lon="9.575075824937212"><ele>132.0</ele><time>2026-04-25T07:33:39Z</time></trkpt><trkpt lat="45.537680160192416" lon="9.575034404204844"><ele>132.0</ele><time>2026-04-25T07:33:41Z</time></trkpt><trkpt lat="45.5377559435426" lon="9.575000237730364"><ele>132.0</ele><time>2026-04-25T07:33:43Z</time></trkpt><trkpt lat="45.53784267199602" lon="9.574971864832596"><ele>132.0</ele><time>2026-04-25T07:33:45Z</time></trkpt><trkpt lat="45.53793105052426" lon="9.574954840964947"><ele>132.0</ele><time>2026-04-25T07:33:47Z</time></trkpt><trkpt lat="45.538013897339574" lon="9.574928083047418"><ele>132.0</ele><time>2026-04-25T07:33:49Z</time></trkpt><trkpt lat="45.53810225395062" lon="9.5748928147361"><ele>132.0</ele><time>2026-04-25T07:33:51Z</time></trkpt><trkpt lat="45.53818281308989" lon="9.574862178060286"><ele>132.0</ele><time>2026-04-25T07:33:53Z</time></trkpt><trkpt lat="45.538267548297114" lon="9.574832159633015"><ele>132.0</ele><time>2026-04-25T07:33:55Z</time></trkpt><trkpt lat="45.538351754492375" lon="9.574800457743802"><ele>132.0</ele><time>2026-04-25T07:33:57Z</time></trkpt><trkpt lat="45.53843635371865" lon="9.574760687687778"><ele>132.0</ele><time>2026-04-25T07:33:59Z</time></trkpt><trkpt lat="45.5385226240514" lon="9.574726406330084"><ele>132.0</ele><time>2026-04-25T07:34:01Z</time></trkpt><trkpt lat="45.53860760563192" lon="9.574686901483215"><ele>132.0</ele><time>2026-04-25T07:34:03Z</time></trkpt><trkpt lat="45.538696100466325" lon="9.574657222895539"><ele>132.0</ele><time>2026-04-25T07:34:05Z</time></trkpt><trkpt lat="45.53877769925753" lon="9.57461870958272"><ele>132.0</ele><time>2026-04-25T07:34:07Z</time></trkpt><trkpt lat="45.5388664892164" lon="9.574593417878727"><ele>132.0</ele><time>2026-04-25T07:34:09Z</time></trkpt><trkpt lat="45.53895136475648" lon="9.57455670940449"><ele>132.0</ele><time>2026-04-25T07:34:11Z</time></trkpt><trkpt lat="45.53903739553737" lon="9.574532172886597"><ele>132.0</ele><time>2026-04-25T07:34:13Z</time></trkpt><trkpt lat="45.53911982024557" lon="9.574496530636857"><ele>131.66666666666666</ele><time>2026-04-25T07:34:14.999Z</time></trkpt><trkpt lat="45.539203299515286" lon="9.574470377657384"><ele>131.33333333333334</ele><time>2026-04-25T07:34:16.999Z</time></trkpt><trkpt lat="45.539286989803166" lon="9.574442207040846"><ele>131.0</ele><time>2026-04-25T07:34:18.999Z</time></trkpt><trkpt lat="45.539367251551795" lon="9.574407497428364"><ele>130.66666666666669</ele><time>2026-04-25T07:34:20.999Z</time></trkpt><trkpt lat="45.5394474423076" lon="9.574379762994424"><ele>130.33333333333334</ele><time>2026-04-25T07:34:22.999Z</time></trkpt><trkpt lat="45.53953307941304" lon="9.574346306952082"><ele>130.0</ele><time>2026-04-25T07:34:24.999Z</time></trkpt><trkpt lat="45.539615852571075" lon="9.574318379939857"><ele>130.83333333333334</ele><time>2026-04-25T07:34:26.999Z</time></trkpt><trkpt lat="45.53970461180086" lon="9.574289003702722"><ele>131.66666666666669</ele><time>2026-04-25T07:34:28.999Z</time></trkpt><trkpt lat="45.53978621478028" lon="9.574255886918841"><ele>132.5</ele><time>2026-04-25T07:34:30.999Z</time></trkpt><trkpt lat="45.539866939244575" lon="9.574226196480334"><ele>133.33333333333334</ele><time>2026-04-25T07:34:32.999Z</time></trkpt><trkpt lat="45.539946675905824" lon="9.574200895414158"><ele>134.16666666666666</ele><time>2026-04-25T07:34:34.999Z</time></trkpt><trkpt lat="45.54002390554964" lon="9.574179136532859"><ele>135.0</ele><time>2026-04-25T07:34:36.999Z</time></trkpt><trkpt lat="45.5400945835896" lon="9.574158549517774"><ele>135.0</ele><time>2026-04-25T07:34:38.999Z</time></trkpt><trkpt lat="45.5401465832207" lon="9.574093952111435"><ele>135.0</ele><time>2026-04-25T07:34:41Z</time></trkpt><trkpt lat="45.540174497792606" lon="9.573994775583131"><ele>135.0</ele><time>2026-04-25T07:34:43Z</time></trkpt><trkpt lat="45.54020492477116" lon="9.573895690823317"><ele>135.0</ele><time>2026-04-25T07:34:45Z</time></trkpt><trkpt lat="45.540244511184866" lon="9.57379743417214"><ele>135.0</ele><time>2026-04-25T07:34:47Z</time></trkpt><trkpt lat="45.54027973940458" lon="9.573687694440999"><ele>135.0</ele><time>2026-04-25T07:34:49Z</time></trkpt><trkpt lat="45.54031767171483" lon="9.573577488020423"><ele>134.66666666666666</ele><time>2026-04-25T07:34:51Z</time></trkpt><trkpt lat="45.54035301265507" lon="9.57346588407175"><ele>134.33333333333334</ele><time>2026-04-25T07:34:53Z</time></trkpt><trkpt lat="45.540389419646026" lon="9.573351742666576"><ele>134.0</ele><time>2026-04-25T07:34:55Z</time></trkpt><trkpt lat="45.540430400667155" lon="9.573237452654059"><ele>133.66666666666669</ele><time>2026-04-25T07:34:57Z</time></trkpt><trkpt lat="45.540472755797175" lon="9.573122174877728"><ele>133.33333333333334</ele><time>2026-04-25T07:34:59Z</time></trkpt><trkpt lat="45.54051181077562" lon="9.573003495698044"><ele>133.0</ele><time>2026-04-25T07:35:01Z</time></trkpt><trkpt lat="45.540554121734466" lon="9.57288756452976"><ele>133.4</ele><time>2026-04-25T07:35:03Z</time></trkpt><trkpt lat="45.54059409722023" lon="9.57276761569168"><ele>133.8</ele><time>2026-04-25T07:35:05Z</time></trkpt><trkpt lat="45.54063711613089" lon="9.572645866271094"><ele>134.2</ele><time>2026-04-25T07:35:07Z</time></trkpt><trkpt lat="45.54067737431984" lon="9.572521323309509"><ele>134.6</ele><time>2026-04-25T07:35:09Z</time></trkpt><trkpt lat="45.540720767588354" lon="9.572400292790393"><ele>135.0</ele><time>2026-04-25T07:35:11Z</time></trkpt><trkpt lat="45.540761572709926" lon="9.572279730320941"><ele>135.0</ele><time>2026-04-25T07:35:13Z</time></trkpt><trkpt lat="45.54080553934202" lon="9.57215839821366"><ele>135.0</ele><time>2026-04-25T07:35:15Z</time></trkpt><trkpt lat="45.54084623264492" lon="9.572036556538027"><ele>135.0</ele><time>2026-04-25T07:35:17Z</time></trkpt><trkpt lat="45.540888379803086" lon="9.571914451067057"><ele>135.0</ele><time>2026-04-25T07:35:19Z</time></trkpt><trkpt lat="45.540931202639804" lon="9.571794745889436"><ele>135.0</ele><time>2026-04-25T07:35:21Z</time></trkpt><trkpt lat="45.540971805126574" lon="9.571675447390039"><ele>134.6</ele><time>2026-04-25T07:35:23Z</time></trkpt><trkpt lat="45.54101256604363" lon="9.571556715298199"><ele>134.2</ele><time>2026-04-25T07:35:25Z</time></trkpt><trkpt lat="45.54105257739513" lon="9.571436541482974"><ele>133.8</ele><time>2026-04-25T07:35:27Z</time></trkpt><trkpt lat="45.54109653443975" lon="9.571313754304898"><ele>133.4</ele><time>2026-04-25T07:35:29Z</time></trkpt><trkpt lat="45.541139824285814" lon="9.571193562937863"><ele>133.0</ele><time>2026-04-25T07:35:31Z</time></trkpt><trkpt lat="45.541182233325394" lon="9.571071030013865"><ele>133.8</ele><time>2026-04-25T07:35:33Z</time></trkpt><trkpt lat="45.541227596389106" lon="9.57095018789931"><ele>134.60000000000002</ele><time>2026-04-25T07:35:35Z</time></trkpt><trkpt lat="45.54126956744827" lon="9.570826280988712"><ele>135.39999999999998</ele><time>2026-04-25T07:35:37Z</time></trkpt><trkpt lat="45.54131456392336" lon="9.570704382904417"><ele>136.2</ele><time>2026-04-25T07:35:39Z</time></trkpt><trkpt lat="45.541363556878785" lon="9.570586149123063"><ele>137.0</ele><time>2026-04-25T07:35:41Z</time></trkpt><trkpt lat="45.541416764629304" lon="9.570469080160848"><ele>137.0</ele><time>2026-04-25T07:35:43Z</time></trkpt><trkpt lat="45.54147631471089" lon="9.570362620606184"><ele>137.0</ele><time>2026-04-25T07:35:45Z</time></trkpt><trkpt lat="45.541534613102506" lon="9.570260189811403"><ele>137.0</ele><time>2026-04-25T07:35:47Z</time></trkpt><trkpt lat="45.541597742774364" lon="9.570169937949938"><ele>137.0</ele><time>2026-04-25T07:35:49Z</time></trkpt><trkpt lat="45.54166268033728" lon="9.570078723050528"><ele>137.0</ele><time>2026-04-25T07:35:51Z</time></trkpt><trkpt lat="45.5417297832244" lon="9.569988762165055"><ele>137.0</ele><time>2026-04-25T07:35:53Z</time></trkpt><trkpt lat="45.54179778400035" lon="9.569900942804367"><ele>137.0</ele><time>2026-04-25T07:35:55Z</time></trkpt><trkpt lat="45.54186801549273" lon="9.569813546539887"><ele>137.0</ele><time>2026-04-25T07:35:57Z</time></trkpt><trkpt lat="45.54193721669481" lon="9.569725807417198"><ele>137.0</ele><time>2026-04-25T07:35:59Z</time></trkpt><trkpt lat="45.54200490495181" lon="9.56963839538514"><ele>137.0</ele><time>2026-04-25T07:36:01Z</time></trkpt><trkpt lat="45.54207306159269" lon="9.569549649197306"><ele>137.0</ele><time>2026-04-25T07:36:03Z</time></trkpt><trkpt lat="45.54214196187774" lon="9.569460084309542"><ele>137.0</ele><time>2026-04-25T07:36:05Z</time></trkpt><trkpt lat="45.542211201602555" lon="9.569366581250451"><ele>137.0</ele><time>2026-04-25T07:36:07Z</time></trkpt><trkpt lat="45.54228067884803" lon="9.569275184688507"><ele>137.0</ele><time>2026-04-25T07:36:09Z</time></trkpt><trkpt lat="45.542350116315696" lon="9.569183397180609"><ele>137.0</ele><time>2026-04-25T07:36:11Z</time></trkpt><trkpt lat="45.54241989626706" lon="9.569090980757265"><ele>137.0</ele><time>2026-04-25T07:36:13Z</time></trkpt><trkpt lat="45.54248948610526" lon="9.56899838503797"><ele>137.0</ele><time>2026-04-25T07:36:15Z</time></trkpt><trkpt lat="45.54256043824541" lon="9.568905675934754"><ele>137.0</ele><time>2026-04-25T07:36:17Z</time></trkpt><trkpt lat="45.54263151433984" lon="9.568807706402824"><ele>137.0</ele><time>2026-04-25T07:36:18.999Z</time></trkpt><trkpt lat="45.54270564665998" lon="9.568712513189617"><ele>137.0</ele><time>2026-04-25T07:36:20.999Z</time></trkpt><trkpt lat="45.54278202221535" lon="9.56861897154399"><ele>136.79999999999998</ele><time>2026-04-25T07:36:22.999Z</time></trkpt><trkpt lat="45.54286247652246" lon="9.568531555663927"><ele>136.6</ele><time>2026-04-25T07:36:24.999Z</time></trkpt><trkpt lat="45.54295080173571" lon="9.568451107719623"><ele>136.39999999999998</ele><time>2026-04-25T07:36:26.999Z</time></trkpt><trkpt lat="45.5430465670236" lon="9.568384951393714"><ele>136.2</ele><time>2026-04-25T07:36:28.999Z</time></trkpt><trkpt lat="45.5431442648042" lon="9.568324588573436"><ele>136.0</ele><time>2026-04-25T07:36:30.999Z</time></trkpt><trkpt lat="45.543247229543496" lon="9.568272837753417"><ele>136.0</ele><time>2026-04-25T07:36:32.999Z</time></trkpt><trkpt lat="45.54335390603393" lon="9.568228227162429"><ele>136.0</ele><time>2026-04-25T07:36:34.999Z</time></trkpt><trkpt lat="45.54345922175011" lon="9.568181857359486"><ele>136.0</ele><time>2026-04-25T07:36:36.999Z</time></trkpt><trkpt lat="45.543564072724486" lon="9.568133755444842"><ele>136.0</ele><time>2026-04-25T07:36:38.999Z</time></trkpt><trkpt lat="45.543668709128625" lon="9.568087419406389"><ele>136.0</ele><time>2026-04-25T07:36:40.999Z</time></trkpt><trkpt lat="45.54377367219316" lon="9.568038471597132"><ele>136.5</ele><time>2026-04-25T07:36:42.999Z</time></trkpt><trkpt lat="45.5438797330869" lon="9.567987761074216"><ele>137.0</ele><time>2026-04-25T07:36:44.999Z</time></trkpt><trkpt lat="45.54398663205934" lon="9.567934000781769"><ele>137.5</ele><time>2026-04-25T07:36:46.999Z</time></trkpt><trkpt lat="45.54409444547545" lon="9.567883581673108"><ele>138.0</ele><time>2026-04-25T07:36:49Z</time></trkpt><trkpt lat="45.54420119351432" lon="9.567829250055025"><ele>137.75</ele><time>2026-04-25T07:36:51Z</time></trkpt><trkpt lat="45.54430780785266" lon="9.567763158956216"><ele>137.5</ele><time>2026-04-25T07:36:53Z</time></trkpt><trkpt lat="45.54440924070327" lon="9.5676891181323"><ele>137.25</ele><time>2026-04-25T07:36:55Z</time></trkpt><trkpt lat="45.5445076306291" lon="9.567605885085927"><ele>137.0</ele><time>2026-04-25T07:36:57Z</time></trkpt><trkpt lat="45.544599417811135" lon="9.567508248577052"><ele>137.0</ele><time>2026-04-25T07:36:59Z</time></trkpt><trkpt lat="45.54468910240248" lon="9.567408006757088"><ele>137.0</ele><time>2026-04-25T07:37:01Z</time></trkpt><trkpt lat="45.54478044318913" lon="9.567314939698454"><ele>137.0</ele><time>2026-04-25T07:37:03Z</time></trkpt><trkpt lat="45.54487686242832" lon="9.567233764845916"><ele>137.0</ele><time>2026-04-25T07:37:05Z</time></trkpt><trkpt lat="45.544977530349826" lon="9.567166103157003"><ele>137.0</ele><time>2026-04-25T07:37:07Z</time></trkpt><trkpt lat="45.54507741243471" lon="9.567103906052038"><ele>137.0</ele><time>2026-04-25T07:37:09Z</time></trkpt><trkpt lat="45.5451800863776" lon="9.567052293749333"><ele>137.0</ele><time>2026-04-25T07:37:11Z</time></trkpt><trkpt lat="45.54528749061151" lon="9.567018808825898"><ele>137.0</ele><time>2026-04-25T07:37:13Z</time></trkpt><trkpt lat="45.545396668506925" lon="9.566989703566117"><ele>137.0</ele><time>2026-04-25T07:37:15Z</time></trkpt><trkpt lat="45.545505236322974" lon="9.56696460677339"><ele>137.0</ele><time>2026-04-25T07:37:17Z</time></trkpt><trkpt lat="45.54561754354518" lon="9.566941054508487"><ele>136.2</ele><time>2026-04-25T07:37:19Z</time></trkpt><trkpt lat="45.5457286269345" lon="9.566927772111333"><ele>135.39999999999998</ele><time>2026-04-25T07:37:21Z</time></trkpt><trkpt lat="45.54583655516947" lon="9.566913432167983"><ele>134.60000000000002</ele><time>2026-04-25T07:37:23Z</time></trkpt><trkpt lat="45.5459403474981" lon="9.566908387090404"><ele>133.8</ele><time>2026-04-25T07:37:25Z</time></trkpt><trkpt lat="45.54603994049972" lon="9.566902196337836"><ele>133.0</ele><time>2026-04-25T07:37:27Z</time></trkpt><trkpt lat="45.546143352029844" lon="9.566894489954661"><ele>133.5</ele><time>2026-04-25T07:37:29Z</time></trkpt><trkpt lat="45.54624728931963" lon="9.566882492123712"><ele>134.0</ele><time>2026-04-25T07:37:31Z</time></trkpt><trkpt lat="45.54634034729429" lon="9.566869910871041"><ele>134.5</ele><time>2026-04-25T07:37:33Z</time></trkpt><trkpt lat="45.54642703717223" lon="9.566844585793273"><ele>135.0</ele><time>2026-04-25T07:37:35Z</time></trkpt><trkpt lat="45.54649382163867" lon="9.566789407748649"><ele>135.5</ele><time>2026-04-25T07:37:37Z</time></trkpt><trkpt lat="45.546554428691216" lon="9.566761681981514"><ele>136.0</ele><time>2026-04-25T07:37:39Z</time></trkpt><trkpt lat="45.546511876494456" lon="9.56668584838983"><ele>136.0</ele><time>2026-04-25T07:37:54Z</time></trkpt><trkpt lat="45.546443205672695" lon="9.566659901734928"><ele>136.0</ele><time>2026-04-25T07:37:59Z</time></trkpt><trkpt lat="45.54641105128235" lon="9.566572994674072"><ele>136.0</ele><time>2026-04-25T07:38:05Z</time></trkpt><trkpt lat="45.5464031366275" lon="9.566473427330012"><ele>136.0</ele><time>2026-04-25T07:38:10Z</time></trkpt><trkpt lat="45.546457505147664" lon="9.566359860017561"><ele>136.0</ele><time>2026-04-25T07:38:15Z</time></trkpt><trkpt lat="45.54651124544371" lon="9.566307248079873"><ele>136.0</ele><time>2026-04-25T07:38:18Z</time></trkpt><trkpt lat="45.54656786590996" lon="9.56621280214307"><ele>134.99999999999997</ele><time>2026-04-25T07:38:22Z</time></trkpt><trkpt lat="45.546623915581776" lon="9.566163132358115"><ele>134.0</ele><time>2026-04-25T07:38:25.999Z</time></trkpt><trkpt lat="45.546604290712715" lon="9.566052109279745"><ele>133.0</ele><time>2026-04-25T07:38:31Z</time></trkpt><trkpt lat="45.54656459870943" lon="9.56597444929587"><ele>132.0</ele><time>2026-04-25T07:38:33Z</time></trkpt><trkpt lat="45.54652825084034" lon="9.565867749347161"><ele>131.0</ele><time>2026-04-25T07:38:35Z</time></trkpt><trkpt lat="45.5464942348049" lon="9.565777563179577"><ele>129.99999999999997</ele><time>2026-04-25T07:38:37Z</time></trkpt><trkpt lat="45.546455716195695" lon="9.565682340143198"><ele>129.0</ele><time>2026-04-25T07:38:39Z</time></trkpt><trkpt lat="45.54642235086332" lon="9.5655911774378"><ele>129.0</ele><time>2026-04-25T07:38:41Z</time></trkpt><trkpt lat="45.54639183602973" lon="9.565498172498396"><ele>129.0</ele><time>2026-04-25T07:38:43Z</time></trkpt><trkpt lat="45.54635472407788" lon="9.565418431080305"><ele>129.0</ele><time>2026-04-25T07:38:45Z</time></trkpt><trkpt lat="45.54630900203924" lon="9.565316605665839"><ele>129.0</ele><time>2026-04-25T07:38:48Z</time></trkpt><trkpt lat="45.546258715918476" lon="9.56521777541858"><ele>129.0</ele><time>2026-04-25T07:38:51Z</time></trkpt><trkpt lat="45.54621379763863" lon="9.565110172162866"><ele>129.0</ele><time>2026-04-25T07:38:54Z</time></trkpt><trkpt lat="45.546171597503566" lon="9.565005279026236"><ele>128.33333333333334</ele><time>2026-04-25T07:38:57Z</time></trkpt><trkpt lat="45.54614198380478" lon="9.564895763622237"><ele>127.66666666666666</ele><time>2026-04-25T07:39:00Z</time></trkpt><trkpt lat="45.54618545682901" lon="9.564780050899335"><ele>127.0</ele><time>2026-04-25T07:39:05Z</time></trkpt><trkpt lat="45.54619544872445" lon="9.564678636875211"><ele>126.33333333333333</ele><time>2026-04-25T07:39:08Z</time></trkpt><trkpt lat="45.54622536773859" lon="9.564590690830862"><ele>125.66666666666666</ele><time>2026-04-25T07:39:11Z</time></trkpt><trkpt lat="45.54627207052627" lon="9.564491076628126"><ele>125.0</ele><time>2026-04-25T07:39:14Z</time></trkpt><trkpt lat="45.546307613275495" lon="9.564405862047545"><ele>124.71428571428571</ele><time>2026-04-25T07:39:16Z</time></trkpt><trkpt lat="45.54633966870457" lon="9.564326192274589"><ele>124.42857142857144</ele><time>2026-04-25T07:39:18Z</time></trkpt><trkpt lat="45.5463793279889" lon="9.564250914338423"><ele>124.14285714285715</ele><time>2026-04-25T07:39:20Z</time></trkpt><trkpt lat="45.54641723006632" lon="9.564159792211377"><ele>123.85714285714286</ele><time>2026-04-25T07:39:22Z</time></trkpt><trkpt lat="45.5464498617701" lon="9.564068982198114"><ele>123.57142857142858</ele><time>2026-04-25T07:39:24Z</time></trkpt><trkpt lat="45.54648760805336" lon="9.563978432718368"><ele>123.2857142857143</ele><time>2026-04-25T07:39:26Z</time></trkpt><trkpt lat="45.546528925344376" lon="9.563887373619611"><ele>123.00000000000001</ele><time>2026-04-25T07:39:28Z</time></trkpt><trkpt lat="45.54657076455236" lon="9.563791461040884"><ele>123.0</ele><time>2026-04-25T07:39:30Z</time></trkpt><trkpt lat="45.54661554756772" lon="9.563697005559026"><ele>123.0</ele><time>2026-04-25T07:39:32Z</time></trkpt><trkpt lat="45.54665356529678" lon="9.563600572865564"><ele>123.0</ele><time>2026-04-25T07:39:34Z</time></trkpt><trkpt lat="45.54669427887063" lon="9.563506375825837"><ele>123.0</ele><time>2026-04-25T07:39:36Z</time></trkpt><trkpt lat="45.5467328193796" lon="9.563419335259454"><ele>123.0</ele><time>2026-04-25T07:39:38Z</time></trkpt><trkpt lat="45.54677293457455" lon="9.563329168021257"><ele>123.0</ele><time>2026-04-25T07:39:40Z</time></trkpt><trkpt lat="45.54681162679482" lon="9.5632300934657"><ele>123.33333333333333</ele><time>2026-04-25T07:39:42Z</time></trkpt><trkpt lat="45.546852106172935" lon="9.563131822286996"><ele>123.66666666666666</ele><time>2026-04-25T07:39:44Z</time></trkpt><trkpt lat="45.54689059090256" lon="9.563037735891536"><ele>124.0</ele><time>2026-04-25T07:39:46Z</time></trkpt><trkpt lat="45.54693243909363" lon="9.56294166051597"><ele>124.33333333333333</ele><time>2026-04-25T07:39:48Z</time></trkpt><trkpt lat="45.54697243200082" lon="9.56285137083953"><ele>124.66666666666666</ele><time>2026-04-25T07:39:50Z</time></trkpt><trkpt lat="45.54700858963751" lon="9.562762046727793"><ele>125.0</ele><time>2026-04-25T07:39:52Z</time></trkpt><trkpt lat="45.54704449855676" lon="9.56267226532779"><ele>125.33333333333333</ele><time>2026-04-25T07:39:54Z</time></trkpt><trkpt lat="45.547083630665554" lon="9.562582138401394"><ele>125.66666666666666</ele><time>2026-04-25T07:39:56Z</time></trkpt><trkpt lat="45.547122499069964" lon="9.562485426367628"><ele>126.0</ele><time>2026-04-25T07:39:58Z</time></trkpt><trkpt lat="45.54716474854249" lon="9.562385534732801"><ele>126.33333333333334</ele><time>2026-04-25T07:40:00Z</time></trkpt><trkpt lat="45.54720536935406" lon="9.562285782187448"><ele>126.66666666666667</ele><time>2026-04-25T07:40:02Z</time></trkpt><trkpt lat="45.54724591494234" lon="9.562193990991275"><ele>127.0</ele><time>2026-04-25T07:40:04Z</time></trkpt><trkpt lat="45.54728505126883" lon="9.56209731283315"><ele>126.83333333333334</ele><time>2026-04-25T07:40:06Z</time></trkpt><trkpt lat="45.54732400064685" lon="9.562002124701234"><ele>126.66666666666667</ele><time>2026-04-25T07:40:08Z</time></trkpt><trkpt lat="45.54736394299492" lon="9.561905138842567"><ele>126.5</ele><time>2026-04-25T07:40:10Z</time></trkpt><trkpt lat="45.5474025633373" lon="9.561809372705639"><ele>126.33333333333334</ele><time>2026-04-25T07:40:12Z</time></trkpt><trkpt lat="45.54744085829466" lon="9.561720907595918"><ele>126.16666666666667</ele><time>2026-04-25T07:40:14Z</time></trkpt><trkpt lat="45.54748048529561" lon="9.561629183788467"><ele>126.0</ele><time>2026-04-25T07:40:16Z</time></trkpt><trkpt lat="45.54752201831434" lon="9.561536094053984"><ele>126.0</ele><time>2026-04-25T07:40:18Z</time></trkpt><trkpt lat="45.54756244891379" lon="9.561441102388642"><ele>126.0</ele><time>2026-04-25T07:40:20Z</time></trkpt><trkpt lat="45.54760399282923" lon="9.561341720143309"><ele>126.0</ele><time>2026-04-25T07:40:22Z</time></trkpt><trkpt lat="45.54764918342602" lon="9.56123741492369"><ele>126.0</ele><time>2026-04-25T07:40:24Z</time></trkpt><trkpt lat="45.547690486044516" lon="9.561137715098754"><ele>126.0</ele><time>2026-04-25T07:40:26Z</time></trkpt><trkpt lat="45.54773407262157" lon="9.56103324527907"><ele>126.0</ele><time>2026-04-25T07:40:28Z</time></trkpt><trkpt lat="45.547774697016436" lon="9.56093843750488"><ele>126.0</ele><time>2026-04-25T07:40:30Z</time></trkpt><trkpt lat="45.54781575858026" lon="9.560843268997898"><ele>126.0</ele><time>2026-04-25T07:40:32Z</time></trkpt><trkpt lat="45.54785906891993" lon="9.5607428337901"><ele>126.0</ele><time>2026-04-25T07:40:34Z</time></trkpt><trkpt lat="45.547901526391044" lon="9.560638165890463"><ele>126.0</ele><time>2026-04-25T07:40:36Z</time></trkpt><trkpt lat="45.547945478363864" lon="9.560540201740698"><ele>126.0</ele><time>2026-04-25T07:40:38Z</time></trkpt><trkpt lat="45.54798335066775" lon="9.56043581677003"><ele>126.0</ele><time>2026-04-25T07:40:40Z</time></trkpt><trkpt lat="45.54803137571265" lon="9.560339029329718"><ele>126.0</ele><time>2026-04-25T07:40:42Z</time></trkpt><trkpt lat="45.54807272205632" lon="9.560237373648246"><ele>126.0</ele><time>2026-04-25T07:40:44Z</time></trkpt><trkpt lat="45.54812019053535" lon="9.560136639396125"><ele>126.0</ele><time>2026-04-25T07:40:46Z</time></trkpt><trkpt lat="45.5481620701872" lon="9.560030223234822"><ele>126.0</ele><time>2026-04-25T07:40:48Z</time></trkpt><trkpt lat="45.54820454236207" lon="9.559933526668464"><ele>126.0</ele><time>2026-04-25T07:40:50Z</time></trkpt><trkpt lat="45.548249240755055" lon="9.55982714099265"><ele>126.0</ele><time>2026-04-25T07:40:52Z</time></trkpt><trkpt lat="45.548292758032986" lon="9.559712951115417"><ele>126.0</ele><time>2026-04-25T07:40:54Z</time></trkpt><trkpt lat="45.548341698249665" lon="9.559609208296946"><ele>126.0</ele><time>2026-04-25T07:40:56Z</time></trkpt><trkpt lat="45.54838522179786" lon="9.559496481463226"><ele>126.0</ele><time>2026-04-25T07:40:58Z</time></trkpt><trkpt lat="45.54843168490938" lon="9.559391161462194"><ele>126.0</ele><time>2026-04-25T07:41:00Z</time></trkpt><trkpt lat="45.54847481429022" lon="9.55928743532278"><ele>126.0</ele><time>2026-04-25T07:41:02Z</time></trkpt><trkpt lat="45.54852100746178" lon="9.55918266995247"><ele>126.0</ele><time>2026-04-25T07:41:04Z</time></trkpt><trkpt lat="45.548564357645915" lon="9.55908010969012"><ele>125.83333333333333</ele><time>2026-04-25T07:41:06Z</time></trkpt><trkpt lat="45.54860670395069" lon="9.558974451969135"><ele>125.66666666666666</ele><time>2026-04-25T07:41:08Z</time></trkpt><trkpt lat="45.54864807942958" lon="9.558872898647117"><ele>125.5</ele><time>2026-04-25T07:41:10Z</time></trkpt><trkpt lat="45.548688171773506" lon="9.558763144704647"><ele>125.33333333333333</ele><time>2026-04-25T07:41:12Z</time></trkpt><trkpt lat="45.548727579332244" lon="9.558654945125262"><ele>125.16666666666666</ele><time>2026-04-25T07:41:14Z</time></trkpt><trkpt lat="45.54876934753823" lon="9.558552080131056"><ele>125.0</ele><time>2026-04-25T07:41:16Z</time></trkpt><trkpt lat="45.54880901750992" lon="9.558445141975179"><ele>124.99999999999999</ele><time>2026-04-25T07:41:18Z</time></trkpt><trkpt lat="45.54885579511085" lon="9.558349500715178"><ele>125.0</ele><time>2026-04-25T07:41:20Z</time></trkpt><trkpt lat="45.54890622010297" lon="9.558254464897523"><ele>125.0</ele><time>2026-04-25T07:41:22Z</time></trkpt><trkpt lat="45.5489422015097" lon="9.558161081445684"><ele>125.0</ele><time>2026-04-25T07:41:24Z</time></trkpt><trkpt lat="45.54900819705911" lon="9.55811428929505"><ele>124.99999999999999</ele><time>2026-04-25T07:41:27Z</time></trkpt><trkpt lat="45.549104298318625" lon="9.55810964430415"><ele>125.0</ele><time>2026-04-25T07:41:30Z</time></trkpt><trkpt lat="45.54918279416706" lon="9.558100685813516"><ele>124.99999999999999</ele><time>2026-04-25T07:41:32Z</time></trkpt><trkpt lat="45.54926163623572" lon="9.558097907902"><ele>125.0</ele><time>2026-04-25T07:41:34Z</time></trkpt><trkpt lat="45.549348184318646" lon="9.558093114867964"><ele>125.0</ele><time>2026-04-25T07:41:36Z</time></trkpt><trkpt lat="45.549434131780956" lon="9.55808897608443"><ele>125.0</ele><time>2026-04-25T07:41:38Z</time></trkpt><trkpt lat="45.54952083340112" lon="9.558081461583631"><ele>124.99999999999999</ele><time>2026-04-25T07:41:40Z</time></trkpt><trkpt lat="45.54960717899954" lon="9.558078611120104"><ele>125.0</ele><time>2026-04-25T07:41:42Z</time></trkpt><trkpt lat="45.54969057494468" lon="9.558073275466045"><ele>125.33333333333333</ele><time>2026-04-25T07:41:44Z</time></trkpt><trkpt lat="45.549778178469424" lon="9.558065759326396"><ele>125.66666666666666</ele><time>2026-04-25T07:41:46Z</time></trkpt><trkpt lat="45.54986790839456" lon="9.558061899268345"><ele>126.0</ele><time>2026-04-25T07:41:48Z</time></trkpt><trkpt lat="45.54995543667318" lon="9.558056104915067"><ele>126.33333333333334</ele><time>2026-04-25T07:41:50Z</time></trkpt><trkpt lat="45.55004046786568" lon="9.558048197773553"><ele>126.66666666666667</ele><time>2026-04-25T07:41:52Z</time></trkpt><trkpt lat="45.550126104147616" lon="9.558039805100632"><ele>127.0</ele><time>2026-04-25T07:41:54Z</time></trkpt><trkpt lat="45.55021445354221" lon="9.558043569126474"><ele>127.00000000000001</ele><time>2026-04-25T07:41:56Z</time></trkpt><trkpt lat="45.55030196008809" lon="9.55803515560032"><ele>127.0</ele><time>2026-04-25T07:41:58Z</time></trkpt><trkpt lat="45.55038964401086" lon="9.558033127786901"><ele>127.0</ele><time>2026-04-25T07:42:00Z</time></trkpt><trkpt lat="45.55047969794715" lon="9.558031145115976"><ele>127.0</ele><time>2026-04-25T07:42:02Z</time></trkpt><trkpt lat="45.55056898067673" lon="9.558022085282387"><ele>127.00000000000001</ele><time>2026-04-25T07:42:04Z</time></trkpt><trkpt lat="45.550658924283894" lon="9.55801382549139"><ele>127.0</ele><time>2026-04-25T07:42:06Z</time></trkpt><trkpt lat="45.55074906865799" lon="9.558012873278779"><ele>127.0</ele><time>2026-04-25T07:42:08Z</time></trkpt><trkpt lat="45.55084002195759" lon="9.55800780253989"><ele>126.99999999999999</ele><time>2026-04-25T07:42:10Z</time></trkpt><trkpt lat="45.550933296065885" lon="9.557997882022129"><ele>126.99999999999999</ele><time>2026-04-25T07:42:12Z</time></trkpt><trkpt lat="45.55102850903845" lon="9.557994752023738"><ele>127.0</ele><time>2026-04-25T07:42:14Z</time></trkpt><trkpt lat="45.55112314116376" lon="9.557988113670683"><ele>127.0</ele><time>2026-04-25T07:42:16Z</time></trkpt><trkpt lat="45.551217557354" lon="9.55797605996003"><ele>126.8</ele><time>2026-04-25T07:42:18Z</time></trkpt><trkpt lat="45.55131204524081" lon="9.557960519587782"><ele>126.6</ele><time>2026-04-25T07:42:20Z</time></trkpt><trkpt lat="45.55140629912602" lon="9.557939328351075"><ele>126.39999999999999</ele><time>2026-04-25T07:42:22Z</time></trkpt><trkpt lat="45.55150250235337" lon="9.557956956518048"><ele>126.19999999999999</ele><time>2026-04-25T07:42:24Z</time></trkpt><trkpt lat="45.55159761760209" lon="9.557963213177894"><ele>126.0</ele><time>2026-04-25T07:42:26Z</time></trkpt><trkpt lat="45.55169519356259" lon="9.557953085107425"><ele>126.0</ele><time>2026-04-25T07:42:28Z</time></trkpt><trkpt lat="45.55179490338192" lon="9.55794469306"><ele>126.0</ele><time>2026-04-25T07:42:30Z</time></trkpt><trkpt lat="45.55189196676998" lon="9.557942094128984"><ele>126.0</ele><time>2026-04-25T07:42:32Z</time></trkpt><trkpt lat="45.5519921331725" lon="9.557932428831334"><ele>126.0</ele><time>2026-04-25T07:42:34Z</time></trkpt><trkpt lat="45.55209688395472" lon="9.557928806364762"><ele>126.0</ele><time>2026-04-25T07:42:36Z</time></trkpt><trkpt lat="45.5522027413405" lon="9.557924207149059"><ele>126.19999999999999</ele><time>2026-04-25T07:42:38Z</time></trkpt><trkpt lat="45.55230944925706" lon="9.557915618324222"><ele>126.39999999999999</ele><time>2026-04-25T07:42:40Z</time></trkpt><trkpt lat="45.55241376376878" lon="9.557901336105626"><ele>126.6</ele><time>2026-04-25T07:42:42Z</time></trkpt><trkpt lat="45.552485186669884" lon="9.557800614942325"><ele>126.8</ele><time>2026-04-25T07:42:44Z</time></trkpt><trkpt lat="45.55250262909469" lon="9.557658314795002"><ele>127.0</ele><time>2026-04-25T07:42:46Z</time></trkpt><trkpt lat="45.55249972610413" lon="9.55752940273287"><ele>127.14285714285714</ele><time>2026-04-25T07:42:48Z</time></trkpt><trkpt lat="45.552491356138404" lon="9.55741616088068"><ele>127.28571428571428</ele><time>2026-04-25T07:42:50Z</time></trkpt><trkpt lat="45.552489253032014" lon="9.557315234035686"><ele>127.42857142857142</ele><time>2026-04-25T07:42:52Z</time></trkpt><trkpt lat="45.55250150309585" lon="9.557223595837002"><ele>127.57142857142857</ele><time>2026-04-25T07:42:54Z</time></trkpt><trkpt lat="45.55251570275827" lon="9.55712805756002"><ele>127.7142857142857</ele><time>2026-04-25T07:42:56Z</time></trkpt><trkpt lat="45.55253822839932" lon="9.557023208641509"><ele>127.85714285714285</ele><time>2026-04-25T07:42:58Z</time></trkpt><trkpt lat="45.55259380991318" lon="9.556935285199351"><ele>128.0</ele><time>2026-04-25T07:43:00Z</time></trkpt><trkpt lat="45.55267379279322" lon="9.556892465777185"><ele>128.16666666666666</ele><time>2026-04-25T07:43:02Z</time></trkpt><trkpt lat="45.55276066117707" lon="9.556876575823406"><ele>128.33333333333331</ele><time>2026-04-25T07:43:04Z</time></trkpt><trkpt lat="45.552844847121506" lon="9.556850342494064"><ele>128.5</ele><time>2026-04-25T07:43:06Z</time></trkpt><trkpt lat="45.5529279495437" lon="9.556828278117434"><ele>128.66666666666666</ele><time>2026-04-25T07:43:08Z</time></trkpt><trkpt lat="45.553009877250226" lon="9.556808346459539"><ele>128.83333333333334</ele><time>2026-04-25T07:43:10Z</time></trkpt><trkpt lat="45.55309532042029" lon="9.556775205820456"><ele>129.0</ele><time>2026-04-25T07:43:12Z</time></trkpt><trkpt lat="45.55318015441618" lon="9.5567396090735"><ele>128.66666666666666</ele><time>2026-04-25T07:43:14Z</time></trkpt><trkpt lat="45.55322477683346" lon="9.556637546681845"><ele>128.33333333333334</ele><time>2026-04-25T07:43:16Z</time></trkpt><trkpt lat="45.553212589861836" lon="9.55650915829769"><ele>128.0</ele><time>2026-04-25T07:43:18Z</time></trkpt><trkpt lat="45.553191846248865" lon="9.556388336290912"><ele>127.66666666666667</ele><time>2026-04-25T07:43:20Z</time></trkpt><trkpt lat="45.553175273876946" lon="9.55626903403606"><ele>127.33333333333334</ele><time>2026-04-25T07:43:22Z</time></trkpt><trkpt lat="45.55315974140396" lon="9.556151287050847"><ele>127.0</ele><time>2026-04-25T07:43:24Z</time></trkpt><trkpt lat="45.5531439388539" lon="9.556030537080005"><ele>126.83333333333334</ele><time>2026-04-25T07:43:26Z</time></trkpt><trkpt lat="45.553126285980284" lon="9.555906306967705"><ele>126.66666666666667</ele><time>2026-04-25T07:43:28Z</time></trkpt><trkpt lat="45.5531077843442" lon="9.555781927724903"><ele>126.5</ele><time>2026-04-25T07:43:30Z</time></trkpt><trkpt lat="45.55309143558807" lon="9.555656549660574"><ele>126.33333333333334</ele><time>2026-04-25T07:43:32Z</time></trkpt><trkpt lat="45.55307304472121" lon="9.555529598092763"><ele>126.16666666666667</ele><time>2026-04-25T07:43:34Z</time></trkpt><trkpt lat="45.55305591148214" lon="9.555401872791462"><ele>126.0</ele><time>2026-04-25T07:43:36Z</time></trkpt><trkpt lat="45.55303732026107" lon="9.555271522575152"><ele>125.8</ele><time>2026-04-25T07:43:38Z</time></trkpt><trkpt lat="45.55301906579688" lon="9.555141658713383"><ele>125.6</ele><time>2026-04-25T07:43:40Z</time></trkpt><trkpt lat="45.55299995915367" lon="9.555010112800732"><ele>125.4</ele><time>2026-04-25T07:43:42Z</time></trkpt><trkpt lat="45.55298083756265" lon="9.55488068642904"><ele>125.2</ele><time>2026-04-25T07:43:44Z</time></trkpt><trkpt lat="45.552961709361405" lon="9.554742135739657"><ele>125.0</ele><time>2026-04-25T07:43:46Z</time></trkpt><trkpt lat="45.55294356356616" lon="9.554605059555419"><ele>125.2</ele><time>2026-04-25T07:43:48Z</time></trkpt><trkpt lat="45.55292490448778" lon="9.554469300482708"><ele>125.4</ele><time>2026-04-25T07:43:50Z</time></trkpt><trkpt lat="45.55290600313234" lon="9.554331163857519"><ele>125.6</ele><time>2026-04-25T07:43:52Z</time></trkpt><trkpt lat="45.55288742030987" lon="9.554193934844886"><ele>125.8</ele><time>2026-04-25T07:43:54Z</time></trkpt><trkpt lat="45.55286822981781" lon="9.554060590584289"><ele>126.0</ele><time>2026-04-25T07:43:56Z</time></trkpt><trkpt lat="45.55285087466543" lon="9.55392740780742"><ele>126.0</ele><time>2026-04-25T07:43:58Z</time></trkpt><trkpt lat="45.55283653683615" lon="9.553789163896754"><ele>126.0</ele><time>2026-04-25T07:44:00Z</time></trkpt><trkpt lat="45.55281730335126" lon="9.553644847314336"><ele>126.0</ele><time>2026-04-25T07:44:02Z</time></trkpt><trkpt lat="45.5527956073203" lon="9.553496675255337"><ele>126.0</ele><time>2026-04-25T07:44:04Z</time></trkpt><trkpt lat="45.55277480377643" lon="9.55334512925185"><ele>126.0</ele><time>2026-04-25T07:44:06Z</time></trkpt><trkpt lat="45.55275431540411" lon="9.55319528854057"><ele>126.19999999999999</ele><time>2026-04-25T07:44:08Z</time></trkpt><trkpt lat="45.5527312126966" lon="9.553050527518284"><ele>126.39999999999999</ele><time>2026-04-25T07:44:10Z</time></trkpt><trkpt lat="45.55271251006655" lon="9.552905800919119"><ele>126.6</ele><time>2026-04-25T07:44:12Z</time></trkpt><trkpt lat="45.55269196242264" lon="9.552764119109506"><ele>126.8</ele><time>2026-04-25T07:44:14Z</time></trkpt><trkpt lat="45.552674284652674" lon="9.55262501557711"><ele>127.0</ele><time>2026-04-25T07:44:16Z</time></trkpt><trkpt lat="45.55265357588659" lon="9.552487006745805"><ele>127.0</ele><time>2026-04-25T07:44:18Z</time></trkpt><trkpt lat="45.55263397342751" lon="9.552348172989449"><ele>126.99999999999999</ele><time>2026-04-25T07:44:20Z</time></trkpt><trkpt lat="45.552614034811796" lon="9.552207668750786"><ele>126.99999999999999</ele><time>2026-04-25T07:44:22Z</time></trkpt><trkpt lat="45.55259398461045" lon="9.552068758303449"><ele>127.0</ele><time>2026-04-25T07:44:24Z</time></trkpt><trkpt lat="45.55257353705847" lon="9.551930597208248"><ele>127.0</ele><time>2026-04-25T07:44:26Z</time></trkpt><trkpt lat="45.55255345709921" lon="9.55178925890204"><ele>127.19999999999999</ele><time>2026-04-25T07:44:28Z</time></trkpt><trkpt lat="45.55253268651756" lon="9.55164911336843"><ele>127.39999999999999</ele><time>2026-04-25T07:44:30Z</time></trkpt><trkpt lat="45.55251191967354" lon="9.551510774693163"><ele>127.60000000000001</ele><time>2026-04-25T07:44:32Z</time></trkpt><trkpt lat="45.55249069440572" lon="9.551374081251751"><ele>127.80000000000001</ele><time>2026-04-25T07:44:34Z</time></trkpt><trkpt lat="45.5524707381693" lon="9.551233303232909"><ele>128.0</ele><time>2026-04-25T07:44:36Z</time></trkpt><trkpt lat="45.55245025118073" lon="9.551090206555516"><ele>128.0</ele><time>2026-04-25T07:44:38Z</time></trkpt><trkpt lat="45.5524300577408" lon="9.550946330896519"><ele>128.0</ele><time>2026-04-25T07:44:40Z</time></trkpt><trkpt lat="45.552409502474546" lon="9.550806032768294"><ele>128.0</ele><time>2026-04-25T07:44:42Z</time></trkpt><trkpt lat="45.55239190882791" lon="9.550665268591617"><ele>128.0</ele><time>2026-04-25T07:44:44Z</time></trkpt><trkpt lat="45.55237280428539" lon="9.550523260095199"><ele>128.0</ele><time>2026-04-25T07:44:46Z</time></trkpt><trkpt lat="45.55235431150837" lon="9.550381503347353"><ele>128.0</ele><time>2026-04-25T07:44:48Z</time></trkpt><trkpt lat="45.5523338875941" lon="9.550243630304518"><ele>128.0</ele><time>2026-04-25T07:44:50Z</time></trkpt><trkpt lat="45.55231332491898" lon="9.550104207250952"><ele>128.0</ele><time>2026-04-25T07:44:52Z</time></trkpt><trkpt lat="45.55229418762903" lon="9.549963837364837"><ele>128.0</ele><time>2026-04-25T07:44:54Z</time></trkpt><trkpt lat="45.55227550718456" lon="9.549832455881148"><ele>128.0</ele><time>2026-04-25T07:44:56Z</time></trkpt><trkpt lat="45.55225777123325" lon="9.549705500421956"><ele>127.99999999999999</ele><time>2026-04-25T07:44:58Z</time></trkpt><trkpt lat="45.552237929619196" lon="9.549580446686651"><ele>128.0</ele><time>2026-04-25T07:45:00Z</time></trkpt><trkpt lat="45.55222298714255" lon="9.54946009846155"><ele>128.0</ele><time>2026-04-25T07:45:02Z</time></trkpt><trkpt lat="45.55220898650004" lon="9.549336249418593"><ele>128.0</ele><time>2026-04-25T07:45:04Z</time></trkpt><trkpt lat="45.552193021714814" lon="9.549215066946756"><ele>127.99999999999999</ele><time>2026-04-25T07:45:06Z</time></trkpt><trkpt lat="45.552172957478106" lon="9.549094747995136"><ele>128.0</ele><time>2026-04-25T07:45:08Z</time></trkpt><trkpt lat="45.552157337664255" lon="9.548970650533153"><ele>127.80000000000001</ele><time>2026-04-25T07:45:10Z</time></trkpt><trkpt lat="45.552141586146874" lon="9.548842612002753"><ele>127.60000000000001</ele><time>2026-04-25T07:45:12Z</time></trkpt><trkpt lat="45.55212307717626" lon="9.54871400038665"><ele>127.39999999999999</ele><time>2026-04-25T07:45:14Z</time></trkpt><trkpt lat="45.55211063825901" lon="9.548577118038631"><ele>127.19999999999999</ele><time>2026-04-25T07:45:16Z</time></trkpt><trkpt lat="45.552098783014145" lon="9.548437148817417"><ele>127.0</ele><time>2026-04-25T07:45:18Z</time></trkpt><trkpt lat="45.552098991447636" lon="9.548292991580585"><ele>127.0</ele><time>2026-04-25T07:45:20Z</time></trkpt><trkpt lat="45.55210011442282" lon="9.54815253208755"><ele>126.99999999999999</ele><time>2026-04-25T07:45:22Z</time></trkpt><trkpt lat="45.55211346545908" lon="9.548013982949684"><ele>126.99999999999999</ele><time>2026-04-25T07:45:24Z</time></trkpt><trkpt lat="45.55212656845963" lon="9.547882535143621"><ele>127.0</ele><time>2026-04-25T07:45:26Z</time></trkpt><trkpt lat="45.552141055521275" lon="9.547762706568413"><ele>127.0</ele><time>2026-04-25T07:45:28Z</time></trkpt><trkpt lat="45.5521616408831" lon="9.547659266500709"><ele>126.85714285714286</ele><time>2026-04-25T07:45:30Z</time></trkpt><trkpt lat="45.5521833484006" lon="9.54756233119951"><ele>126.71428571428571</ele><time>2026-04-25T07:45:32Z</time></trkpt><trkpt lat="45.552195997618696" lon="9.547467682008099"><ele>126.57142857142857</ele><time>2026-04-25T07:45:34Z</time></trkpt><trkpt lat="45.552226570965026" lon="9.547388152467295"><ele>126.42857142857143</ele><time>2026-04-25T07:45:36Z</time></trkpt><trkpt lat="45.55224546565451" lon="9.547296980455004"><ele>126.28571428571428</ele><time>2026-04-25T07:45:38Z</time></trkpt><trkpt lat="45.552275459909865" lon="9.547214125438384"><ele>126.14285714285714</ele><time>2026-04-25T07:45:40Z</time></trkpt><trkpt lat="45.55231119348863" lon="9.547120777189843"><ele>126.0</ele><time>2026-04-25T07:45:43Z</time></trkpt><trkpt lat="45.55235082840292" lon="9.547041793273223"><ele>126.33333333333333</ele><time>2026-04-25T07:45:46Z</time></trkpt><trkpt lat="45.55240818596818" lon="9.546958766844172"><ele>126.66666666666666</ele><time>2026-04-25T07:45:50Z</time></trkpt><trkpt lat="45.552498570298255" lon="9.546926520888256"><ele>127.0</ele><time>2026-04-25T07:45:53Z</time></trkpt><trkpt lat="45.552563458297804" lon="9.546884481649641"><ele>127.33333333333333</ele><time>2026-04-25T07:45:55Z</time></trkpt><trkpt lat="45.5526347521463" lon="9.546846721968874"><ele>127.66666666666666</ele><time>2026-04-25T07:45:57Z</time></trkpt><trkpt lat="45.55271230041896" lon="9.546810049392246"><ele>128.0</ele><time>2026-04-25T07:45:59Z</time></trkpt><trkpt lat="45.55278847305774" lon="9.546770439575845"><ele>127.99999999999999</ele><time>2026-04-25T07:46:01Z</time></trkpt><trkpt lat="45.55287200336982" lon="9.546741175963584"><ele>128.0</ele><time>2026-04-25T07:46:03Z</time></trkpt><trkpt lat="45.55295321417944" lon="9.546716581394731"><ele>128.0</ele><time>2026-04-25T07:46:05Z</time></trkpt><trkpt lat="45.553036146773735" lon="9.546700083482133"><ele>128.0</ele><time>2026-04-25T07:46:07Z</time></trkpt><trkpt lat="45.55312076184024" lon="9.546682461710366"><ele>127.99999999999999</ele><time>2026-04-25T07:46:09Z</time></trkpt><trkpt lat="45.55321025590529" lon="9.546668522382495"><ele>128.0</ele><time>2026-04-25T07:46:11Z</time></trkpt><trkpt lat="45.55330028778671" lon="9.546656249984984"><ele>128.20000000000002</ele><time>2026-04-25T07:46:13Z</time></trkpt><trkpt lat="45.55339132273197" lon="9.546634240761628"><ele>128.4</ele><time>2026-04-25T07:46:15Z</time></trkpt><trkpt lat="45.55348138913743" lon="9.546596245706757"><ele>128.60000000000002</ele><time>2026-04-25T07:46:17Z</time></trkpt><trkpt lat="45.55356492697947" lon="9.54653291189519"><ele>128.8</ele><time>2026-04-25T07:46:19Z</time></trkpt><trkpt lat="45.55362569717043" lon="9.5464090118331"><ele>129.0</ele><time>2026-04-25T07:46:21Z</time></trkpt><trkpt lat="45.55364678692891" lon="9.546261480385585"><ele>128.6</ele><time>2026-04-25T07:46:23Z</time></trkpt><trkpt lat="45.55363341654647" lon="9.546112189457656"><ele>128.2</ele><time>2026-04-25T07:46:25Z</time></trkpt><trkpt lat="45.553622863534535" lon="9.545967861104963"><ele>127.79999999999998</ele><time>2026-04-25T07:46:27Z</time></trkpt><trkpt lat="45.55361526760446" lon="9.545820795181681"><ele>127.39999999999999</ele><time>2026-04-25T07:46:29Z</time></trkpt><trkpt lat="45.55360283311242" lon="9.545674623295998"><ele>127.0</ele><time>2026-04-25T07:46:31Z</time></trkpt><trkpt lat="45.55358790742189" lon="9.545529247662584"><ele>127.0</ele><time>2026-04-25T07:46:33Z</time></trkpt><trkpt lat="45.55358167343138" lon="9.54538753972492"><ele>126.99999999999999</ele><time>2026-04-25T07:46:35Z</time></trkpt><trkpt lat="45.55357141922555" lon="9.545256579889436"><ele>126.99999999999999</ele><time>2026-04-25T07:46:37Z</time></trkpt><trkpt lat="45.55354479532312" lon="9.545121279042537"><ele>127.0</ele><time>2026-04-25T07:46:39Z</time></trkpt><trkpt lat="45.55351950542103" lon="9.544976278584711"><ele>127.0</ele><time>2026-04-25T07:46:41Z</time></trkpt><trkpt lat="45.55349167733348" lon="9.544832985556058"><ele>127.39999999999999</ele><time>2026-04-25T07:46:43Z</time></trkpt><trkpt lat="45.5534587748093" lon="9.544695896366136"><ele>127.79999999999998</ele><time>2026-04-25T07:46:45Z</time></trkpt><trkpt lat="45.553424978304946" lon="9.544551622706448"><ele>128.2</ele><time>2026-04-25T07:46:47Z</time></trkpt><trkpt lat="45.55338897570515" lon="9.544407564376781"><ele>128.6</ele><time>2026-04-25T07:46:49Z</time></trkpt><trkpt lat="45.5533508963684" lon="9.544267201434378"><ele>129.0</ele><time>2026-04-25T07:46:51Z</time></trkpt><trkpt lat="45.55331224331757" lon="9.544126753264624"><ele>129.2</ele><time>2026-04-25T07:46:53Z</time></trkpt><trkpt lat="45.55327029941014" lon="9.543981919642444"><ele>129.4</ele><time>2026-04-25T07:46:55Z</time></trkpt><trkpt lat="45.55323585029584" lon="9.543840229066928"><ele>129.6</ele><time>2026-04-25T07:46:57Z</time></trkpt><trkpt lat="45.553202319569515" lon="9.54369024414444"><ele>129.8</ele><time>2026-04-25T07:46:59Z</time></trkpt><trkpt lat="45.553168662464365" lon="9.54354541303905"><ele>130.0</ele><time>2026-04-25T07:47:01Z</time></trkpt><trkpt lat="45.553136841621004" lon="9.543403324379168"><ele>130.0</ele><time>2026-04-25T07:47:03Z</time></trkpt><trkpt lat="45.55310640592753" lon="9.54325879417198"><ele>130.0</ele><time>2026-04-25T07:47:05Z</time></trkpt><trkpt lat="45.553087564634794" lon="9.543123968447635"><ele>130.0</ele><time>2026-04-25T07:47:07Z</time></trkpt><trkpt lat="45.55309087579022" lon="9.542989036561705"><ele>130.0</ele><time>2026-04-25T07:47:09Z</time></trkpt><trkpt lat="45.55307964184897" lon="9.54284918032945"><ele>130.0</ele><time>2026-04-25T07:47:11Z</time></trkpt><trkpt lat="45.55307989886388" lon="9.542718722709028"><ele>130.0</ele><time>2026-04-25T07:47:13Z</time></trkpt><trkpt lat="45.553067648125364" lon="9.542575894044644"><ele>130.0</ele><time>2026-04-25T07:47:15Z</time></trkpt><trkpt lat="45.55307114347984" lon="9.542421514077692"><ele>130.0</ele><time>2026-04-25T07:47:17Z</time></trkpt><trkpt lat="45.55307343669126" lon="9.542276661476494"><ele>130.0</ele><time>2026-04-25T07:47:19Z</time></trkpt><trkpt lat="45.55307242582517" lon="9.542133617199811"><ele>130.0</ele><time>2026-04-25T07:47:21Z</time></trkpt><trkpt lat="45.553066359950414" lon="9.541987374066814"><ele>130.0</ele><time>2026-04-25T07:47:23Z</time></trkpt><trkpt lat="45.55306044429312" lon="9.541841200672048"><ele>130.0</ele><time>2026-04-25T07:47:25Z</time></trkpt><trkpt lat="45.55305761638208" lon="9.541689703437068"><ele>130.0</ele><time>2026-04-25T07:47:27Z</time></trkpt><trkpt lat="45.5530652278498" lon="9.541535407761893"><ele>130.0</ele><time>2026-04-25T07:47:29Z</time></trkpt><trkpt lat="45.553079006713055" lon="9.541379054992339"><ele>130.0</ele><time>2026-04-25T07:47:31Z</time></trkpt><trkpt lat="45.553089297934704" lon="9.541224719052073"><ele>130.0</ele><time>2026-04-25T07:47:33Z</time></trkpt><trkpt lat="45.55309895216641" lon="9.541063650131939"><ele>130.0</ele><time>2026-04-25T07:47:35Z</time></trkpt><trkpt lat="45.55311209439167" lon="9.540908709652765"><ele>130.0</ele><time>2026-04-25T07:47:37Z</time></trkpt><trkpt lat="45.55313186616648" lon="9.540762026161541"><ele>130.0</ele><time>2026-04-25T07:47:39Z</time></trkpt><trkpt lat="45.55314317765886" lon="9.540604501246168"><ele>130.0</ele><time>2026-04-25T07:47:41Z</time></trkpt><trkpt lat="45.55315700661802" lon="9.54045585716152"><ele>130.4</ele><time>2026-04-25T07:47:43Z</time></trkpt><trkpt lat="45.553217289863596" lon="9.54031230090576"><ele>130.8</ele><time>2026-04-25T07:47:45Z</time></trkpt><trkpt lat="45.553304998042265" lon="9.54021877227652"><ele>131.2</ele><time>2026-04-25T07:47:47Z</time></trkpt><trkpt lat="45.553409122254486" lon="9.540182957574393"><ele>131.6</ele><time>2026-04-25T07:47:49Z</time></trkpt><trkpt lat="45.55351507407834" lon="9.54018967249209"><ele>132.0</ele><time>2026-04-25T07:47:51Z</time></trkpt><trkpt lat="45.553615975431086" lon="9.540187447814743"><ele>132.2</ele><time>2026-04-25T07:47:53Z</time></trkpt><trkpt lat="45.55372149772223" lon="9.540184944883263"><ele>132.39999999999998</ele><time>2026-04-25T07:47:55Z</time></trkpt><trkpt lat="45.553837077886016" lon="9.540187359807314"><ele>132.60000000000002</ele><time>2026-04-25T07:47:57Z</time></trkpt><trkpt lat="45.553946362871706" lon="9.540185076861327"><ele>132.8</ele><time>2026-04-25T07:47:59Z</time></trkpt><trkpt lat="45.554049249026235" lon="9.540163830037145"><ele>133.0</ele><time>2026-04-25T07:48:01Z</time></trkpt><trkpt lat="45.55415753537467" lon="9.540135961872373"><ele>133.0</ele><time>2026-04-25T07:48:03Z</time></trkpt><trkpt lat="45.55426324816036" lon="9.54011225129382"><ele>133.0</ele><time>2026-04-25T07:48:05Z</time></trkpt><trkpt lat="45.55436936858342" lon="9.540082045635636"><ele>133.0</ele><time>2026-04-25T07:48:07Z</time></trkpt><trkpt lat="45.55447893994935" lon="9.540055238067275"><ele>133.0</ele><time>2026-04-25T07:48:09Z</time></trkpt><trkpt lat="45.55458773938371" lon="9.540029446211493"><ele>133.0</ele><time>2026-04-25T07:48:11Z</time></trkpt><trkpt lat="45.55469302087913" lon="9.540009183516352"><ele>132.8</ele><time>2026-04-25T07:48:13Z</time></trkpt><trkpt lat="45.55480029633895" lon="9.539980519206287"><ele>132.60000000000002</ele><time>2026-04-25T07:48:15Z</time></trkpt><trkpt lat="45.55490677972007" lon="9.539958527989185"><ele>132.39999999999998</ele><time>2026-04-25T07:48:17Z</time></trkpt><trkpt lat="45.55500301299533" lon="9.53992636406329"><ele>132.2</ele><time>2026-04-25T07:48:19Z</time></trkpt><trkpt lat="45.55510600120141" lon="9.53991127703272"><ele>132.0</ele><time>2026-04-25T07:48:21Z</time></trkpt><trkpt lat="45.555208317671664" lon="9.539885894971468"><ele>132.0</ele><time>2026-04-25T07:48:23Z</time></trkpt><trkpt lat="45.555309034589634" lon="9.539863476925577"><ele>132.0</ele><time>2026-04-25T07:48:25Z</time></trkpt><trkpt lat="45.555412486451495" lon="9.539836912437401"><ele>132.0</ele><time>2026-04-25T07:48:27Z</time></trkpt><trkpt lat="45.55551910001807" lon="9.53980026223701"><ele>132.0</ele><time>2026-04-25T07:48:29Z</time></trkpt><trkpt lat="45.555628600848806" lon="9.539769616519079"><ele>132.0</ele><time>2026-04-25T07:48:31Z</time></trkpt><trkpt lat="45.55573759145144" lon="9.53974373156779"><ele>131.79999999999998</ele><time>2026-04-25T07:48:33Z</time></trkpt><trkpt lat="45.55584379006938" lon="9.539717158086251"><ele>131.6</ele><time>2026-04-25T07:48:35Z</time></trkpt><trkpt lat="45.55594604637199" lon="9.53969615752495"><ele>131.39999999999998</ele><time>2026-04-25T07:48:37Z</time></trkpt><trkpt lat="45.55604975320149" lon="9.539664699345503"><ele>131.2</ele><time>2026-04-25T07:48:39Z</time></trkpt><trkpt lat="45.556153306260555" lon="9.539642699458497"><ele>131.0</ele><time>2026-04-25T07:48:41Z</time></trkpt><trkpt lat="45.5562561386492" lon="9.539612680602707"><ele>131.0</ele><time>2026-04-25T07:48:43Z</time></trkpt><trkpt lat="45.55635362912209" lon="9.539593569389169"><ele>131.0</ele><time>2026-04-25T07:48:45Z</time></trkpt><trkpt lat="45.556450219225226" lon="9.539566316236012"><ele>131.0</ele><time>2026-04-25T07:48:47Z</time></trkpt><trkpt lat="45.55655917629242" lon="9.539540172974046"><ele>131.0</ele><time>2026-04-25T07:48:49Z</time></trkpt><trkpt lat="45.55666648248225" lon="9.539509897954511"><ele>131.0</ele><time>2026-04-25T07:48:51Z</time></trkpt><trkpt lat="45.5567763294751" lon="9.53948636438252"><ele>130.8</ele><time>2026-04-25T07:48:53Z</time></trkpt><trkpt lat="45.5568823461131" lon="9.539460059800598"><ele>130.6</ele><time>2026-04-25T07:48:55Z</time></trkpt><trkpt lat="45.55698992095863" lon="9.539428383661917"><ele>130.4</ele><time>2026-04-25T07:48:57Z</time></trkpt><trkpt lat="45.55709779587521" lon="9.539401919388377"><ele>130.2</ele><time>2026-04-25T07:48:59Z</time></trkpt><trkpt lat="45.55719506548728" lon="9.539376113549297"><ele>130.0</ele><time>2026-04-25T07:49:01Z</time></trkpt><trkpt lat="45.55729301735194" lon="9.53934103998129"><ele>130.4</ele><time>2026-04-25T07:49:03Z</time></trkpt><trkpt lat="45.55738257515467" lon="9.539299964690859"><ele>130.8</ele><time>2026-04-25T07:49:05Z</time></trkpt><trkpt lat="45.55747099627825" lon="9.539258841156057"><ele>131.2</ele><time>2026-04-25T07:49:07Z</time></trkpt><trkpt lat="45.55755274358849" lon="9.539312528344153"><ele>131.6</ele><time>2026-04-25T07:49:09Z</time></trkpt><trkpt lat="45.557635854677294" lon="9.539398233127521"><ele>132.0</ele><time>2026-04-25T07:49:11Z</time></trkpt><trkpt lat="45.557720777284466" lon="9.539464700539362"><ele>132.0</ele><time>2026-04-25T07:49:13Z</time></trkpt><trkpt lat="45.5578125968877" lon="9.53952158903094"><ele>132.0</ele><time>2026-04-25T07:49:15Z</time></trkpt><trkpt lat="45.557906121607836" lon="9.539576600505551"><ele>132.0</ele><time>2026-04-25T07:49:17Z</time></trkpt><trkpt lat="45.55800464420063" lon="9.539620241188755"><ele>132.0</ele><time>2026-04-25T07:49:19Z</time></trkpt><trkpt lat="45.55809796598585" lon="9.539662097567964"><ele>132.0</ele><time>2026-04-25T07:49:21Z</time></trkpt><trkpt lat="45.55817891002214" lon="9.539691091074994"><ele>132.0</ele><time>2026-04-25T07:49:23Z</time></trkpt><trkpt lat="45.55824916315541" lon="9.53971518919326"><ele>132.0</ele><time>2026-04-25T07:49:25Z</time></trkpt><trkpt lat="45.55831429664799" lon="9.53970258210548"><ele>132.0</ele><time>2026-04-25T07:49:28Z</time></trkpt><trkpt lat="45.558236756724355" lon="9.539666991814897"><ele>132.0</ele><time>2026-04-25T07:49:32Z</time></trkpt><trkpt lat="45.55817157400954" lon="9.539657828267892"><ele>132.0</ele><time>2026-04-25T07:49:34Z</time></trkpt><trkpt lat="45.55810361861476" lon="9.539618281439921"><ele>132.0</ele><time>2026-04-25T07:49:36Z</time></trkpt><trkpt lat="45.558028957634654" lon="9.539590008693093"><ele>132.0</ele><time>2026-04-25T07:49:38Z</time></trkpt><trkpt lat="45.5579535045441" lon="9.539548749192777"><ele>132.0</ele><time>2026-04-25T07:49:40Z</time></trkpt><trkpt lat="45.557879556170676" lon="9.539493782085476"><ele>132.0</ele><time>2026-04-25T07:49:42Z</time></trkpt><trkpt lat="45.55779825403174" lon="9.53944357443884"><ele>132.0</ele><time>2026-04-25T07:49:44Z</time></trkpt><trkpt lat="45.5577117661342" lon="9.539394657102598"><ele>132.0</ele><time>2026-04-25T07:49:46Z</time></trkpt><trkpt lat="45.55762745175469" lon="9.539328673873724"><ele>132.0</ele><time>2026-04-25T07:49:48Z</time></trkpt><trkpt lat="45.55755149687005" lon="9.539246722058476"><ele>132.0</ele><time>2026-04-25T07:49:50Z</time></trkpt><trkpt lat="45.557481945441594" lon="9.539144267288105"><ele>132.0</ele><time>2026-04-25T07:49:52Z</time></trkpt><trkpt lat="45.557432690742615" lon="9.539057081809196"><ele>132.0</ele><time>2026-04-25T07:49:53Z</time></trkpt><trkpt lat="45.55738452325645" lon="9.538922741509856"><ele>132.0</ele><time>2026-04-25T07:49:55Z</time></trkpt><trkpt lat="45.55733452419598" lon="9.538797397996433"><ele>132.0</ele><time>2026-04-25T07:49:57Z</time></trkpt><trkpt lat="45.557291524545185" lon="9.538668288937812"><ele>132.0</ele><time>2026-04-25T07:49:59Z</time></trkpt><trkpt lat="45.557259687117686" lon="9.538531029661682"><ele>132.0</ele><time>2026-04-25T07:50:01Z</time></trkpt><trkpt lat="45.557279163444996" lon="9.538375264167518"><ele>132.0</ele><time>2026-04-25T07:50:03Z</time></trkpt><trkpt lat="45.55728857182458" lon="9.538222027843176"><ele>132.0</ele><time>2026-04-25T07:50:05Z</time></trkpt><trkpt lat="45.5572912868655" lon="9.538074740164777"><ele>132.0</ele><time>2026-04-25T07:50:07Z</time></trkpt><trkpt lat="45.55728827121723" lon="9.53792089017345"><ele>132.2</ele><time>2026-04-25T07:50:09Z</time></trkpt><trkpt lat="45.557298857750176" lon="9.537771822936598"><ele>132.39999999999998</ele><time>2026-04-25T07:50:11Z</time></trkpt><trkpt lat="45.5573055837643" lon="9.53762401836574"><ele>132.60000000000002</ele><time>2026-04-25T07:50:13Z</time></trkpt><trkpt lat="45.55730608040234" lon="9.537476983484673"><ele>132.8</ele><time>2026-04-25T07:50:15Z</time></trkpt><trkpt lat="45.55731029497781" lon="9.537329430046851"><ele>133.0</ele><time>2026-04-25T07:50:17Z</time></trkpt><trkpt lat="45.55731704977532" lon="9.537181348250906"><ele>133.20000000000002</ele><time>2026-04-25T07:50:19Z</time></trkpt><trkpt lat="45.55731405815741" lon="9.53702750106814"><ele>133.4</ele><time>2026-04-25T07:50:21Z</time></trkpt><trkpt lat="45.55731139412554" lon="9.536872774301557"><ele>133.60000000000002</ele><time>2026-04-25T07:50:23Z</time></trkpt><trkpt lat="45.55728238552055" lon="9.536722539173223"><ele>133.8</ele><time>2026-04-25T07:50:25Z</time></trkpt><trkpt lat="45.55724448074385" lon="9.536573995813496"><ele>134.0</ele><time>2026-04-25T07:50:27Z</time></trkpt><trkpt lat="45.55719572323443" lon="9.536431953059806"><ele>134.0</ele><time>2026-04-25T07:50:29Z</time></trkpt><trkpt lat="45.557155854522065" lon="9.536290318398262"><ele>134.0</ele><time>2026-04-25T07:50:31.001Z</time></trkpt><trkpt lat="45.55712008506746" lon="9.536145666570095"><ele>134.0</ele><time>2026-04-25T07:50:33.001Z</time></trkpt><trkpt lat="45.55708258645702" lon="9.53600223037197"><ele>134.0</ele><time>2026-04-25T07:50:35.001Z</time></trkpt><trkpt lat="45.557039008754344" lon="9.535859783267563"><ele>134.0</ele><time>2026-04-25T07:50:37.001Z</time></trkpt><trkpt lat="45.556991858326406" lon="9.535718055531802"><ele>133.5</ele><time>2026-04-25T07:50:39.001Z</time></trkpt><trkpt lat="45.556945781101795" lon="9.53557517617368"><ele>133.0</ele><time>2026-04-25T07:50:41.001Z</time></trkpt><trkpt lat="45.556901332121434" lon="9.535426586133012"><ele>132.5</ele><time>2026-04-25T07:50:43.001Z</time></trkpt><trkpt lat="45.556850546322934" lon="9.53527952437862"><ele>132.0</ele><time>2026-04-25T07:50:45.001Z</time></trkpt><trkpt lat="45.55680418479721" lon="9.535133560196858"><ele>131.83333333333334</ele><time>2026-04-25T07:50:47.001Z</time></trkpt><trkpt lat="45.55676238959184" lon="9.53499506715384"><ele>131.66666666666666</ele><time>2026-04-25T07:50:49.001Z</time></trkpt><trkpt lat="45.55671409693792" lon="9.534874144950097"><ele>131.5</ele><time>2026-04-25T07:50:51.001Z</time></trkpt><trkpt lat="45.556685674723" lon="9.534752645100921"><ele>131.33333333333331</ele><time>2026-04-25T07:50:53.001Z</time></trkpt><trkpt lat="45.55665326653934" lon="9.534646258591797"><ele>131.16666666666666</ele><time>2026-04-25T07:50:55.001Z</time></trkpt><trkpt lat="45.55662101396141" lon="9.534559550121989"><ele>131.0</ele><time>2026-04-25T07:50:57.001Z</time></trkpt><trkpt lat="45.55657615842268" lon="9.534471512693328"><ele>130.8</ele><time>2026-04-25T07:51:13.001Z</time></trkpt><trkpt lat="45.55649200020158" lon="9.534454978201142"><ele>130.6</ele><time>2026-04-25T07:51:15.001Z</time></trkpt><trkpt lat="45.55639361016313" lon="9.534474176464283"><ele>130.4</ele><time>2026-04-25T07:51:17.001Z</time></trkpt><trkpt lat="45.55629388597613" lon="9.534486641773183"><ele>130.2</ele><time>2026-04-25T07:51:19.001Z</time></trkpt><trkpt lat="45.55619659168237" lon="9.534501980226265"><ele>130.0</ele><time>2026-04-25T07:51:21.001Z</time></trkpt><trkpt lat="45.55609820134405" lon="9.534515615409177"><ele>130.2</ele><time>2026-04-25T07:51:23.001Z</time></trkpt><trkpt lat="45.55599461797722" lon="9.534531913636561"><ele>130.4</ele><time>2026-04-25T07:51:25.001Z</time></trkpt><trkpt lat="45.55589276854809" lon="9.534536703039816"><ele>130.6</ele><time>2026-04-25T07:51:27.001Z</time></trkpt><trkpt lat="45.555805679417006" lon="9.534543504692744"><ele>130.8</ele><time>2026-04-25T07:51:29.001Z</time></trkpt><trkpt lat="45.55571530378869" lon="9.53455673170526"><ele>131.0</ele><time>2026-04-25T07:51:31.001Z</time></trkpt><trkpt lat="45.555623660010454" lon="9.53456793564542"><ele>131.0</ele><time>2026-04-25T07:51:33.001Z</time></trkpt><trkpt lat="45.55552709174523" lon="9.534580920084007"><ele>131.0</ele><time>2026-04-25T07:51:35.001Z</time></trkpt><trkpt lat="45.55543442553382" lon="9.534586324800612"><ele>131.0</ele><time>2026-04-25T07:51:37.001Z</time></trkpt><trkpt lat="45.555337141910414" lon="9.534597885676263"><ele>131.0</ele><time>2026-04-25T07:51:39.001Z</time></trkpt><trkpt lat="45.55523678781101" lon="9.534606914228101"><ele>131.0</ele><time>2026-04-25T07:51:41.001Z</time></trkpt><trkpt lat="45.555127380833426" lon="9.534623797700787"><ele>130.8</ele><time>2026-04-25T07:51:43.001Z</time></trkpt><trkpt lat="45.55501635094445" lon="9.534636869760918"><ele>130.6</ele><time>2026-04-25T07:51:45.001Z</time></trkpt><trkpt lat="45.5549058617367" lon="9.534651556815229"><ele>130.4</ele><time>2026-04-25T07:51:47.001Z</time></trkpt><trkpt lat="45.554795191315876" lon="9.53466743148808"><ele>130.2</ele><time>2026-04-25T07:51:49.001Z</time></trkpt><trkpt lat="45.55468354755787" lon="9.534679326733682"><ele>130.0</ele><time>2026-04-25T07:51:51.001Z</time></trkpt><trkpt lat="45.55457280221391" lon="9.534702356789772"><ele>129.8</ele><time>2026-04-25T07:51:53.001Z</time></trkpt><trkpt lat="45.55446795009703" lon="9.534758820482773"><ele>129.6</ele><time>2026-04-25T07:51:55.001Z</time></trkpt><trkpt lat="45.55436794905559" lon="9.534829443151875"><ele>129.4</ele><time>2026-04-25T07:51:57.001Z</time></trkpt><trkpt lat="45.55427024833969" lon="9.534893315927148"><ele>129.2</ele><time>2026-04-25T07:51:59.001Z</time></trkpt><trkpt lat="45.55417278544799" lon="9.534904779790125"><ele>129.0</ele><time>2026-04-25T07:52:01.001Z</time></trkpt><trkpt lat="45.55408292923159" lon="9.534881403611534"><ele>129.0</ele><time>2026-04-25T07:52:03.001Z</time></trkpt><trkpt lat="45.55400428917956" lon="9.534824170138581"><ele>129.0</ele><time>2026-04-25T07:52:05.001Z</time></trkpt><trkpt lat="45.55392504918617" lon="9.534762468529456"><ele>129.0</ele><time>2026-04-25T07:52:07.001Z</time></trkpt><trkpt lat="45.55384052711004" lon="9.534697924829894"><ele>129.0</ele><time>2026-04-25T07:52:09.001Z</time></trkpt><trkpt lat="45.55376569786227" lon="9.534602284295838"><ele>129.0</ele><time>2026-04-25T07:52:11.001Z</time></trkpt><trkpt lat="45.553702172206336" lon="9.534484162900519"><ele>129.2</ele><time>2026-04-25T07:52:13.001Z</time></trkpt><trkpt lat="45.55364457630542" lon="9.534376515148562"><ele>129.4</ele><time>2026-04-25T07:52:15.001Z</time></trkpt><trkpt lat="45.553597969379034" lon="9.534269547538727"><ele>129.6</ele><time>2026-04-25T07:52:17.001Z</time></trkpt><trkpt lat="45.553591575444294" lon="9.534135631925928"><ele>129.8</ele><time>2026-04-25T07:52:19.001Z</time></trkpt><trkpt lat="45.55359546725882" lon="9.534009472413539"><ele>130.0</ele><time>2026-04-25T07:52:21.001Z</time></trkpt><trkpt lat="45.55359186618027" lon="9.53386525932207"><ele>130.0</ele><time>2026-04-25T07:52:23.001Z</time></trkpt><trkpt lat="45.55359369170788" lon="9.53371599349846"><ele>130.0</ele><time>2026-04-25T07:52:25.001Z</time></trkpt><trkpt lat="45.55359291209833" lon="9.533563214734778"><ele>130.0</ele><time>2026-04-25T07:52:27.001Z</time></trkpt><trkpt lat="45.55360021316991" lon="9.533411717652376"><ele>130.0</ele><time>2026-04-25T07:52:29Z</time></trkpt><trkpt lat="45.55360482960908" lon="9.533256469599628"><ele>130.0</ele><time>2026-04-25T07:52:31Z</time></trkpt><trkpt lat="45.55360539614826" lon="9.533103025930698"><ele>130.0</ele><time>2026-04-25T07:52:33Z</time></trkpt><trkpt lat="45.55360974823545" lon="9.532954881158654"><ele>130.0</ele><time>2026-04-25T07:52:35Z</time></trkpt><trkpt lat="45.55361464476751" lon="9.532805285514108"><ele>130.0</ele><time>2026-04-25T07:52:37Z</time></trkpt><trkpt lat="45.553611263654794" lon="9.532654812314028"><ele>130.0</ele><time>2026-04-25T07:52:39Z</time></trkpt><trkpt lat="45.55360462304547" lon="9.532503575461403"><ele>130.0</ele><time>2026-04-25T07:52:41Z</time></trkpt><trkpt lat="45.55360591438786" lon="9.53235373563921"><ele>130.0</ele><time>2026-04-25T07:52:43Z</time></trkpt><trkpt lat="45.55360289594439" lon="9.53221110081506"><ele>130.0</ele><time>2026-04-25T07:52:45Z</time></trkpt><trkpt lat="45.553585292026526" lon="9.532077214188629"><ele>130.0</ele><time>2026-04-25T07:52:47Z</time></trkpt><trkpt lat="45.5535432523493" lon="9.531950412192389"><ele>130.0</ele><time>2026-04-25T07:52:49Z</time></trkpt><trkpt lat="45.55348990506112" lon="9.531829000678705"><ele>130.0</ele><time>2026-04-25T07:52:51Z</time></trkpt><trkpt lat="45.553422909180526" lon="9.531734924408974"><ele>130.0</ele><time>2026-04-25T07:52:53Z</time></trkpt><trkpt lat="45.55333958917981" lon="9.531661594953404"><ele>130.0</ele><time>2026-04-25T07:52:55Z</time></trkpt><trkpt lat="45.55325039861757" lon="9.53159635381977"><ele>130.0</ele><time>2026-04-25T07:52:57Z</time></trkpt><trkpt lat="45.55316382987564" lon="9.531526831381179"><ele>130.0</ele><time>2026-04-25T07:52:59Z</time></trkpt><trkpt lat="45.553092756717035" lon="9.531442314212466"><ele>130.0</ele><time>2026-04-25T07:53:01Z</time></trkpt><trkpt lat="45.553044134281805" lon="9.531332889145343"><ele>130.0</ele><time>2026-04-25T07:53:03Z</time></trkpt><trkpt lat="45.552983198975554" lon="9.531222728437005"><ele>130.0</ele><time>2026-04-25T07:53:05Z</time></trkpt><trkpt lat="45.55292281923278" lon="9.53110966538613"><ele>130.0</ele><time>2026-04-25T07:53:07Z</time></trkpt><trkpt lat="45.55286207705776" lon="9.531004858438857"><ele>130.0</ele><time>2026-04-25T07:53:09Z</time></trkpt><trkpt lat="45.55280452924416" lon="9.530903619540995"><ele>130.0</ele><time>2026-04-25T07:53:11Z</time></trkpt><trkpt lat="45.55274705530105" lon="9.530819641654794"><ele>129.83333333333334</ele><time>2026-04-25T07:53:13Z</time></trkpt><trkpt lat="45.552699007861456" lon="9.530740533881296"><ele>129.66666666666669</ele><time>2026-04-25T07:53:15Z</time></trkpt><trkpt lat="45.55273758670036" lon="9.530625260749867"><ele>129.5</ele><time>2026-04-25T07:53:17Z</time></trkpt><trkpt lat="45.55277217059414" lon="9.530516871374058"><ele>129.33333333333334</ele><time>2026-04-25T07:53:19Z</time></trkpt><trkpt lat="45.5527883721105" lon="9.53039274738952"><ele>129.16666666666666</ele><time>2026-04-25T07:53:21Z</time></trkpt><trkpt lat="45.55281263059249" lon="9.530269897509784"><ele>129.0</ele><time>2026-04-25T07:53:23Z</time></trkpt><trkpt lat="45.55282777631359" lon="9.530145233022855"><ele>128.5</ele><time>2026-04-25T07:53:25Z</time></trkpt><trkpt lat="45.55276203702907" lon="9.530053454317695"><ele>128.0</ele><time>2026-04-25T07:53:27Z</time></trkpt><trkpt lat="45.55266749155302" lon="9.53004789358008"><ele>127.5</ele><time>2026-04-25T07:53:29Z</time></trkpt><trkpt lat="45.552596034800246" lon="9.53003003428198"><ele>127.0</ele><time>2026-04-25T07:53:31Z</time></trkpt><trkpt lat="45.55250505586259" lon="9.53000107596773"><ele>126.5</ele><time>2026-04-25T07:53:34Z</time></trkpt><trkpt lat="45.552441529214576" lon="9.529979717805716"><ele>126.0</ele><time>2026-04-25T07:53:36Z</time></trkpt><trkpt lat="45.55236877157326" lon="9.52996169714168"><ele>126.0</ele><time>2026-04-25T07:53:38Z</time></trkpt><trkpt lat="45.55229495213807" lon="9.529948261396479"><ele>126.0</ele><time>2026-04-25T07:53:40Z</time></trkpt><trkpt lat="45.55221257350477" lon="9.52990910329175"><ele>126.0</ele><time>2026-04-25T07:53:43Z</time></trkpt><trkpt lat="45.552256109902295" lon="9.529836061306602"><ele>126.0</ele><time>2026-04-25T07:53:50Z</time></trkpt><trkpt lat="45.55228502183831" lon="9.529746637455547"><ele>126.0</ele><time>2026-04-25T07:53:56Z</time></trkpt><trkpt lat="45.55231018593826" lon="9.529659709488847"><ele>126.0</ele><time>2026-04-25T07:54:02Z</time></trkpt><trkpt lat="45.55233719528533" lon="9.52957153616185"><ele>126.0</ele><time>2026-04-25T07:54:08Z</time></trkpt><trkpt lat="45.5523563445414" lon="9.529476424901578"><ele>125.57142857142857</ele><time>2026-04-25T07:54:29Z</time></trkpt><trkpt lat="45.55238852917109" lon="9.529391104101727"><ele>125.14285714285714</ele><time>2026-04-25T07:54:36Z</time></trkpt><trkpt lat="45.55241084102536" lon="9.529306767404343"><ele>124.71428571428572</ele><time>2026-04-25T07:54:45Z</time></trkpt><trkpt lat="45.552435495751965" lon="9.529218650529815"><ele>124.28571428571429</ele><time>2026-04-25T07:54:51Z</time></trkpt><trkpt lat="45.552460155025415" lon="9.529122827703999"><ele>123.85714285714286</ele><time>2026-04-25T07:54:58Z</time></trkpt><trkpt lat="45.552485060128035" lon="9.52903347082496"><ele>123.42857142857144</ele><time>2026-04-25T07:55:05Z</time></trkpt><trkpt lat="45.552515310344035" lon="9.528942890191974"><ele>123.00000000000001</ele><time>2026-04-25T07:55:11Z</time></trkpt><trkpt lat="45.552542127767424" lon="9.528850457774958"><ele>123.00000000000001</ele><time>2026-04-25T07:55:22Z</time></trkpt><trkpt lat="45.552567214759094" lon="9.528765300007526"><ele>123.0</ele><time>2026-04-25T07:55:28Z</time></trkpt><trkpt lat="45.55259603019788" lon="9.528669628673876"><ele>123.00000000000001</ele><time>2026-04-25T07:55:41Z</time></trkpt><trkpt lat="45.552621883748586" lon="9.52858198638549"><ele>123.00000000000001</ele><time>2026-04-25T07:55:49Z</time></trkpt><trkpt lat="45.55265118022119" lon="9.528488030680201"><ele>123.0</ele><time>2026-04-25T07:55:56Z</time></trkpt><trkpt lat="45.55267813950349" lon="9.528401664913568"><ele>123.00000000000001</ele><time>2026-04-25T07:56:02Z</time></trkpt><trkpt lat="45.552703734790775" lon="9.52830960170474"><ele>123.00000000000001</ele><time>2026-04-25T07:56:08Z</time></trkpt><trkpt lat="45.55272497596369" lon="9.528221911314953"><ele>122.85714285714288</ele><time>2026-04-25T07:56:14Z</time></trkpt><trkpt lat="45.55274997153094" lon="9.52813775538751"><ele>122.71428571428572</ele><time>2026-04-25T07:56:20Z</time></trkpt><trkpt lat="45.55277350722931" lon="9.528043404952419"><ele>122.57142857142857</ele><time>2026-04-25T07:56:27Z</time></trkpt><trkpt lat="45.552802117428904" lon="9.5279529391945"><ele>122.42857142857143</ele><time>2026-04-25T07:56:35Z</time></trkpt><trkpt lat="45.55282812613058" lon="9.52786045569211"><ele>122.28571428571428</ele><time>2026-04-25T07:56:42Z</time></trkpt><trkpt lat="45.55285457602354" lon="9.52776902193359"><ele>122.14285714285712</ele><time>2026-04-25T07:56:49Z</time></trkpt><trkpt lat="45.5528788268973" lon="9.527685545577377"><ele>121.99999999999999</ele><time>2026-04-25T07:56:55Z</time></trkpt><trkpt lat="45.55288005119281" lon="9.527588076218008"><ele>122.33333333333333</ele><time>2026-04-25T07:57:01Z</time></trkpt><trkpt lat="45.55287939331396" lon="9.527450517274007"><ele>122.66666666666666</ele><time>2026-04-25T07:57:04Z</time></trkpt><trkpt lat="45.552882661890536" lon="9.527328666425106"><ele>123.0</ele><time>2026-04-25T07:57:07Z</time></trkpt><trkpt lat="45.55286740015541" lon="9.527204643182962"><ele>123.33333333333334</ele><time>2026-04-25T07:57:10Z</time></trkpt><trkpt lat="45.552855479493175" lon="9.527093080918034"><ele>123.66666666666667</ele><time>2026-04-25T07:57:12Z</time></trkpt><trkpt lat="45.55285449977311" lon="9.526960748432618"><ele>124.0</ele><time>2026-04-25T07:57:15Z</time></trkpt><trkpt lat="45.552833228023616" lon="9.526869942345693"><ele>124.33333333333334</ele><time>2026-04-25T07:57:17Z</time></trkpt><trkpt lat="45.552811699348396" lon="9.526779877553043"><ele>124.66666666666667</ele><time>2026-04-25T07:57:19Z</time></trkpt><trkpt lat="45.552795219313545" lon="9.526672093030113"><ele>125.0</ele><time>2026-04-25T07:57:22Z</time></trkpt><trkpt lat="45.5527695769796" lon="9.526563685686202"><ele>125.33333333333334</ele><time>2026-04-25T07:57:25Z</time></trkpt><trkpt lat="45.55274040482893" lon="9.526445828837426"><ele>125.66666666666667</ele><time>2026-04-25T07:57:28Z</time></trkpt><trkpt lat="45.55273521692874" lon="9.526345963858486"><ele>126.0</ele><time>2026-04-25T07:57:30Z</time></trkpt><trkpt lat="45.55271473852573" lon="9.526237555240238"><ele>126.16666666666667</ele><time>2026-04-25T07:57:32Z</time></trkpt><trkpt lat="45.55268297627634" lon="9.526119757849706"><ele>126.33333333333334</ele><time>2026-04-25T07:57:34Z</time></trkpt><trkpt lat="45.552660494314026" lon="9.52601181256713"><ele>126.5</ele><time>2026-04-25T07:57:36Z</time></trkpt><trkpt lat="45.55261755681787" lon="9.52590424210943"><ele>126.66666666666667</ele><time>2026-04-25T07:57:38Z</time></trkpt><trkpt lat="45.55254500919912" lon="9.525841663353502"><ele>126.83333333333334</ele><time>2026-04-25T07:57:40Z</time></trkpt><trkpt lat="45.552468075451515" lon="9.525806144776245"><ele>127.0</ele><time>2026-04-25T07:57:42Z</time></trkpt><trkpt lat="45.552408446357205" lon="9.525764945432755"><ele>127.0</ele><time>2026-04-25T07:57:44Z</time></trkpt><trkpt lat="45.5523378621008" lon="9.525771311852928"><ele>126.99999999999999</ele><time>2026-04-25T07:57:46Z</time></trkpt><trkpt lat="45.55225562863154" lon="9.525771963286218"><ele>126.99999999999999</ele><time>2026-04-25T07:57:48Z</time></trkpt><trkpt lat="45.55216672266127" lon="9.52574783722315"><ele>127.0</ele><time>2026-04-25T07:57:50Z</time></trkpt><trkpt lat="45.55206475492411" lon="9.525767108627209"><ele>127.0</ele><time>2026-04-25T07:57:52Z</time></trkpt><trkpt lat="45.551958536376176" lon="9.525786420584602"><ele>126.8</ele><time>2026-04-25T07:57:54Z</time></trkpt><trkpt lat="45.551871227356216" lon="9.52577119390831"><ele>126.6</ele><time>2026-04-25T07:57:56Z</time></trkpt><trkpt lat="45.55178431928194" lon="9.525764085757148"><ele>126.39999999999999</ele><time>2026-04-25T07:57:58Z</time></trkpt><trkpt lat="45.551693688315225" lon="9.525771367948568"><ele>126.19999999999999</ele><time>2026-04-25T07:58:00Z</time></trkpt><trkpt lat="45.55159609303774" lon="9.525765413755739"><ele>126.0</ele><time>2026-04-25T07:58:02Z</time></trkpt><trkpt lat="45.551491707454446" lon="9.52578371235506"><ele>126.0</ele><time>2026-04-25T07:58:04Z</time></trkpt><trkpt lat="45.55139885390844" lon="9.525771836016858"><ele>126.0</ele><time>2026-04-25T07:58:06Z</time></trkpt><trkpt lat="45.551306661150356" lon="9.525736000131799"><ele>126.0</ele><time>2026-04-25T07:58:08Z</time></trkpt><trkpt lat="45.551224703749114" lon="9.525663994310326"><ele>126.0</ele><time>2026-04-25T07:58:10Z</time></trkpt><trkpt lat="45.55115184447824" lon="9.525570913206353"><ele>126.0</ele><time>2026-04-25T07:58:12Z</time></trkpt><trkpt lat="45.55107025525755" lon="9.525497682681884"><ele>126.16666666666667</ele><time>2026-04-25T07:58:14Z</time></trkpt><trkpt lat="45.55100397159142" lon="9.525406467340034"><ele>126.33333333333334</ele><time>2026-04-25T07:58:16Z</time></trkpt><trkpt lat="45.55093633683499" lon="9.525334231334257"><ele>126.5</ele><time>2026-04-25T07:58:18Z</time></trkpt><trkpt lat="45.550866642209286" lon="9.525265523943062"><ele>126.66666666666667</ele><time>2026-04-25T07:58:20Z</time></trkpt><trkpt lat="45.55080742960306" lon="9.525189221582796"><ele>126.83333333333334</ele><time>2026-04-25T07:58:22Z</time></trkpt><trkpt lat="45.55073144016862" lon="9.52509500356246"><ele>127.0</ele><time>2026-04-25T07:58:24Z</time></trkpt><trkpt lat="45.550657620290465" lon="9.525017340518108"><ele>127.0</ele><time>2026-04-25T07:58:26Z</time></trkpt><trkpt lat="45.550583995080686" lon="9.524930043605973"><ele>126.99999999999999</ele><time>2026-04-25T07:58:28Z</time></trkpt><trkpt lat="45.55050376526444" lon="9.524848221937294"><ele>126.99999999999999</ele><time>2026-04-25T07:58:30Z</time></trkpt><trkpt lat="45.55043230797684" lon="9.52477871472285"><ele>127.0</ele><time>2026-04-25T07:58:32Z</time></trkpt><trkpt lat="45.550353733213655" lon="9.524696422488306"><ele>127.0</ele><time>2026-04-25T07:58:34Z</time></trkpt><trkpt lat="45.55025664274952" lon="9.524627214005994"><ele>127.0</ele><time>2026-04-25T07:58:36Z</time></trkpt><trkpt lat="45.550167378722094" lon="9.524607907025697"><ele>126.99999999999999</ele><time>2026-04-25T07:58:38Z</time></trkpt><trkpt lat="45.55007177081236" lon="9.52461248304615"><ele>126.99999999999999</ele><time>2026-04-25T07:58:40Z</time></trkpt><trkpt lat="45.549978198829095" lon="9.524615484761052"><ele>127.0</ele><time>2026-04-25T07:58:42Z</time></trkpt><trkpt lat="45.549884166940345" lon="9.524617974990724"><ele>127.0</ele><time>2026-04-25T07:58:44Z</time></trkpt><trkpt lat="45.549787750420364" lon="9.52463779436187"><ele>127.00000000000001</ele><time>2026-04-25T07:58:46Z</time></trkpt><trkpt lat="45.54969882767202" lon="9.524642748388832"><ele>127.0</ele><time>2026-04-25T07:58:48Z</time></trkpt><trkpt lat="45.549605935427294" lon="9.524655243446468"><ele>127.0</ele><time>2026-04-25T07:58:50Z</time></trkpt><trkpt lat="45.54953299187601" lon="9.524660672023126"><ele>127.0</ele><time>2026-04-25T07:58:52Z</time></trkpt><trkpt lat="45.54944438756292" lon="9.524662598166476"><ele>127.00000000000001</ele><time>2026-04-25T07:58:54Z</time></trkpt><trkpt lat="45.54935255356517" lon="9.524684339451643"><ele>127.0</ele><time>2026-04-25T07:58:56Z</time></trkpt><trkpt lat="45.54927009533146" lon="9.52466985664253"><ele>127.0</ele><time>2026-04-25T07:58:58Z</time></trkpt><trkpt lat="45.549194794197675" lon="9.52467945608424"><ele>126.99999999999999</ele><time>2026-04-25T07:59:00Z</time></trkpt><trkpt lat="45.54910532606001" lon="9.524683766219901"><ele>126.99999999999999</ele><time>2026-04-25T07:59:02Z</time></trkpt><trkpt lat="45.54900170330706" lon="9.524695873715698"><ele>127.0</ele><time>2026-04-25T07:59:04Z</time></trkpt><trkpt lat="45.54891244717895" lon="9.524691778075544"><ele>127.0</ele><time>2026-04-25T07:59:06Z</time></trkpt><trkpt lat="45.548815472574994" lon="9.524692405001947"><ele>127.0</ele><time>2026-04-25T07:59:08Z</time></trkpt><trkpt lat="45.548722510135775" lon="9.524698018089108"><ele>126.99999999999999</ele><time>2026-04-25T07:59:10Z</time></trkpt><trkpt lat="45.54862509319041" lon="9.524712871505972"><ele>126.99999999999999</ele><time>2026-04-25T07:59:12Z</time></trkpt><trkpt lat="45.54854490211889" lon="9.524708297029903"><ele>127.0</ele><time>2026-04-25T07:59:14Z</time></trkpt><trkpt lat="45.54846860852899" lon="9.524704153077051"><ele>127.0</ele><time>2026-04-25T07:59:16Z</time></trkpt><trkpt lat="45.54835918904375" lon="9.524724167867555"><ele>127.50000000000001</ele><time>2026-04-25T07:59:18Z</time></trkpt><trkpt lat="45.54826572279587" lon="9.524749397491597"><ele>128.0</ele><time>2026-04-25T07:59:20Z</time></trkpt><trkpt lat="45.54817073201353" lon="9.524752853506762"><ele>128.5</ele><time>2026-04-25T07:59:22Z</time></trkpt><trkpt lat="45.548081782693785" lon="9.524749180023996"><ele>129.0</ele><time>2026-04-25T07:59:24Z</time></trkpt><trkpt lat="45.54799451273928" lon="9.52475201883441"><ele>129.5</ele><time>2026-04-25T07:59:26Z</time></trkpt><trkpt lat="45.54791403623168" lon="9.524755574525804"><ele>130.0</ele><time>2026-04-25T07:59:28Z</time></trkpt><trkpt lat="45.54784384350745" lon="9.524754935839868"><ele>130.0</ele><time>2026-04-25T07:59:30Z</time></trkpt><trkpt lat="45.547780860312535" lon="9.524722682975261"><ele>130.0</ele><time>2026-04-25T07:59:34Z</time></trkpt><trkpt lat="45.54785088104391" lon="9.524646472789517"><ele>130.0</ele><time>2026-04-25T07:59:38Z</time></trkpt><trkpt lat="45.547929260531866" lon="9.524654920490445"><ele>130.0</ele><time>2026-04-25T07:59:40Z</time></trkpt><trkpt lat="45.54800274415281" lon="9.524625138244643"><ele>130.0</ele><time>2026-04-25T07:59:43Z</time></trkpt><trkpt lat="45.54809526201721" lon="9.524583054844461"><ele>130.0</ele><time>2026-04-25T07:59:46Z</time></trkpt><trkpt lat="45.54816414674363" lon="9.524579354349896"><ele>131.85714285714286</ele><time>2026-04-25T07:59:48Z</time></trkpt><trkpt lat="45.548225284570485" lon="9.52455693700676"><ele>133.71428571428572</ele><time>2026-04-25T07:59:50Z</time></trkpt><trkpt lat="45.548293985334666" lon="9.524535305305067"><ele>135.57142857142856</ele><time>2026-04-25T07:59:52Z</time></trkpt><trkpt lat="45.54836235695298" lon="9.52451228451483"><ele>137.42857142857144</ele><time>2026-04-25T07:59:54Z</time></trkpt><trkpt lat="45.54844056908202" lon="9.524495783540475"><ele>139.28571428571428</ele><time>2026-04-25T07:59:56Z</time></trkpt><trkpt lat="45.54851570015438" lon="9.524471054040406"><ele>141.14285714285714</ele><time>2026-04-25T07:59:58Z</time></trkpt><trkpt lat="45.54859304963437" lon="9.52444627431819"><ele>143.0</ele><time>2026-04-25T08:00:00Z</time></trkpt><trkpt lat="45.548674377000964" lon="9.5244270954788"><ele>142.0</ele><time>2026-04-25T08:00:02Z</time></trkpt><trkpt lat="45.54875233101415" lon="9.524400927185127"><ele>141.0</ele><time>2026-04-25T08:00:04Z</time></trkpt><trkpt lat="45.548837009347686" lon="9.524388806866888"><ele>140.0</ele><time>2026-04-25T08:00:06Z</time></trkpt><trkpt lat="45.54892409263769" lon="9.524371520719619"><ele>139.0</ele><time>2026-04-25T08:00:08Z</time></trkpt><trkpt lat="45.54900950598303" lon="9.524354017309427"><ele>138.0</ele><time>2026-04-25T08:00:10Z</time></trkpt><trkpt lat="45.549097841893506" lon="9.52432837385254"><ele>137.0</ele><time>2026-04-25T08:00:12Z</time></trkpt><trkpt lat="45.54919490947572" lon="9.524310239188543"><ele>137.0</ele><time>2026-04-25T08:00:14Z</time></trkpt><trkpt lat="45.5492925174778" lon="9.52428734371943"><ele>137.0</ele><time>2026-04-25T08:00:16Z</time></trkpt><trkpt lat="45.54939708288181" lon="9.52426832962497"><ele>137.0</ele><time>2026-04-25T08:00:18Z</time></trkpt><trkpt lat="45.549502004449685" lon="9.524245541529842"><ele>137.0</ele><time>2026-04-25T08:00:20Z</time></trkpt><trkpt lat="45.54960555474006" lon="9.524225399252641"><ele>137.0</ele><time>2026-04-25T08:00:22Z</time></trkpt><trkpt lat="45.549711667021526" lon="9.524215503087387"><ele>136.6</ele><time>2026-04-25T08:00:24Z</time></trkpt><trkpt lat="45.54981611462545" lon="9.524201398554254"><ele>136.2</ele><time>2026-04-25T08:00:26Z</time></trkpt><trkpt lat="45.549922379753745" lon="9.524194162487534"><ele>135.8</ele><time>2026-04-25T08:00:28Z</time></trkpt><trkpt lat="45.550026694246746" lon="9.524194403860168"><ele>135.4</ele><time>2026-04-25T08:00:30Z</time></trkpt><trkpt lat="45.55013226703123" lon="9.524203325614621"><ele>135.0</ele><time>2026-04-25T08:00:32Z</time></trkpt><trkpt lat="45.55024091590876" lon="9.524209064596871"><ele>135.0</ele><time>2026-04-25T08:00:34Z</time></trkpt><trkpt lat="45.55034654730329" lon="9.524210647231385"><ele>135.0</ele><time>2026-04-25T08:00:36Z</time></trkpt><trkpt lat="45.55045275084482" lon="9.524215029022702"><ele>135.0</ele><time>2026-04-25T08:00:38Z</time></trkpt><trkpt lat="45.55056043923611" lon="9.524218686993086"><ele>135.0</ele><time>2026-04-25T08:00:40Z</time></trkpt><trkpt lat="45.55066729709782" lon="9.524225702468772"><ele>135.0</ele><time>2026-04-25T08:00:42Z</time></trkpt><trkpt lat="45.55077501384163" lon="9.524229558100746"><ele>135.2</ele><time>2026-04-25T08:00:44Z</time></trkpt><trkpt lat="45.550886122458714" lon="9.524222385874802"><ele>135.4</ele><time>2026-04-25T08:00:46Z</time></trkpt><trkpt lat="45.55099380725805" lon="9.524214869918183"><ele>135.6</ele><time>2026-04-25T08:00:48Z</time></trkpt><trkpt lat="45.55110298753153" lon="9.524212163405005"><ele>135.8</ele><time>2026-04-25T08:00:50Z</time></trkpt><trkpt lat="45.55120785529977" lon="9.52419323662101"><ele>136.0</ele><time>2026-04-25T08:00:52Z</time></trkpt><trkpt lat="45.55131795785645" lon="9.524180247123411"><ele>136.0</ele><time>2026-04-25T08:00:54Z</time></trkpt><trkpt lat="45.55142295708528" lon="9.524184817057224"><ele>136.0</ele><time>2026-04-25T08:00:56Z</time></trkpt><trkpt lat="45.55152665147232" lon="9.524190330695163"><ele>136.0</ele><time>2026-04-25T08:00:58Z</time></trkpt><trkpt lat="45.551633922982816" lon="9.524175541389084"><ele>136.0</ele><time>2026-04-25T08:01:00Z</time></trkpt><trkpt lat="45.5517374814783" lon="9.52415465484565"><ele>136.0</ele><time>2026-04-25T08:01:02Z</time></trkpt><trkpt lat="45.55183911454351" lon="9.52412156685471"><ele>136.0</ele><time>2026-04-25T08:01:04Z</time></trkpt><trkpt lat="45.551936941202214" lon="9.524079309846796"><ele>136.0</ele><time>2026-04-25T08:01:06Z</time></trkpt><trkpt lat="45.55203462654538" lon="9.524032245394801"><ele>136.0</ele><time>2026-04-25T08:01:08Z</time></trkpt><trkpt lat="45.55213737369434" lon="9.523984809312193"><ele>136.0</ele><time>2026-04-25T08:01:10Z</time></trkpt><trkpt lat="45.55223806116837" lon="9.523931498474605"><ele>136.0</ele><time>2026-04-25T08:01:12Z</time></trkpt><trkpt lat="45.55233967466528" lon="9.523874650885796"><ele>135.2</ele><time>2026-04-25T08:01:14Z</time></trkpt><trkpt lat="45.55244186480803" lon="9.523817149567563"><ele>134.39999999999998</ele><time>2026-04-25T08:01:16Z</time></trkpt><trkpt lat="45.552542081338764" lon="9.52374978293348"><ele>133.6</ele><time>2026-04-25T08:01:18Z</time></trkpt><trkpt lat="45.55263727786696" lon="9.523676433651357"><ele>132.79999999999998</ele><time>2026-04-25T08:01:20Z</time></trkpt><trkpt lat="45.552737055564684" lon="9.52360954496117"><ele>132.0</ele><time>2026-04-25T08:01:22Z</time></trkpt><trkpt lat="45.55283541825206" lon="9.523526307567355"><ele>132.4</ele><time>2026-04-25T08:01:24Z</time></trkpt><trkpt lat="45.5529322612821" lon="9.523452318695794"><ele>132.79999999999998</ele><time>2026-04-25T08:01:26Z</time></trkpt><trkpt lat="45.553025985797404" lon="9.52337723668507"><ele>133.2</ele><time>2026-04-25T08:01:28Z</time></trkpt><trkpt lat="45.55312355311311" lon="9.523304134713019"><ele>133.6</ele><time>2026-04-25T08:01:30Z</time></trkpt><trkpt lat="45.5532122586139" lon="9.523229548798547"><ele>134.0</ele><time>2026-04-25T08:01:32Z</time></trkpt><trkpt lat="45.55330800455666" lon="9.523164423765383"><ele>134.0</ele><time>2026-04-25T08:01:34Z</time></trkpt><trkpt lat="45.55340283531188" lon="9.523090059607457"><ele>134.0</ele><time>2026-04-25T08:01:36Z</time></trkpt><trkpt lat="45.55349613338595" lon="9.523016039722759"><ele>134.0</ele><time>2026-04-25T08:01:38Z</time></trkpt><trkpt lat="45.55359086761538" lon="9.522944497265396"><ele>134.0</ele><time>2026-04-25T08:01:40Z</time></trkpt><trkpt lat="45.553686786481286" lon="9.522870427063372"><ele>134.0</ele><time>2026-04-25T08:01:42Z</time></trkpt><trkpt lat="45.55378213320708" lon="9.522804330540003"><ele>134.6</ele><time>2026-04-25T08:01:44Z</time></trkpt><trkpt lat="45.5538789755106" lon="9.522730223547333"><ele>135.2</ele><time>2026-04-25T08:01:46Z</time></trkpt><trkpt lat="45.55397683073544" lon="9.52266161105125"><ele>135.79999999999998</ele><time>2026-04-25T08:01:48Z</time></trkpt><trkpt lat="45.554070392471296" lon="9.522587319904703"><ele>136.4</ele><time>2026-04-25T08:01:50Z</time></trkpt><trkpt lat="45.55416478143082" lon="9.522514483956371"><ele>137.0</ele><time>2026-04-25T08:01:52Z</time></trkpt><trkpt lat="45.55425604120061" lon="9.522435819651461"><ele>137.0</ele><time>2026-04-25T08:01:54Z</time></trkpt><trkpt lat="45.55435698630238" lon="9.522384283253864"><ele>137.0</ele><time>2026-04-25T08:01:56Z</time></trkpt><trkpt lat="45.554463041589166" lon="9.52233108960201"><ele>137.0</ele><time>2026-04-25T08:01:58Z</time></trkpt><trkpt lat="45.554569732502806" lon="9.522311977726472"><ele>137.0</ele><time>2026-04-25T08:02:00Z</time></trkpt><trkpt lat="45.55467895203605" lon="9.522287382554481"><ele>137.0</ele><time>2026-04-25T08:02:02Z</time></trkpt><trkpt lat="45.55478948484779" lon="9.52227028420913"><ele>136.4</ele><time>2026-04-25T08:02:04Z</time></trkpt><trkpt lat="45.55490055099258" lon="9.522249433768891"><ele>135.79999999999998</ele><time>2026-04-25T08:02:06Z</time></trkpt><trkpt lat="45.55501184434245" lon="9.522227602794466"><ele>135.2</ele><time>2026-04-25T08:02:08Z</time></trkpt><trkpt lat="45.55512096885332" lon="9.52221947404343"><ele>134.6</ele><time>2026-04-25T08:02:10Z</time></trkpt><trkpt lat="45.55522829975563" lon="9.52220574583767"><ele>134.0</ele><time>2026-04-25T08:02:12Z</time></trkpt><trkpt lat="45.555338608597545" lon="9.522194444805603"><ele>134.2</ele><time>2026-04-25T08:02:14Z</time></trkpt><trkpt lat="45.555448212821126" lon="9.522180879138327"><ele>134.4</ele><time>2026-04-25T08:02:16Z</time></trkpt><trkpt lat="45.55555415059344" lon="9.522170734022362"><ele>134.6</ele><time>2026-04-25T08:02:18Z</time></trkpt><trkpt lat="45.555661655306956" lon="9.522154500885701"><ele>134.8</ele><time>2026-04-25T08:02:20Z</time></trkpt><trkpt lat="45.55576848913252" lon="9.522133936463332"><ele>135.0</ele><time>2026-04-25T08:02:22Z</time></trkpt><trkpt lat="45.5558728001056" lon="9.522089593173808"><ele>135.2</ele><time>2026-04-25T08:02:24Z</time></trkpt><trkpt lat="45.555969630695984" lon="9.522033507321728"><ele>135.4</ele><time>2026-04-25T08:02:26Z</time></trkpt><trkpt lat="45.556039248573676" lon="9.52194289348293"><ele>135.6</ele><time>2026-04-25T08:02:28Z</time></trkpt><trkpt lat="45.556135040452396" lon="9.521862702813495"><ele>135.8</ele><time>2026-04-25T08:02:30Z</time></trkpt><trkpt lat="45.55622728844405" lon="9.521779409947781"><ele>136.0</ele><time>2026-04-25T08:02:32Z</time></trkpt><trkpt lat="45.55632330506304" lon="9.521703770260713"><ele>136.0</ele><time>2026-04-25T08:02:34Z</time></trkpt><trkpt lat="45.55641239887105" lon="9.52161960662303"><ele>136.0</ele><time>2026-04-25T08:02:36Z</time></trkpt><trkpt lat="45.556497899532445" lon="9.521530450396504"><ele>136.0</ele><time>2026-04-25T08:02:38Z</time></trkpt><trkpt lat="45.55657711844177" lon="9.521432598303019"><ele>136.0</ele><time>2026-04-25T08:02:40Z</time></trkpt><trkpt lat="45.556652305358206" lon="9.52132841318863"><ele>136.0</ele><time>2026-04-25T08:02:42Z</time></trkpt><trkpt lat="45.55671628009096" lon="9.52120887027487"><ele>137.2</ele><time>2026-04-25T08:02:44Z</time></trkpt><trkpt lat="45.556752546312595" lon="9.521113159804797"><ele>138.39999999999998</ele><time>2026-04-25T08:02:46Z</time></trkpt><trkpt lat="45.55683994604255" lon="9.5210035495111"><ele>139.6</ele><time>2026-04-25T08:02:48Z</time></trkpt><trkpt lat="45.55688394993955" lon="9.52093759696344"><ele>140.79999999999998</ele><time>2026-04-25T08:02:49Z</time></trkpt><trkpt lat="45.55694363499088" lon="9.520815084996148"><ele>142.0</ele><time>2026-04-25T08:02:51Z</time></trkpt><trkpt lat="45.557015011057196" lon="9.5206965606156"><ele>141.6</ele><time>2026-04-25T08:02:53Z</time></trkpt><trkpt lat="45.55708901873724" lon="9.52058395065259"><ele>141.2</ele><time>2026-04-25T08:02:55Z</time></trkpt><trkpt lat="45.55715931919721" lon="9.520475636885063"><ele>140.8</ele><time>2026-04-25T08:02:57Z</time></trkpt><trkpt lat="45.55723462532296" lon="9.5203710707638"><ele>140.4</ele><time>2026-04-25T08:02:59Z</time></trkpt><trkpt lat="45.55731755393941" lon="9.520275614030519"><ele>140.0</ele><time>2026-04-25T08:03:01Z</time></trkpt><trkpt lat="45.55740624885975" lon="9.520186273387791"><ele>140.0</ele><time>2026-04-25T08:03:03Z</time></trkpt><trkpt lat="45.55749825238439" lon="9.52009797459404"><ele>140.0</ele><time>2026-04-25T08:03:05Z</time></trkpt><trkpt lat="45.557569033433325" lon="9.519978863223152"><ele>140.0</ele><time>2026-04-25T08:03:07Z</time></trkpt><trkpt lat="45.55767357656113" lon="9.519916028909655"><ele>140.0</ele><time>2026-04-25T08:03:09Z</time></trkpt><trkpt lat="45.55778108214401" lon="9.519860772751045"><ele>140.0</ele><time>2026-04-25T08:03:11Z</time></trkpt><trkpt lat="45.55789242867519" lon="9.51982054573473"><ele>139.2</ele><time>2026-04-25T08:03:13Z</time></trkpt><trkpt lat="45.55800273228535" lon="9.519769578284164"><ele>138.4</ele><time>2026-04-25T08:03:15Z</time></trkpt><trkpt lat="45.558111083665075" lon="9.519734193822961"><ele>137.6</ele><time>2026-04-25T08:03:17Z</time></trkpt><trkpt lat="45.558217835909474" lon="9.519713173276505"><ele>136.8</ele><time>2026-04-25T08:03:19Z</time></trkpt><trkpt lat="45.55832931269222" lon="9.519695656810153"><ele>136.0</ele><time>2026-04-25T08:03:21Z</time></trkpt><trkpt lat="45.55843713230698" lon="9.519677608928673"><ele>136.0</ele><time>2026-04-25T08:03:23Z</time></trkpt><trkpt lat="45.55854211516169" lon="9.519664690227586"><ele>136.0</ele><time>2026-04-25T08:03:25Z</time></trkpt><trkpt lat="45.55865629055492" lon="9.519657842118194"><ele>136.0</ele><time>2026-04-25T08:03:27Z</time></trkpt><trkpt lat="45.55873948863602" lon="9.519637784182471"><ele>136.0</ele><time>2026-04-25T08:03:29Z</time></trkpt><trkpt lat="45.55885674361713" lon="9.519682945099417"><ele>136.0</ele><time>2026-04-25T08:03:31.001Z</time></trkpt><trkpt lat="45.55896831022349" lon="9.519715264579983"><ele>136.0</ele><time>2026-04-25T08:03:33.001Z</time></trkpt><trkpt lat="45.559075836334316" lon="9.51974930218045"><ele>136.0</ele><time>2026-04-25T08:03:35.001Z</time></trkpt><trkpt lat="45.55918334304931" lon="9.519796072799661"><ele>136.0</ele><time>2026-04-25T08:03:37Z</time></trkpt><trkpt lat="45.55929356779382" lon="9.519843014902905"><ele>136.0</ele><time>2026-04-25T08:03:39Z</time></trkpt><trkpt lat="45.55940029429944" lon="9.51989929193291"><ele>136.0</ele><time>2026-04-25T08:03:41Z</time></trkpt><trkpt lat="45.55950548743806" lon="9.519965894409037"><ele>136.0</ele><time>2026-04-25T08:03:43Z</time></trkpt><trkpt lat="45.55960814499757" lon="9.52002986074749"><ele>136.0</ele><time>2026-04-25T08:03:45Z</time></trkpt><trkpt lat="45.55971063084114" lon="9.520100195366"><ele>136.0</ele><time>2026-04-25T08:03:47Z</time></trkpt><trkpt lat="45.55981087589347" lon="9.520168727510399"><ele>135.2</ele><time>2026-04-25T08:03:49Z</time></trkpt><trkpt lat="45.55991079992225" lon="9.520254846600904"><ele>134.39999999999998</ele><time>2026-04-25T08:03:51Z</time></trkpt><trkpt lat="45.56000150786579" lon="9.520339609034588"><ele>133.6</ele><time>2026-04-25T08:03:53Z</time></trkpt><trkpt lat="45.56009377079503" lon="9.520432403237333"><ele>132.79999999999998</ele><time>2026-04-25T08:03:55Z</time></trkpt><trkpt lat="45.560180926429865" lon="9.520515486430213"><ele>132.0</ele><time>2026-04-25T08:03:57Z</time></trkpt><trkpt lat="45.5602691194148" lon="9.520601043169751"><ele>132.0</ele><time>2026-04-25T08:03:59Z</time></trkpt><trkpt lat="45.56035352646644" lon="9.520685732785264"><ele>132.0</ele><time>2026-04-25T08:04:01Z</time></trkpt><trkpt lat="45.56044462974451" lon="9.520754269732551"><ele>132.0</ele><time>2026-04-25T08:04:03Z</time></trkpt><trkpt lat="45.560527724202224" lon="9.520838561367203"><ele>132.0</ele><time>2026-04-25T08:04:05Z</time></trkpt><trkpt lat="45.560620198035394" lon="9.52091610398655"><ele>132.0</ele><time>2026-04-25T08:04:07Z</time></trkpt><trkpt lat="45.560711747170636" lon="9.520989201035365"><ele>131.4</ele><time>2026-04-25T08:04:09Z</time></trkpt><trkpt lat="45.56080380884516" lon="9.52106268728905"><ele>130.79999999999998</ele><time>2026-04-25T08:04:11Z</time></trkpt><trkpt lat="45.56089839718696" lon="9.521133133861543"><ele>130.2</ele><time>2026-04-25T08:04:13Z</time></trkpt><trkpt lat="45.56099148348834" lon="9.52119889238124"><ele>129.6</ele><time>2026-04-25T08:04:15Z</time></trkpt><trkpt lat="45.56108383606498" lon="9.521277250358494"><ele>129.0</ele><time>2026-04-25T08:04:17Z</time></trkpt><trkpt lat="45.56117639731185" lon="9.521349385470543"><ele>130.6</ele><time>2026-04-25T08:04:19Z</time></trkpt><trkpt lat="45.56126528354244" lon="9.521430154684639"><ele>132.2</ele><time>2026-04-25T08:04:21Z</time></trkpt><trkpt lat="45.56135614521638" lon="9.52150566968472"><ele>133.79999999999998</ele><time>2026-04-25T08:04:23Z</time></trkpt><trkpt lat="45.561451605187386" lon="9.521578588830586"><ele>135.4</ele><time>2026-04-25T08:04:25Z</time></trkpt><trkpt lat="45.56154597529291" lon="9.521656905927696"><ele>137.0</ele><time>2026-04-25T08:04:27Z</time></trkpt><trkpt lat="45.56164005608588" lon="9.521727578704219"><ele>137.0</ele><time>2026-04-25T08:04:29Z</time></trkpt><trkpt lat="45.561731454291476" lon="9.52180517256633"><ele>137.0</ele><time>2026-04-25T08:04:31Z</time></trkpt><trkpt lat="45.561825284896905" lon="9.521856754280968"><ele>137.0</ele><time>2026-04-25T08:04:33Z</time></trkpt><trkpt lat="45.561919368914616" lon="9.521944385525533"><ele>137.0</ele><time>2026-04-25T08:04:35Z</time></trkpt><trkpt lat="45.56201817219728" lon="9.522011321785008"><ele>137.0</ele><time>2026-04-25T08:04:37Z</time></trkpt><trkpt lat="45.562109099085035" lon="9.522096971032182"><ele>137.2</ele><time>2026-04-25T08:04:39Z</time></trkpt><trkpt lat="45.56219984905971" lon="9.522181915064026"><ele>137.39999999999998</ele><time>2026-04-25T08:04:41Z</time></trkpt><trkpt lat="45.56228627447565" lon="9.522278986770935"><ele>137.60000000000002</ele><time>2026-04-25T08:04:43Z</time></trkpt><trkpt lat="45.56236903984597" lon="9.52238118211261"><ele>137.8</ele><time>2026-04-25T08:04:45Z</time></trkpt><trkpt lat="45.56245031640341" lon="9.52247652645079"><ele>138.0</ele><time>2026-04-25T08:04:47Z</time></trkpt><trkpt lat="45.56253560706835" lon="9.522568746388423"><ele>138.0</ele><time>2026-04-25T08:04:49Z</time></trkpt><trkpt lat="45.56262075078729" lon="9.52267421109939"><ele>138.0</ele><time>2026-04-25T08:04:51Z</time></trkpt><trkpt lat="45.56277486766186" lon="9.52253465376331"><ele>138.0</ele><time>2026-04-25T08:04:52Z</time></trkpt><trkpt lat="45.56286249854343" lon="9.52263415889775"><ele>138.0</ele><time>2026-04-25T08:04:54Z</time></trkpt><trkpt lat="45.5629434455275" lon="9.522722574550176"><ele>138.4</ele><time>2026-04-25T08:04:56Z</time></trkpt><trkpt lat="45.56303733968874" lon="9.52281507697935"><ele>138.8</ele><time>2026-04-25T08:04:58Z</time></trkpt><trkpt lat="45.56309772342395" lon="9.522888432494863"><ele>139.2</ele><time>2026-04-25T08:04:59Z</time></trkpt><trkpt lat="45.563182825571786" lon="9.523004048522282"><ele>139.6</ele><time>2026-04-25T08:05:01Z</time></trkpt><trkpt lat="45.56326976725981" lon="9.52312924511699"><ele>140.0</ele><time>2026-04-25T08:05:03Z</time></trkpt><trkpt lat="45.56334051974982" lon="9.523239108669685"><ele>140.0</ele><time>2026-04-25T08:05:05Z</time></trkpt><trkpt lat="45.5634175403618" lon="9.52333241976315"><ele>140.0</ele><time>2026-04-25T08:05:07Z</time></trkpt><trkpt lat="45.563493144426765" lon="9.523396937855996"><ele>140.0</ele><time>2026-04-25T08:05:09Z</time></trkpt><trkpt lat="45.56357752209943" lon="9.523477570196327"><ele>140.0</ele><time>2026-04-25T08:05:11Z</time></trkpt><trkpt lat="45.563514742234354" lon="9.523875596842895"><ele>140.2</ele><time>2026-04-25T08:05:13Z</time></trkpt><trkpt lat="45.5635966002682" lon="9.52397207698961"><ele>140.4</ele><time>2026-04-25T08:05:15Z</time></trkpt><trkpt lat="45.56368947564762" lon="9.524043164879702"><ele>140.6</ele><time>2026-04-25T08:05:17Z</time></trkpt><trkpt lat="45.56378914078571" lon="9.524100994722481"><ele>140.8</ele><time>2026-04-25T08:05:19Z</time></trkpt><trkpt lat="45.56388903039509" lon="9.524142955277808"><ele>141.0</ele><time>2026-04-25T08:05:21Z</time></trkpt><trkpt lat="45.563993544661464" lon="9.524163239237174"><ele>141.0</ele><time>2026-04-25T08:05:23Z</time></trkpt><trkpt lat="45.56410074724232" lon="9.524150499968352"><ele>141.0</ele><time>2026-04-25T08:05:25Z</time></trkpt><trkpt lat="45.564209629735494" lon="9.524138028809439"><ele>141.0</ele><time>2026-04-25T08:05:27Z</time></trkpt><trkpt lat="45.564320595052365" lon="9.524115114449906"><ele>141.0</ele><time>2026-04-25T08:05:29Z</time></trkpt><trkpt lat="45.56442969049024" lon="9.52411269616024"><ele>141.0</ele><time>2026-04-25T08:05:31Z</time></trkpt><trkpt lat="45.56453782996184" lon="9.524111299043508"><ele>141.2</ele><time>2026-04-25T08:05:33Z</time></trkpt><trkpt lat="45.564644425622646" lon="9.5241186511959"><ele>141.39999999999998</ele><time>2026-04-25T08:05:35Z</time></trkpt><trkpt lat="45.564753317251295" lon="9.524125013101425"><ele>141.6</ele><time>2026-04-25T08:05:37Z</time></trkpt><trkpt lat="45.564856417005934" lon="9.52414281606475"><ele>141.79999999999998</ele><time>2026-04-25T08:05:39Z</time></trkpt><trkpt lat="45.564959569225515" lon="9.524163934168694"><ele>142.0</ele><time>2026-04-25T08:05:41Z</time></trkpt><trkpt lat="45.565054646761574" lon="9.524183412639879"><ele>142.0</ele><time>2026-04-25T08:05:43Z</time></trkpt><trkpt lat="45.56515804494227" lon="9.52420159373547"><ele>142.0</ele><time>2026-04-25T08:05:45Z</time></trkpt><trkpt lat="45.56526356743154" lon="9.524245935170692"><ele>142.0</ele><time>2026-04-25T08:05:47Z</time></trkpt><trkpt lat="45.56537112147229" lon="9.524280689725733"><ele>142.0</ele><time>2026-04-25T08:05:49Z</time></trkpt><trkpt lat="45.56547631137152" lon="9.524322337674677"><ele>142.0</ele><time>2026-04-25T08:05:51Z</time></trkpt><trkpt lat="45.56557564395543" lon="9.52436872585493"><ele>142.6</ele><time>2026-04-25T08:05:53Z</time></trkpt><trkpt lat="45.56568112225638" lon="9.52441267261672"><ele>143.2</ele><time>2026-04-25T08:05:55Z</time></trkpt><trkpt lat="45.565786269761034" lon="9.524467663695962"><ele>143.8</ele><time>2026-04-25T08:05:57Z</time></trkpt><trkpt lat="45.565889319428784" lon="9.524514761737068"><ele>144.4</ele><time>2026-04-25T08:05:59Z</time></trkpt><trkpt lat="45.56599171723224" lon="9.52456296713728"><ele>145.0</ele><time>2026-04-25T08:06:01Z</time></trkpt><trkpt lat="45.5660945515804" lon="9.52461351881926"><ele>143.5</ele><time>2026-04-25T08:06:03Z</time></trkpt><trkpt lat="45.56620191042491" lon="9.524661096544195"><ele>142.0</ele><time>2026-04-25T08:06:05Z</time></trkpt><trkpt lat="45.56630812060754" lon="9.524724678644102"><ele>140.5</ele><time>2026-04-25T08:06:07Z</time></trkpt><trkpt lat="45.566419573928265" lon="9.52476524997199"><ele>139.0</ele><time>2026-04-25T08:06:09Z</time></trkpt><trkpt lat="45.566530150205956" lon="9.5247918847859"><ele>139.0</ele><time>2026-04-25T08:06:11Z</time></trkpt><trkpt lat="45.56664082400101" lon="9.524839675947042"><ele>139.0</ele><time>2026-04-25T08:06:13Z</time></trkpt><trkpt lat="45.5667504819195" lon="9.524888959266288"><ele>139.0</ele><time>2026-04-25T08:06:15Z</time></trkpt><trkpt lat="45.56685666308838" lon="9.52494580519447"><ele>139.0</ele><time>2026-04-25T08:06:17Z</time></trkpt><trkpt lat="45.56695699185403" lon="9.52501233486618"><ele>140.8</ele><time>2026-04-25T08:06:19Z</time></trkpt><trkpt lat="45.56706033030084" lon="9.525074797004342"><ele>142.60000000000002</ele><time>2026-04-25T08:06:21Z</time></trkpt><trkpt lat="45.56716176751247" lon="9.525137908567055"><ele>144.4</ele><time>2026-04-25T08:06:23Z</time></trkpt><trkpt lat="45.56725969187163" lon="9.52520795789363"><ele>146.20000000000002</ele><time>2026-04-25T08:06:25Z</time></trkpt><trkpt lat="45.56735844866675" lon="9.525276334872387"><ele>148.0</ele><time>2026-04-25T08:06:27Z</time></trkpt><trkpt lat="45.56745819544496" lon="9.525336329946846"><ele>146.4</ele><time>2026-04-25T08:06:29Z</time></trkpt><trkpt lat="45.567556748993916" lon="9.525396186961864"><ele>144.8</ele><time>2026-04-25T08:06:31Z</time></trkpt><trkpt lat="45.5676572164383" lon="9.525453256766697"><ele>143.2</ele><time>2026-04-25T08:06:33Z</time></trkpt><trkpt lat="45.56776451893101" lon="9.525490508021035"><ele>141.6</ele><time>2026-04-25T08:06:35Z</time></trkpt><trkpt lat="45.56786823004087" lon="9.525531955041968"><ele>140.0</ele><time>2026-04-25T08:06:37Z</time></trkpt><trkpt lat="45.567981490524694" lon="9.525569172240075"><ele>140.0</ele><time>2026-04-25T08:06:39Z</time></trkpt><trkpt lat="45.56807912178755" lon="9.525615220529975"><ele>140.0</ele><time>2026-04-25T08:06:41Z</time></trkpt><trkpt lat="45.56818235592443" lon="9.525649136775337"><ele>140.0</ele><time>2026-04-25T08:06:43Z</time></trkpt><trkpt lat="45.56828629933779" lon="9.525669511606752"><ele>140.0</ele><time>2026-04-25T08:06:45Z</time></trkpt><trkpt lat="45.56839217089963" lon="9.525697580008135"><ele>140.0</ele><time>2026-04-25T08:06:47Z</time></trkpt><trkpt lat="45.56849651996758" lon="9.525721878687536"><ele>140.0</ele><time>2026-04-25T08:06:49Z</time></trkpt><trkpt lat="45.5686047429417" lon="9.52573647165425"><ele>140.0</ele><time>2026-04-25T08:06:51Z</time></trkpt><trkpt lat="45.56871532929309" lon="9.525735064072514"><ele>140.0</ele><time>2026-04-25T08:06:53Z</time></trkpt><trkpt lat="45.56882472529875" lon="9.525726771354263"><ele>140.0</ele><time>2026-04-25T08:06:55Z</time></trkpt><trkpt lat="45.568932438991375" lon="9.525717361782142"><ele>140.0</ele><time>2026-04-25T08:06:57Z</time></trkpt><trkpt lat="45.5690446063419" lon="9.52570641693443"><ele>140.5</ele><time>2026-04-25T08:06:59Z</time></trkpt><trkpt lat="45.56915602084671" lon="9.525701828557686"><ele>141.0</ele><time>2026-04-25T08:07:01Z</time></trkpt><trkpt lat="45.569272127047505" lon="9.52569960575194"><ele>141.5</ele><time>2026-04-25T08:07:03Z</time></trkpt><trkpt lat="45.56938104763861" lon="9.52572201734462"><ele>142.0</ele><time>2026-04-25T08:07:05Z</time></trkpt><trkpt lat="45.56949070298347" lon="9.525755151082317"><ele>142.79999999999998</ele><time>2026-04-25T08:07:07Z</time></trkpt><trkpt lat="45.569600171516896" lon="9.52579059354672"><ele>143.6</ele><time>2026-04-25T08:07:09Z</time></trkpt><trkpt lat="45.56970714002078" lon="9.525826026805715"><ele>144.39999999999998</ele><time>2026-04-25T08:07:11Z</time></trkpt><trkpt lat="45.56980803509176" lon="9.525864735111142"><ele>145.2</ele><time>2026-04-25T08:07:13Z</time></trkpt><trkpt lat="45.569909547746285" lon="9.525901967126897"><ele>146.0</ele><time>2026-04-25T08:07:15Z</time></trkpt><trkpt lat="45.57001531277587" lon="9.525936435177154"><ele>146.0</ele><time>2026-04-25T08:07:17Z</time></trkpt><trkpt lat="45.57011770297786" lon="9.525974053366362"><ele>146.0</ele><time>2026-04-25T08:07:19Z</time></trkpt><trkpt lat="45.570225747037156" lon="9.526016685465665"><ele>146.0</ele><time>2026-04-25T08:07:21Z</time></trkpt><trkpt lat="45.570333157502276" lon="9.526045358383314"><ele>146.0</ele><time>2026-04-25T08:07:23Z</time></trkpt><trkpt lat="45.570438630632715" lon="9.526077878999391"><ele>146.0</ele><time>2026-04-25T08:07:25Z</time></trkpt><trkpt lat="45.570544317636596" lon="9.526112123114762"><ele>147.2</ele><time>2026-04-25T08:07:27Z</time></trkpt><trkpt lat="45.570648324750636" lon="9.526161059227535"><ele>148.39999999999998</ele><time>2026-04-25T08:07:29Z</time></trkpt><trkpt lat="45.570752167987514" lon="9.526207351202952"><ele>149.6</ele><time>2026-04-25T08:07:31Z</time></trkpt><trkpt lat="45.57085294019679" lon="9.526264573773926"><ele>150.79999999999998</ele><time>2026-04-25T08:07:33Z</time></trkpt><trkpt lat="45.570950830741694" lon="9.526323621631194"><ele>152.0</ele><time>2026-04-25T08:07:35Z</time></trkpt><trkpt lat="45.57104745027289" lon="9.526388330896943"><ele>151.79999999999998</ele><time>2026-04-25T08:07:37Z</time></trkpt><trkpt lat="45.57113722137014" lon="9.526470886151083"><ele>151.6</ele><time>2026-04-25T08:07:39Z</time></trkpt><trkpt lat="45.57122328062638" lon="9.526546673953268"><ele>151.39999999999998</ele><time>2026-04-25T08:07:41Z</time></trkpt><trkpt lat="45.57131422437703" lon="9.52661336725636"><ele>151.2</ele><time>2026-04-25T08:07:43Z</time></trkpt><trkpt lat="45.571404194212406" lon="9.526686152929406"><ele>151.0</ele><time>2026-04-25T08:07:45Z</time></trkpt><trkpt lat="45.57148984200621" lon="9.526752334504684"><ele>151.0</ele><time>2026-04-25T08:07:47Z</time></trkpt><trkpt lat="45.57157736607904" lon="9.526821832903687"><ele>151.0</ele><time>2026-04-25T08:07:49Z</time></trkpt><trkpt lat="45.571667071213504" lon="9.52688717752028"><ele>151.0</ele><time>2026-04-25T08:07:51Z</time></trkpt><trkpt lat="45.571758468740974" lon="9.52696857877035"><ele>151.0</ele><time>2026-04-25T08:07:53Z</time></trkpt><trkpt lat="45.5718523463015" lon="9.52705272412844"><ele>151.0</ele><time>2026-04-25T08:07:55Z</time></trkpt><trkpt lat="45.57194589813742" lon="9.527138127537212"><ele>150.75</ele><time>2026-04-25T08:07:57Z</time></trkpt><trkpt lat="45.57203610617734" lon="9.527239374178343"><ele>150.5</ele><time>2026-04-25T08:07:59Z</time></trkpt><trkpt lat="45.5721172072024" lon="9.527349538439179"><ele>150.25</ele><time>2026-04-25T08:08:01Z</time></trkpt><trkpt lat="45.572204418409186" lon="9.527453744868197"><ele>150.0</ele><time>2026-04-25T08:08:03Z</time></trkpt><trkpt lat="45.57229814389639" lon="9.52754465551582"><ele>150.0</ele><time>2026-04-25T08:08:05Z</time></trkpt><trkpt lat="45.57238027184873" lon="9.5276584580114"><ele>150.0</ele><time>2026-04-25T08:08:07Z</time></trkpt><trkpt lat="45.5724561881374" lon="9.527770761361646"><ele>150.0</ele><time>2026-04-25T08:08:09Z</time></trkpt><trkpt lat="45.57253370428855" lon="9.527880731019659"><ele>150.0</ele><time>2026-04-25T08:08:11Z</time></trkpt><trkpt lat="45.572614040480296" lon="9.527978794192874"><ele>150.0</ele><time>2026-04-25T08:08:13Z</time></trkpt><trkpt lat="45.572697643538135" lon="9.528064146883079"><ele>151.0</ele><time>2026-04-25T08:08:15Z</time></trkpt><trkpt lat="45.572782347112344" lon="9.52814838505596"><ele>152.0</ele><time>2026-04-25T08:08:17Z</time></trkpt><trkpt lat="45.57286423654712" lon="9.528254397660856"><ele>153.0</ele><time>2026-04-25T08:08:19Z</time></trkpt><trkpt lat="45.5729485205172" lon="9.528336643736209"><ele>154.0</ele><time>2026-04-25T08:08:21Z</time></trkpt><trkpt lat="45.57304147516052" lon="9.52842765112406"><ele>155.0</ele><time>2026-04-25T08:08:23Z</time></trkpt><trkpt lat="45.573125162524335" lon="9.528501200457491"><ele>155.0</ele><time>2026-04-25T08:08:25Z</time></trkpt><trkpt lat="45.573215713925975" lon="9.528577117350949"><ele>155.0</ele><time>2026-04-25T08:08:27Z</time></trkpt><trkpt lat="45.573309514211054" lon="9.528666521667908"><ele>155.0</ele><time>2026-04-25T08:08:29Z</time></trkpt><trkpt lat="45.573399884080466" lon="9.52875468460862"><ele>155.0</ele><time>2026-04-25T08:08:31Z</time></trkpt><trkpt lat="45.57348554412978" lon="9.52883517079816"><ele>155.0</ele><time>2026-04-25T08:08:33Z</time></trkpt><trkpt lat="45.57357172486453" lon="9.52892558005186"><ele>153.6</ele><time>2026-04-25T08:08:35Z</time></trkpt><trkpt lat="45.57365958796423" lon="9.529003177332436"><ele>152.2</ele><time>2026-04-25T08:08:37Z</time></trkpt><trkpt lat="45.57374936716938" lon="9.529090625975243"><ele>150.8</ele><time>2026-04-25T08:08:39Z</time></trkpt><trkpt lat="45.57383326650116" lon="9.529179608561089"><ele>149.4</ele><time>2026-04-25T08:08:41Z</time></trkpt><trkpt lat="45.57391214590758" lon="9.52927887398536"><ele>148.0</ele><time>2026-04-25T08:08:43Z</time></trkpt><trkpt lat="45.57398780925369" lon="9.529378311101835"><ele>148.0</ele><time>2026-04-25T08:08:45Z</time></trkpt><trkpt lat="45.574051014679995" lon="9.529496519958116"><ele>148.0</ele><time>2026-04-25T08:08:47Z</time></trkpt><trkpt lat="45.574117235417056" lon="9.529610546473164"><ele>148.0</ele><time>2026-04-25T08:08:49Z</time></trkpt><trkpt lat="45.574174054380876" lon="9.529736135141013"><ele>148.0</ele><time>2026-04-25T08:08:51Z</time></trkpt><trkpt lat="45.57422832655448" lon="9.529866305470051"><ele>148.0</ele><time>2026-04-25T08:08:53Z</time></trkpt><trkpt lat="45.57426339584477" lon="9.530009211093228"><ele>146.4</ele><time>2026-04-25T08:08:55Z</time></trkpt><trkpt lat="45.57429191095769" lon="9.530156678931794"><ele>144.8</ele><time>2026-04-25T08:08:57Z</time></trkpt><trkpt lat="45.57432941465342" lon="9.530312307717836"><ele>143.2</ele><time>2026-04-25T08:08:59Z</time></trkpt><trkpt lat="45.57433048270737" lon="9.530464124988708"><ele>141.6</ele><time>2026-04-25T08:09:01Z</time></trkpt><trkpt lat="45.574344990929845" lon="9.530604952054619"><ele>140.0</ele><time>2026-04-25T08:09:03Z</time></trkpt><trkpt lat="45.57432801992673" lon="9.530755826849765"><ele>139.8</ele><time>2026-04-25T08:09:05Z</time></trkpt><trkpt lat="45.57432180087824" lon="9.530906839701746"><ele>139.6</ele><time>2026-04-25T08:09:07Z</time></trkpt><trkpt lat="45.57429355526769" lon="9.531052648141534"><ele>139.4</ele><time>2026-04-25T08:09:09Z</time></trkpt><trkpt lat="45.57426736088521" lon="9.531204512146976"><ele>139.2</ele><time>2026-04-25T08:09:11Z</time></trkpt><trkpt lat="45.574241525867144" lon="9.531354290423183"><ele>139.0</ele><time>2026-04-25T08:09:13Z</time></trkpt><trkpt lat="45.5742154234778" lon="9.53149472686622"><ele>139.0</ele><time>2026-04-25T08:09:15Z</time></trkpt><trkpt lat="45.57418441028172" lon="9.53163893238317"><ele>139.0</ele><time>2026-04-25T08:09:17Z</time></trkpt><trkpt lat="45.57416449401549" lon="9.531780023809528"><ele>139.0</ele><time>2026-04-25T08:09:19Z</time></trkpt><trkpt lat="45.574116545136235" lon="9.531917474834064"><ele>139.0</ele><time>2026-04-25T08:09:21Z</time></trkpt><trkpt lat="45.57406998315356" lon="9.53205612705781"><ele>139.0</ele><time>2026-04-25T08:09:23Z</time></trkpt><trkpt lat="45.5740321995779" lon="9.532186785425703"><ele>140.2</ele><time>2026-04-25T08:09:25Z</time></trkpt><trkpt lat="45.573973837226006" lon="9.53231349074001"><ele>141.4</ele><time>2026-04-25T08:09:27Z</time></trkpt><trkpt lat="45.573929225072696" lon="9.532454407641218"><ele>142.6</ele><time>2026-04-25T08:09:29Z</time></trkpt><trkpt lat="45.57388078679206" lon="9.532576375389915"><ele>143.8</ele><time>2026-04-25T08:09:31Z</time></trkpt><trkpt lat="45.57382765731152" lon="9.532702124473547"><ele>145.0</ele><time>2026-04-25T08:09:33Z</time></trkpt><trkpt lat="45.57376772721688" lon="9.532828944059784"><ele>144.66666666666669</ele><time>2026-04-25T08:09:35Z</time></trkpt><trkpt lat="45.57371298901467" lon="9.532953124444902"><ele>144.33333333333334</ele><time>2026-04-25T08:09:37Z</time></trkpt><trkpt lat="45.57365276785418" lon="9.533068595173662"><ele>144.0</ele><time>2026-04-25T08:09:39Z</time></trkpt><trkpt lat="45.57360098274482" lon="9.533158739820996"><ele>143.66666666666666</ele><time>2026-04-25T08:09:41Z</time></trkpt><trkpt lat="45.573567044800185" lon="9.53323832823038"><ele>143.33333333333331</ele><time>2026-04-25T08:09:43Z</time></trkpt><trkpt lat="45.573537303731506" lon="9.533323229603043"><ele>143.0</ele><time>2026-04-25T08:09:45Z</time></trkpt><trkpt lat="45.57351855074018" lon="9.533446088977376"><ele>142.0</ele><time>2026-04-25T08:09:47Z</time></trkpt><trkpt lat="45.57351990580659" lon="9.533595114827172"><ele>141.0</ele><time>2026-04-25T08:09:49Z</time></trkpt><trkpt lat="45.57355843493875" lon="9.533738127473406"><ele>140.0</ele><time>2026-04-25T08:09:51Z</time></trkpt><trkpt lat="45.573633802255216" lon="9.5338458970606"><ele>139.0</ele><time>2026-04-25T08:09:53Z</time></trkpt><trkpt lat="45.57372969903971" lon="9.533889427762555"><ele>138.0</ele><time>2026-04-25T08:09:55Z</time></trkpt><trkpt lat="45.57383391768467" lon="9.533910982637389"><ele>137.20000000000002</ele><time>2026-04-25T08:09:57Z</time></trkpt><trkpt lat="45.573933583636844" lon="9.533916291813911"><ele>136.4</ele><time>2026-04-25T08:09:59Z</time></trkpt><trkpt lat="45.574037732162786" lon="9.533931835369689"><ele>135.60000000000002</ele><time>2026-04-25T08:10:01Z</time></trkpt><trkpt lat="45.57414215826059" lon="9.533942430019799"><ele>134.8</ele><time>2026-04-25T08:10:03Z</time></trkpt><trkpt lat="45.574248202306386" lon="9.533968614109464"><ele>134.0</ele><time>2026-04-25T08:10:05Z</time></trkpt><trkpt lat="45.57435244131147" lon="9.533993505122103"><ele>134.0</ele><time>2026-04-25T08:10:07Z</time></trkpt><trkpt lat="45.57445452054766" lon="9.534015530323526"><ele>134.0</ele><time>2026-04-25T08:10:09Z</time></trkpt><trkpt lat="45.574558241084134" lon="9.534032606286523"><ele>134.0</ele><time>2026-04-25T08:10:11Z</time></trkpt><trkpt lat="45.57466474888582" lon="9.534010779618113"><ele>134.0</ele><time>2026-04-25T08:10:13Z</time></trkpt><trkpt lat="45.57476752745958" lon="9.533989812945741"><ele>134.0</ele><time>2026-04-25T08:10:15Z</time></trkpt><trkpt lat="45.57486685437138" lon="9.533970169336067"><ele>134.2</ele><time>2026-04-25T08:10:17Z</time></trkpt><trkpt lat="45.57496399897625" lon="9.533948965390556"><ele>134.4</ele><time>2026-04-25T08:10:19Z</time></trkpt><trkpt lat="45.575057927704734" lon="9.533947211611103"><ele>134.6</ele><time>2026-04-25T08:10:21Z</time></trkpt><trkpt lat="45.575150012086056" lon="9.53397199090968"><ele>134.8</ele><time>2026-04-25T08:10:23Z</time></trkpt><trkpt lat="45.575244235240504" lon="9.534001000766144"><ele>135.0</ele><time>2026-04-25T08:10:25Z</time></trkpt><trkpt lat="45.575338812178636" lon="9.534011699624232"><ele>134.8</ele><time>2026-04-25T08:10:27Z</time></trkpt><trkpt lat="45.57543866522723" lon="9.53398807783994"><ele>134.6</ele><time>2026-04-25T08:10:29Z</time></trkpt><trkpt lat="45.575527623903234" lon="9.533926057079976"><ele>134.4</ele><time>2026-04-25T08:10:31Z</time></trkpt><trkpt lat="45.57562236879933" lon="9.533886446070538"><ele>134.2</ele><time>2026-04-25T08:10:33Z</time></trkpt><trkpt lat="45.5757144783414" lon="9.533840692021121"><ele>134.0</ele><time>2026-04-25T08:10:35Z</time></trkpt><trkpt lat="45.57580164447508" lon="9.533819164158146"><ele>134.0</ele><time>2026-04-25T08:10:37Z</time></trkpt><trkpt lat="45.575899898006725" lon="9.533791309407345"><ele>134.0</ele><time>2026-04-25T08:10:39Z</time></trkpt><trkpt lat="45.5760052374118" lon="9.533812604087622"><ele>134.0</ele><time>2026-04-25T08:10:41Z</time></trkpt><trkpt lat="45.576105971500866" lon="9.533849638821666"><ele>134.0</ele><time>2026-04-25T08:10:43Z</time></trkpt><trkpt lat="45.57620538310451" lon="9.533882436499379"><ele>134.0</ele><time>2026-04-25T08:10:45Z</time></trkpt><trkpt lat="45.576305695712634" lon="9.533919046411931"><ele>134.8</ele><time>2026-04-25T08:10:47Z</time></trkpt><trkpt lat="45.57640693830699" lon="9.533960985168045"><ele>135.60000000000002</ele><time>2026-04-25T08:10:49Z</time></trkpt><trkpt lat="45.57650693022859" lon="9.533993621139468"><ele>136.4</ele><time>2026-04-25T08:10:51Z</time></trkpt><trkpt lat="45.576612071615756" lon="9.534039755085079"><ele>137.20000000000002</ele><time>2026-04-25T08:10:53Z</time></trkpt><trkpt lat="45.5767077840599" lon="9.53405722417448"><ele>138.0</ele><time>2026-04-25T08:10:55Z</time></trkpt><trkpt lat="45.57679704004532" lon="9.534120036931906"><ele>138.0</ele><time>2026-04-25T08:10:57Z</time></trkpt><trkpt lat="45.57687586475175" lon="9.534185208959228"><ele>138.0</ele><time>2026-04-25T08:10:59Z</time></trkpt><trkpt lat="45.57695873352141" lon="9.534244128127117"><ele>138.0</ele><time>2026-04-25T08:11:01Z</time></trkpt><trkpt lat="45.57704460180309" lon="9.534307715816968"><ele>138.0</ele><time>2026-04-25T08:11:03Z</time></trkpt><trkpt lat="45.577130414407236" lon="9.534377914787209"><ele>138.0</ele><time>2026-04-25T08:11:05Z</time></trkpt><trkpt lat="45.577181605982794" lon="9.53445255597842"><ele>136.8</ele><time>2026-04-25T08:11:07Z</time></trkpt><trkpt lat="45.57725038553881" lon="9.53452338812743"><ele>135.60000000000002</ele><time>2026-04-25T08:11:09Z</time></trkpt><trkpt lat="45.57731255644457" lon="9.534494501408647"><ele>134.39999999999998</ele><time>2026-04-25T08:11:10Z</time></trkpt><trkpt lat="45.57739604134847" lon="9.53452795762883"><ele>133.2</ele><time>2026-04-25T08:11:12Z</time></trkpt><trkpt lat="45.57749764750182" lon="9.534575260523763"><ele>132.0</ele><time>2026-04-25T08:11:14Z</time></trkpt><trkpt lat="45.57760124741944" lon="9.534612036932167"><ele>132.0</ele><time>2026-04-25T08:11:16Z</time></trkpt><trkpt lat="45.577687132966695" lon="9.53463789912655"><ele>132.0</ele><time>2026-04-25T08:11:18Z</time></trkpt><trkpt lat="45.57776064671409" lon="9.534655900429325"><ele>132.0</ele><time>2026-04-25T08:11:20Z</time></trkpt><trkpt lat="45.5778451788384" lon="9.534671622395676"><ele>132.0</ele><time>2026-04-25T08:11:23Z</time></trkpt><trkpt lat="45.57792923455212" lon="9.534688682442267"><ele>132.0</ele><time>2026-04-25T08:11:26Z</time></trkpt><trkpt lat="45.57799676991564" lon="9.534698724852127"><ele>132.0</ele><time>2026-04-25T08:11:28Z</time></trkpt><trkpt lat="45.57807104172723" lon="9.534733908778884"><ele>132.79999999999998</ele><time>2026-04-25T08:11:30Z</time></trkpt><trkpt lat="45.57817942656783" lon="9.534722265562513"><ele>133.6</ele><time>2026-04-25T08:11:32Z</time></trkpt><trkpt lat="45.57829678110507" lon="9.534742301206188"><ele>134.39999999999998</ele><time>2026-04-25T08:11:34Z</time></trkpt><trkpt lat="45.57842133803411" lon="9.53477047954963"><ele>135.2</ele><time>2026-04-25T08:11:36Z</time></trkpt><trkpt lat="45.57848622346343" lon="9.534778606486569"><ele>136.0</ele><time>2026-04-25T08:11:37Z</time></trkpt><trkpt lat="45.578553380053286" lon="9.534780220497613"><ele>136.0</ele><time>2026-04-25T08:11:38Z</time></trkpt><trkpt lat="45.578620863018706" lon="9.534777184390007"><ele>136.0</ele><time>2026-04-25T08:11:39Z</time></trkpt><trkpt lat="45.578689915374426" lon="9.534807202531365"><ele>136.0</ele><time>2026-04-25T08:11:40Z</time></trkpt><trkpt lat="45.57875543464521" lon="9.53480720253088"><ele>136.0</ele><time>2026-04-25T08:11:41Z</time></trkpt><trkpt lat="45.578817802453216" lon="9.534769298736068"><ele>136.0</ele><time>2026-04-25T08:11:42Z</time></trkpt><trkpt lat="45.57894160355868" lon="9.534785682362928"><ele>136.0</ele><time>2026-04-25T08:11:44Z</time></trkpt><trkpt lat="45.57906289250489" lon="9.534817006047527"><ele>137.0</ele><time>2026-04-25T08:11:46Z</time></trkpt><trkpt lat="45.57918007274021" lon="9.534862798862939"><ele>138.0</ele><time>2026-04-25T08:11:48Z</time></trkpt><trkpt lat="45.57929248142919" lon="9.534922373068902"><ele>139.0</ele><time>2026-04-25T08:11:50Z</time></trkpt><trkpt lat="45.5794110470382" lon="9.534930245251566"><ele>140.0</ele><time>2026-04-25T08:11:52Z</time></trkpt><trkpt lat="45.57951346265517" lon="9.534986346334371"><ele>140.8</ele><time>2026-04-25T08:11:54Z</time></trkpt><trkpt lat="45.579613454959485" lon="9.535047598948921"><ele>141.6</ele><time>2026-04-25T08:11:56Z</time></trkpt><trkpt lat="45.57970676093443" lon="9.535111453010286"><ele>142.4</ele><time>2026-04-25T08:11:58Z</time></trkpt><trkpt lat="45.57979551290997" lon="9.535192161924213"><ele>143.2</ele><time>2026-04-25T08:12:00Z</time></trkpt><trkpt lat="45.57988629770689" lon="9.53525623071761"><ele>144.0</ele><time>2026-04-25T08:12:02Z</time></trkpt><trkpt lat="45.579983399061064" lon="9.535303897128212"><ele>143.8</ele><time>2026-04-25T08:12:04Z</time></trkpt><trkpt lat="45.580066211005224" lon="9.535394970088769"><ele>143.60000000000002</ele><time>2026-04-25T08:12:06Z</time></trkpt><trkpt lat="45.58015259059996" lon="9.535471385281157"><ele>143.4</ele><time>2026-04-25T08:12:08Z</time></trkpt><trkpt lat="45.58024551035299" lon="9.535538045585184"><ele>143.20000000000002</ele><time>2026-04-25T08:12:10Z</time></trkpt><trkpt lat="45.58033047911972" lon="9.535622168118145"><ele>143.0</ele><time>2026-04-25T08:12:12Z</time></trkpt><trkpt lat="45.58040847897146" lon="9.535714616163274"><ele>143.0</ele><time>2026-04-25T08:12:14Z</time></trkpt><trkpt lat="45.58049435618998" lon="9.53580094760823"><ele>143.0</ele><time>2026-04-25T08:12:16Z</time></trkpt><trkpt lat="45.580579152701894" lon="9.535895315713459"><ele>143.0</ele><time>2026-04-25T08:12:18Z</time></trkpt><trkpt lat="45.58065261410166" lon="9.536010505880622"><ele>143.0</ele><time>2026-04-25T08:12:20Z</time></trkpt><trkpt lat="45.5807438863334" lon="9.536089347973466"><ele>143.0</ele><time>2026-04-25T08:12:22Z</time></trkpt><trkpt lat="45.58081584485775" lon="9.536204296002316"><ele>142.6</ele><time>2026-04-25T08:12:24Z</time></trkpt><trkpt lat="45.58090904101388" lon="9.536289085417526"><ele>142.20000000000002</ele><time>2026-04-25T08:12:26Z</time></trkpt><trkpt lat="45.580991992808706" lon="9.536391355634315"><ele>141.8</ele><time>2026-04-25T08:12:28Z</time></trkpt><trkpt lat="45.58107581445448" lon="9.536494517404149"><ele>141.4</ele><time>2026-04-25T08:12:30Z</time></trkpt><trkpt lat="45.58115442301127" lon="9.536608474241465"><ele>141.0</ele><time>2026-04-25T08:12:32Z</time></trkpt><trkpt lat="45.58124809740114" lon="9.536697363852385"><ele>140.8</ele><time>2026-04-25T08:12:34Z</time></trkpt><trkpt lat="45.58132984747525" lon="9.53680401350128"><ele>140.6</ele><time>2026-04-25T08:12:36Z</time></trkpt><trkpt lat="45.58141457908349" lon="9.536904498116431"><ele>140.4</ele><time>2026-04-25T08:12:38Z</time></trkpt><trkpt lat="45.58149916946715" lon="9.537002421778801"><ele>140.2</ele><time>2026-04-25T08:12:40Z</time></trkpt><trkpt lat="45.58158283204415" lon="9.53710164765965"><ele>140.0</ele><time>2026-04-25T08:12:42Z</time></trkpt><trkpt lat="45.581666284245735" lon="9.537196099175553"><ele>140.0</ele><time>2026-04-25T08:12:44Z</time></trkpt><trkpt lat="45.58174706190511" lon="9.537285433536422"><ele>140.0</ele><time>2026-04-25T08:12:46Z</time></trkpt><trkpt lat="45.58182383478247" lon="9.537376360593884"><ele>140.0</ele><time>2026-04-25T08:12:48Z</time></trkpt><trkpt lat="45.58189773520552" lon="9.537458930258216"><ele>140.0</ele><time>2026-04-25T08:12:50Z</time></trkpt><trkpt lat="45.58196714635316" lon="9.537536541762169"><ele>140.0</ele><time>2026-04-25T08:12:52Z</time></trkpt><trkpt lat="45.5820316948246" lon="9.537606785974656"><ele>141.0</ele><time>2026-04-25T08:12:55Z</time></trkpt><trkpt lat="45.5820987860779" lon="9.537649644052605"><ele>142.0</ele><time>2026-04-25T08:12:58Z</time></trkpt><trkpt lat="45.58216722961941" lon="9.537692395880295"><ele>143.0</ele><time>2026-04-25T08:13:02Z</time></trkpt><trkpt lat="45.58223638672966" lon="9.537702250365108"><ele>144.0</ele><time>2026-04-25T08:13:04Z</time></trkpt><trkpt lat="45.58231350751308" lon="9.537745361191101"><ele>145.0</ele><time>2026-04-25T08:13:06Z</time></trkpt><trkpt lat="45.58239229073094" lon="9.537780276404336"><ele>146.0</ele><time>2026-04-25T08:13:08Z</time></trkpt><trkpt lat="45.5824767388895" lon="9.5378230991776"><ele>146.0</ele><time>2026-04-25T08:13:10Z</time></trkpt><trkpt lat="45.58255725426047" lon="9.537883721894913"><ele>146.0</ele><time>2026-04-25T08:13:12Z</time></trkpt><trkpt lat="45.58263804120293" lon="9.537918141510556"><ele>146.0</ele><time>2026-04-25T08:13:14Z</time></trkpt><trkpt lat="45.582717706255124" lon="9.537931412041692"><ele>146.0</ele><time>2026-04-25T08:13:16Z</time></trkpt><trkpt lat="45.58279820327561" lon="9.537945436154683"><ele>146.0</ele><time>2026-04-25T08:13:18Z</time></trkpt><trkpt lat="45.58288645209513" lon="9.537971370575908"><ele>146.0</ele><time>2026-04-25T08:13:20Z</time></trkpt><trkpt lat="45.582979557042094" lon="9.53797625578349"><ele>144.0</ele><time>2026-04-25T08:13:22Z</time></trkpt><trkpt lat="45.58307512028467" lon="9.537984686356978"><ele>142.0</ele><time>2026-04-25T08:13:24Z</time></trkpt><trkpt lat="45.58317401336425" lon="9.537991990160773"><ele>140.0</ele><time>2026-04-25T08:13:26Z</time></trkpt><trkpt lat="45.583275020544534" lon="9.537988419493875"><ele>138.0</ele><time>2026-04-25T08:13:28Z</time></trkpt><trkpt lat="45.583376612082866" lon="9.53794913310296"><ele>136.0</ele><time>2026-04-25T08:13:30Z</time></trkpt><trkpt lat="45.58347766302718" lon="9.537928526937893"><ele>136.0</ele><time>2026-04-25T08:13:32Z</time></trkpt><trkpt lat="45.58357873972214" lon="9.537886705537762"><ele>136.0</ele><time>2026-04-25T08:13:34Z</time></trkpt><trkpt lat="45.583677429525146" lon="9.53785653756002"><ele>136.0</ele><time>2026-04-25T08:13:36Z</time></trkpt><trkpt lat="45.583766838179045" lon="9.537825915716125"><ele>136.0</ele><time>2026-04-25T08:13:38Z</time></trkpt><trkpt lat="45.58385057371798" lon="9.537796673008168"><ele>136.0</ele><time>2026-04-25T08:13:40Z</time></trkpt><trkpt lat="45.5839316260155" lon="9.537776956643572"><ele>137.6</ele><time>2026-04-25T08:13:42Z</time></trkpt><trkpt lat="45.58400808898577" lon="9.537709918462628"><ele>139.2</ele><time>2026-04-25T08:13:44Z</time></trkpt><trkpt lat="45.58408766455316" lon="9.537649606793515"><ele>140.8</ele><time>2026-04-25T08:13:46Z</time></trkpt><trkpt lat="45.58416993588264" lon="9.537595108443384"><ele>142.4</ele><time>2026-04-25T08:13:48Z</time></trkpt><trkpt lat="45.5842638607282" lon="9.537557640127558"><ele>144.0</ele><time>2026-04-25T08:13:50Z</time></trkpt><trkpt lat="45.584333310451846" lon="9.537467680798215"><ele>144.0</ele><time>2026-04-25T08:13:52Z</time></trkpt><trkpt lat="45.58441321076117" lon="9.537380767628429"><ele>144.0</ele><time>2026-04-25T08:13:54Z</time></trkpt><trkpt lat="45.58445732511527" lon="9.537258797223059"><ele>144.0</ele><time>2026-04-25T08:13:56Z</time></trkpt><trkpt lat="45.58451251025237" lon="9.537154830414101"><ele>144.0</ele><time>2026-04-25T08:13:58Z</time></trkpt><trkpt lat="45.58458769088774" lon="9.537060669469637"><ele>144.0</ele><time>2026-04-25T08:14:00Z</time></trkpt><trkpt lat="45.58464284942699" lon="9.536949025360109"><ele>144.0</ele><time>2026-04-25T08:14:02Z</time></trkpt><trkpt lat="45.58471087916134" lon="9.53685510398777"><ele>144.0</ele><time>2026-04-25T08:14:04Z</time></trkpt><trkpt lat="45.5847836502128" lon="9.536746745022302"><ele>144.0</ele><time>2026-04-25T08:14:06Z</time></trkpt><trkpt lat="45.584866790172015" lon="9.536672372742396"><ele>144.0</ele><time>2026-04-25T08:14:08Z</time></trkpt><trkpt lat="45.58494653424703" lon="9.536589438752184"><ele>144.0</ele><time>2026-04-25T08:14:10Z</time></trkpt><trkpt lat="45.58503074833333" lon="9.53648770536766"><ele>144.0</ele><time>2026-04-25T08:14:12Z</time></trkpt><trkpt lat="45.58511420994376" lon="9.536421719876055"><ele>144.0</ele><time>2026-04-25T08:14:14Z</time></trkpt><trkpt lat="45.58520420110075" lon="9.536340627755838"><ele>144.0</ele><time>2026-04-25T08:14:16Z</time></trkpt><trkpt lat="45.58528476926098" lon="9.536250118930388"><ele>144.0</ele><time>2026-04-25T08:14:18Z</time></trkpt><trkpt lat="45.585371928208346" lon="9.536184736137729"><ele>144.0</ele><time>2026-04-25T08:14:20Z</time></trkpt><trkpt lat="45.58545407606951" lon="9.536076347562117"><ele>143.6</ele><time>2026-04-25T08:14:22Z</time></trkpt><trkpt lat="45.58552460790809" lon="9.53597550911712"><ele>143.2</ele><time>2026-04-25T08:14:24Z</time></trkpt><trkpt lat="45.585574977449305" lon="9.535845149994735"><ele>142.79999999999998</ele><time>2026-04-25T08:14:26Z</time></trkpt><trkpt lat="45.58563342912032" lon="9.535713825372376"><ele>142.4</ele><time>2026-04-25T08:14:28Z</time></trkpt><trkpt lat="45.58570049723938" lon="9.535604259811862"><ele>142.0</ele><time>2026-04-25T08:14:30Z</time></trkpt><trkpt lat="45.585762463140355" lon="9.535500665045433"><ele>142.0</ele><time>2026-04-25T08:14:32Z</time></trkpt><trkpt lat="45.5858284407504" lon="9.535394424003808"><ele>142.0</ele><time>2026-04-25T08:14:34Z</time></trkpt><trkpt lat="45.58590882980336" lon="9.535317731347526"><ele>142.0</ele><time>2026-04-25T08:14:36Z</time></trkpt><trkpt lat="45.58596317565767" lon="9.535205837094933"><ele>142.0</ele><time>2026-04-25T08:14:38Z</time></trkpt><trkpt lat="45.586024915496836" lon="9.535103726490782"><ele>142.0</ele><time>2026-04-25T08:14:40Z</time></trkpt><trkpt lat="45.586075549653565" lon="9.5349837250346"><ele>142.2</ele><time>2026-04-25T08:14:42Z</time></trkpt><trkpt lat="45.58610983830616" lon="9.534856002616975"><ele>142.39999999999998</ele><time>2026-04-25T08:14:44Z</time></trkpt><trkpt lat="45.58616984618906" lon="9.53475710790935"><ele>142.60000000000002</ele><time>2026-04-25T08:14:46Z</time></trkpt><trkpt lat="45.58621877811508" lon="9.53464307735359"><ele>142.8</ele><time>2026-04-25T08:14:48Z</time></trkpt><trkpt lat="45.58628596424777" lon="9.534557724400004"><ele>143.0</ele><time>2026-04-25T08:14:50Z</time></trkpt><trkpt lat="45.58636157879934" lon="9.534469223091609"><ele>143.0</ele><time>2026-04-25T08:14:52Z</time></trkpt><trkpt lat="45.586423794932756" lon="9.534415147362772"><ele>143.0</ele><time>2026-04-25T08:14:54Z</time></trkpt><trkpt lat="45.586489994163834" lon="9.53434739270636"><ele>143.0</ele><time>2026-04-25T08:15:09Z</time></trkpt><trkpt lat="45.586562806401375" lon="9.534284269739508"><ele>143.0</ele><time>2026-04-25T08:15:11Z</time></trkpt><trkpt lat="45.58661898580664" lon="9.534236232237076"><ele>143.0</ele><time>2026-04-25T08:15:13Z</time></trkpt><trkpt lat="45.586681260943095" lon="9.534183485191635"><ele>143.0</ele><time>2026-04-25T08:15:15Z</time></trkpt><trkpt lat="45.586753278911935" lon="9.534123006723012"><ele>143.0</ele><time>2026-04-25T08:15:17Z</time></trkpt><trkpt lat="45.586828661007885" lon="9.534059703181075"><ele>143.0</ele><time>2026-04-25T08:15:19Z</time></trkpt><trkpt lat="45.58690513412236" lon="9.533994422365279"><ele>143.0</ele><time>2026-04-25T08:15:21Z</time></trkpt><trkpt lat="45.58698626116053" lon="9.533923549134851"><ele>143.0</ele><time>2026-04-25T08:15:23Z</time></trkpt><trkpt lat="45.58705145998048" lon="9.53386492525004"><ele>143.0</ele><time>2026-04-25T08:15:25Z</time></trkpt><trkpt lat="45.58713118124799" lon="9.533792014956553"><ele>143.0</ele><time>2026-04-25T08:15:27Z</time></trkpt><trkpt lat="45.587196523968395" lon="9.533730375107796"><ele>143.33333333333331</ele><time>2026-04-25T08:15:29Z</time></trkpt><trkpt lat="45.587254111652506" lon="9.53367605083195"><ele>143.66666666666666</ele><time>2026-04-25T08:15:31Z</time></trkpt><trkpt lat="45.58752208032681" lon="9.534026494719363"><ele>144.0</ele><time>2026-04-25T08:15:34Z</time></trkpt><trkpt lat="45.587598699106664" lon="9.534063038759417"><ele>142.33333333333334</ele><time>2026-04-25T08:15:36Z</time></trkpt><trkpt lat="45.58768387354996" lon="9.534030743384095"><ele>140.66666666666666</ele><time>2026-04-25T08:15:38Z</time></trkpt><trkpt lat="45.58775390859739" lon="9.534004713834129"><ele>139.0</ele><time>2026-04-25T08:15:40Z</time></trkpt><trkpt lat="45.58784488778982" lon="9.533935166903792"><ele>137.33333333333331</ele><time>2026-04-25T08:15:42Z</time></trkpt><trkpt lat="45.587904029257224" lon="9.53389531747891"><ele>135.66666666666666</ele><time>2026-04-25T08:15:44Z</time></trkpt><trkpt lat="45.58797605101192" lon="9.533842764348815"><ele>134.0</ele><time>2026-04-25T08:15:46Z</time></trkpt><trkpt lat="45.58803984673972" lon="9.53378525942193"><ele>134.0</ele><time>2026-04-25T08:15:48Z</time></trkpt><trkpt lat="45.588107489042585" lon="9.533765716684703"><ele>134.0</ele><time>2026-04-25T08:15:50Z</time></trkpt><trkpt lat="45.58819052928158" lon="9.53376882601448"><ele>134.0</ele><time>2026-04-25T08:15:52Z</time></trkpt><trkpt lat="45.58828889345638" lon="9.533766781442141"><ele>134.0</ele><time>2026-04-25T08:15:55Z</time></trkpt><trkpt lat="45.58836625890734" lon="9.53374113495259"><ele>134.0</ele><time>2026-04-25T08:15:57Z</time></trkpt><trkpt lat="45.58843459853206" lon="9.533697553136594"><ele>134.0</ele><time>2026-04-25T08:15:59Z</time></trkpt><trkpt lat="45.588505743321804" lon="9.533675590541996"><ele>134.8</ele><time>2026-04-25T08:16:01Z</time></trkpt><trkpt lat="45.58858135570862" lon="9.533643920451613"><ele>135.60000000000002</ele><time>2026-04-25T08:16:03Z</time></trkpt><trkpt lat="45.58867227070736" lon="9.533607168721431"><ele>136.4</ele><time>2026-04-25T08:16:05Z</time></trkpt><trkpt lat="45.588750110102104" lon="9.53359505556322"><ele>137.20000000000002</ele><time>2026-04-25T08:16:07Z</time></trkpt><trkpt lat="45.58884208796441" lon="9.533537712492896"><ele>138.0</ele><time>2026-04-25T08:16:09Z</time></trkpt><trkpt lat="45.58891905727696" lon="9.53345161493273"><ele>138.0</ele><time>2026-04-25T08:16:11Z</time></trkpt><trkpt lat="45.58898614446268" lon="9.533370134614959"><ele>138.0</ele><time>2026-04-25T08:16:13Z</time></trkpt><trkpt lat="45.58907560661868" lon="9.533342085132826"><ele>138.0</ele><time>2026-04-25T08:16:16Z</time></trkpt><trkpt lat="45.58914392065264" lon="9.533363544542205"><ele>138.0</ele><time>2026-04-25T08:16:18Z</time></trkpt><trkpt lat="45.5892259827664" lon="9.533348295056776"><ele>138.0</ele><time>2026-04-25T08:16:20Z</time></trkpt><trkpt lat="45.58931307933693" lon="9.5333458463091"><ele>138.0</ele><time>2026-04-25T08:16:22Z</time></trkpt><trkpt lat="45.589390290210616" lon="9.533314875149747"><ele>138.0</ele><time>2026-04-25T08:16:24Z</time></trkpt><trkpt lat="45.58946951489599" lon="9.533255722799176"><ele>138.0</ele><time>2026-04-25T08:16:26Z</time></trkpt><trkpt lat="45.58955321323411" lon="9.533255563233775"><ele>138.0</ele><time>2026-04-25T08:16:28Z</time></trkpt><trkpt lat="45.589634933848565" lon="9.533224016831207"><ele>138.0</ele><time>2026-04-25T08:16:30Z</time></trkpt><trkpt lat="45.58971698414616" lon="9.533202400303361"><ele>138.0</ele><time>2026-04-25T08:16:32Z</time></trkpt><trkpt lat="45.589787160971746" lon="9.533198889322033"><ele>138.0</ele><time>2026-04-25T08:16:34Z</time></trkpt><trkpt lat="45.589863877404895" lon="9.53316873489532"><ele>137.66666666666666</ele><time>2026-04-25T08:16:36Z</time></trkpt><trkpt lat="45.58995145743339" lon="9.533123205843024"><ele>137.33333333333334</ele><time>2026-04-25T08:16:38Z</time></trkpt><trkpt lat="45.590035450168386" lon="9.53306074405824"><ele>137.0</ele><time>2026-04-25T08:16:40Z</time></trkpt><trkpt lat="45.59010822898887" lon="9.53304313451273"><ele>136.66666666666669</ele><time>2026-04-25T08:16:43Z</time></trkpt><trkpt lat="45.590175534278245" lon="9.53299948066589"><ele>136.33333333333334</ele><time>2026-04-25T08:16:45Z</time></trkpt><trkpt lat="45.5902489446336" lon="9.532949999869379"><ele>136.0</ele><time>2026-04-25T08:16:47Z</time></trkpt><trkpt lat="45.590324845824775" lon="9.532891545650697"><ele>138.0</ele><time>2026-04-25T08:16:50Z</time></trkpt><trkpt lat="45.590376125777674" lon="9.532670174809626"><ele>140.0</ele><time>2026-04-25T08:16:54Z</time></trkpt><trkpt lat="45.59044393362834" lon="9.532659663834925"><ele>142.0</ele><time>2026-04-25T08:16:57Z</time></trkpt><trkpt lat="45.59036769975741" lon="9.532671480970924"><ele>144.0</ele><time>2026-04-25T08:17:19Z</time></trkpt><trkpt lat="45.59030014110493" lon="9.532681953244738"><ele>146.0</ele><time>2026-04-25T08:17:25Z</time></trkpt><trkpt lat="45.59021511384177" lon="9.53269604436512"><ele>146.4</ele><time>2026-04-25T08:17:28Z</time></trkpt><trkpt lat="45.5901290208744" lon="9.532711420145574"><ele>146.8</ele><time>2026-04-25T08:17:31Z</time></trkpt><trkpt lat="45.5900461726683" lon="9.53272621648695"><ele>147.20000000000002</ele><time>2026-04-25T08:17:34Z</time></trkpt><trkpt lat="45.589950538752454" lon="9.532743296419047"><ele>147.6</ele><time>2026-04-25T08:17:37Z</time></trkpt><trkpt lat="45.58987580086423" lon="9.532765240173772"><ele>148.0</ele><time>2026-04-25T08:17:39Z</time></trkpt><trkpt lat="45.589865938840276" lon="9.532918368038478"><ele>148.0</ele><time>2026-04-25T08:17:40Z</time></trkpt><trkpt lat="45.5898022838249" lon="9.532932288015317"><ele>148.0</ele><time>2026-04-25T08:17:42Z</time></trkpt><trkpt lat="45.58972253598254" lon="9.532965108871798"><ele>148.0</ele><time>2026-04-25T08:17:45Z</time></trkpt><trkpt lat="45.589806160762656" lon="9.532768105684658"><ele>148.0</ele><time>2026-04-25T08:19:15Z</time></trkpt><trkpt lat="45.589884963467235" lon="9.532755008195124"><ele>148.0</ele><time>2026-04-25T08:19:18Z</time></trkpt><trkpt lat="45.5899531193531" lon="9.532742835792778"><ele>148.0</ele><time>2026-04-25T08:19:20Z</time></trkpt><trkpt lat="45.59004536521919" lon="9.532726360951694"><ele>148.0</ele><time>2026-04-25T08:19:22Z</time></trkpt><trkpt lat="45.59013275948099" lon="9.532710752611122"><ele>148.0</ele><time>2026-04-25T08:19:24Z</time></trkpt><trkpt lat="45.590216581699494" lon="9.532695782216354"><ele>148.0</ele><time>2026-04-25T08:19:27Z</time></trkpt><trkpt lat="45.59030057372965" lon="9.532681886198596"><ele>148.0</ele><time>2026-04-25T08:19:29Z</time></trkpt><trkpt lat="45.59036579741677" lon="9.532685688017358"><ele>148.0</ele><time>2026-04-25T08:19:52Z</time></trkpt><trkpt lat="45.590434234399304" lon="9.532643457083116"><ele>147.66666666666669</ele><time>2026-04-25T08:19:58Z</time></trkpt><trkpt lat="45.59050910141593" lon="9.532633666879557"><ele>147.33333333333334</ele><time>2026-04-25T08:20:00Z</time></trkpt><trkpt lat="45.59057628440208" lon="9.532619632154704"><ele>147.0</ele><time>2026-04-25T08:20:02Z</time></trkpt><trkpt lat="45.59066322021354" lon="9.532604101480581"><ele>146.66666666666666</ele><time>2026-04-25T08:20:05Z</time></trkpt><trkpt lat="45.59076800922687" lon="9.532590796906218"><ele>146.33333333333331</ele><time>2026-04-25T08:20:08Z</time></trkpt><trkpt lat="45.59085830986834" lon="9.532575816322721"><ele>146.0</ele><time>2026-04-25T08:20:10Z</time></trkpt><trkpt lat="45.59095327341962" lon="9.532564627950617"><ele>146.0</ele><time>2026-04-25T08:20:12Z</time></trkpt><trkpt lat="45.59104372963646" lon="9.532549564101384"><ele>146.0</ele><time>2026-04-25T08:20:14Z</time></trkpt><trkpt lat="45.591149247425854" lon="9.532532296000168"><ele>146.0</ele><time>2026-04-25T08:20:16Z</time></trkpt><trkpt lat="45.591262025669096" lon="9.532516567681897"><ele>146.0</ele><time>2026-04-25T08:20:18Z</time></trkpt><trkpt lat="45.59138298217957" lon="9.532519747355456"><ele>146.0</ele><time>2026-04-25T08:20:20Z</time></trkpt><trkpt lat="45.591493625199234" lon="9.532491006335439"><ele>145.2</ele><time>2026-04-25T08:20:22Z</time></trkpt><trkpt lat="45.59160731706365" lon="9.532482886375453"><ele>144.39999999999998</ele><time>2026-04-25T08:20:24Z</time></trkpt><trkpt lat="45.59167295868923" lon="9.532470905427742"><ele>143.6</ele><time>2026-04-25T08:20:25Z</time></trkpt><trkpt lat="45.591792794569564" lon="9.532450282617543"><ele>142.79999999999998</ele><time>2026-04-25T08:20:27Z</time></trkpt><trkpt lat="45.5919146870208" lon="9.532429097305144"><ele>142.0</ele><time>2026-04-25T08:20:29Z</time></trkpt><trkpt lat="45.59203459540069" lon="9.53241261802514"><ele>141.4</ele><time>2026-04-25T08:20:31Z</time></trkpt><trkpt lat="45.59215543133051" lon="9.532401898343723"><ele>140.79999999999998</ele><time>2026-04-25T08:20:33Z</time></trkpt><trkpt lat="45.592276675444005" lon="9.532380658416239"><ele>140.2</ele><time>2026-04-25T08:20:35Z</time></trkpt><trkpt lat="45.59234034715092" lon="9.532371769251657"><ele>139.6</ele><time>2026-04-25T08:20:36Z</time></trkpt><trkpt lat="45.592402760403225" lon="9.532383805677757"><ele>139.0</ele><time>2026-04-25T08:20:37Z</time></trkpt><trkpt lat="45.59252444704405" lon="9.532343915624573"><ele>139.0</ele><time>2026-04-25T08:20:39Z</time></trkpt><trkpt lat="45.59264597919684" lon="9.532342838965723"><ele>139.0</ele><time>2026-04-25T08:20:41Z</time></trkpt><trkpt lat="45.59270694662987" lon="9.532313574034378"><ele>139.0</ele><time>2026-04-25T08:20:42Z</time></trkpt><trkpt lat="45.592770390008056" lon="9.532298697038796"><ele>139.0</ele><time>2026-04-25T08:20:43Z</time></trkpt><trkpt lat="45.59289103163581" lon="9.532269685883652"><ele>139.0</ele><time>2026-04-25T08:20:45Z</time></trkpt><trkpt lat="45.59300834379837" lon="9.532246435402902"><ele>139.2</ele><time>2026-04-25T08:20:47Z</time></trkpt><trkpt lat="45.593115217342294" lon="9.532220447990001"><ele>139.4</ele><time>2026-04-25T08:20:49Z</time></trkpt><trkpt lat="45.59321205656632" lon="9.532200038582001"><ele>139.6</ele><time>2026-04-25T08:20:51Z</time></trkpt><trkpt lat="45.59330357706761" lon="9.532200046568528"><ele>139.8</ele><time>2026-04-25T08:20:53Z</time></trkpt><trkpt lat="45.59338565224164" lon="9.532161534881485"><ele>140.0</ele><time>2026-04-25T08:20:55Z</time></trkpt><trkpt lat="45.59348326378175" lon="9.532140064090461"><ele>140.0</ele><time>2026-04-25T08:20:57Z</time></trkpt><trkpt lat="45.5935808703789" lon="9.53211875730535"><ele>140.0</ele><time>2026-04-25T08:20:59Z</time></trkpt><trkpt lat="45.59368836142252" lon="9.53209595595946"><ele>140.0</ele><time>2026-04-25T08:21:01Z</time></trkpt><trkpt lat="45.59378936739308" lon="9.53207220800866"><ele>140.0</ele><time>2026-04-25T08:21:03Z</time></trkpt><trkpt lat="45.59389395054725" lon="9.53204674070546"><ele>140.0</ele><time>2026-04-25T08:21:05Z</time></trkpt><trkpt lat="45.593999730817245" lon="9.532024580054555"><ele>142.25</ele><time>2026-04-25T08:21:07Z</time></trkpt><trkpt lat="45.594106076982506" lon="9.532007937539914"><ele>144.5</ele><time>2026-04-25T08:21:09Z</time></trkpt><trkpt lat="45.59421679393908" lon="9.531985678286539"><ele>146.75</ele><time>2026-04-25T08:21:11Z</time></trkpt><trkpt lat="45.59433408783473" lon="9.531972789141193"><ele>149.0</ele><time>2026-04-25T08:21:13Z</time></trkpt><trkpt lat="45.594447734570366" lon="9.531956900875455"><ele>147.5</ele><time>2026-04-25T08:21:15Z</time></trkpt><trkpt lat="45.59455892819015" lon="9.531931084387073"><ele>146.0</ele><time>2026-04-25T08:21:17Z</time></trkpt><trkpt lat="45.59467271134532" lon="9.531914109980622"><ele>144.5</ele><time>2026-04-25T08:21:19Z</time></trkpt><trkpt lat="45.59478372796906" lon="9.531894054487951"><ele>143.0</ele><time>2026-04-25T08:21:21Z</time></trkpt><trkpt lat="45.59489294681737" lon="9.531864132241283"><ele>143.0</ele><time>2026-04-25T08:21:23Z</time></trkpt><trkpt lat="45.59500839180814" lon="9.531834015251713"><ele>143.0</ele><time>2026-04-25T08:21:25Z</time></trkpt><trkpt lat="45.59512072588833" lon="9.531799624378442"><ele>143.0</ele><time>2026-04-25T08:21:27Z</time></trkpt><trkpt lat="45.595234912924276" lon="9.531762919812053"><ele>143.0</ele><time>2026-04-25T08:21:29Z</time></trkpt><trkpt lat="45.59535341471733" lon="9.531728450788965"><ele>142.0</ele><time>2026-04-25T08:21:31Z</time></trkpt><trkpt lat="45.59546602063244" lon="9.53169117992823"><ele>141.0</ele><time>2026-04-25T08:21:33Z</time></trkpt><trkpt lat="45.595586627297784" lon="9.531662654611415"><ele>140.0</ele><time>2026-04-25T08:21:35Z</time></trkpt><trkpt lat="45.595700617235245" lon="9.531621983600353"><ele>139.0</ele><time>2026-04-25T08:21:37Z</time></trkpt><trkpt lat="45.5958123333178" lon="9.531585519501382"><ele>139.0</ele><time>2026-04-25T08:21:39Z</time></trkpt><trkpt lat="45.595926628818276" lon="9.53154822462637"><ele>139.0</ele><time>2026-04-25T08:21:41Z</time></trkpt><trkpt lat="45.59604022172104" lon="9.531513386653149"><ele>139.0</ele><time>2026-04-25T08:21:43Z</time></trkpt><trkpt lat="45.596150624789296" lon="9.531475117742447"><ele>139.0</ele><time>2026-04-25T08:21:45Z</time></trkpt><trkpt lat="45.59626411028654" lon="9.531440477236957"><ele>138.5</ele><time>2026-04-25T08:21:47Z</time></trkpt><trkpt lat="45.596378457750006" lon="9.531404932578166"><ele>138.0</ele><time>2026-04-25T08:21:49Z</time></trkpt><trkpt lat="45.596491141028075" lon="9.531361763727876"><ele>137.5</ele><time>2026-04-25T08:21:51Z</time></trkpt><trkpt lat="45.59659979826159" lon="9.531328078839618"><ele>137.0</ele><time>2026-04-25T08:21:53Z</time></trkpt><trkpt lat="45.596713069314184" lon="9.531317853755379"><ele>137.0</ele><time>2026-04-25T08:21:55Z</time></trkpt><trkpt lat="45.59682019951041" lon="9.531292902909742"><ele>137.0</ele><time>2026-04-25T08:21:57Z</time></trkpt><trkpt lat="45.596939579241266" lon="9.531273291008025"><ele>137.0</ele><time>2026-04-25T08:21:59Z</time></trkpt><trkpt lat="45.59700114855857" lon="9.53125386430433"><ele>137.0</ele><time>2026-04-25T08:22:00Z</time></trkpt><trkpt lat="45.59711353831231" lon="9.531249034181148"><ele>137.0</ele><time>2026-04-25T08:22:02Z</time></trkpt><trkpt lat="45.597229078281494" lon="9.53123030033707"><ele>137.25</ele><time>2026-04-25T08:22:04Z</time></trkpt><trkpt lat="45.597343789398174" lon="9.531247661703485"><ele>137.5</ele><time>2026-04-25T08:22:06Z</time></trkpt><trkpt lat="45.59745498833648" lon="9.531233071549018"><ele>137.75</ele><time>2026-04-25T08:22:08Z</time></trkpt><trkpt lat="45.597568743964565" lon="9.531232943452416"><ele>138.0</ele><time>2026-04-25T08:22:10Z</time></trkpt><trkpt lat="45.59768135700025" lon="9.531233199003301"><ele>138.0</ele><time>2026-04-25T08:22:12Z</time></trkpt><trkpt lat="45.597797484883536" lon="9.531236194698483"><ele>138.0</ele><time>2026-04-25T08:22:14Z</time></trkpt><trkpt lat="45.5979146189267" lon="9.531232827602944"><ele>138.0</ele><time>2026-04-25T08:22:16Z</time></trkpt><trkpt lat="45.598032323196" lon="9.531207728390063"><ele>138.0</ele><time>2026-04-25T08:22:18Z</time></trkpt><trkpt lat="45.59814865773129" lon="9.531167877732402"><ele>138.8</ele><time>2026-04-25T08:22:20Z</time></trkpt><trkpt lat="45.59826642923176" lon="9.531132031231165"><ele>139.60000000000002</ele><time>2026-04-25T08:22:22Z</time></trkpt><trkpt lat="45.59837251707345" lon="9.531079521744948"><ele>140.39999999999998</ele><time>2026-04-25T08:22:24Z</time></trkpt><trkpt lat="45.59843687309392" lon="9.53105170697145"><ele>141.2</ele><time>2026-04-25T08:22:25Z</time></trkpt><trkpt lat="45.59850061187051" lon="9.531041435613941"><ele>142.0</ele><time>2026-04-25T08:22:26Z</time></trkpt><trkpt lat="45.59861295705722" lon="9.530985720666768"><ele>140.25</ele><time>2026-04-25T08:22:28Z</time></trkpt><trkpt lat="45.598722700500005" lon="9.530924471962187"><ele>138.5</ele><time>2026-04-25T08:22:30Z</time></trkpt><trkpt lat="45.59883388123781" lon="9.530849973295522"><ele>136.75</ele><time>2026-04-25T08:22:32Z</time></trkpt><trkpt lat="45.59894003752394" lon="9.53078526115315"><ele>135.0</ele><time>2026-04-25T08:22:34Z</time></trkpt><trkpt lat="45.59904343154551" lon="9.53068692044272"><ele>135.0</ele><time>2026-04-25T08:22:36Z</time></trkpt><trkpt lat="45.59914901349146" lon="9.530617064763419"><ele>135.0</ele><time>2026-04-25T08:22:38Z</time></trkpt><trkpt lat="45.59925271279674" lon="9.530547350181699"><ele>135.0</ele><time>2026-04-25T08:22:40Z</time></trkpt><trkpt lat="45.59935366070622" lon="9.530483268305403"><ele>135.0</ele><time>2026-04-25T08:22:42Z</time></trkpt><trkpt lat="45.59945178779618" lon="9.530422033944905"><ele>135.0</ele><time>2026-04-25T08:22:44Z</time></trkpt><trkpt lat="45.59955876220852" lon="9.530360097394219"><ele>135.4</ele><time>2026-04-25T08:22:46Z</time></trkpt><trkpt lat="45.59967466026413" lon="9.530326589178637"><ele>135.8</ele><time>2026-04-25T08:22:48Z</time></trkpt><trkpt lat="45.599733653077756" lon="9.530286593888903"><ele>136.2</ele><time>2026-04-25T08:22:49Z</time></trkpt><trkpt lat="45.59984461051586" lon="9.530234409300492"><ele>136.6</ele><time>2026-04-25T08:22:51Z</time></trkpt><trkpt lat="45.59991141150667" lon="9.530227326746452"><ele>137.0</ele><time>2026-04-25T08:22:52Z</time></trkpt><trkpt lat="45.6000182027219" lon="9.530162158791514"><ele>137.0</ele><time>2026-04-25T08:22:54Z</time></trkpt><trkpt lat="45.60013648336616" lon="9.530117263749709"><ele>137.0</ele><time>2026-04-25T08:22:56Z</time></trkpt><trkpt lat="45.60025153757981" lon="9.5300683603712"><ele>137.0</ele><time>2026-04-25T08:22:58Z</time></trkpt><trkpt lat="45.600365131285216" lon="9.530008741066425"><ele>137.0</ele><time>2026-04-25T08:23:00Z</time></trkpt><trkpt lat="45.600476295235964" lon="9.529955056302416"><ele>136.79999999999998</ele><time>2026-04-25T08:23:02Z</time></trkpt><trkpt lat="45.60053678618674" lon="9.52992732481636"><ele>136.6</ele><time>2026-04-25T08:23:03Z</time></trkpt><trkpt lat="45.60064858923348" lon="9.5298620041502"><ele>136.39999999999998</ele><time>2026-04-25T08:23:05Z</time></trkpt><trkpt lat="45.600763805945796" lon="9.529806126334973"><ele>136.2</ele><time>2026-04-25T08:23:07Z</time></trkpt><trkpt lat="45.600879266165755" lon="9.529743865165676"><ele>136.0</ele><time>2026-04-25T08:23:09Z</time></trkpt><trkpt lat="45.60099516987191" lon="9.529687558174984"><ele>136.0</ele><time>2026-04-25T08:23:11Z</time></trkpt><trkpt lat="45.60105952402528" lon="9.529655780416956"><ele>136.0</ele><time>2026-04-25T08:23:12Z</time></trkpt><trkpt lat="45.601177444361376" lon="9.529620163119272"><ele>136.0</ele><time>2026-04-25T08:23:14Z</time></trkpt><trkpt lat="45.60123079387271" lon="9.529569683820831"><ele>136.0</ele><time>2026-04-25T08:23:15Z</time></trkpt><trkpt lat="45.601350296729116" lon="9.529520515719176"><ele>136.0</ele><time>2026-04-25T08:23:17Z</time></trkpt><trkpt lat="45.60146673518353" lon="9.529503065664182"><ele>137.4</ele><time>2026-04-25T08:23:19Z</time></trkpt><trkpt lat="45.60158366050603" lon="9.529464791272261"><ele>138.8</ele><time>2026-04-25T08:23:21Z</time></trkpt><trkpt lat="45.6016870907048" lon="9.529494840964805"><ele>140.20000000000002</ele><time>2026-04-25T08:23:23Z</time></trkpt><trkpt lat="45.60177801379488" lon="9.529508751325062"><ele>141.6</ele><time>2026-04-25T08:23:25Z</time></trkpt><trkpt lat="45.601860636662934" lon="9.529525076304099"><ele>143.0</ele><time>2026-04-25T08:23:27Z</time></trkpt><trkpt lat="45.601943030329075" lon="9.529521156361923"><ele>143.5</ele><time>2026-04-25T08:23:29Z</time></trkpt><trkpt lat="45.60201897144475" lon="9.529536461029577"><ele>144.0</ele><time>2026-04-25T08:23:31Z</time></trkpt><trkpt lat="45.602094073548734" lon="9.529554984837477"><ele>144.5</ele><time>2026-04-25T08:23:33Z</time></trkpt><trkpt lat="45.60217766192787" lon="9.529565245386756"><ele>145.0</ele><time>2026-04-25T08:23:36Z</time></trkpt><trkpt lat="45.60224278901095" lon="9.529493377793347"><ele>145.5</ele><time>2026-04-25T08:23:39Z</time></trkpt><trkpt lat="45.60231364904941" lon="9.529544200895014"><ele>146.0</ele><time>2026-04-25T08:23:41Z</time></trkpt><trkpt lat="45.60225066374592" lon="9.5295497732849"><ele>144.16666666666666</ele><time>2026-04-25T08:24:25Z</time></trkpt><trkpt lat="45.60229455514886" lon="9.529786847989861"><ele>142.33333333333331</ele><time>2026-04-25T08:24:35Z</time></trkpt><trkpt lat="45.6023159137301" lon="9.529880249679582"><ele>140.5</ele><time>2026-04-25T08:24:46Z</time></trkpt><trkpt lat="45.60233574706676" lon="9.529967555907547"><ele>138.66666666666666</ele><time>2026-04-25T08:24:52Z</time></trkpt><trkpt lat="45.6023548993178" lon="9.530069070971829"><ele>136.83333333333334</ele><time>2026-04-25T08:24:58Z</time></trkpt><trkpt lat="45.602376227008605" lon="9.530163018626247"><ele>135.0</ele><time>2026-04-25T08:25:15Z</time></trkpt><trkpt lat="45.60239434796736" lon="9.530260017287949"><ele>135.0</ele><time>2026-04-25T08:25:20Z</time></trkpt><trkpt lat="45.60241513973259" lon="9.530360706328398"><ele>135.0</ele><time>2026-04-25T08:25:25Z</time></trkpt><trkpt lat="45.602389250980146" lon="9.530445343848095"><ele>135.0</ele><time>2026-04-25T08:25:39Z</time></trkpt><trkpt lat="45.602317831047635" lon="9.530491212213589"><ele>135.0</ele><time>2026-04-25T08:25:44Z</time></trkpt><trkpt lat="45.60227736549549" lon="9.530566529178305"><ele>135.0</ele><time>2026-04-25T08:25:49Z</time></trkpt><trkpt lat="45.60231486874806" lon="9.530664654681537"><ele>135.0</ele><time>2026-04-25T08:25:54Z</time></trkpt><trkpt lat="45.602324605970196" lon="9.530759287030673"><ele>135.0</ele><time>2026-04-25T08:25:58Z</time></trkpt><trkpt lat="45.60226624342595" lon="9.53082958680495"><ele>135.71428571428572</ele><time>2026-04-25T08:26:03Z</time></trkpt><trkpt lat="45.60219792113494" lon="9.530853130416322"><ele>136.42857142857142</ele><time>2026-04-25T08:26:07Z</time></trkpt><trkpt lat="45.60213627898544" lon="9.53088451575448"><ele>137.14285714285714</ele><time>2026-04-25T08:26:10Z</time></trkpt><trkpt lat="45.602073668509654" lon="9.530929072009972"><ele>137.85714285714286</ele><time>2026-04-25T08:26:13Z</time></trkpt><trkpt lat="45.60201162043533" lon="9.530962860423385"><ele>138.57142857142856</ele><time>2026-04-25T08:26:17Z</time></trkpt><trkpt lat="45.60193477879262" lon="9.531004213184607"><ele>139.28571428571428</ele><time>2026-04-25T08:26:21Z</time></trkpt><trkpt lat="45.60186485464257" lon="9.531060924726978"><ele>140.0</ele><time>2026-04-25T08:26:24Z</time></trkpt><trkpt lat="45.601791804769405" lon="9.531089581472118"><ele>140.0</ele><time>2026-04-25T08:26:27Z</time></trkpt><trkpt lat="45.60171886243709" lon="9.53115512368449"><ele>140.0</ele><time>2026-04-25T08:26:30Z</time></trkpt><trkpt lat="45.60163952405758" lon="9.5312111701621"><ele>140.0</ele><time>2026-04-25T08:26:33Z</time></trkpt><trkpt lat="45.601568508554855" lon="9.531275307873653"><ele>140.0</ele><time>2026-04-25T08:26:37Z</time></trkpt><trkpt lat="45.60150961501052" lon="9.531320735891134"><ele>140.0</ele><time>2026-04-25T08:26:40Z</time></trkpt><trkpt lat="45.60145340959129" lon="9.531366694103427"><ele>140.0</ele><time>2026-04-25T08:26:42.999Z</time></trkpt><trkpt lat="45.60138849098961" lon="9.531424500260252"><ele>140.83333333333331</ele><time>2026-04-25T08:26:45.999Z</time></trkpt><trkpt lat="45.601323722361656" lon="9.531473935124067"><ele>141.66666666666666</ele><time>2026-04-25T08:26:48.999Z</time></trkpt><trkpt lat="45.60125668975684" lon="9.531525098386581"><ele>142.5</ele><time>2026-04-25T08:26:51.999Z</time></trkpt><trkpt lat="45.60117340576452" lon="9.531585657230533"><ele>143.33333333333334</ele><time>2026-04-25T08:26:54.999Z</time></trkpt><trkpt lat="45.601125520223896" lon="9.531661300467544"><ele>144.16666666666669</ele><time>2026-04-25T08:26:57.999Z</time></trkpt><trkpt lat="45.60105839389962" lon="9.5317047266296"><ele>145.0</ele><time>2026-04-25T08:26:59.999Z</time></trkpt><trkpt lat="45.600984869262135" lon="9.531745308697639"><ele>145.0</ele><time>2026-04-25T08:27:01.999Z</time></trkpt><trkpt lat="45.60089480580879" lon="9.531806574354977"><ele>145.0</ele><time>2026-04-25T08:27:04.999Z</time></trkpt><trkpt lat="45.60082867043815" lon="9.531839200317402"><ele>145.0</ele><time>2026-04-25T08:27:06.999Z</time></trkpt><trkpt lat="45.600768527174345" lon="9.531890326386067"><ele>145.0</ele><time>2026-04-25T08:27:08.999Z</time></trkpt><trkpt lat="45.60068262156255" lon="9.531915146139056"><ele>145.0</ele><time>2026-04-25T08:27:11.999Z</time></trkpt><trkpt lat="45.600597003426635" lon="9.531978854850115"><ele>145.0</ele><time>2026-04-25T08:27:14.999Z</time></trkpt><trkpt lat="45.60053833534174" lon="9.532025119895803"><ele>145.16666666666669</ele><time>2026-04-25T08:27:16.999Z</time></trkpt><trkpt lat="45.60047430439788" lon="9.532077030281165"><ele>145.33333333333334</ele><time>2026-04-25T08:27:18.999Z</time></trkpt><trkpt lat="45.6003820875833" lon="9.53213473588325"><ele>145.5</ele><time>2026-04-25T08:27:21.999Z</time></trkpt><trkpt lat="45.600312165148125" lon="9.532172883063513"><ele>145.66666666666666</ele><time>2026-04-25T08:27:23.999Z</time></trkpt><trkpt lat="45.60024169270981" lon="9.532216844765486"><ele>145.83333333333331</ele><time>2026-04-25T08:27:25.999Z</time></trkpt><trkpt lat="45.60017532524229" lon="9.532270165867189"><ele>146.0</ele><time>2026-04-25T08:27:27.999Z</time></trkpt><trkpt lat="45.60010240903956" lon="9.532321715769234"><ele>146.0</ele><time>2026-04-25T08:27:29.999Z</time></trkpt><trkpt lat="45.600037053234004" lon="9.532368017171656"><ele>146.0</ele><time>2026-04-25T08:27:31.999Z</time></trkpt><trkpt lat="45.59996425372639" lon="9.532426752507522"><ele>146.0</ele><time>2026-04-25T08:27:33.999Z</time></trkpt><trkpt lat="45.5998899454576" lon="9.53247965853186"><ele>146.0</ele><time>2026-04-25T08:27:36Z</time></trkpt><trkpt lat="45.599821713945836" lon="9.53251983650829"><ele>146.0</ele><time>2026-04-25T08:27:38Z</time></trkpt><trkpt lat="45.59975520186856" lon="9.532565758195439"><ele>146.0</ele><time>2026-04-25T08:27:40Z</time></trkpt><trkpt lat="45.59968150590523" lon="9.53261436329862"><ele>146.0</ele><time>2026-04-25T08:27:42Z</time></trkpt><trkpt lat="45.59960411949004" lon="9.532639956506001"><ele>146.0</ele><time>2026-04-25T08:27:44Z</time></trkpt><trkpt lat="45.59951909313916" lon="9.53265239533078"><ele>146.0</ele><time>2026-04-25T08:27:46Z</time></trkpt><trkpt lat="45.599435615673194" lon="9.532668388663405"><ele>146.0</ele><time>2026-04-25T08:27:48Z</time></trkpt><trkpt lat="45.5993448934531" lon="9.532693193878655"><ele>146.0</ele><time>2026-04-25T08:27:50Z</time></trkpt><trkpt lat="45.59926018849149" lon="9.532702461079657"><ele>146.0</ele><time>2026-04-25T08:27:52Z</time></trkpt><trkpt lat="45.59916538602221" lon="9.5327348190305"><ele>145.6</ele><time>2026-04-25T08:27:54Z</time></trkpt><trkpt lat="45.59908325968065" lon="9.53273881208536"><ele>145.2</ele><time>2026-04-25T08:27:56Z</time></trkpt><trkpt lat="45.59899955247954" lon="9.532794492207008"><ele>144.8</ele><time>2026-04-25T08:27:58Z</time></trkpt><trkpt lat="45.59896706752573" lon="9.532929384058127"><ele>144.4</ele><time>2026-04-25T08:28:00Z</time></trkpt><trkpt lat="45.598981268878276" lon="9.533054129019376"><ele>144.0</ele><time>2026-04-25T08:28:02Z</time></trkpt><trkpt lat="45.59899670392885" lon="9.533179364500999"><ele>144.57142857142858</ele><time>2026-04-25T08:28:04Z</time></trkpt><trkpt lat="45.5990102853465" lon="9.533294921057523"><ele>145.14285714285714</ele><time>2026-04-25T08:28:06Z</time></trkpt><trkpt lat="45.59901593360889" lon="9.533410747061145"><ele>145.71428571428572</ele><time>2026-04-25T08:28:10Z</time></trkpt><trkpt lat="45.59903096045381" lon="9.533499877141638"><ele>146.28571428571428</ele><time>2026-04-25T08:28:12Z</time></trkpt><trkpt lat="45.59902777604771" lon="9.53359306540731"><ele>146.85714285714286</ele><time>2026-04-25T08:28:14Z</time></trkpt><trkpt lat="45.599037166373094" lon="9.533695313806415"><ele>147.42857142857144</ele><time>2026-04-25T08:28:16Z</time></trkpt><trkpt lat="45.599047044462644" lon="9.533798190718993"><ele>148.0</ele><time>2026-04-25T08:28:18Z</time></trkpt><trkpt lat="45.59905691842007" lon="9.53390102076697"><ele>148.5</ele><time>2026-04-25T08:28:20Z</time></trkpt><trkpt lat="45.59906490477322" lon="9.534011496697708"><ele>149.0</ele><time>2026-04-25T08:28:22Z</time></trkpt><trkpt lat="45.59907505843912" lon="9.534123104042616"><ele>149.5</ele><time>2026-04-25T08:28:24.001Z</time></trkpt><trkpt lat="45.59908429135273" lon="9.534225833746996"><ele>150.0</ele><time>2026-04-25T08:28:26.001Z</time></trkpt><trkpt lat="45.59903872187676" lon="9.53431076529698"><ele>150.5</ele><time>2026-04-25T08:28:29.001Z</time></trkpt><trkpt lat="45.5989607926241" lon="9.534324225113044"><ele>151.0</ele><time>2026-04-25T08:28:31.001Z</time></trkpt><trkpt lat="45.59887766996228" lon="9.534343847537414"><ele>151.0</ele><time>2026-04-25T08:28:33.001Z</time></trkpt><trkpt lat="45.5987972160488" lon="9.534343563100952"><ele>151.0</ele><time>2026-04-25T08:28:35.001Z</time></trkpt><trkpt lat="45.59871133224243" lon="9.534380050366241"><ele>151.0</ele><time>2026-04-25T08:28:37.001Z</time></trkpt><trkpt lat="45.59861693888405" lon="9.534382399513415"><ele>151.0</ele><time>2026-04-25T08:28:39.001Z</time></trkpt><trkpt lat="45.59855373687384" lon="9.534529532591511"><ele>151.0</ele><time>2026-04-25T08:28:41.001Z</time></trkpt><trkpt lat="45.59856708689903" lon="9.534660921912426"><ele>151.6</ele><time>2026-04-25T08:28:43.001Z</time></trkpt><trkpt lat="45.598588500457375" lon="9.534769695389254"><ele>152.2</ele><time>2026-04-25T08:28:46.001Z</time></trkpt><trkpt lat="45.5984890075731" lon="9.534911506113932"><ele>152.8</ele><time>2026-04-25T08:28:51Z</time></trkpt><trkpt lat="45.59842465050343" lon="9.534924286795738"><ele>153.4</ele><time>2026-04-25T08:30:04Z</time></trkpt><trkpt lat="45.598554200043814" lon="9.53490176045739"><ele>154.0</ele><time>2026-04-25T08:30:23Z</time></trkpt><trkpt lat="45.59855505042465" lon="9.535016905628485"><ele>154.0</ele><time>2026-04-25T08:30:26Z</time></trkpt><trkpt lat="45.598697262803704" lon="9.53499003216847"><ele>154.0</ele><time>2026-04-25T08:30:59Z</time></trkpt><trkpt lat="45.5987535615814" lon="9.534917000056227"><ele>154.0</ele><time>2026-04-25T08:31:01Z</time></trkpt><trkpt lat="45.59862720623764" lon="9.534852367918779"><ele>154.0</ele><time>2026-04-25T08:31:20Z</time></trkpt><trkpt lat="45.59854049292872" lon="9.534875212975418"><ele>154.0</ele><time>2026-04-25T08:31:41.028Z</time></trkpt><trkpt lat="45.5984627972582" lon="9.534904626603584"><ele>154.0</ele><time>2026-04-25T08:32:45.626Z</time></trkpt><trkpt lat="45.598435478552695" lon="9.5348046602784"><ele>154.0</ele><time>2026-04-25T08:32:47.02Z</time></trkpt><trkpt lat="45.598399953195816" lon="9.534810119510071"><ele>154.0</ele><time>2026-04-25T08:37:43.001Z</time></trkpt><trkpt lat="45.598332054914756" lon="9.534823367481884"><ele>154.0</ele><time>2026-04-25T08:37:47.001Z</time></trkpt><trkpt lat="45.598259249695815" lon="9.534843891815248"><ele>154.0</ele><time>2026-04-25T08:37:52.001Z</time></trkpt><trkpt lat="45.59819881898396" lon="9.534887532042662"><ele>154.0</ele><time>2026-04-25T08:37:55.001Z</time></trkpt><trkpt lat="45.598138864679235" lon="9.534931383732747"><ele>154.0</ele><time>2026-04-25T08:38:13Z</time></trkpt><trkpt lat="45.598081380745256" lon="9.534989833200322"><ele>154.0</ele><time>2026-04-25T08:38:17Z</time></trkpt><trkpt lat="45.59801290302216" lon="9.535044169255796"><ele>154.0</ele><time>2026-04-25T08:38:22Z</time></trkpt><trkpt lat="45.59794693167917" lon="9.535060315468712"><ele>154.0</ele><time>2026-04-25T08:38:25Z</time></trkpt><trkpt lat="45.59786372679217" lon="9.535077141036504"><ele>154.0</ele><time>2026-04-25T08:38:28Z</time></trkpt><trkpt lat="45.59778556152062" lon="9.535079221812577"><ele>154.0</ele><time>2026-04-25T08:38:31Z</time></trkpt><trkpt lat="45.59769951581353" lon="9.535090593239758"><ele>154.0</ele><time>2026-04-25T08:38:34Z</time></trkpt><trkpt lat="45.59762725661664" lon="9.535117489549638"><ele>153.33333333333334</ele><time>2026-04-25T08:38:36Z</time></trkpt><trkpt lat="45.59753475521188" lon="9.535142564565575"><ele>152.66666666666669</ele><time>2026-04-25T08:38:39Z</time></trkpt><trkpt lat="45.59745929670851" lon="9.535167096078695"><ele>152.0</ele><time>2026-04-25T08:38:41Z</time></trkpt><trkpt lat="45.597385534008815" lon="9.535180087052145"><ele>151.33333333333334</ele><time>2026-04-25T08:38:43Z</time></trkpt><trkpt lat="45.59731594317476" lon="9.535196682147635"><ele>150.66666666666666</ele><time>2026-04-25T08:38:45Z</time></trkpt><trkpt lat="45.59724641654558" lon="9.535211687173822"><ele>150.0</ele><time>2026-04-25T08:38:47Z</time></trkpt><trkpt lat="45.597152636209906" lon="9.535225042014522"><ele>150.0</ele><time>2026-04-25T08:38:50Z</time></trkpt><trkpt lat="45.597068361491004" lon="9.535247453309104"><ele>150.0</ele><time>2026-04-25T08:38:53Z</time></trkpt><trkpt lat="45.59698257056558" lon="9.535256226963249"><ele>150.0</ele><time>2026-04-25T08:38:56Z</time></trkpt><trkpt lat="45.596911478947206" lon="9.535267107890729"><ele>150.0</ele><time>2026-04-25T08:38:58Z</time></trkpt><trkpt lat="45.59684471338635" lon="9.535284447574876"><ele>150.0</ele><time>2026-04-25T08:39:00Z</time></trkpt><trkpt lat="45.5967761712907" lon="9.53529607914441"><ele>150.0</ele><time>2026-04-25T08:39:02Z</time></trkpt><trkpt lat="45.59670535061272" lon="9.535306703526452"><ele>149.99999999999997</ele><time>2026-04-25T08:39:04Z</time></trkpt><trkpt lat="45.59663469872287" lon="9.535330757707367"><ele>150.0</ele><time>2026-04-25T08:39:06Z</time></trkpt><trkpt lat="45.59656103325751" lon="9.535346009575393"><ele>150.0</ele><time>2026-04-25T08:39:08Z</time></trkpt><trkpt lat="45.59648950240553" lon="9.535355810458407"><ele>150.0</ele><time>2026-04-25T08:39:10Z</time></trkpt><trkpt lat="45.59642208978359" lon="9.535374572422699"><ele>150.0</ele><time>2026-04-25T08:39:12Z</time></trkpt><trkpt lat="45.5963502391523" lon="9.535384665188207"><ele>149.99999999999997</ele><time>2026-04-25T08:39:14Z</time></trkpt><trkpt lat="45.5962798546759" lon="9.535405813538238"><ele>150.0</ele><time>2026-04-25T08:39:16Z</time></trkpt><trkpt lat="45.59621358196916" lon="9.53542326724986"><ele>149.99999999999997</ele><time>2026-04-25T08:39:18Z</time></trkpt><trkpt lat="45.59614298854976" lon="9.535439933696724"><ele>150.0</ele><time>2026-04-25T08:39:20Z</time></trkpt><trkpt lat="45.59607171520664" lon="9.535457753913743"><ele>150.0</ele><time>2026-04-25T08:39:22Z</time></trkpt><trkpt lat="45.59600090016773" lon="9.535465585750321"><ele>150.0</ele><time>2026-04-25T08:39:24Z</time></trkpt><trkpt lat="45.595927402509034" lon="9.535483789757425"><ele>150.0</ele><time>2026-04-25T08:39:26Z</time></trkpt><trkpt lat="45.59585438247914" lon="9.535498844742486"><ele>149.99999999999997</ele><time>2026-04-25T08:39:28Z</time></trkpt><trkpt lat="45.59577977975291" lon="9.535515156663038"><ele>150.0</ele><time>2026-04-25T08:39:30Z</time></trkpt><trkpt lat="45.59570090528467" lon="9.535528516645552"><ele>150.0</ele><time>2026-04-25T08:39:32Z</time></trkpt><trkpt lat="45.59562417584871" lon="9.535548439139566"><ele>150.0</ele><time>2026-04-25T08:39:34Z</time></trkpt><trkpt lat="45.59554580815522" lon="9.535552672004345"><ele>150.0</ele><time>2026-04-25T08:39:36Z</time></trkpt><trkpt lat="45.59547065928313" lon="9.53556682850262"><ele>150.0</ele><time>2026-04-25T08:39:38Z</time></trkpt><trkpt lat="45.595394592832754" lon="9.535580027625722"><ele>150.0</ele><time>2026-04-25T08:39:40Z</time></trkpt><trkpt lat="45.595310776457694" lon="9.535607033783572"><ele>150.0</ele><time>2026-04-25T08:39:42Z</time></trkpt><trkpt lat="45.595232679696174" lon="9.535619037291745"><ele>150.16666666666666</ele><time>2026-04-25T08:39:44Z</time></trkpt><trkpt lat="45.595145034761096" lon="9.535638983083311"><ele>150.33333333333334</ele><time>2026-04-25T08:39:46Z</time></trkpt><trkpt lat="45.59506079043332" lon="9.535653457765038"><ele>150.5</ele><time>2026-04-25T08:39:48Z</time></trkpt><trkpt lat="45.59498044376805" lon="9.535667401547585"><ele>150.66666666666669</ele><time>2026-04-25T08:39:50Z</time></trkpt><trkpt lat="45.59490294101945" lon="9.535690865298978"><ele>150.83333333333334</ele><time>2026-04-25T08:39:52Z</time></trkpt><trkpt lat="45.59482572031715" lon="9.535708637169671"><ele>151.0</ele><time>2026-04-25T08:39:54Z</time></trkpt><trkpt lat="45.594745560753694" lon="9.535722317492473"><ele>151.0</ele><time>2026-04-25T08:39:56Z</time></trkpt><trkpt lat="45.59466603103993" lon="9.535741166549354"><ele>151.0</ele><time>2026-04-25T08:39:58Z</time></trkpt><trkpt lat="45.594585435444394" lon="9.535757159283477"><ele>151.0</ele><time>2026-04-25T08:40:00Z</time></trkpt><trkpt lat="45.594504285439186" lon="9.535769099953944"><ele>151.0</ele><time>2026-04-25T08:40:02Z</time></trkpt><trkpt lat="45.59442099670176" lon="9.535786242239851"><ele>151.0</ele><time>2026-04-25T08:40:04Z</time></trkpt><trkpt lat="45.594335594082274" lon="9.53580855708053"><ele>151.0</ele><time>2026-04-25T08:40:06Z</time></trkpt><trkpt lat="45.594253740108755" lon="9.535822670079785"><ele>151.0</ele><time>2026-04-25T08:40:08Z</time></trkpt><trkpt lat="45.594168731554696" lon="9.535840653261195"><ele>151.0</ele><time>2026-04-25T08:40:10Z</time></trkpt><trkpt lat="45.594086667446824" lon="9.535858444511048"><ele>151.0</ele><time>2026-04-25T08:40:12Z</time></trkpt><trkpt lat="45.5940079381907" lon="9.535875281904849"><ele>151.0</ele><time>2026-04-25T08:40:14Z</time></trkpt><trkpt lat="45.59392493124412" lon="9.535894232380523"><ele>151.0</ele><time>2026-04-25T08:40:16Z</time></trkpt><trkpt lat="45.593841587216005" lon="9.535908474192343"><ele>151.0</ele><time>2026-04-25T08:40:17.999Z</time></trkpt><trkpt lat="45.59375760485865" lon="9.53592921249417"><ele>151.0</ele><time>2026-04-25T08:40:19.999Z</time></trkpt><trkpt lat="45.59367621661525" lon="9.535939501214939"><ele>151.0</ele><time>2026-04-25T08:40:21.999Z</time></trkpt><trkpt lat="45.59359296076714" lon="9.535952819284784"><ele>151.0</ele><time>2026-04-25T08:40:23.999Z</time></trkpt><trkpt lat="45.593514353922565" lon="9.535971461069028"><ele>151.0</ele><time>2026-04-25T08:40:25.999Z</time></trkpt><trkpt lat="45.593436904333636" lon="9.535996295555222"><ele>151.0</ele><time>2026-04-25T08:40:27.999Z</time></trkpt><trkpt lat="45.59335968354092" lon="9.536012341955255"><ele>151.0</ele><time>2026-04-25T08:40:29.999Z</time></trkpt><trkpt lat="45.593279530791264" lon="9.536021689261133"><ele>151.0</ele><time>2026-04-25T08:40:31.999Z</time></trkpt><trkpt lat="45.593202962648505" lon="9.536036776649441"><ele>151.0</ele><time>2026-04-25T08:40:34Z</time></trkpt><trkpt lat="45.593118965051495" lon="9.536050047163942"><ele>151.0</ele><time>2026-04-25T08:40:36Z</time></trkpt><trkpt lat="45.59303977229235" lon="9.53606520561197"><ele>151.0</ele><time>2026-04-25T08:40:38Z</time></trkpt><trkpt lat="45.59295775000057" lon="9.536084242014903"><ele>151.0</ele><time>2026-04-25T08:40:40Z</time></trkpt><trkpt lat="45.59287389150939" lon="9.536101767120119"><ele>151.0</ele><time>2026-04-25T08:40:42Z</time></trkpt><trkpt lat="45.59278930809177" lon="9.536127937323057"><ele>151.16666666666669</ele><time>2026-04-25T08:40:44Z</time></trkpt><trkpt lat="45.59271243405076" lon="9.536143290302192"><ele>151.33333333333334</ele><time>2026-04-25T08:40:46Z</time></trkpt><trkpt lat="45.592628697971584" lon="9.536148981083834"><ele>151.5</ele><time>2026-04-25T08:40:48Z</time></trkpt><trkpt lat="45.59256428007053" lon="9.536142460520031"><ele>151.66666666666666</ele><time>2026-04-25T08:40:50Z</time></trkpt><trkpt lat="45.592480058852324" lon="9.536183403048891"><ele>151.83333333333331</ele><time>2026-04-25T08:40:52Z</time></trkpt><trkpt lat="45.592392425541775" lon="9.536199753847479"><ele>152.0</ele><time>2026-04-25T08:40:54Z</time></trkpt><trkpt lat="45.59231531024006" lon="9.53622323668517"><ele>152.16666666666666</ele><time>2026-04-25T08:40:56Z</time></trkpt><trkpt lat="45.5922397978816" lon="9.536233314750762"><ele>152.33333333333331</ele><time>2026-04-25T08:40:58Z</time></trkpt><trkpt lat="45.592171514871985" lon="9.536230977951329"><ele>152.5</ele><time>2026-04-25T08:41:00Z</time></trkpt><trkpt lat="45.59207568186652" lon="9.536257209692849"><ele>152.66666666666666</ele><time>2026-04-25T08:41:02Z</time></trkpt><trkpt lat="45.59198858592338" lon="9.536281128575451"><ele>152.83333333333334</ele><time>2026-04-25T08:41:04Z</time></trkpt><trkpt lat="45.591896491218925" lon="9.536298688946601"><ele>153.0</ele><time>2026-04-25T08:41:06Z</time></trkpt><trkpt lat="45.59181852417968" lon="9.53630676402053"><ele>152.6</ele><time>2026-04-25T08:41:08Z</time></trkpt><trkpt lat="45.59171832757383" lon="9.536351889786415"><ele>152.20000000000002</ele><time>2026-04-25T08:41:10Z</time></trkpt><trkpt lat="45.591626686727864" lon="9.536363587904354"><ele>151.8</ele><time>2026-04-25T08:41:12Z</time></trkpt><trkpt lat="45.591531536835745" lon="9.536381599881672"><ele>151.4</ele><time>2026-04-25T08:41:14Z</time></trkpt><trkpt lat="45.59143730873328" lon="9.536410192258927"><ele>151.0</ele><time>2026-04-25T08:41:16Z</time></trkpt><trkpt lat="45.59134089366914" lon="9.536406866528853"><ele>151.0</ele><time>2026-04-25T08:41:18Z</time></trkpt><trkpt lat="45.59125659445482" lon="9.53642416884657"><ele>151.0</ele><time>2026-04-25T08:41:20Z</time></trkpt><trkpt lat="45.59115678826462" lon="9.536443387241265"><ele>151.0</ele><time>2026-04-25T08:41:22Z</time></trkpt><trkpt lat="45.59106399078314" lon="9.536479331860743"><ele>151.0</ele><time>2026-04-25T08:41:24Z</time></trkpt><trkpt lat="45.590958975260136" lon="9.536481508424105"><ele>151.0</ele><time>2026-04-25T08:41:26Z</time></trkpt><trkpt lat="45.59086139039316" lon="9.536500438896658"><ele>149.6</ele><time>2026-04-25T08:41:28Z</time></trkpt><trkpt lat="45.5907700317433" lon="9.536519409584157"><ele>148.2</ele><time>2026-04-25T08:41:30Z</time></trkpt><trkpt lat="45.590677097274316" lon="9.536538707442354"><ele>146.8</ele><time>2026-04-25T08:41:32Z</time></trkpt><trkpt lat="45.59058570367737" lon="9.536557685356748"><ele>145.4</ele><time>2026-04-25T08:41:34Z</time></trkpt><trkpt lat="45.59049221684703" lon="9.536577036913714"><ele>144.0</ele><time>2026-04-25T08:41:36Z</time></trkpt><trkpt lat="45.59040068278776" lon="9.536595892682927"><ele>143.6</ele><time>2026-04-25T08:41:38Z</time></trkpt><trkpt lat="45.59030830114575" lon="9.536614923020021"><ele>143.2</ele><time>2026-04-25T08:41:40Z</time></trkpt><trkpt lat="45.590219544515165" lon="9.536633206619381"><ele>142.79999999999998</ele><time>2026-04-25T08:41:42Z</time></trkpt><trkpt lat="45.590145834503915" lon="9.536648390671003"><ele>142.4</ele><time>2026-04-25T08:41:44Z</time></trkpt><trkpt lat="45.590153208613984" lon="9.536851222523623"><ele>142.0</ele><time>2026-04-25T08:41:46Z</time></trkpt><trkpt lat="45.590141112697836" lon="9.536945269186644"><ele>142.28571428571428</ele><time>2026-04-25T08:41:48Z</time></trkpt><trkpt lat="45.59014872973332" lon="9.537065125703567"><ele>142.57142857142856</ele><time>2026-04-25T08:41:51Z</time></trkpt><trkpt lat="45.59017526919464" lon="9.537181448917162"><ele>142.85714285714286</ele><time>2026-04-25T08:41:54Z</time></trkpt><trkpt lat="45.59023894887873" lon="9.537247958015012"><ele>143.14285714285714</ele><time>2026-04-25T08:42:00Z</time></trkpt><trkpt lat="45.59017628807873" lon="9.537221025022923"><ele>143.42857142857144</ele><time>2026-04-25T08:42:27.999Z</time></trkpt><trkpt lat="45.590140383388785" lon="9.537300701661346"><ele>143.71428571428572</ele><time>2026-04-25T08:43:30Z</time></trkpt><trkpt lat="45.59012467586722" lon="9.537388905400935"><ele>144.0</ele><time>2026-04-25T08:43:38Z</time></trkpt><trkpt lat="45.59005086360553" lon="9.537400098592821"><ele>144.00000000000003</ele><time>2026-04-25T08:44:03Z</time></trkpt><trkpt lat="45.58998676977795" lon="9.537424752562567"><ele>144.0</ele><time>2026-04-25T08:44:06Z</time></trkpt><trkpt lat="45.58991434972756" lon="9.537453412805032"><ele>144.0</ele><time>2026-04-25T08:44:09Z</time></trkpt><trkpt lat="45.58983971276097" lon="9.53747843006334"><ele>144.0</ele><time>2026-04-25T08:44:13Z</time></trkpt><trkpt lat="45.58977659702216" lon="9.537557699248595"><ele>144.0</ele><time>2026-04-25T08:44:16Z</time></trkpt><trkpt lat="45.589765013726485" lon="9.53764732777714"><ele>144.00000000000003</ele><time>2026-04-25T08:44:19Z</time></trkpt><trkpt lat="45.58977303700984" lon="9.537757571589301"><ele>144.0</ele><time>2026-04-25T08:44:23Z</time></trkpt><trkpt lat="45.58977742388328" lon="9.537847592813526"><ele>143.42857142857144</ele><time>2026-04-25T08:44:27Z</time></trkpt><trkpt lat="45.58979818199899" lon="9.537946870467175"><ele>142.85714285714286</ele><time>2026-04-25T08:44:30Z</time></trkpt><trkpt lat="45.58981311840592" lon="9.538044479072726"><ele>142.28571428571428</ele><time>2026-04-25T08:44:33Z</time></trkpt><trkpt lat="45.58982488095933" lon="9.538144104732352"><ele>141.71428571428572</ele><time>2026-04-25T08:44:36Z</time></trkpt><trkpt lat="45.58983946935089" lon="9.538235038354259"><ele>141.14285714285714</ele><time>2026-04-25T08:44:39Z</time></trkpt><trkpt lat="45.58984205987427" lon="9.53832990387077"><ele>140.57142857142858</ele><time>2026-04-25T08:44:42Z</time></trkpt><trkpt lat="45.58986342013042" lon="9.53842097930017"><ele>140.0</ele><time>2026-04-25T08:44:45Z</time></trkpt><trkpt lat="45.58988308818103" lon="9.538513893810109"><ele>140.0</ele><time>2026-04-25T08:44:48Z</time></trkpt><trkpt lat="45.58992427670996" lon="9.538589510273754"><ele>140.0</ele><time>2026-04-25T08:44:50Z</time></trkpt><trkpt lat="45.589956467464575" lon="9.538690827266855"><ele>140.0</ele><time>2026-04-25T08:44:53Z</time></trkpt><trkpt lat="45.59000785633945" lon="9.538796588307708"><ele>140.0</ele><time>2026-04-25T08:44:56Z</time></trkpt><trkpt lat="45.59005302376017" lon="9.538904761688183"><ele>140.0</ele><time>2026-04-25T08:44:59Z</time></trkpt><trkpt lat="45.590079453500586" lon="9.539022071256582"><ele>140.0</ele><time>2026-04-25T08:45:02Z</time></trkpt><trkpt lat="45.590110596424374" lon="9.53910205200567"><ele>139.66666666666666</ele><time>2026-04-25T08:45:05Z</time></trkpt><trkpt lat="45.590133054197985" lon="9.539208132556757"><ele>139.33333333333331</ele><time>2026-04-25T08:45:08Z</time></trkpt><trkpt lat="45.590158850904" lon="9.539312466029596"><ele>139.0</ele><time>2026-04-25T08:45:11Z</time></trkpt><trkpt lat="45.59017986488811" lon="9.539409961422724"><ele>138.66666666666666</ele><time>2026-04-25T08:45:14Z</time></trkpt><trkpt lat="45.590203257462456" lon="9.539519815629754"><ele>138.33333333333334</ele><time>2026-04-25T08:45:17Z</time></trkpt><trkpt lat="45.59024008751419" lon="9.53963157105983"><ele>138.0</ele><time>2026-04-25T08:45:20Z</time></trkpt><trkpt lat="45.59024001263286" lon="9.53975397381558"><ele>137.71428571428572</ele><time>2026-04-25T08:45:23Z</time></trkpt><trkpt lat="45.590196766213545" lon="9.53982561734946"><ele>137.42857142857144</ele><time>2026-04-25T08:45:25Z</time></trkpt><trkpt lat="45.59014511027281" lon="9.539879305596543"><ele>137.14285714285714</ele><time>2026-04-25T08:45:27Z</time></trkpt><trkpt lat="45.590076685299394" lon="9.539923211770786"><ele>136.85714285714286</ele><time>2026-04-25T08:45:29Z</time></trkpt><trkpt lat="45.59000839359926" lon="9.539940585390168"><ele>136.57142857142856</ele><time>2026-04-25T08:45:31Z</time></trkpt><trkpt lat="45.5899356158313" lon="9.53991776154204"><ele>136.28571428571428</ele><time>2026-04-25T08:45:33Z</time></trkpt><trkpt lat="45.589874713633" lon="9.539881582030665"><ele>136.0</ele><time>2026-04-25T08:45:35Z</time></trkpt><trkpt lat="45.589811373788635" lon="9.53984852767915"><ele>135.99999999999997</ele><time>2026-04-25T08:45:37Z</time></trkpt><trkpt lat="45.58975755184781" lon="9.539785809497042"><ele>136.0</ele><time>2026-04-25T08:45:39Z</time></trkpt><trkpt lat="45.58971703272768" lon="9.539697426368887"><ele>136.0</ele><time>2026-04-25T08:45:41Z</time></trkpt><trkpt lat="45.589675449931676" lon="9.539619240214309"><ele>136.0</ele><time>2026-04-25T08:45:43Z</time></trkpt><trkpt lat="45.58962720641907" lon="9.539541680034324"><ele>136.0</ele><time>2026-04-25T08:45:45Z</time></trkpt><trkpt lat="45.58957505096577" lon="9.539481753346784"><ele>135.99999999999997</ele><time>2026-04-25T08:45:47Z</time></trkpt><trkpt lat="45.58948368378161" lon="9.539465672018096"><ele>136.0</ele><time>2026-04-25T08:45:50Z</time></trkpt><trkpt lat="45.58939414820655" lon="9.539511814588291"><ele>136.16666666666669</ele><time>2026-04-25T08:45:53Z</time></trkpt><trkpt lat="45.589325646970885" lon="9.53956527796852"><ele>136.33333333333334</ele><time>2026-04-25T08:45:55Z</time></trkpt><trkpt lat="45.58923950593081" lon="9.539616570419478"><ele>136.5</ele><time>2026-04-25T08:45:57Z</time></trkpt><trkpt lat="45.589168567845384" lon="9.539657248612976"><ele>136.66666666666666</ele><time>2026-04-25T08:45:59Z</time></trkpt><trkpt lat="45.589094250091286" lon="9.539664060084572"><ele>136.83333333333331</ele><time>2026-04-25T08:46:01Z</time></trkpt><trkpt lat="45.58902895365387" lon="9.539673794264447"><ele>137.0</ele><time>2026-04-25T08:46:03Z</time></trkpt><trkpt lat="45.588967904429175" lon="9.539730274630992"><ele>137.0</ele><time>2026-04-25T08:46:05Z</time></trkpt><trkpt lat="45.588887380459205" lon="9.5398011661609"><ele>137.0</ele><time>2026-04-25T08:46:08Z</time></trkpt><trkpt lat="45.58881652642402" lon="9.53980195373625"><ele>137.0</ele><time>2026-04-25T08:46:10Z</time></trkpt><trkpt lat="45.58874313785164" lon="9.539859526791199"><ele>137.0</ele><time>2026-04-25T08:46:12Z</time></trkpt><trkpt lat="45.58868373021358" lon="9.539926656500661"><ele>137.0</ele><time>2026-04-25T08:46:14Z</time></trkpt><trkpt lat="45.58862735344555" lon="9.539972575353088"><ele>137.0</ele><time>2026-04-25T08:46:16Z</time></trkpt><trkpt lat="45.58856029996533" lon="9.540010391353478"><ele>136.5</ele><time>2026-04-25T08:46:18Z</time></trkpt><trkpt lat="45.588492938546175" lon="9.540034795524138"><ele>136.0</ele><time>2026-04-25T08:46:20Z</time></trkpt><trkpt lat="45.58843597625111" lon="9.540086465268073"><ele>135.5</ele><time>2026-04-25T08:46:22Z</time></trkpt><trkpt lat="45.5883837707877" lon="9.540159471774105"><ele>135.0</ele><time>2026-04-25T08:46:24Z</time></trkpt><trkpt lat="45.58834794067621" lon="9.54023561500149"><ele>134.5</ele><time>2026-04-25T08:46:26Z</time></trkpt><trkpt lat="45.58824971963367" lon="9.540333411385623"><ele>134.0</ele><time>2026-04-25T08:46:28Z</time></trkpt><trkpt lat="45.58817524896047" lon="9.540456229211069"><ele>133.85714285714286</ele><time>2026-04-25T08:46:30.001Z</time></trkpt><trkpt lat="45.5881532097768" lon="9.540541176983005"><ele>133.71428571428572</ele><time>2026-04-25T08:46:33.001Z</time></trkpt><trkpt lat="45.58812775527018" lon="9.54062573301798"><ele>133.57142857142856</ele><time>2026-04-25T08:46:35Z</time></trkpt><trkpt lat="45.588147726671544" lon="9.540755842699221"><ele>133.42857142857144</ele><time>2026-04-25T08:46:38Z</time></trkpt><trkpt lat="45.58815879617503" lon="9.540854407283522"><ele>133.28571428571428</ele><time>2026-04-25T08:46:40Z</time></trkpt><trkpt lat="45.588179526917486" lon="9.54095693784409"><ele>133.14285714285714</ele><time>2026-04-25T08:46:42Z</time></trkpt><trkpt lat="45.588215591200544" lon="9.541057595940206"><ele>133.0</ele><time>2026-04-25T08:46:44Z</time></trkpt><trkpt lat="45.5882529964742" lon="9.541148888205564"><ele>133.16666666666669</ele><time>2026-04-25T08:46:46Z</time></trkpt><trkpt lat="45.58829143458535" lon="9.541243197316323"><ele>133.33333333333334</ele><time>2026-04-25T08:46:48Z</time></trkpt><trkpt lat="45.58832688828582" lon="9.541340313260084"><ele>133.5</ele><time>2026-04-25T08:46:50Z</time></trkpt><trkpt lat="45.588366197595775" lon="9.54143558690127"><ele>133.66666666666666</ele><time>2026-04-25T08:46:52Z</time></trkpt><trkpt lat="45.58841012334981" lon="9.541534443542863"><ele>133.83333333333331</ele><time>2026-04-25T08:46:54Z</time></trkpt><trkpt lat="45.5884542367449" lon="9.541631459396188"><ele>134.0</ele><time>2026-04-25T08:46:56Z</time></trkpt><trkpt lat="45.58849566479829" lon="9.54172441825814"><ele>134.0</ele><time>2026-04-25T08:46:58Z</time></trkpt><trkpt lat="45.58852767992413" lon="9.541828806384213"><ele>134.0</ele><time>2026-04-25T08:47:00Z</time></trkpt><trkpt lat="45.5885501041567" lon="9.541929020172118"><ele>134.0</ele><time>2026-04-25T08:47:02Z</time></trkpt><trkpt lat="45.588590419418715" lon="9.542041323976823"><ele>134.0</ele><time>2026-04-25T08:47:04Z</time></trkpt><trkpt lat="45.58863071215043" lon="9.542145740293304"><ele>134.0</ele><time>2026-04-25T08:47:06Z</time></trkpt><trkpt lat="45.588672897959796" lon="9.542256505016775"><ele>134.0</ele><time>2026-04-25T08:47:08Z</time></trkpt><trkpt lat="45.58871617827936" lon="9.542367648450195"><ele>134.0</ele><time>2026-04-25T08:47:10Z</time></trkpt><trkpt lat="45.58875999657027" lon="9.542469112510235"><ele>134.0</ele><time>2026-04-25T08:47:12Z</time></trkpt><trkpt lat="45.5887888047512" lon="9.542581224410851"><ele>134.0</ele><time>2026-04-25T08:47:14Z</time></trkpt><trkpt lat="45.588823043727615" lon="9.542678805803767"><ele>134.0</ele><time>2026-04-25T08:47:16Z</time></trkpt><trkpt lat="45.5888560949934" lon="9.542789323309705"><ele>134.0</ele><time>2026-04-25T08:47:18Z</time></trkpt><trkpt lat="45.58888840562242" lon="9.542895367640346"><ele>134.0</ele><time>2026-04-25T08:47:20Z</time></trkpt><trkpt lat="45.58891758311936" lon="9.543000967923122"><ele>133.66666666666666</ele><time>2026-04-25T08:47:22Z</time></trkpt><trkpt lat="45.58895864788718" lon="9.543106507250094"><ele>133.33333333333331</ele><time>2026-04-25T08:47:24Z</time></trkpt><trkpt lat="45.58899654866606" lon="9.54321201692496"><ele>133.0</ele><time>2026-04-25T08:47:26Z</time></trkpt><trkpt lat="45.58902844748053" lon="9.54330176294243"><ele>132.66666666666666</ele><time>2026-04-25T08:47:28Z</time></trkpt><trkpt lat="45.589061254667115" lon="9.54341009811769"><ele>132.33333333333334</ele><time>2026-04-25T08:47:30Z</time></trkpt><trkpt lat="45.58910452215707" lon="9.543511492615961"><ele>132.0</ele><time>2026-04-25T08:47:32Z</time></trkpt><trkpt lat="45.58914846763442" lon="9.543613030728391"><ele>132.66666666666666</ele><time>2026-04-25T08:47:34Z</time></trkpt><trkpt lat="45.58918609588881" lon="9.543718625606227"><ele>133.33333333333334</ele><time>2026-04-25T08:47:36Z</time></trkpt><trkpt lat="45.58922917611964" lon="9.543813585682393"><ele>134.0</ele><time>2026-04-25T08:47:38Z</time></trkpt><trkpt lat="45.58926491275232" lon="9.543914507077575"><ele>134.66666666666669</ele><time>2026-04-25T08:47:40Z</time></trkpt><trkpt lat="45.58929340925524" lon="9.5440119502552"><ele>135.33333333333334</ele><time>2026-04-25T08:47:42Z</time></trkpt><trkpt lat="45.58931774971615" lon="9.544117049379883"><ele>136.0</ele><time>2026-04-25T08:47:44Z</time></trkpt><trkpt lat="45.589339510601036" lon="9.544228348726959"><ele>136.0</ele><time>2026-04-25T08:47:46Z</time></trkpt><trkpt lat="45.58936798057732" lon="9.544348196456973"><ele>136.0</ele><time>2026-04-25T08:47:48Z</time></trkpt><trkpt lat="45.58940173598627" lon="9.544459342248873"><ele>136.0</ele><time>2026-04-25T08:47:50Z</time></trkpt><trkpt lat="45.58943552308267" lon="9.544574904985822"><ele>136.0</ele><time>2026-04-25T08:47:52Z</time></trkpt><trkpt lat="45.58945988972371" lon="9.544682551300781"><ele>136.0</ele><time>2026-04-25T08:47:54Z</time></trkpt><trkpt lat="45.589489731309506" lon="9.544784799910337"><ele>136.0</ele><time>2026-04-25T08:47:56Z</time></trkpt><trkpt lat="45.58952168002937" lon="9.544888340553504"><ele>136.16666666666669</ele><time>2026-04-25T08:47:58Z</time></trkpt><trkpt lat="45.58956490761795" lon="9.544980692402872"><ele>136.33333333333334</ele><time>2026-04-25T08:48:00Z</time></trkpt><trkpt lat="45.58961866293766" lon="9.545060375794122"><ele>136.5</ele><time>2026-04-25T08:48:02Z</time></trkpt><trkpt lat="45.58967295104792" lon="9.545140359447913"><ele>136.66666666666666</ele><time>2026-04-25T08:48:04Z</time></trkpt><trkpt lat="45.589724684650534" lon="9.545225432885788"><ele>136.83333333333331</ele><time>2026-04-25T08:48:06Z</time></trkpt><trkpt lat="45.58976314282736" lon="9.545318113583683"><ele>137.0</ele><time>2026-04-25T08:48:08Z</time></trkpt><trkpt lat="45.589807008448894" lon="9.545416550661768"><ele>137.16666666666666</ele><time>2026-04-25T08:48:10Z</time></trkpt><trkpt lat="45.58983574619048" lon="9.545518354460365"><ele>137.33333333333331</ele><time>2026-04-25T08:48:12Z</time></trkpt><trkpt lat="45.58986206893111" lon="9.545626434795103"><ele>137.5</ele><time>2026-04-25T08:48:14Z</time></trkpt><trkpt lat="45.58988129753575" lon="9.545738056747643"><ele>137.66666666666666</ele><time>2026-04-25T08:48:16Z</time></trkpt><trkpt lat="45.5898998158594" lon="9.545847679546213"><ele>137.83333333333334</ele><time>2026-04-25T08:48:18Z</time></trkpt><trkpt lat="45.58991763324264" lon="9.545955770788611"><ele>138.0</ele><time>2026-04-25T08:48:20Z</time></trkpt><trkpt lat="45.58993114499959" lon="9.546062363002608"><ele>138.0</ele><time>2026-04-25T08:48:22Z</time></trkpt><trkpt lat="45.589950834647524" lon="9.546175817546942"><ele>138.0</ele><time>2026-04-25T08:48:24Z</time></trkpt><trkpt lat="45.5899718363305" lon="9.546293570626363"><ele>138.0</ele><time>2026-04-25T08:48:26Z</time></trkpt><trkpt lat="45.58999199227795" lon="9.546409233097465"><ele>138.0</ele><time>2026-04-25T08:48:28Z</time></trkpt><trkpt lat="45.590009487136236" lon="9.546531130743219"><ele>138.0</ele><time>2026-04-25T08:48:30Z</time></trkpt><trkpt lat="45.590028674474134" lon="9.546647458329826"><ele>138.0</ele><time>2026-04-25T08:48:32Z</time></trkpt><trkpt lat="45.59004503819051" lon="9.546759782881075"><ele>138.0</ele><time>2026-04-25T08:48:34Z</time></trkpt><trkpt lat="45.590066079038635" lon="9.546866704467897"><ele>138.0</ele><time>2026-04-25T08:48:36Z</time></trkpt><trkpt lat="45.59007672277468" lon="9.54699139706812"><ele>138.0</ele><time>2026-04-25T08:48:38Z</time></trkpt><trkpt lat="45.59009544533759" lon="9.547086678562742"><ele>138.0</ele><time>2026-04-25T08:48:40Z</time></trkpt><trkpt lat="45.59011738714464" lon="9.547176634741971"><ele>138.0</ele><time>2026-04-25T08:48:42Z</time></trkpt><trkpt lat="45.59014085235649" lon="9.547269836396765"><ele>138.0</ele><time>2026-04-25T08:48:44Z</time></trkpt><trkpt lat="45.59016621617271" lon="9.547366659860028"><ele>138.0</ele><time>2026-04-25T08:48:46Z</time></trkpt><trkpt lat="45.5901979253798" lon="9.547469180695208"><ele>138.0</ele><time>2026-04-25T08:48:48Z</time></trkpt><trkpt lat="45.590231736899135" lon="9.547569569821764"><ele>138.0</ele><time>2026-04-25T08:48:50Z</time></trkpt><trkpt lat="45.59025121846346" lon="9.547677500318263"><ele>138.0</ele><time>2026-04-25T08:48:52Z</time></trkpt><trkpt lat="45.590242836318936" lon="9.54779108970803"><ele>138.0</ele><time>2026-04-25T08:48:54Z</time></trkpt><trkpt lat="45.5902339535078" lon="9.547897921673966"><ele>138.0</ele><time>2026-04-25T08:48:56Z</time></trkpt><trkpt lat="45.590228743840576" lon="9.547997742794818"><ele>138.0</ele><time>2026-04-25T08:48:58Z</time></trkpt><trkpt lat="45.59024256569296" lon="9.548109142501897"><ele>137.85714285714286</ele><time>2026-04-25T08:49:00Z</time></trkpt><trkpt lat="45.59025745084384" lon="9.548210315015728"><ele>137.71428571428572</ele><time>2026-04-25T08:49:02Z</time></trkpt><trkpt lat="45.590261874113615" lon="9.548311061508425"><ele>137.57142857142858</ele><time>2026-04-25T08:49:04Z</time></trkpt><trkpt lat="45.59026046853545" lon="9.548420014418715"><ele>137.42857142857144</ele><time>2026-04-25T08:49:06Z</time></trkpt><trkpt lat="45.590258283310845" lon="9.548521772405635"><ele>137.28571428571428</ele><time>2026-04-25T08:49:08Z</time></trkpt><trkpt lat="45.59027010065617" lon="9.548624082039073"><ele>137.14285714285717</ele><time>2026-04-25T08:49:10Z</time></trkpt><trkpt lat="45.590307588330276" lon="9.548718849996888"><ele>137.0</ele><time>2026-04-25T08:49:12Z</time></trkpt><trkpt lat="45.590322012816415" lon="9.548812690151022"><ele>137.00000000000003</ele><time>2026-04-25T08:49:14Z</time></trkpt><trkpt lat="45.59034206343056" lon="9.548915047417209"><ele>137.0</ele><time>2026-04-25T08:49:16Z</time></trkpt><trkpt lat="45.59035671753999" lon="9.549020893688207"><ele>137.0</ele><time>2026-04-25T08:49:18Z</time></trkpt><trkpt lat="45.59035696364585" lon="9.549118231113622"><ele>137.0</ele><time>2026-04-25T08:49:20Z</time></trkpt><trkpt lat="45.59032166615719" lon="9.549194222557812"><ele>137.0</ele><time>2026-04-25T08:49:22Z</time></trkpt><trkpt lat="45.59030811543665" lon="9.549289466624689"><ele>137.00000000000003</ele><time>2026-04-25T08:49:24Z</time></trkpt><trkpt lat="45.59030351885723" lon="9.54939067285674"><ele>137.0</ele><time>2026-04-25T08:49:26Z</time></trkpt><trkpt lat="45.59030519419504" lon="9.549484439681347"><ele>137.00000000000003</ele><time>2026-04-25T08:49:28Z</time></trkpt><trkpt lat="45.59030945859883" lon="9.549577622242795"><ele>137.0</ele><time>2026-04-25T08:49:30Z</time></trkpt><trkpt lat="45.590339738170265" lon="9.549666853478707"><ele>137.0</ele><time>2026-04-25T08:49:32Z</time></trkpt><trkpt lat="45.59036639102905" lon="9.549756681799552"><ele>137.0</ele><time>2026-04-25T08:49:34Z</time></trkpt><trkpt lat="45.59039501418509" lon="9.549845654791064"><ele>137.0</ele><time>2026-04-25T08:49:36Z</time></trkpt><trkpt lat="45.59042263340061" lon="9.549933575402905"><ele>137.00000000000003</ele><time>2026-04-25T08:49:38Z</time></trkpt><trkpt lat="45.5904696738721" lon="9.55004313178107"><ele>137.0</ele><time>2026-04-25T08:49:41Z</time></trkpt><trkpt lat="45.59050215935052" lon="9.550127089504473"><ele>137.2857142857143</ele><time>2026-04-25T08:49:43Z</time></trkpt><trkpt lat="45.590533991496486" lon="9.55020832218067"><ele>137.57142857142858</ele><time>2026-04-25T08:49:45Z</time></trkpt><trkpt lat="45.59056606171402" lon="9.55029283935638"><ele>137.85714285714286</ele><time>2026-04-25T08:49:47Z</time></trkpt><trkpt lat="45.59058984502119" lon="9.550383864791685"><ele>138.14285714285717</ele><time>2026-04-25T08:49:49Z</time></trkpt><trkpt lat="45.59062204938125" lon="9.550466728048987"><ele>138.42857142857144</ele><time>2026-04-25T08:49:51Z</time></trkpt><trkpt lat="45.59066896900013" lon="9.550581484881901"><ele>138.71428571428572</ele><time>2026-04-25T08:49:54Z</time></trkpt><trkpt lat="45.59067987581014" lon="9.550677523385094"><ele>139.0</ele><time>2026-04-25T08:49:56Z</time></trkpt><trkpt lat="45.59070792856232" lon="9.55076441416007"><ele>139.0</ele><time>2026-04-25T08:49:58Z</time></trkpt><trkpt lat="45.59073536693334" lon="9.55085244070644"><ele>139.0</ele><time>2026-04-25T08:50:00Z</time></trkpt><trkpt lat="45.5907560895786" lon="9.550945021377702"><ele>139.0</ele><time>2026-04-25T08:50:02Z</time></trkpt><trkpt lat="45.590779771861" lon="9.551044769767508"><ele>139.0</ele><time>2026-04-25T08:50:04Z</time></trkpt><trkpt lat="45.590806042565184" lon="9.551140715782852"><ele>139.0</ele><time>2026-04-25T08:50:06Z</time></trkpt><trkpt lat="45.59082372940159" lon="9.55123996455264"><ele>139.0</ele><time>2026-04-25T08:50:08Z</time></trkpt><trkpt lat="45.59084236247904" lon="9.551333569138379"><ele>139.0</ele><time>2026-04-25T08:50:10Z</time></trkpt><trkpt lat="45.590869266737116" lon="9.551451856761055"><ele>139.0</ele><time>2026-04-25T08:50:13Z</time></trkpt><trkpt lat="45.59089752881426" lon="9.551540184842018"><ele>139.0</ele><time>2026-04-25T08:50:15Z</time></trkpt><trkpt lat="45.59094282220962" lon="9.551623912598492"><ele>139.0</ele><time>2026-04-25T08:50:17Z</time></trkpt><trkpt lat="45.59099004888653" lon="9.551709900679626"><ele>139.0</ele><time>2026-04-25T08:50:19Z</time></trkpt><trkpt lat="45.59103325311148" lon="9.551788323042725"><ele>139.0</ele><time>2026-04-25T08:50:21Z</time></trkpt><trkpt lat="45.59109453932229" lon="9.55187708314464"><ele>139.0</ele><time>2026-04-25T08:50:24Z</time></trkpt><trkpt lat="45.591153118201255" lon="9.551954520265719"><ele>139.0</ele><time>2026-04-25T08:50:26Z</time></trkpt><trkpt lat="45.591206447322385" lon="9.55202288698299"><ele>139.0</ele><time>2026-04-25T08:50:28Z</time></trkpt><trkpt lat="45.591260619539746" lon="9.552084068585708"><ele>139.0</ele><time>2026-04-25T08:50:30Z</time></trkpt><trkpt lat="45.591346287833225" lon="9.552183886357273"><ele>139.0</ele><time>2026-04-25T08:50:33.001Z</time></trkpt><trkpt lat="45.59143454037958" lon="9.552261229106824"><ele>139.0</ele><time>2026-04-25T08:50:36.001Z</time></trkpt><trkpt lat="45.59150854711449" lon="9.552301281201478"><ele>139.0</ele><time>2026-04-25T08:50:38.001Z</time></trkpt><trkpt lat="45.591578803944344" lon="9.552340170117283"><ele>139.0</ele><time>2026-04-25T08:50:40.001Z</time></trkpt><trkpt lat="45.591656016849036" lon="9.552367443847508"><ele>139.0</ele><time>2026-04-25T08:50:42.001Z</time></trkpt><trkpt lat="45.59173616882381" lon="9.552412578839142"><ele>139.0</ele><time>2026-04-25T08:50:44.001Z</time></trkpt><trkpt lat="45.59180043596332" lon="9.552501094999165"><ele>139.0</ele><time>2026-04-25T08:50:46Z</time></trkpt><trkpt lat="45.59186214381763" lon="9.552585449389953"><ele>139.0</ele><time>2026-04-25T08:50:48Z</time></trkpt><trkpt lat="45.591928276730805" lon="9.552637580284944"><ele>139.0</ele><time>2026-04-25T08:50:50Z</time></trkpt><trkpt lat="45.5920053680081" lon="9.552650757943711"><ele>139.16666666666669</ele><time>2026-04-25T08:50:53Z</time></trkpt><trkpt lat="45.59209083644987" lon="9.552593592629401"><ele>139.33333333333334</ele><time>2026-04-25T08:50:56Z</time></trkpt><trkpt lat="45.5921560125496" lon="9.552563486687514"><ele>139.5</ele><time>2026-04-25T08:51:00Z</time></trkpt><trkpt lat="45.592232911780926" lon="9.552574077943536"><ele>139.66666666666666</ele><time>2026-04-25T08:51:04Z</time></trkpt><trkpt lat="45.592285919332774" lon="9.552636266788605"><ele>139.83333333333331</ele><time>2026-04-25T08:51:08Z</time></trkpt><trkpt lat="45.59234335815813" lon="9.552696674789187"><ele>140.0</ele><time>2026-04-25T08:51:11Z</time></trkpt><trkpt lat="45.592408866036614" lon="9.552742935895022"><ele>140.0</ele><time>2026-04-25T08:51:14Z</time></trkpt><trkpt lat="45.59248434526506" lon="9.552780981819424"><ele>140.0</ele><time>2026-04-25T08:51:17Z</time></trkpt><trkpt lat="45.59256377183601" lon="9.552805195284808"><ele>140.0</ele><time>2026-04-25T08:51:20Z</time></trkpt><trkpt lat="45.59262356939048" lon="9.552840925406588"><ele>140.0</ele><time>2026-04-25T08:51:22Z</time></trkpt><trkpt lat="45.5926838127996" lon="9.552894401063812"><ele>140.0</ele><time>2026-04-25T08:51:24Z</time></trkpt><trkpt lat="45.59275333827233" lon="9.55293675192831"><ele>140.0</ele><time>2026-04-25T08:51:26Z</time></trkpt><trkpt lat="45.59282596233764" lon="9.552958294292818"><ele>140.0</ele><time>2026-04-25T08:51:28Z</time></trkpt><trkpt lat="45.59289604015151" lon="9.552986196287753"><ele>140.0</ele><time>2026-04-25T08:51:30Z</time></trkpt><trkpt lat="45.59295600151384" lon="9.553015192048647"><ele>140.0</ele><time>2026-04-25T08:51:32Z</time></trkpt><trkpt lat="45.59302610064048" lon="9.553040134115951"><ele>140.0</ele><time>2026-04-25T08:51:34Z</time></trkpt><trkpt lat="45.59309536275853" lon="9.553076763253634"><ele>140.0</ele><time>2026-04-25T08:51:36Z</time></trkpt><trkpt lat="45.593164678057306" lon="9.553116031052244"><ele>140.0</ele><time>2026-04-25T08:51:38Z</time></trkpt><trkpt lat="45.593257885938286" lon="9.55315506997831"><ele>140.0</ele><time>2026-04-25T08:51:41Z</time></trkpt><trkpt lat="45.59333052952914" lon="9.553183354660382"><ele>140.0</ele><time>2026-04-25T08:51:43Z</time></trkpt><trkpt lat="45.59339642719561" lon="9.55321297992652"><ele>140.0</ele><time>2026-04-25T08:51:45Z</time></trkpt><trkpt lat="45.59346035783641" lon="9.553259889191516"><ele>140.0</ele><time>2026-04-25T08:51:47Z</time></trkpt><trkpt lat="45.59354387722738" lon="9.553285581173819"><ele>140.0</ele><time>2026-04-25T08:51:50Z</time></trkpt><trkpt lat="45.59361456516821" lon="9.553251699843234"><ele>140.0</ele><time>2026-04-25T08:51:52Z</time></trkpt><trkpt lat="45.59368543384984" lon="9.553223849622809"><ele>140.0</ele><time>2026-04-25T08:51:54Z</time></trkpt><trkpt lat="45.59375700561882" lon="9.553176248921238"><ele>139.85714285714286</ele><time>2026-04-25T08:51:56Z</time></trkpt><trkpt lat="45.59381832277046" lon="9.553129846336482"><ele>139.71428571428572</ele><time>2026-04-25T08:51:58Z</time></trkpt><trkpt lat="45.59388613727451" lon="9.553143762548755"><ele>139.57142857142856</ele><time>2026-04-25T08:52:00Z</time></trkpt><trkpt lat="45.593949720630896" lon="9.553156143506733"><ele>139.42857142857144</ele><time>2026-04-25T08:52:02Z</time></trkpt><trkpt lat="45.5940198621808" lon="9.55316865894791"><ele>139.28571428571428</ele><time>2026-04-25T08:52:04Z</time></trkpt><trkpt lat="45.59408778808842" lon="9.553185436760758"><ele>139.14285714285714</ele><time>2026-04-25T08:52:06Z</time></trkpt><trkpt lat="45.594154524409" lon="9.55320956019846"><ele>139.0</ele><time>2026-04-25T08:52:08Z</time></trkpt><trkpt lat="45.594227055645334" lon="9.553242323943355"><ele>139.0</ele><time>2026-04-25T08:52:11Z</time></trkpt><trkpt lat="45.59431365448933" lon="9.553293727223405"><ele>139.0</ele><time>2026-04-25T08:52:14Z</time></trkpt><trkpt lat="45.59439563563093" lon="9.553382868762457"><ele>139.0</ele><time>2026-04-25T08:52:16Z</time></trkpt><trkpt lat="45.59447229112754" lon="9.553408771315125"><ele>139.0</ele><time>2026-04-25T08:52:18Z</time></trkpt><trkpt lat="45.594547903413726" lon="9.553420457649123"><ele>139.0</ele><time>2026-04-25T08:52:20Z</time></trkpt><trkpt lat="45.59463662868604" lon="9.553436113744896"><ele>139.0</ele><time>2026-04-25T08:52:22Z</time></trkpt><trkpt lat="45.59470684847698" lon="9.553462668390804"><ele>139.0</ele><time>2026-04-25T08:52:24Z</time></trkpt><trkpt lat="45.59478629885769" lon="9.553448758596348"><ele>139.0</ele><time>2026-04-25T08:52:26Z</time></trkpt><trkpt lat="45.594862212541855" lon="9.553421602822098"><ele>139.0</ele><time>2026-04-25T08:52:28Z</time></trkpt><trkpt lat="45.59493840448099" lon="9.553425110752041"><ele>139.0</ele><time>2026-04-25T08:52:30Z</time></trkpt><trkpt lat="45.59501433292031" lon="9.55344536674058"><ele>139.0</ele><time>2026-04-25T08:52:32Z</time></trkpt><trkpt lat="45.59509162822615" lon="9.553456422518174"><ele>139.0</ele><time>2026-04-25T08:52:34Z</time></trkpt><trkpt lat="45.59516344966397" lon="9.553447827842906"><ele>139.0</ele><time>2026-04-25T08:52:36Z</time></trkpt><trkpt lat="45.59523380100588" lon="9.553434956148626"><ele>139.0</ele><time>2026-04-25T08:52:38.001Z</time></trkpt><trkpt lat="45.59531280838276" lon="9.55343065860752"><ele>139.0</ele><time>2026-04-25T08:52:40.001Z</time></trkpt><trkpt lat="45.59540172220118" lon="9.553451951996369"><ele>139.0</ele><time>2026-04-25T08:52:43.001Z</time></trkpt><trkpt lat="45.59546510983617" lon="9.553400562382313"><ele>139.0</ele><time>2026-04-25T08:52:45.001Z</time></trkpt><trkpt lat="45.59549325440614" lon="9.553305979553754"><ele>139.0</ele><time>2026-04-25T08:52:47.001Z</time></trkpt><trkpt lat="45.595507519280616" lon="9.553196789558656"><ele>139.42857142857142</ele><time>2026-04-25T08:52:49.001Z</time></trkpt><trkpt lat="45.595555103420836" lon="9.55312037974683"><ele>139.85714285714286</ele><time>2026-04-25T08:52:51Z</time></trkpt><trkpt lat="45.595625055656974" lon="9.553114939378116"><ele>140.28571428571428</ele><time>2026-04-25T08:52:53Z</time></trkpt><trkpt lat="45.59568832976256" lon="9.55315325887539"><ele>140.71428571428572</ele><time>2026-04-25T08:52:55Z</time></trkpt><trkpt lat="45.5957467837672" lon="9.553224018557028"><ele>141.14285714285714</ele><time>2026-04-25T08:52:58Z</time></trkpt><trkpt lat="45.59582366011393" lon="9.553276502165549"><ele>141.57142857142856</ele><time>2026-04-25T08:53:01Z</time></trkpt><trkpt lat="45.595887078595716" lon="9.553234164244389"><ele>142.0</ele><time>2026-04-25T08:53:05Z</time></trkpt><trkpt lat="45.59588262797334" lon="9.553123267838684"><ele>142.0</ele><time>2026-04-25T08:53:08Z</time></trkpt><trkpt lat="45.59593784383692" lon="9.553035285807574"><ele>142.0</ele><time>2026-04-25T08:53:12Z</time></trkpt><trkpt lat="45.5960118848515" lon="9.553056355679704"><ele>142.0</ele><time>2026-04-25T08:53:15Z</time></trkpt><trkpt lat="45.596063467427584" lon="9.553145584058615"><ele>142.0</ele><time>2026-04-25T08:53:18Z</time></trkpt><trkpt lat="45.596126115953375" lon="9.553232885978844"><ele>142.0</ele><time>2026-04-25T08:53:21Z</time></trkpt><trkpt lat="45.59619761326271" lon="9.553297364051337"><ele>142.0</ele><time>2026-04-25T08:53:24Z</time></trkpt><trkpt lat="45.59626582624309" lon="9.553383447480538"><ele>142.5</ele><time>2026-04-25T08:53:27Z</time></trkpt><trkpt lat="45.59632700720589" lon="9.553459678449016"><ele>143.0</ele><time>2026-04-25T08:53:29Z</time></trkpt><trkpt lat="45.5963940407992" lon="9.553516366833527"><ele>143.5</ele><time>2026-04-25T08:53:31Z</time></trkpt><trkpt lat="45.59647086001179" lon="9.553543958766758"><ele>144.0</ele><time>2026-04-25T08:53:33Z</time></trkpt><trkpt lat="45.596552685593714" lon="9.553546185850259"><ele>144.5</ele><time>2026-04-25T08:53:35Z</time></trkpt><trkpt lat="45.59662934006265" lon="9.553515117538408"><ele>145.0</ele><time>2026-04-25T08:53:37Z</time></trkpt><trkpt lat="45.59669476770601" lon="9.553489227705954"><ele>145.0</ele><time>2026-04-25T08:53:39Z</time></trkpt><trkpt lat="45.59678803812169" lon="9.553467624793836"><ele>145.0</ele><time>2026-04-25T08:53:42Z</time></trkpt><trkpt lat="45.596853840282215" lon="9.55344085791064"><ele>145.0</ele><time>2026-04-25T08:53:44Z</time></trkpt><trkpt lat="45.596942257791156" lon="9.553418524071752"><ele>145.0</ele><time>2026-04-25T08:53:47Z</time></trkpt><trkpt lat="45.597035459195716" lon="9.553389121570543"><ele>145.0</ele><time>2026-04-25T08:53:50Z</time></trkpt><trkpt lat="45.597098707523806" lon="9.553392809334552"><ele>145.0</ele><time>2026-04-25T08:53:52Z</time></trkpt><trkpt lat="45.597188865940346" lon="9.553386229698239"><ele>146.0</ele><time>2026-04-25T08:53:55Z</time></trkpt><trkpt lat="45.59726817509079" lon="9.553430708619885"><ele>147.0</ele><time>2026-04-25T08:53:58Z</time></trkpt><trkpt lat="45.597321643633336" lon="9.553482151473629"><ele>148.0</ele><time>2026-04-25T08:54:00Z</time></trkpt><trkpt lat="45.59738938474588" lon="9.553576271373482"><ele>149.0</ele><time>2026-04-25T08:54:03Z</time></trkpt><trkpt lat="45.5974271117213" lon="9.553656165425362"><ele>150.0</ele><time>2026-04-25T08:54:05Z</time></trkpt><trkpt lat="45.59746678760739" lon="9.55373719678529"><ele>151.0</ele><time>2026-04-25T08:54:07Z</time></trkpt><trkpt lat="45.59750456011496" lon="9.553826039215139"><ele>151.00000000000003</ele><time>2026-04-25T08:54:09Z</time></trkpt><trkpt lat="45.597549872517035" lon="9.553902896005678"><ele>151.0</ele><time>2026-04-25T08:54:11Z</time></trkpt><trkpt lat="45.59759699711131" lon="9.55397426667198"><ele>151.0</ele><time>2026-04-25T08:54:13Z</time></trkpt><trkpt lat="45.597641492911414" lon="9.55405513607227"><ele>151.0</ele><time>2026-04-25T08:54:15Z</time></trkpt><trkpt lat="45.59769196854986" lon="9.554134443333462"><ele>151.0</ele><time>2026-04-25T08:54:17Z</time></trkpt><trkpt lat="45.59775484507739" lon="9.554198538154312"><ele>151.00000000000003</ele><time>2026-04-25T08:54:19Z</time></trkpt><trkpt lat="45.59781875092342" lon="9.554256698057369"><ele>151.0</ele><time>2026-04-25T08:54:21Z</time></trkpt><trkpt lat="45.59788566118963" lon="9.554307323689393"><ele>153.14285714285717</ele><time>2026-04-25T08:54:23Z</time></trkpt><trkpt lat="45.59795711510531" lon="9.554331610407525"><ele>155.28571428571428</ele><time>2026-04-25T08:54:25Z</time></trkpt><trkpt lat="45.59802053424315" lon="9.554361223438352"><ele>157.42857142857144</ele><time>2026-04-25T08:54:27Z</time></trkpt><trkpt lat="45.59809339600563" lon="9.554375644296785"><ele>159.57142857142858</ele><time>2026-04-25T08:54:29Z</time></trkpt><trkpt lat="45.59818550301556" lon="9.55440294024262"><ele>161.71428571428572</ele><time>2026-04-25T08:54:32Z</time></trkpt><trkpt lat="45.5982451462851" lon="9.55443767003224"><ele>163.85714285714286</ele><time>2026-04-25T08:54:34Z</time></trkpt><trkpt lat="45.59829608364853" lon="9.554493376490884"><ele>166.0</ele><time>2026-04-25T08:54:36Z</time></trkpt><trkpt lat="45.59835457423533" lon="9.554530494133093"><ele>165.33333333333334</ele><time>2026-04-25T08:54:38.001Z</time></trkpt><trkpt lat="45.598440368257876" lon="9.554576961496887"><ele>164.66666666666669</ele><time>2026-04-25T08:54:41.001Z</time></trkpt><trkpt lat="45.598519376357814" lon="9.554629864113169"><ele>164.0</ele><time>2026-04-25T08:54:44.001Z</time></trkpt><trkpt lat="45.59859501221296" lon="9.554689730437007"><ele>163.33333333333334</ele><time>2026-04-25T08:54:47.001Z</time></trkpt><trkpt lat="45.598669140688216" lon="9.554720283332982"><ele>162.66666666666666</ele><time>2026-04-25T08:54:50.001Z</time></trkpt><trkpt lat="45.59874142604055" lon="9.554780616044235"><ele>162.0</ele><time>2026-04-25T08:54:53.001Z</time></trkpt><trkpt lat="45.598826264054374" lon="9.554805474697572"><ele>162.0</ele><time>2026-04-25T08:54:56.001Z</time></trkpt><trkpt lat="45.598894018688505" lon="9.554869043951989"><ele>162.0</ele><time>2026-04-25T08:54:59Z</time></trkpt><trkpt lat="45.5989743026038" lon="9.55490548474425"><ele>162.0</ele><time>2026-04-25T08:55:02Z</time></trkpt><trkpt lat="45.59905481731171" lon="9.554946304390933"><ele>162.0</ele><time>2026-04-25T08:55:05Z</time></trkpt><trkpt lat="45.59913234767009" lon="9.55499051554145"><ele>162.0</ele><time>2026-04-25T08:55:08Z</time></trkpt><trkpt lat="45.59919404249498" lon="9.555010598079448"><ele>162.0</ele><time>2026-04-25T08:55:11Z</time></trkpt><trkpt lat="45.59925882151021" lon="9.55501551133793"><ele>162.0</ele><time>2026-04-25T08:55:14Z</time></trkpt><trkpt lat="45.59932421432365" lon="9.55506368030477"><ele>162.0</ele><time>2026-04-25T08:55:17Z</time></trkpt><trkpt lat="45.59941478462721" lon="9.555050484850266"><ele>162.0</ele><time>2026-04-25T08:55:20Z</time></trkpt><trkpt lat="45.59950629668065" lon="9.55507322195947"><ele>162.0</ele><time>2026-04-25T08:55:23Z</time></trkpt><trkpt lat="45.59956969631104" lon="9.555100078223754"><ele>162.0</ele><time>2026-04-25T08:55:25Z</time></trkpt><trkpt lat="45.59963414713704" lon="9.555117455799062"><ele>162.0</ele><time>2026-04-25T08:55:27Z</time></trkpt><trkpt lat="45.599699406838596" lon="9.555134869642721"><ele>163.14285714285714</ele><time>2026-04-25T08:55:29Z</time></trkpt><trkpt lat="45.599789994592044" lon="9.555160202144437"><ele>164.28571428571428</ele><time>2026-04-25T08:55:32Z</time></trkpt><trkpt lat="45.59985378053787" lon="9.555179922877231"><ele>165.42857142857144</ele><time>2026-04-25T08:55:34Z</time></trkpt><trkpt lat="45.59991785057399" lon="9.55520518428731"><ele>166.57142857142856</ele><time>2026-04-25T08:55:36Z</time></trkpt><trkpt lat="45.599986685546284" lon="9.555221468895889"><ele>167.7142857142857</ele><time>2026-04-25T08:55:38Z</time></trkpt><trkpt lat="45.60005570758742" lon="9.555242131415264"><ele>168.85714285714286</ele><time>2026-04-25T08:55:40Z</time></trkpt><trkpt lat="45.600124697543784" lon="9.555270434571623"><ele>170.0</ele><time>2026-04-25T08:55:42Z</time></trkpt><trkpt lat="45.60018996557964" lon="9.555302073960554"><ele>170.0</ele><time>2026-04-25T08:55:44Z</time></trkpt><trkpt lat="45.600260704393826" lon="9.555335797799831"><ele>170.0</ele><time>2026-04-25T08:55:46Z</time></trkpt><trkpt lat="45.60033065489781" lon="9.555365814004643"><ele>170.0</ele><time>2026-04-25T08:55:48Z</time></trkpt><trkpt lat="45.6004053058185" lon="9.55540526359671"><ele>170.0</ele><time>2026-04-25T08:55:50Z</time></trkpt><trkpt lat="45.600474055725925" lon="9.555453405016278"><ele>170.0</ele><time>2026-04-25T08:55:52Z</time></trkpt><trkpt lat="45.600548099487625" lon="9.555501651672012"><ele>170.0</ele><time>2026-04-25T08:55:54Z</time></trkpt><trkpt lat="45.6006246724787" lon="9.555545285100301"><ele>169.71428571428572</ele><time>2026-04-25T08:55:56Z</time></trkpt><trkpt lat="45.60069700568997" lon="9.555580890636309"><ele>169.42857142857142</ele><time>2026-04-25T08:55:58Z</time></trkpt><trkpt lat="45.60076487072146" lon="9.555625242254663"><ele>169.14285714285714</ele><time>2026-04-25T08:56:00Z</time></trkpt><trkpt lat="45.60083143206844" lon="9.55565759897534"><ele>168.85714285714286</ele><time>2026-04-25T08:56:02Z</time></trkpt><trkpt lat="45.600895170212624" lon="9.555678821018098"><ele>168.57142857142856</ele><time>2026-04-25T08:56:04Z</time></trkpt><trkpt lat="45.60095901334776" lon="9.555723339821235"><ele>168.28571428571428</ele><time>2026-04-25T08:56:07Z</time></trkpt><trkpt lat="45.600912527784196" lon="9.555788428647887"><ele>168.0</ele><time>2026-04-25T08:56:19Z</time></trkpt><trkpt lat="45.60084773101653" lon="9.555788828918004"><ele>168.0</ele><time>2026-04-25T08:56:22Z</time></trkpt><trkpt lat="45.600774145782744" lon="9.55576509945346"><ele>168.0</ele><time>2026-04-25T08:56:26Z</time></trkpt><trkpt lat="45.600712968168146" lon="9.555790385711004"><ele>168.0</ele><time>2026-04-25T08:56:31Z</time></trkpt><trkpt lat="45.60063808045085" lon="9.555815517931416"><ele>168.0</ele><time>2026-04-25T08:56:37Z</time></trkpt><trkpt lat="45.60056447914528" lon="9.555826628463254"><ele>168.0</ele><time>2026-04-25T08:56:41Z</time></trkpt><trkpt lat="45.600501521671184" lon="9.55585248935427"><ele>168.0</ele><time>2026-04-25T08:56:45Z</time></trkpt><trkpt lat="45.60043273909441" lon="9.555876460898851"><ele>168.0</ele><time>2026-04-25T08:56:49Z</time></trkpt><trkpt lat="45.60036977058321" lon="9.555926977096455"><ele>168.0</ele><time>2026-04-25T08:56:54Z</time></trkpt><trkpt lat="45.6003232820553" lon="9.555999320067135"><ele>168.0</ele><time>2026-04-25T08:56:59Z</time></trkpt><trkpt lat="45.600362192907895" lon="9.555923537897094"><ele>168.0</ele><time>2026-04-25T08:59:13Z</time></trkpt><trkpt lat="45.600426695009865" lon="9.555878452751108"><ele>168.0</ele><time>2026-04-25T08:59:17Z</time></trkpt><trkpt lat="45.600498015760635" lon="9.555845345346901"><ele>168.0</ele><time>2026-04-25T08:59:20Z</time></trkpt><trkpt lat="45.60056733317758" lon="9.555798589420311"><ele>168.0</ele><time>2026-04-25T08:59:23Z</time></trkpt><trkpt lat="45.60064644191166" lon="9.555780854546963"><ele>168.0</ele><time>2026-04-25T08:59:27Z</time></trkpt><trkpt lat="45.60072323372259" lon="9.555776421572443"><ele>168.0</ele><time>2026-04-25T08:59:32Z</time></trkpt><trkpt lat="45.60079821746041" lon="9.555766101537966"><ele>168.0</ele><time>2026-04-25T08:59:35Z</time></trkpt><trkpt lat="45.6008863914096" lon="9.555792067329842"><ele>168.0</ele><time>2026-04-25T08:59:39Z</time></trkpt><trkpt lat="45.60096325988171" lon="9.55577401580417"><ele>168.0</ele><time>2026-04-25T09:00:07Z</time></trkpt><trkpt lat="45.60102995233758" lon="9.555781812350963"><ele>168.0</ele><time>2026-04-25T09:00:15Z</time></trkpt><trkpt lat="45.60110241105422" lon="9.555804392179189"><ele>168.0</ele><time>2026-04-25T09:00:19Z</time></trkpt><trkpt lat="45.601178360777276" lon="9.555827187135893"><ele>168.33333333333334</ele><time>2026-04-25T09:00:23Z</time></trkpt><trkpt lat="45.601262631683106" lon="9.555882579241983"><ele>168.66666666666666</ele><time>2026-04-25T09:00:26Z</time></trkpt><trkpt lat="45.60134537917355" lon="9.555917733494727"><ele>169.0</ele><time>2026-04-25T09:00:29Z</time></trkpt><trkpt lat="45.60141284448928" lon="9.555934221796592"><ele>169.33333333333331</ele><time>2026-04-25T09:00:31Z</time></trkpt><trkpt lat="45.60148247426514" lon="9.555954990633927"><ele>169.66666666666666</ele><time>2026-04-25T09:00:33Z</time></trkpt><trkpt lat="45.60154995514675" lon="9.555973111778137"><ele>170.0</ele><time>2026-04-25T09:00:35Z</time></trkpt><trkpt lat="45.601613939233296" lon="9.555997953865685"><ele>170.0</ele><time>2026-04-25T09:00:37Z</time></trkpt><trkpt lat="45.60168593740225" lon="9.55602497454219"><ele>170.0</ele><time>2026-04-25T09:00:39Z</time></trkpt><trkpt lat="45.60175250674224" lon="9.556040867928973"><ele>170.0</ele><time>2026-04-25T09:00:41Z</time></trkpt><trkpt lat="45.60181658746232" lon="9.55605644774919"><ele>170.0</ele><time>2026-04-25T09:00:43Z</time></trkpt><trkpt lat="45.601885398827854" lon="9.55608278299492"><ele>170.0</ele><time>2026-04-25T09:00:45Z</time></trkpt><trkpt lat="45.601950270539156" lon="9.556080051006067"><ele>170.0</ele><time>2026-04-25T09:00:47Z</time></trkpt><trkpt lat="45.60201338133519" lon="9.556030512455806"><ele>170.0</ele><time>2026-04-25T09:00:49Z</time></trkpt><trkpt lat="45.60206969574838" lon="9.555960935398732"><ele>170.57142857142858</ele><time>2026-04-25T09:00:52Z</time></trkpt><trkpt lat="45.602128093168474" lon="9.555911409790076"><ele>171.14285714285714</ele><time>2026-04-25T09:00:55Z</time></trkpt><trkpt lat="45.602099909829455" lon="9.556007394200975"><ele>171.71428571428572</ele><time>2026-04-25T09:01:05Z</time></trkpt><trkpt lat="45.60205771946781" lon="9.55608496133253"><ele>172.28571428571428</ele><time>2026-04-25T09:01:09Z</time></trkpt><trkpt lat="45.602022758897235" lon="9.556161874532764"><ele>172.85714285714286</ele><time>2026-04-25T09:01:13Z</time></trkpt><trkpt lat="45.601993733054705" lon="9.556241898027439"><ele>173.42857142857142</ele><time>2026-04-25T09:01:28.999Z</time></trkpt><trkpt lat="45.601983252806015" lon="9.556344997704517"><ele>174.0</ele><time>2026-04-25T09:01:33.999Z</time></trkpt><trkpt lat="45.601938328925335" lon="9.55643216667227"><ele>174.0</ele><time>2026-04-25T09:01:41Z</time></trkpt><trkpt lat="45.601875398339615" lon="9.556459204492104"><ele>174.0</ele><time>2026-04-25T09:01:46Z</time></trkpt><trkpt lat="45.60194025513302" lon="9.556407891188403"><ele>174.0</ele><time>2026-04-25T09:02:06Z</time></trkpt><trkpt lat="45.601974541425484" lon="9.55632501004775"><ele>174.0</ele><time>2026-04-25T09:02:14Z</time></trkpt><trkpt lat="45.60201854975376" lon="9.55623881028983"><ele>174.0</ele><time>2026-04-25T09:02:21Z</time></trkpt><trkpt lat="45.60205607939223" lon="9.556155823048792"><ele>174.0</ele><time>2026-04-25T09:02:24Z</time></trkpt><trkpt lat="45.60209445421708" lon="9.556062228705553"><ele>174.0</ele><time>2026-04-25T09:02:27Z</time></trkpt><trkpt lat="45.60213296122468" lon="9.555974407909773"><ele>174.0</ele><time>2026-04-25T09:02:30Z</time></trkpt><trkpt lat="45.60216983856926" lon="9.555880047750806"><ele>174.0</ele><time>2026-04-25T09:02:33Z</time></trkpt><trkpt lat="45.60223441052564" lon="9.555807049828468"><ele>174.0</ele><time>2026-04-25T09:02:36Z</time></trkpt><trkpt lat="45.60229862477092" lon="9.555733594389434"><ele>174.0</ele><time>2026-04-25T09:02:40Z</time></trkpt><trkpt lat="45.6023732275907" lon="9.555703731137141"><ele>174.0</ele><time>2026-04-25T09:02:44Z</time></trkpt><trkpt lat="45.602480138917336" lon="9.555643086806612"><ele>174.0</ele><time>2026-04-25T09:02:48Z</time></trkpt><trkpt lat="45.60256707429763" lon="9.55560053686702"><ele>174.0</ele><time>2026-04-25T09:02:51Z</time></trkpt><trkpt lat="45.60264306107754" lon="9.555551017934466"><ele>174.0</ele><time>2026-04-25T09:02:54Z</time></trkpt><trkpt lat="45.60271063411703" lon="9.555527735923762"><ele>174.0</ele><time>2026-04-25T09:02:56Z</time></trkpt><trkpt lat="45.60275512582719" lon="9.555599660121969"><ele>174.0</ele><time>2026-04-25T09:02:58Z</time></trkpt><trkpt lat="45.60279201993843" lon="9.555685105217297"><ele>174.0</ele><time>2026-04-25T09:03:00Z</time></trkpt><trkpt lat="45.602840233262164" lon="9.55579746697936"><ele>174.0</ele><time>2026-04-25T09:03:03Z</time></trkpt><trkpt lat="45.602882831233316" lon="9.555901496340867"><ele>174.33333333333334</ele><time>2026-04-25T09:03:06Z</time></trkpt><trkpt lat="45.60291143985459" lon="9.555984521287142"><ele>174.66666666666666</ele><time>2026-04-25T09:03:08Z</time></trkpt><trkpt lat="45.60295569939091" lon="9.5561016018424"><ele>175.0</ele><time>2026-04-25T09:03:11Z</time></trkpt><trkpt lat="45.6030108303438" lon="9.556157727307708"><ele>175.33333333333331</ele><time>2026-04-25T09:03:16Z</time></trkpt><trkpt lat="45.60310476062261" lon="9.556135462745452"><ele>175.66666666666666</ele><time>2026-04-25T09:03:19Z</time></trkpt><trkpt lat="45.60322103752158" lon="9.556121370391285"><ele>176.0</ele><time>2026-04-25T09:03:21.999Z</time></trkpt><trkpt lat="45.60330223594408" lon="9.556098159916285"><ele>176.0</ele><time>2026-04-25T09:03:23.999Z</time></trkpt><trkpt lat="45.603375023812475" lon="9.556065197007229"><ele>176.0</ele><time>2026-04-25T09:03:25.999Z</time></trkpt><trkpt lat="45.603440858374945" lon="9.556026563308656"><ele>176.0</ele><time>2026-04-25T09:03:27.999Z</time></trkpt><trkpt lat="45.603522658252004" lon="9.555971281968285"><ele>176.0</ele><time>2026-04-25T09:03:30.999Z</time></trkpt><trkpt lat="45.60360300183012" lon="9.555930779542889"><ele>176.0</ele><time>2026-04-25T09:03:33.999Z</time></trkpt><trkpt lat="45.60367444787375" lon="9.555922766152738"><ele>176.0</ele><time>2026-04-25T09:03:36.999Z</time></trkpt><trkpt lat="45.603720335101606" lon="9.555986622427545"><ele>175.33333333333331</ele><time>2026-04-25T09:03:40.999Z</time></trkpt><trkpt lat="45.60378610628916" lon="9.556041738844993"><ele>174.66666666666666</ele><time>2026-04-25T09:03:42.999Z</time></trkpt><trkpt lat="45.603854060593534" lon="9.556064399923104"><ele>174.0</ele><time>2026-04-25T09:03:44.999Z</time></trkpt><trkpt lat="45.60391013739661" lon="9.556125813927085"><ele>173.33333333333334</ele><time>2026-04-25T09:03:46.999Z</time></trkpt><trkpt lat="45.603964102941724" lon="9.556198305854902"><ele>172.66666666666669</ele><time>2026-04-25T09:03:48.999Z</time></trkpt><trkpt lat="45.60400736332461" lon="9.556300449053499"><ele>172.0</ele><time>2026-04-25T09:03:51Z</time></trkpt><trkpt lat="45.60408299180371" lon="9.556302127245337"><ele>171.39999999999998</ele><time>2026-04-25T09:03:55Z</time></trkpt><trkpt lat="45.604144962935216" lon="9.556423610276601"><ele>170.79999999999998</ele><time>2026-04-25T09:03:59Z</time></trkpt><trkpt lat="45.6041942549802" lon="9.556534758467038"><ele>170.2</ele><time>2026-04-25T09:04:01Z</time></trkpt><trkpt lat="45.60424616911887" lon="9.556635466420424"><ele>169.6</ele><time>2026-04-25T09:04:03Z</time></trkpt><trkpt lat="45.60429814287225" lon="9.556739392735683"><ele>169.0</ele><time>2026-04-25T09:04:05Z</time></trkpt><trkpt lat="45.604350371297734" lon="9.556851121354892"><ele>169.0</ele><time>2026-04-25T09:04:07Z</time></trkpt><trkpt lat="45.604411162382185" lon="9.556959282063236"><ele>169.0</ele><time>2026-04-25T09:04:09Z</time></trkpt><trkpt lat="45.60446522217532" lon="9.557055969769616"><ele>169.0</ele><time>2026-04-25T09:04:11Z</time></trkpt><trkpt lat="45.604511760529846" lon="9.557147637520565"><ele>169.0</ele><time>2026-04-25T09:04:13Z</time></trkpt><trkpt lat="45.604556964866916" lon="9.55723934618288"><ele>169.0</ele><time>2026-04-25T09:04:15Z</time></trkpt><trkpt lat="45.60459701354852" lon="9.55731875005852"><ele>169.0</ele><time>2026-04-25T09:04:17Z</time></trkpt><trkpt lat="45.60463424149903" lon="9.55739811607953"><ele>168.66666666666669</ele><time>2026-04-25T09:04:19Z</time></trkpt><trkpt lat="45.60467096274099" lon="9.557481415301549"><ele>168.33333333333334</ele><time>2026-04-25T09:04:21Z</time></trkpt><trkpt lat="45.60470303319606" lon="9.557576015274108"><ele>168.0</ele><time>2026-04-25T09:04:23Z</time></trkpt><trkpt lat="45.60472645525225" lon="9.557688705377142"><ele>167.66666666666666</ele><time>2026-04-25T09:04:25Z</time></trkpt><trkpt lat="45.6047596077898" lon="9.5578038154739"><ele>167.33333333333331</ele><time>2026-04-25T09:04:27Z</time></trkpt><trkpt lat="45.60477183958415" lon="9.557918121275506"><ele>167.0</ele><time>2026-04-25T09:04:29Z</time></trkpt><trkpt lat="45.60473287089135" lon="9.558023585624078"><ele>165.16666666666666</ele><time>2026-04-25T09:04:31Z</time></trkpt><trkpt lat="45.60470092918148" lon="9.558113218910739"><ele>163.33333333333331</ele><time>2026-04-25T09:04:33Z</time></trkpt><trkpt lat="45.60467334535889" lon="9.558200960742997"><ele>161.5</ele><time>2026-04-25T09:04:35Z</time></trkpt><trkpt lat="45.60463295748387" lon="9.558304283270271"><ele>159.66666666666666</ele><time>2026-04-25T09:04:38Z</time></trkpt><trkpt lat="45.6045880775964" lon="9.558438048652285"><ele>157.83333333333334</ele><time>2026-04-25T09:04:41Z</time></trkpt><trkpt lat="45.604556293786665" lon="9.55855368175184"><ele>156.0</ele><time>2026-04-25T09:04:43Z</time></trkpt><trkpt lat="45.60452834151398" lon="9.558649993349194"><ele>156.66666666666666</ele><time>2026-04-25T09:04:45Z</time></trkpt><trkpt lat="45.60449309221801" lon="9.558732874670188"><ele>157.33333333333334</ele><time>2026-04-25T09:04:47Z</time></trkpt><trkpt lat="45.60444871762814" lon="9.558853209015858"><ele>158.0</ele><time>2026-04-25T09:04:50Z</time></trkpt><trkpt lat="45.604416816510756" lon="9.55896552940928"><ele>158.66666666666669</ele><time>2026-04-25T09:04:53Z</time></trkpt><trkpt lat="45.60438676304098" lon="9.559067818835674"><ele>159.33333333333334</ele><time>2026-04-25T09:04:56Z</time></trkpt><trkpt lat="45.604350352942646" lon="9.559159376406186"><ele>160.0</ele><time>2026-04-25T09:04:58Z</time></trkpt><trkpt lat="45.60430574890062" lon="9.55924188570758"><ele>160.0</ele><time>2026-04-25T09:05:01Z</time></trkpt><trkpt lat="45.60429491373462" lon="9.559336769587436"><ele>160.0</ele><time>2026-04-25T09:05:12Z</time></trkpt><trkpt lat="45.60426890545892" lon="9.55942592772226"><ele>160.0</ele><time>2026-04-25T09:05:14Z</time></trkpt><trkpt lat="45.60424981189238" lon="9.559520122695389"><ele>160.0</ele><time>2026-04-25T09:05:16Z</time></trkpt><trkpt lat="45.604240992483604" lon="9.559613181304115"><ele>160.0</ele><time>2026-04-25T09:05:19Z</time></trkpt><trkpt lat="45.604235262718824" lon="9.559710721512312"><ele>160.0</ele><time>2026-04-25T09:05:21Z</time></trkpt><trkpt lat="45.60422919405922" lon="9.559809645139016"><ele>160.0</ele><time>2026-04-25T09:05:23Z</time></trkpt><trkpt lat="45.604215743362" lon="9.55994045716339"><ele>160.66666666666669</ele><time>2026-04-25T09:05:26.999Z</time></trkpt><trkpt lat="45.604233128971636" lon="9.5600580773289"><ele>161.33333333333334</ele><time>2026-04-25T09:05:28.999Z</time></trkpt><trkpt lat="45.604244678952504" lon="9.560165404851936"><ele>162.0</ele><time>2026-04-25T09:05:30.999Z</time></trkpt><trkpt lat="45.60419365157421" lon="9.560236999748069"><ele>162.66666666666666</ele><time>2026-04-25T09:05:33.999Z</time></trkpt><trkpt lat="45.60416884184731" lon="9.560142220852581"><ele>163.33333333333331</ele><time>2026-04-25T09:05:35.999Z</time></trkpt><trkpt lat="45.60420229294739" lon="9.560025795971274"><ele>164.0</ele><time>2026-04-25T09:05:37.999Z</time></trkpt><trkpt lat="45.604194463388154" lon="9.559907420015106"><ele>164.0</ele><time>2026-04-25T09:05:39.999Z</time></trkpt><trkpt lat="45.60418277928353" lon="9.559785183474538"><ele>164.0</ele><time>2026-04-25T09:05:41.999Z</time></trkpt><trkpt lat="45.604184517594156" lon="9.559659843555043"><ele>164.0</ele><time>2026-04-25T09:05:43.999Z</time></trkpt><trkpt lat="45.60418890727592" lon="9.55953542137146"><ele>164.0</ele><time>2026-04-25T09:05:45.999Z</time></trkpt><trkpt lat="45.604214961613245" lon="9.559416128187072"><ele>164.0</ele><time>2026-04-25T09:05:47.999Z</time></trkpt><trkpt lat="45.60423499913848" lon="9.559308072285832"><ele>164.0</ele><time>2026-04-25T09:05:49.999Z</time></trkpt><trkpt lat="45.60423937727944" lon="9.559214625003577"><ele>163.42857142857142</ele><time>2026-04-25T09:05:52.999Z</time></trkpt><trkpt lat="45.60420187738674" lon="9.55912979265079"><ele>162.85714285714286</ele><time>2026-04-25T09:05:55.999Z</time></trkpt><trkpt lat="45.60414041776043" lon="9.559085120939265"><ele>162.28571428571428</ele><time>2026-04-25T09:05:58.999Z</time></trkpt><trkpt lat="45.60406503977502" lon="9.55905413405381"><ele>161.71428571428572</ele><time>2026-04-25T09:06:01.999Z</time></trkpt><trkpt lat="45.60400269172835" lon="9.559005530114685"><ele>161.14285714285714</ele><time>2026-04-25T09:06:06Z</time></trkpt><trkpt lat="45.60393454771864" lon="9.55900591419545"><ele>160.57142857142856</ele><time>2026-04-25T09:06:09Z</time></trkpt><trkpt lat="45.60385717052547" lon="9.558962993966416"><ele>160.0</ele><time>2026-04-25T09:06:12Z</time></trkpt><trkpt lat="45.6037794263993" lon="9.55890679704126"><ele>160.0</ele><time>2026-04-25T09:06:15Z</time></trkpt><trkpt lat="45.60368660982344" lon="9.558877132968059"><ele>160.0</ele><time>2026-04-25T09:06:18.001Z</time></trkpt><trkpt lat="45.603621225199646" lon="9.558848552071307"><ele>160.0</ele><time>2026-04-25T09:06:20.001Z</time></trkpt><trkpt lat="45.60355620340104" lon="9.558817390284483"><ele>160.0</ele><time>2026-04-25T09:06:22.001Z</time></trkpt><trkpt lat="45.603481245620976" lon="9.558787253959355"><ele>160.0</ele><time>2026-04-25T09:06:24.001Z</time></trkpt><trkpt lat="45.603404242983636" lon="9.558748290146811"><ele>160.0</ele><time>2026-04-25T09:06:26.001Z</time></trkpt><trkpt lat="45.60333371147576" lon="9.558713325400227"><ele>159.16666666666669</ele><time>2026-04-25T09:06:28.001Z</time></trkpt><trkpt lat="45.603263368036025" lon="9.558680699309646"><ele>158.33333333333334</ele><time>2026-04-25T09:06:30.001Z</time></trkpt><trkpt lat="45.603201055746624" lon="9.558640388175666"><ele>157.5</ele><time>2026-04-25T09:06:32.001Z</time></trkpt><trkpt lat="45.603134643618176" lon="9.55862430795266"><ele>156.66666666666666</ele><time>2026-04-25T09:06:34.001Z</time></trkpt><trkpt lat="45.6030597988311" lon="9.558603586645164"><ele>155.83333333333331</ele><time>2026-04-25T09:06:36.001Z</time></trkpt><trkpt lat="45.60298222586399" lon="9.5585626280841"><ele>155.0</ele><time>2026-04-25T09:06:38.001Z</time></trkpt><trkpt lat="45.60289821602575" lon="9.55852255167736"><ele>156.0</ele><time>2026-04-25T09:06:40.001Z</time></trkpt><trkpt lat="45.60280926913473" lon="9.55847324720939"><ele>157.0</ele><time>2026-04-25T09:06:42.001Z</time></trkpt><trkpt lat="45.602725568027985" lon="9.558421833793032"><ele>158.0</ele><time>2026-04-25T09:06:44.001Z</time></trkpt><trkpt lat="45.60263453858405" lon="9.558384933735514"><ele>159.0</ele><time>2026-04-25T09:06:46.001Z</time></trkpt><trkpt lat="45.6025394094711" lon="9.5583386257157"><ele>160.0</ele><time>2026-04-25T09:06:48.001Z</time></trkpt><trkpt lat="45.602440811262895" lon="9.558295005356877"><ele>160.0</ele><time>2026-04-25T09:06:50.001Z</time></trkpt><trkpt lat="45.60234009564297" lon="9.55825163067707"><ele>160.0</ele><time>2026-04-25T09:06:52.001Z</time></trkpt><trkpt lat="45.602232750669174" lon="9.558211079526243"><ele>160.0</ele><time>2026-04-25T09:06:54.001Z</time></trkpt><trkpt lat="45.60212349445166" lon="9.558164780960286"><ele>160.0</ele><time>2026-04-25T09:06:56.001Z</time></trkpt><trkpt lat="45.602010701057516" lon="9.558118555885203"><ele>160.0</ele><time>2026-04-25T09:06:58.001Z</time></trkpt><trkpt lat="45.60189351982595" lon="9.558071207013802"><ele>159.75</ele><time>2026-04-25T09:07:00.001Z</time></trkpt><trkpt lat="45.60177562222651" lon="9.558022395760116"><ele>159.5</ele><time>2026-04-25T09:07:02.001Z</time></trkpt><trkpt lat="45.60165685036128" lon="9.55797828692571"><ele>159.25</ele><time>2026-04-25T09:07:04.001Z</time></trkpt><trkpt lat="45.60153565776609" lon="9.557937233775336"><ele>159.0</ele><time>2026-04-25T09:07:06.001Z</time></trkpt><trkpt lat="45.60141769827081" lon="9.557913230497341"><ele>159.0</ele><time>2026-04-25T09:07:08.001Z</time></trkpt><trkpt lat="45.601304889874505" lon="9.557873504652811"><ele>159.0</ele><time>2026-04-25T09:07:10.001Z</time></trkpt><trkpt lat="45.60119032210726" lon="9.557841200434597"><ele>159.0</ele><time>2026-04-25T09:07:12.001Z</time></trkpt><trkpt lat="45.601076787352504" lon="9.557809404734051"><ele>159.0</ele><time>2026-04-25T09:07:14.001Z</time></trkpt><trkpt lat="45.600961425669595" lon="9.557781497770451"><ele>158.0</ele><time>2026-04-25T09:07:16.001Z</time></trkpt><trkpt lat="45.6008473364574" lon="9.557750323602592"><ele>157.0</ele><time>2026-04-25T09:07:18.001Z</time></trkpt><trkpt lat="45.600735647052815" lon="9.557715303370404"><ele>156.0</ele><time>2026-04-25T09:07:20.001Z</time></trkpt><trkpt lat="45.60061931202745" lon="9.557691762037676"><ele>155.0</ele><time>2026-04-25T09:07:22.001Z</time></trkpt><trkpt lat="45.60050365469973" lon="9.557666433658676"><ele>155.0</ele><time>2026-04-25T09:07:24.001Z</time></trkpt><trkpt lat="45.60038740243012" lon="9.557642691106894"><ele>155.0</ele><time>2026-04-25T09:07:26.001Z</time></trkpt><trkpt lat="45.600269341416805" lon="9.55761686815787"><ele>155.0</ele><time>2026-04-25T09:07:28.001Z</time></trkpt><trkpt lat="45.60015849619691" lon="9.557568825974753"><ele>155.0</ele><time>2026-04-25T09:07:30.001Z</time></trkpt><trkpt lat="45.60003590908033" lon="9.557563698653997"><ele>155.0</ele><time>2026-04-25T09:07:32.001Z</time></trkpt><trkpt lat="45.59991876820139" lon="9.557528052374488"><ele>155.0</ele><time>2026-04-25T09:07:34Z</time></trkpt><trkpt lat="45.5998004722848" lon="9.557497838476502"><ele>155.0</ele><time>2026-04-25T09:07:36Z</time></trkpt><trkpt lat="45.59968669637796" lon="9.557463468961197"><ele>155.0</ele><time>2026-04-25T09:07:38Z</time></trkpt><trkpt lat="45.599572069716515" lon="9.557428044867516"><ele>153.5</ele><time>2026-04-25T09:07:40Z</time></trkpt><trkpt lat="45.59945717153059" lon="9.557406753029237"><ele>152.0</ele><time>2026-04-25T09:07:42Z</time></trkpt><trkpt lat="45.59934579534245" lon="9.557393700946244"><ele>150.5</ele><time>2026-04-25T09:07:44Z</time></trkpt><trkpt lat="45.5992343349437" lon="9.557396617245063"><ele>149.0</ele><time>2026-04-25T09:07:46Z</time></trkpt><trkpt lat="45.599120529137444" lon="9.557401943995377"><ele>149.0</ele><time>2026-04-25T09:07:48Z</time></trkpt><trkpt lat="45.599003335651986" lon="9.55739743399545"><ele>149.0</ele><time>2026-04-25T09:07:50Z</time></trkpt><trkpt lat="45.59888283466519" lon="9.557392751978202"><ele>149.0</ele><time>2026-04-25T09:07:52Z</time></trkpt><trkpt lat="45.59876232173483" lon="9.55739243019387"><ele>149.0</ele><time>2026-04-25T09:07:54Z</time></trkpt><trkpt lat="45.598643279515485" lon="9.557388427870155"><ele>149.0</ele><time>2026-04-25T09:07:56Z</time></trkpt><trkpt lat="45.59852071894121" lon="9.557387841247714"><ele>149.0</ele><time>2026-04-25T09:07:58Z</time></trkpt><trkpt lat="45.598397356312375" lon="9.557392538627118"><ele>149.0</ele><time>2026-04-25T09:08:00Z</time></trkpt><trkpt lat="45.59833414052433" lon="9.557387995343444"><ele>149.0</ele><time>2026-04-25T09:08:01Z</time></trkpt><trkpt lat="45.59827081047933" lon="9.55737729500389"><ele>149.0</ele><time>2026-04-25T09:08:02Z</time></trkpt><trkpt lat="45.59820633394415" lon="9.557376031499107"><ele>149.0</ele><time>2026-04-25T09:08:03Z</time></trkpt><trkpt lat="45.598140234535684" lon="9.557374638893798"><ele>149.0</ele><time>2026-04-25T09:08:04.001Z</time></trkpt><trkpt lat="45.59807414108452" lon="9.557375628993523"><ele>149.0</ele><time>2026-04-25T09:08:05.001Z</time></trkpt><trkpt lat="45.59800819237703" lon="9.557386360737436"><ele>149.0</ele><time>2026-04-25T09:08:06.001Z</time></trkpt><trkpt lat="45.59794022344785" lon="9.557399540512181"><ele>149.0</ele><time>2026-04-25T09:08:07.001Z</time></trkpt><trkpt lat="45.597873789502245" lon="9.55741642629038"><ele>149.0</ele><time>2026-04-25T09:08:08.001Z</time></trkpt><trkpt lat="45.5978070591708" lon="9.5574371205203"><ele>149.0</ele><time>2026-04-25T09:08:09.001Z</time></trkpt><trkpt lat="45.59774024692434" lon="9.55745405017648"><ele>149.0</ele><time>2026-04-25T09:08:10.001Z</time></trkpt><trkpt lat="45.59767194063645" lon="9.557466366663029"><ele>149.0</ele><time>2026-04-25T09:08:11.001Z</time></trkpt><trkpt lat="45.597603813589735" lon="9.557484976751304"><ele>149.0</ele><time>2026-04-25T09:08:12.001Z</time></trkpt><trkpt lat="45.597535253786155" lon="9.5575096170866"><ele>149.0</ele><time>2026-04-25T09:08:13.001Z</time></trkpt><trkpt lat="45.597464547574894" lon="9.557530225807012"><ele>149.0</ele><time>2026-04-25T09:08:14.001Z</time></trkpt><trkpt lat="45.59739427995439" lon="9.557547596098793"><ele>149.0</ele><time>2026-04-25T09:08:15.001Z</time></trkpt><trkpt lat="45.59732331826529" lon="9.557568105992136"><ele>149.0</ele><time>2026-04-25T09:08:16.001Z</time></trkpt><trkpt lat="45.597250798469084" lon="9.557590328910944"><ele>149.0</ele><time>2026-04-25T09:08:17.001Z</time></trkpt><trkpt lat="45.59717607852121" lon="9.557611398996869"><ele>149.0</ele><time>2026-04-25T09:08:18.001Z</time></trkpt><trkpt lat="45.59710561839243" lon="9.557637456537831"><ele>149.0</ele><time>2026-04-25T09:08:19.001Z</time></trkpt><trkpt lat="45.597032298885246" lon="9.557658916206012"><ele>149.0</ele><time>2026-04-25T09:08:20.001Z</time></trkpt><trkpt lat="45.59696240059003" lon="9.557681372659829"><ele>149.0</ele><time>2026-04-25T09:08:21.001Z</time></trkpt><trkpt lat="45.59689103320498" lon="9.55770335201985"><ele>149.0</ele><time>2026-04-25T09:08:22.001Z</time></trkpt><trkpt lat="45.596822607010424" lon="9.557723639744358"><ele>149.0</ele><time>2026-04-25T09:08:23.001Z</time></trkpt><trkpt lat="45.596750531012" lon="9.557744443273156"><ele>149.0</ele><time>2026-04-25T09:08:24.001Z</time></trkpt><trkpt lat="45.596680372485785" lon="9.557762393501955"><ele>148.83333333333331</ele><time>2026-04-25T09:08:25.001Z</time></trkpt><trkpt lat="45.596612517846175" lon="9.55779148614672"><ele>148.66666666666666</ele><time>2026-04-25T09:08:26.001Z</time></trkpt><trkpt lat="45.596544380832775" lon="9.557821864896665"><ele>148.5</ele><time>2026-04-25T09:08:27.001Z</time></trkpt><trkpt lat="45.596480394278956" lon="9.557850713069424"><ele>148.33333333333334</ele><time>2026-04-25T09:08:28.001Z</time></trkpt><trkpt lat="45.596411941100456" lon="9.557876392315677"><ele>148.16666666666669</ele><time>2026-04-25T09:08:29.001Z</time></trkpt><trkpt lat="45.59628809842853" lon="9.55792302646036"><ele>148.0</ele><time>2026-04-25T09:08:31.001Z</time></trkpt><trkpt lat="45.59622636604151" lon="9.55794803014103"><ele>147.25</ele><time>2026-04-25T09:08:32.001Z</time></trkpt><trkpt lat="45.59610683255146" lon="9.558000278736944"><ele>146.5</ele><time>2026-04-25T09:08:34.001Z</time></trkpt><trkpt lat="45.5959919761193" lon="9.558059624578089"><ele>145.75</ele><time>2026-04-25T09:08:36.001Z</time></trkpt><trkpt lat="45.59588000166533" lon="9.558099732290856"><ele>145.0</ele><time>2026-04-25T09:08:38.001Z</time></trkpt><trkpt lat="45.59577009251195" lon="9.55814109686099"><ele>145.0</ele><time>2026-04-25T09:08:40.001Z</time></trkpt><trkpt lat="45.59566124206671" lon="9.558193108548972"><ele>145.0</ele><time>2026-04-25T09:08:42.001Z</time></trkpt><trkpt lat="45.59554733748086" lon="9.558238800436207"><ele>145.0</ele><time>2026-04-25T09:08:44.001Z</time></trkpt><trkpt lat="45.5954358270525" lon="9.55828502350544"><ele>145.0</ele><time>2026-04-25T09:08:46.001Z</time></trkpt><trkpt lat="45.5953256647911" lon="9.55832903563435"><ele>144.5</ele><time>2026-04-25T09:08:48.001Z</time></trkpt><trkpt lat="45.59521630240794" lon="9.55837210008657"><ele>144.0</ele><time>2026-04-25T09:08:50.001Z</time></trkpt><trkpt lat="45.59510761658112" lon="9.558414663218342"><ele>143.5</ele><time>2026-04-25T09:08:52.001Z</time></trkpt><trkpt lat="45.59499553611834" lon="9.558445185372213"><ele>143.0</ele><time>2026-04-25T09:08:54.001Z</time></trkpt><trkpt lat="45.594885291392245" lon="9.558414746659505"><ele>143.0</ele><time>2026-04-25T09:08:56.001Z</time></trkpt><trkpt lat="45.59479296385244" lon="9.558336004840063"><ele>143.0</ele><time>2026-04-25T09:08:58.001Z</time></trkpt><trkpt lat="45.59470229324811" lon="9.558251603885692"><ele>143.0</ele><time>2026-04-25T09:09:00.001Z</time></trkpt><trkpt lat="45.59459473979836" lon="9.558191494810526"><ele>143.0</ele><time>2026-04-25T09:09:02.001Z</time></trkpt><trkpt lat="45.59448557211392" lon="9.55813812597923"><ele>143.0</ele><time>2026-04-25T09:09:04.001Z</time></trkpt><trkpt lat="45.59437911651442" lon="9.558077643030499"><ele>143.0</ele><time>2026-04-25T09:09:06.001Z</time></trkpt><trkpt lat="45.59427682359879" lon="9.558006969939518"><ele>143.0</ele><time>2026-04-25T09:09:08.001Z</time></trkpt><trkpt lat="45.5941662348099" lon="9.55794542543601"><ele>143.0</ele><time>2026-04-25T09:09:10.001Z</time></trkpt><trkpt lat="45.59405543692368" lon="9.55788401944645"><ele>143.0</ele><time>2026-04-25T09:09:12.001Z</time></trkpt><trkpt lat="45.59394770802868" lon="9.557817792712912"><ele>143.0</ele><time>2026-04-25T09:09:14.001Z</time></trkpt><trkpt lat="45.59383738243873" lon="9.557750313896369"><ele>143.0</ele><time>2026-04-25T09:09:16.001Z</time></trkpt><trkpt lat="45.59372818703276" lon="9.557687775671754"><ele>143.0</ele><time>2026-04-25T09:09:18.001Z</time></trkpt><trkpt lat="45.59361737342292" lon="9.557619202720872"><ele>143.0</ele><time>2026-04-25T09:09:20.001Z</time></trkpt><trkpt lat="45.59351053992739" lon="9.557555375888915"><ele>143.75</ele><time>2026-04-25T09:09:22.001Z</time></trkpt><trkpt lat="45.59340232714416" lon="9.557498417389537"><ele>144.5</ele><time>2026-04-25T09:09:24.001Z</time></trkpt><trkpt lat="45.59329197108582" lon="9.557440139686344"><ele>145.25</ele><time>2026-04-25T09:09:26.001Z</time></trkpt><trkpt lat="45.593173640382304" lon="9.557393277316057"><ele>146.0</ele><time>2026-04-25T09:09:28.001Z</time></trkpt><trkpt lat="45.59306102615992" lon="9.557341409241022"><ele>146.0</ele><time>2026-04-25T09:09:30.001Z</time></trkpt><trkpt lat="45.59295483285351" lon="9.557261321442349"><ele>146.0</ele><time>2026-04-25T09:09:32.001Z</time></trkpt><trkpt lat="45.5928660799347" lon="9.55715423903845"><ele>146.0</ele><time>2026-04-25T09:09:34.001Z</time></trkpt><trkpt lat="45.59277618263262" lon="9.557044179508026"><ele>146.0</ele><time>2026-04-25T09:09:36.001Z</time></trkpt><trkpt lat="45.592676731433556" lon="9.556962683452925"><ele>145.5</ele><time>2026-04-25T09:09:38Z</time></trkpt><trkpt lat="45.59256202485492" lon="9.556913467616976"><ele>145.0</ele><time>2026-04-25T09:09:40Z</time></trkpt><trkpt lat="45.59244492210715" lon="9.556879249015797"><ele>144.5</ele><time>2026-04-25T09:09:42Z</time></trkpt><trkpt lat="45.592327195535034" lon="9.556843119116804"><ele>144.0</ele><time>2026-04-25T09:09:44Z</time></trkpt><trkpt lat="45.59220975310374" lon="9.556806764979493"><ele>144.0</ele><time>2026-04-25T09:09:46Z</time></trkpt><trkpt lat="45.59209386668859" lon="9.556764333518696"><ele>144.0</ele><time>2026-04-25T09:09:48Z</time></trkpt><trkpt lat="45.59198014129032" lon="9.556723974745507"><ele>144.0</ele><time>2026-04-25T09:09:50Z</time></trkpt><trkpt lat="45.59186373306256" lon="9.556686890936449"><ele>144.0</ele><time>2026-04-25T09:09:52Z</time></trkpt><trkpt lat="45.59174769831285" lon="9.556646407293286"><ele>143.5</ele><time>2026-04-25T09:09:54Z</time></trkpt><trkpt lat="45.591630933651324" lon="9.55660129879698"><ele>143.0</ele><time>2026-04-25T09:09:56Z</time></trkpt><trkpt lat="45.59151852979384" lon="9.556557859420394"><ele>142.5</ele><time>2026-04-25T09:09:58.001Z</time></trkpt><trkpt lat="45.59140503056751" lon="9.556518600502026"><ele>142.0</ele><time>2026-04-25T09:10:00.001Z</time></trkpt><trkpt lat="45.59128765885184" lon="9.556482345780426"><ele>142.0</ele><time>2026-04-25T09:10:02.001Z</time></trkpt><trkpt lat="45.59116677242935" lon="9.556443546275972"><ele>142.0</ele><time>2026-04-25T09:10:04.001Z</time></trkpt><trkpt lat="45.59104897761687" lon="9.556402983409049"><ele>142.0</ele><time>2026-04-25T09:10:06.001Z</time></trkpt><trkpt lat="45.59093131158361" lon="9.55636502963689"><ele>142.0</ele><time>2026-04-25T09:10:08.001Z</time></trkpt><trkpt lat="45.59081512699004" lon="9.55632033999118"><ele>142.0</ele><time>2026-04-25T09:10:10.001Z</time></trkpt><trkpt lat="45.59069798911644" lon="9.556280231094275"><ele>142.0</ele><time>2026-04-25T09:10:12.001Z</time></trkpt><trkpt lat="45.59057907300957" lon="9.556238736586677"><ele>142.0</ele><time>2026-04-25T09:10:14.001Z</time></trkpt><trkpt lat="45.59046043489234" lon="9.556204252325088"><ele>142.0</ele><time>2026-04-25T09:10:16.001Z</time></trkpt><trkpt lat="45.59034350883938" lon="9.556163781289218"><ele>141.75</ele><time>2026-04-25T09:10:18.001Z</time></trkpt><trkpt lat="45.59022750478028" lon="9.556118538985167"><ele>141.5</ele><time>2026-04-25T09:10:20.001Z</time></trkpt><trkpt lat="45.59011138625618" lon="9.556076664962536"><ele>141.25</ele><time>2026-04-25T09:10:22.001Z</time></trkpt><trkpt lat="45.58999572407693" lon="9.55603247260453"><ele>141.0</ele><time>2026-04-25T09:10:24.001Z</time></trkpt><trkpt lat="45.589884496865345" lon="9.555968468022341"><ele>141.0</ele><time>2026-04-25T09:10:26.001Z</time></trkpt><trkpt lat="45.58976647547062" lon="9.55593711863183"><ele>141.0</ele><time>2026-04-25T09:10:28.001Z</time></trkpt><trkpt lat="45.58965111123392" lon="9.555881439071975"><ele>141.0</ele><time>2026-04-25T09:10:30.001Z</time></trkpt><trkpt lat="45.58953398692688" lon="9.555831183203704"><ele>141.0</ele><time>2026-04-25T09:10:32.001Z</time></trkpt><trkpt lat="45.589420379984105" lon="9.555778288246174"><ele>141.4</ele><time>2026-04-25T09:10:34.001Z</time></trkpt><trkpt lat="45.58931029994631" lon="9.555723379087944"><ele>141.8</ele><time>2026-04-25T09:10:36.001Z</time></trkpt><trkpt lat="45.58919915687668" lon="9.55567236741613"><ele>142.20000000000002</ele><time>2026-04-25T09:10:38.001Z</time></trkpt><trkpt lat="45.589096336394874" lon="9.555635097765126"><ele>142.6</ele><time>2026-04-25T09:10:40.001Z</time></trkpt><trkpt lat="45.58899923933584" lon="9.555602709902011"><ele>143.0</ele><time>2026-04-25T09:10:42.001Z</time></trkpt><trkpt lat="45.588921271684505" lon="9.555515982738124"><ele>143.0</ele><time>2026-04-25T09:10:44.001Z</time></trkpt><trkpt lat="45.588833913988736" lon="9.555443604680253"><ele>143.0</ele><time>2026-04-25T09:10:46.001Z</time></trkpt><trkpt lat="45.588755506268875" lon="9.555369936997304"><ele>143.0</ele><time>2026-04-25T09:10:48.001Z</time></trkpt><trkpt lat="45.58868032815932" lon="9.555299370677469"><ele>143.0</ele><time>2026-04-25T09:10:50.001Z</time></trkpt><trkpt lat="45.58861319614763" lon="9.55523635861172"><ele>143.0</ele><time>2026-04-25T09:10:52.001Z</time></trkpt><trkpt lat="45.58867617620233" lon="9.555295474758136"><ele>143.0</ele><time>2026-04-25T09:11:00.001Z</time></trkpt><trkpt lat="45.5885590024897" lon="9.555258923953316"><ele>143.0</ele><time>2026-04-25T09:11:01.001Z</time></trkpt><trkpt lat="45.58880528697306" lon="9.555461206293835"><ele>143.0</ele><time>2026-04-25T09:11:04.001Z</time></trkpt><trkpt lat="45.58887957277414" lon="9.555529905854742"><ele>143.0</ele><time>2026-04-25T09:11:06.001Z</time></trkpt><trkpt lat="45.58895728493261" lon="9.555594441966678"><ele>143.0</ele><time>2026-04-25T09:11:08.001Z</time></trkpt><trkpt lat="45.58903477283893" lon="9.55563901734772"><ele>143.0</ele><time>2026-04-25T09:11:10.001Z</time></trkpt><trkpt lat="45.58912179946415" lon="9.555673453158034"><ele>143.0</ele><time>2026-04-25T09:11:12.001Z</time></trkpt><trkpt lat="45.589211266362206" lon="9.555707053595391"><ele>143.0</ele><time>2026-04-25T09:11:14.001Z</time></trkpt><trkpt lat="45.58930160508308" lon="9.555744089932118"><ele>143.0</ele><time>2026-04-25T09:11:16.001Z</time></trkpt><trkpt lat="45.58938457840363" lon="9.555780428528763"><ele>143.0</ele><time>2026-04-25T09:11:18.001Z</time></trkpt><trkpt lat="45.58946513205167" lon="9.555789674665144"><ele>143.0</ele><time>2026-04-25T09:11:20.001Z</time></trkpt><trkpt lat="45.58953297701401" lon="9.555772850486717"><ele>143.0</ele><time>2026-04-25T09:11:22.001Z</time></trkpt><trkpt lat="45.589557755634196" lon="9.555655613140736"><ele>143.0</ele><time>2026-04-25T09:11:26.001Z</time></trkpt><trkpt lat="45.589563163526" lon="9.555560927125418"><ele>143.0</ele><time>2026-04-25T09:11:29.001Z</time></trkpt><trkpt lat="45.58960105188177" lon="9.555458403566863"><ele>143.0</ele><time>2026-04-25T09:11:37.001Z</time></trkpt><trkpt lat="45.5896084241274" lon="9.555343463737909"><ele>143.0</ele><time>2026-04-25T09:11:40.001Z</time></trkpt><trkpt lat="45.589620733125535" lon="9.555221588006669"><ele>143.0</ele><time>2026-04-25T09:11:43.001Z</time></trkpt><trkpt lat="45.589615327330414" lon="9.555103158069286"><ele>143.0</ele><time>2026-04-25T09:11:46.001Z</time></trkpt><trkpt lat="45.58961075018031" lon="9.554986648948233"><ele>143.0</ele><time>2026-04-25T09:11:49.001Z</time></trkpt><trkpt lat="45.5896071207489" lon="9.55488372609713"><ele>143.0</ele><time>2026-04-25T09:11:51.001Z</time></trkpt><trkpt lat="45.58960625748247" lon="9.554787143838679"><ele>143.0</ele><time>2026-04-25T09:11:53.001Z</time></trkpt><trkpt lat="45.589604502647305" lon="9.554679276881945"><ele>143.0</ele><time>2026-04-25T09:11:55.001Z</time></trkpt><trkpt lat="45.5896118060501" lon="9.554566933623065"><ele>142.6</ele><time>2026-04-25T09:11:57.001Z</time></trkpt><trkpt lat="45.58962015171837" lon="9.5544386012821"><ele>142.20000000000002</ele><time>2026-04-25T09:11:59.001Z</time></trkpt><trkpt lat="45.589618178696206" lon="9.554311748768413"><ele>141.8</ele><time>2026-04-25T09:12:01.001Z</time></trkpt><trkpt lat="45.58961502421811" lon="9.55417948178225"><ele>141.4</ele><time>2026-04-25T09:12:03.001Z</time></trkpt><trkpt lat="45.5896141503692" lon="9.55404427421571"><ele>141.0</ele><time>2026-04-25T09:12:05.001Z</time></trkpt><trkpt lat="45.58961023258549" lon="9.553906209247417"><ele>141.0</ele><time>2026-04-25T09:12:07.001Z</time></trkpt><trkpt lat="45.589599520583626" lon="9.553773735628594"><ele>141.0</ele><time>2026-04-25T09:12:09.001Z</time></trkpt><trkpt lat="45.589594328833485" lon="9.553645174422977"><ele>141.0</ele><time>2026-04-25T09:12:11.001Z</time></trkpt><trkpt lat="45.58958528310601" lon="9.553522767160368"><ele>141.0</ele><time>2026-04-25T09:12:13.001Z</time></trkpt><trkpt lat="45.58957870606228" lon="9.55339679337077"><ele>141.0</ele><time>2026-04-25T09:12:15.001Z</time></trkpt><trkpt lat="45.589572539935226" lon="9.553269770042883"><ele>141.0</ele><time>2026-04-25T09:12:17.001Z</time></trkpt><trkpt lat="45.58956942723885" lon="9.553142530936979"><ele>140.83333333333334</ele><time>2026-04-25T09:12:19.001Z</time></trkpt><trkpt lat="45.589568790280026" lon="9.553010994619477"><ele>140.66666666666666</ele><time>2026-04-25T09:12:21.001Z</time></trkpt><trkpt lat="45.58956724806396" lon="9.552874046390224"><ele>140.5</ele><time>2026-04-25T09:12:23.001Z</time></trkpt><trkpt lat="45.58957865478462" lon="9.55274104657948"><ele>140.33333333333331</ele><time>2026-04-25T09:12:25.001Z</time></trkpt><trkpt lat="45.58961471123482" lon="9.552620596548438"><ele>140.16666666666666</ele><time>2026-04-25T09:12:27.001Z</time></trkpt><trkpt lat="45.58965063082567" lon="9.552543682411953"><ele>140.0</ele><time>2026-04-25T09:12:29.001Z</time></trkpt><trkpt lat="45.589670406421966" lon="9.552441087211461"><ele>139.8</ele><time>2026-04-25T09:12:33.001Z</time></trkpt><trkpt lat="45.589644553493315" lon="9.552339350203972"><ele>139.6</ele><time>2026-04-25T09:12:35.001Z</time></trkpt><trkpt lat="45.5895823225255" lon="9.552243108182115"><ele>139.4</ele><time>2026-04-25T09:12:37.001Z</time></trkpt><trkpt lat="45.58951777204556" lon="9.552138711812928"><ele>139.2</ele><time>2026-04-25T09:12:39.001Z</time></trkpt><trkpt lat="45.58946022288496" lon="9.552026101256759"><ele>139.0</ele><time>2026-04-25T09:12:41.001Z</time></trkpt><trkpt lat="45.58940577557602" lon="9.55189600223635"><ele>139.0</ele><time>2026-04-25T09:12:43.001Z</time></trkpt><trkpt lat="45.58935216491358" lon="9.551759481148869"><ele>139.0</ele><time>2026-04-25T09:12:45.001Z</time></trkpt><trkpt lat="45.589292982329205" lon="9.551638267308075"><ele>139.0</ele><time>2026-04-25T09:12:47.001Z</time></trkpt><trkpt lat="45.58923239027172" lon="9.551521685598797"><ele>139.0</ele><time>2026-04-25T09:12:49.001Z</time></trkpt><trkpt lat="45.589175399475856" lon="9.551408778808083"><ele>139.0</ele><time>2026-04-25T09:12:51.001Z</time></trkpt><trkpt lat="45.58912423050785" lon="9.551310146912023"><ele>138.4</ele><time>2026-04-25T09:12:53.001Z</time></trkpt><trkpt lat="45.58907418241403" lon="9.551192840334979"><ele>137.8</ele><time>2026-04-25T09:12:55.001Z</time></trkpt><trkpt lat="45.58901750583601" lon="9.551079561898181"><ele>137.2</ele><time>2026-04-25T09:12:57.001Z</time></trkpt><trkpt lat="45.588968342134955" lon="9.550961131081694"><ele>136.6</ele><time>2026-04-25T09:12:59.001Z</time></trkpt><trkpt lat="45.58894642681454" lon="9.550828284513619"><ele>136.0</ele><time>2026-04-25T09:13:01.001Z</time></trkpt><trkpt lat="45.588944439137514" lon="9.550686361886552"><ele>136.0</ele><time>2026-04-25T09:13:03.001Z</time></trkpt><trkpt lat="45.58893719839153" lon="9.550547690765413"><ele>136.0</ele><time>2026-04-25T09:13:05.001Z</time></trkpt><trkpt lat="45.588917335177015" lon="9.55040708496071"><ele>136.0</ele><time>2026-04-25T09:13:07.001Z</time></trkpt><trkpt lat="45.588910567711636" lon="9.550262809850032"><ele>136.0</ele><time>2026-04-25T09:13:09.001Z</time></trkpt><trkpt lat="45.588906722357024" lon="9.550122205862424"><ele>136.0</ele><time>2026-04-25T09:13:11.001Z</time></trkpt><trkpt lat="45.58889205323177" lon="9.54998036013856"><ele>135.6</ele><time>2026-04-25T09:13:13.001Z</time></trkpt><trkpt lat="45.58888004151978" lon="9.54985543888596"><ele>135.2</ele><time>2026-04-25T09:13:15.001Z</time></trkpt><trkpt lat="45.58885936063602" lon="9.549729026227759"><ele>134.8</ele><time>2026-04-25T09:13:17.001Z</time></trkpt><trkpt lat="45.58884739195355" lon="9.54959138103104"><ele>134.4</ele><time>2026-04-25T09:13:19.001Z</time></trkpt><trkpt lat="45.58883209019691" lon="9.549458015972329"><ele>134.0</ele><time>2026-04-25T09:13:21.001Z</time></trkpt><trkpt lat="45.58880112334613" lon="9.549335812496281"><ele>134.0</ele><time>2026-04-25T09:13:23.001Z</time></trkpt><trkpt lat="45.58877957861437" lon="9.549202251935828"><ele>134.0</ele><time>2026-04-25T09:13:25.001Z</time></trkpt><trkpt lat="45.5887638443862" lon="9.54907103214107"><ele>134.0</ele><time>2026-04-25T09:13:27.001Z</time></trkpt><trkpt lat="45.58874716298335" lon="9.548935256005743"><ele>134.0</ele><time>2026-04-25T09:13:29.001Z</time></trkpt><trkpt lat="45.58873896835279" lon="9.548795611904564"><ele>134.0</ele><time>2026-04-25T09:13:31.001Z</time></trkpt><trkpt lat="45.58873678349177" lon="9.548656549441866"><ele>134.0</ele><time>2026-04-25T09:13:33.001Z</time></trkpt><trkpt lat="45.588734500972" lon="9.548529728068798"><ele>134.0</ele><time>2026-04-25T09:13:35.001Z</time></trkpt><trkpt lat="45.58872696050834" lon="9.548405674314742"><ele>134.0</ele><time>2026-04-25T09:13:37.001Z</time></trkpt><trkpt lat="45.588680882894735" lon="9.548315737794843"><ele>134.0</ele><time>2026-04-25T09:13:39.001Z</time></trkpt><trkpt lat="45.588624489466426" lon="9.54826328407988"><ele>134.0</ele><time>2026-04-25T09:13:41.001Z</time></trkpt><trkpt lat="45.58855033032367" lon="9.548206110527275"><ele>134.0</ele><time>2026-04-25T09:13:44.001Z</time></trkpt><trkpt lat="45.588557382830324" lon="9.548091798775683"><ele>134.33333333333331</ele><time>2026-04-25T09:13:47.001Z</time></trkpt><trkpt lat="45.588566821492236" lon="9.547981221701008"><ele>134.66666666666666</ele><time>2026-04-25T09:13:49.001Z</time></trkpt><trkpt lat="45.58856595331805" lon="9.547869244297598"><ele>135.0</ele><time>2026-04-25T09:13:51Z</time></trkpt><trkpt lat="45.58856257516874" lon="9.547753908351522"><ele>135.33333333333334</ele><time>2026-04-25T09:13:53Z</time></trkpt><trkpt lat="45.588567052336096" lon="9.547633739368175"><ele>135.66666666666669</ele><time>2026-04-25T09:13:55Z</time></trkpt><trkpt lat="45.58857635220903" lon="9.547501118428862"><ele>136.0</ele><time>2026-04-25T09:13:57Z</time></trkpt><trkpt lat="45.58858443148342" lon="9.547373741292157"><ele>136.0</ele><time>2026-04-25T09:13:59Z</time></trkpt><trkpt lat="45.58858522052225" lon="9.547246498874966"><ele>136.0</ele><time>2026-04-25T09:14:01Z</time></trkpt><trkpt lat="45.588605834632475" lon="9.54711925637474"><ele>136.0</ele><time>2026-04-25T09:14:03Z</time></trkpt><trkpt lat="45.58862266492574" lon="9.546991511520911"><ele>136.0</ele><time>2026-04-25T09:14:05Z</time></trkpt><trkpt lat="45.58863441085659" lon="9.54686308717964"><ele>136.0</ele><time>2026-04-25T09:14:07Z</time></trkpt><trkpt lat="45.588652289910456" lon="9.546736645402964"><ele>135.66666666666669</ele><time>2026-04-25T09:14:09Z</time></trkpt><trkpt lat="45.5886821263861" lon="9.546616589878118"><ele>135.33333333333334</ele><time>2026-04-25T09:14:11Z</time></trkpt><trkpt lat="45.58871997395895" lon="9.546501779779845"><ele>135.0</ele><time>2026-04-25T09:14:13Z</time></trkpt><trkpt lat="45.58874976351934" lon="9.546381554080241"><ele>134.66666666666666</ele><time>2026-04-25T09:14:15Z</time></trkpt><trkpt lat="45.588788011135186" lon="9.546265775621674"><ele>134.33333333333331</ele><time>2026-04-25T09:14:17Z</time></trkpt><trkpt lat="45.58882752515129" lon="9.546146665588688"><ele>134.0</ele><time>2026-04-25T09:14:19Z</time></trkpt><trkpt lat="45.588847297617285" lon="9.546027379378367"><ele>133.83333333333331</ele><time>2026-04-25T09:14:21Z</time></trkpt><trkpt lat="45.588879375729256" lon="9.545942342364725"><ele>133.66666666666666</ele><time>2026-04-25T09:14:23Z</time></trkpt><trkpt lat="45.58885259749607" lon="9.54584185030026"><ele>133.5</ele><time>2026-04-25T09:14:25.001Z</time></trkpt><trkpt lat="45.5888371040486" lon="9.545743870700026"><ele>133.33333333333334</ele><time>2026-04-25T09:14:27.001Z</time></trkpt><trkpt lat="45.588825421268275" lon="9.545634794171953"><ele>133.16666666666669</ele><time>2026-04-25T09:14:29.001Z</time></trkpt><trkpt lat="45.5888293142232" lon="9.54551318300013"><ele>133.0</ele><time>2026-04-25T09:14:31.001Z</time></trkpt><trkpt lat="45.588831434313406" lon="9.545395841178921"><ele>133.66666666666669</ele><time>2026-04-25T09:14:33.001Z</time></trkpt><trkpt lat="45.58882287502923" lon="9.545280483960738"><ele>134.33333333333334</ele><time>2026-04-25T09:14:35.001Z</time></trkpt><trkpt lat="45.58881146421647" lon="9.545164957512489"><ele>135.0</ele><time>2026-04-25T09:14:37.001Z</time></trkpt><trkpt lat="45.58879535464287" lon="9.54504786029957"><ele>135.66666666666666</ele><time>2026-04-25T09:14:39.001Z</time></trkpt><trkpt lat="45.588787217232635" lon="9.544923934940716"><ele>136.33333333333331</ele><time>2026-04-25T09:14:41.001Z</time></trkpt><trkpt lat="45.588769905050924" lon="9.544806331547035"><ele>137.0</ele><time>2026-04-25T09:14:43.001Z</time></trkpt><trkpt lat="45.588765346203644" lon="9.544689926948829"><ele>137.0</ele><time>2026-04-25T09:14:45.001Z</time></trkpt><trkpt lat="45.588756323981194" lon="9.544574740041368"><ele>137.0</ele><time>2026-04-25T09:14:47.001Z</time></trkpt><trkpt lat="45.58869073863265" lon="9.544491923817992"><ele>137.0</ele><time>2026-04-25T09:14:49.001Z</time></trkpt><trkpt lat="45.58861579285279" lon="9.544468757357084"><ele>137.0</ele><time>2026-04-25T09:14:51.001Z</time></trkpt><trkpt lat="45.58853325141385" lon="9.54440880341216"><ele>137.0</ele><time>2026-04-25T09:14:54.001Z</time></trkpt><trkpt lat="45.58847475934252" lon="9.544363058684922"><ele>137.0</ele><time>2026-04-25T09:14:56.001Z</time></trkpt><trkpt lat="45.588456647386096" lon="9.544267025189523"><ele>137.0</ele><time>2026-04-25T09:15:13.001Z</time></trkpt><trkpt lat="45.588467150294505" lon="9.54414872435472"><ele>137.0</ele><time>2026-04-25T09:15:16.001Z</time></trkpt><trkpt lat="45.588461380698774" lon="9.544030965390078"><ele>137.0</ele><time>2026-04-25T09:15:19.001Z</time></trkpt><trkpt lat="45.588431524998455" lon="9.543934699379399"><ele>137.0</ele><time>2026-04-25T09:15:22.001Z</time></trkpt><trkpt lat="45.58843535510782" lon="9.543813048767682"><ele>137.0</ele><time>2026-04-25T09:15:25.001Z</time></trkpt><trkpt lat="45.58839107934948" lon="9.543722784583322"><ele>137.0</ele><time>2026-04-25T09:15:28.001Z</time></trkpt><trkpt lat="45.58838252855788" lon="9.543621822399816"><ele>137.00000000000003</ele><time>2026-04-25T09:15:31.001Z</time></trkpt><trkpt lat="45.5883819387761" lon="9.543512214309024"><ele>137.0</ele><time>2026-04-25T09:15:35.001Z</time></trkpt><trkpt lat="45.588338760135926" lon="9.543438913695274"><ele>137.0</ele><time>2026-04-25T09:15:42.001Z</time></trkpt><trkpt lat="45.58827111861879" lon="9.54342465426928"><ele>137.0</ele><time>2026-04-25T09:15:45.001Z</time></trkpt><trkpt lat="45.588215183339365" lon="9.54337006961944"><ele>137.0</ele><time>2026-04-25T09:15:50.001Z</time></trkpt><trkpt lat="45.58819852004163" lon="9.543244242296513"><ele>137.00000000000003</ele><time>2026-04-25T09:15:53.001Z</time></trkpt><trkpt lat="45.5881635362761" lon="9.543142774325661"><ele>137.0</ele><time>2026-04-25T09:15:56Z</time></trkpt><trkpt lat="45.588100715804345" lon="9.543084691518189"><ele>137.0</ele><time>2026-04-25T09:15:59Z</time></trkpt><trkpt lat="45.58807587350058" lon="9.54297389153722"><ele>137.0</ele><time>2026-04-25T09:16:02Z</time></trkpt><trkpt lat="45.58802973373459" lon="9.542871074936475"><ele>137.0</ele><time>2026-04-25T09:16:05Z</time></trkpt><trkpt lat="45.58797221753032" lon="9.542767591061148"><ele>137.0</ele><time>2026-04-25T09:16:08Z</time></trkpt><trkpt lat="45.587938937512845" lon="9.542680261663625"><ele>137.0</ele><time>2026-04-25T09:16:10Z</time></trkpt><trkpt lat="45.5879537237679" lon="9.542561589111656"><ele>137.0</ele><time>2026-04-25T09:16:13Z</time></trkpt><trkpt lat="45.5879071032798" lon="9.542443925052625"><ele>137.0</ele><time>2026-04-25T09:16:16Z</time></trkpt><trkpt lat="45.58785794661293" lon="9.542353919756673"><ele>137.0</ele><time>2026-04-25T09:16:20Z</time></trkpt><trkpt lat="45.58783238304219" lon="9.542246839909378"><ele>137.0</ele><time>2026-04-25T09:16:23Z</time></trkpt><trkpt lat="45.58778666387338" lon="9.542149433785182"><ele>137.0</ele><time>2026-04-25T09:16:27Z</time></trkpt><trkpt lat="45.58776496145685" lon="9.542062018751313"><ele>137.0</ele><time>2026-04-25T09:16:31Z</time></trkpt><trkpt lat="45.587751306295246" lon="9.5419366239584"><ele>137.0</ele><time>2026-04-25T09:16:34Z</time></trkpt><trkpt lat="45.587717093434556" lon="9.541831462006815"><ele>137.16666666666666</ele><time>2026-04-25T09:16:37Z</time></trkpt><trkpt lat="45.587636388769354" lon="9.541769928012657"><ele>137.33333333333331</ele><time>2026-04-25T09:16:40Z</time></trkpt><trkpt lat="45.58761566030827" lon="9.541649560362847"><ele>137.5</ele><time>2026-04-25T09:16:43Z</time></trkpt><trkpt lat="45.587572576649634" lon="9.541574612502371"><ele>137.66666666666666</ele><time>2026-04-25T09:16:45.001Z</time></trkpt><trkpt lat="45.58757556506357" lon="9.541481132005302"><ele>137.83333333333334</ele><time>2026-04-25T09:16:47.001Z</time></trkpt><trkpt lat="45.58753994805375" lon="9.541400475316603"><ele>138.0</ele><time>2026-04-25T09:16:50.001Z</time></trkpt><trkpt lat="45.587475022975596" lon="9.541318833422613"><ele>138.0</ele><time>2026-04-25T09:16:54.001Z</time></trkpt><trkpt lat="45.58740421098889" lon="9.54123778259507"><ele>138.0</ele><time>2026-04-25T09:16:57.001Z</time></trkpt><trkpt lat="45.5873401492198" lon="9.54115870114838"><ele>138.0</ele><time>2026-04-25T09:17:00.001Z</time></trkpt><trkpt lat="45.587298138111606" lon="9.541075136164173"><ele>138.0</ele><time>2026-04-25T09:17:02.001Z</time></trkpt><trkpt lat="45.58725045766208" lon="9.541000261191202"><ele>138.0</ele><time>2026-04-25T09:17:04.001Z</time></trkpt><trkpt lat="45.58719339858675" lon="9.540944246065084"><ele>138.0</ele><time>2026-04-25T09:17:06.001Z</time></trkpt><trkpt lat="45.58712324398955" lon="9.540894599180122"><ele>138.14285714285714</ele><time>2026-04-25T09:17:09.001Z</time></trkpt><trkpt lat="45.58706673679692" lon="9.540849540150491"><ele>138.2857142857143</ele><time>2026-04-25T09:17:11.001Z</time></trkpt><trkpt lat="45.587019950085505" lon="9.540785960483563"><ele>138.42857142857144</ele><time>2026-04-25T09:17:13.001Z</time></trkpt><trkpt lat="45.58699539058254" lon="9.540695135773829"><ele>138.57142857142858</ele><time>2026-04-25T09:17:15.001Z</time></trkpt><trkpt lat="45.586968529417994" lon="9.540604345314613"><ele>138.71428571428572</ele><time>2026-04-25T09:17:18.001Z</time></trkpt><trkpt lat="45.58690766499029" lon="9.540525283428858"><ele>138.85714285714286</ele><time>2026-04-25T09:17:20.001Z</time></trkpt><trkpt lat="45.586898325551644" lon="9.540383715404104"><ele>139.0</ele><time>2026-04-25T09:17:24.001Z</time></trkpt><trkpt lat="45.5868363041676" lon="9.540316659966793"><ele>138.57142857142856</ele><time>2026-04-25T09:17:26.001Z</time></trkpt><trkpt lat="45.58679090930019" lon="9.540245414246254"><ele>138.14285714285714</ele><time>2026-04-25T09:17:28.001Z</time></trkpt><trkpt lat="45.58674302628543" lon="9.540176026198695"><ele>137.71428571428572</ele><time>2026-04-25T09:17:30.001Z</time></trkpt><trkpt lat="45.58667623976031" lon="9.54016749785534"><ele>137.28571428571428</ele><time>2026-04-25T09:17:32.001Z</time></trkpt><trkpt lat="45.58661576660592" lon="9.540081317939444"><ele>136.85714285714286</ele><time>2026-04-25T09:17:35.001Z</time></trkpt><trkpt lat="45.5865820743879" lon="9.539996144943082"><ele>136.42857142857142</ele><time>2026-04-25T09:17:37.001Z</time></trkpt><trkpt lat="45.586520554030145" lon="9.539951369946923"><ele>136.0</ele><time>2026-04-25T09:17:39.001Z</time></trkpt><trkpt lat="45.58647857800421" lon="9.539866118524143"><ele>135.99999999999997</ele><time>2026-04-25T09:17:42.001Z</time></trkpt><trkpt lat="45.58641233769185" lon="9.539779020798235"><ele>136.0</ele><time>2026-04-25T09:17:45.001Z</time></trkpt><trkpt lat="45.58634889178523" lon="9.539742637872076"><ele>136.0</ele><time>2026-04-25T09:17:47.001Z</time></trkpt><trkpt lat="45.58629479284792" lon="9.539684870152271"><ele>136.0</ele><time>2026-04-25T09:17:49.001Z</time></trkpt><trkpt lat="45.58623270304107" lon="9.53961859561116"><ele>136.0</ele><time>2026-04-25T09:17:51.001Z</time></trkpt><trkpt lat="45.58617196134962" lon="9.53959303387"><ele>135.99999999999997</ele><time>2026-04-25T09:17:53.001Z</time></trkpt><trkpt lat="45.58614134798866" lon="9.539507565903037"><ele>136.0</ele><time>2026-04-25T09:17:55.001Z</time></trkpt><trkpt lat="45.586081162429934" lon="9.539477514599115"><ele>136.5</ele><time>2026-04-25T09:17:57.001Z</time></trkpt><trkpt lat="45.58601118955018" lon="9.539487616283843"><ele>137.0</ele><time>2026-04-25T09:17:59.001Z</time></trkpt><trkpt lat="45.58594576427096" lon="9.53949494126455"><ele>137.5</ele><time>2026-04-25T09:18:01Z</time></trkpt><trkpt lat="45.58586154346115" lon="9.539453635291098"><ele>138.0</ele><time>2026-04-25T09:18:04Z</time></trkpt><trkpt lat="45.58579812532941" lon="9.53943368475417"><ele>138.5</ele><time>2026-04-25T09:18:06Z</time></trkpt><trkpt lat="45.58570425726152" lon="9.539434699117292"><ele>139.0</ele><time>2026-04-25T09:18:09Z</time></trkpt><trkpt lat="45.58563493366701" lon="9.539391343280037"><ele>139.0</ele><time>2026-04-25T09:18:11Z</time></trkpt><trkpt lat="45.585563234176526" lon="9.539407983313167"><ele>139.0</ele><time>2026-04-25T09:18:13Z</time></trkpt><trkpt lat="45.585485042391035" lon="9.539366062515692"><ele>139.0</ele><time>2026-04-25T09:18:15Z</time></trkpt><trkpt lat="45.58540381145654" lon="9.539441590110071"><ele>139.0</ele><time>2026-04-25T09:18:18Z</time></trkpt><trkpt lat="45.58532073054531" lon="9.5394598727761"><ele>139.0</ele><time>2026-04-25T09:18:21Z</time></trkpt><trkpt lat="45.585278584157905" lon="9.539388951862838"><ele>139.0</ele><time>2026-04-25T09:18:23Z</time></trkpt><trkpt lat="45.58519511888233" lon="9.53941947825948"><ele>139.14285714285714</ele><time>2026-04-25T09:18:26Z</time></trkpt><trkpt lat="45.585157768392854" lon="9.539333553570696"><ele>139.28571428571428</ele><time>2026-04-25T09:18:28Z</time></trkpt><trkpt lat="45.585180545015724" lon="9.539231514111185"><ele>139.42857142857144</ele><time>2026-04-25T09:18:31Z</time></trkpt><trkpt lat="45.58513637406808" lon="9.539135341371638"><ele>139.57142857142856</ele><time>2026-04-25T09:18:34Z</time></trkpt><trkpt lat="45.58507681346041" lon="9.539062570796975"><ele>139.71428571428572</ele><time>2026-04-25T09:18:36Z</time></trkpt><trkpt lat="45.58500360517176" lon="9.539029499780183"><ele>139.85714285714286</ele><time>2026-04-25T09:18:39Z</time></trkpt><trkpt lat="45.58493990014582" lon="9.539020969855729"><ele>140.0</ele><time>2026-04-25T09:18:42Z</time></trkpt><trkpt lat="45.58487692017912" lon="9.539044094178573"><ele>140.0</ele><time>2026-04-25T09:18:44Z</time></trkpt><trkpt lat="45.584806022055886" lon="9.539118810816934"><ele>140.0</ele><time>2026-04-25T09:18:47Z</time></trkpt><trkpt lat="45.58473527333325" lon="9.539175652590483"><ele>140.0</ele><time>2026-04-25T09:18:50Z</time></trkpt><trkpt lat="45.584651031415206" lon="9.539215022424349"><ele>140.0</ele><time>2026-04-25T09:18:53Z</time></trkpt><trkpt lat="45.58457710163734" lon="9.539277201368673"><ele>140.0</ele><time>2026-04-25T09:18:56.001Z</time></trkpt><trkpt lat="45.584491230759575" lon="9.539284020122293"><ele>140.0</ele><time>2026-04-25T09:18:59.001Z</time></trkpt><trkpt lat="45.58442731042394" lon="9.539298236237936"><ele>139.83333333333331</ele><time>2026-04-25T09:19:01.001Z</time></trkpt><trkpt lat="45.58434966987527" lon="9.539303840681873"><ele>139.66666666666666</ele><time>2026-04-25T09:19:03.001Z</time></trkpt><trkpt lat="45.584275633532016" lon="9.539323164443445"><ele>139.5</ele><time>2026-04-25T09:19:05.001Z</time></trkpt><trkpt lat="45.58418562213173" lon="9.539351736162228"><ele>139.33333333333334</ele><time>2026-04-25T09:19:08.001Z</time></trkpt><trkpt lat="45.5841139795949" lon="9.539347549214447"><ele>139.16666666666669</ele><time>2026-04-25T09:19:10.001Z</time></trkpt><trkpt lat="45.584049381400746" lon="9.539334814018922"><ele>139.0</ele><time>2026-04-25T09:19:12.001Z</time></trkpt><trkpt lat="45.583981728903" lon="9.5392724700852"><ele>139.0</ele><time>2026-04-25T09:19:15.001Z</time></trkpt><trkpt lat="45.58390936438311" lon="9.539218097266847"><ele>139.0</ele><time>2026-04-25T09:19:18.001Z</time></trkpt><trkpt lat="45.58385625703696" lon="9.539163519511034"><ele>139.0</ele><time>2026-04-25T09:19:21.001Z</time></trkpt><trkpt lat="45.58377603129486" lon="9.53917830385439"><ele>139.0</ele><time>2026-04-25T09:19:25.001Z</time></trkpt><trkpt lat="45.583691994813314" lon="9.539204153363922"><ele>139.0</ele><time>2026-04-25T09:19:28.001Z</time></trkpt><trkpt lat="45.58363306352234" lon="9.539243360120672"><ele>139.0</ele><time>2026-04-25T09:19:30.001Z</time></trkpt><trkpt lat="45.583571980261404" lon="9.539267733372114"><ele>139.0</ele><time>2026-04-25T09:19:32.001Z</time></trkpt><trkpt lat="45.583486325484124" lon="9.539308746980312"><ele>138.5</ele><time>2026-04-25T09:19:35.001Z</time></trkpt><trkpt lat="45.583417958707656" lon="9.539346555552028"><ele>138.0</ele><time>2026-04-25T09:19:38.001Z</time></trkpt><trkpt lat="45.58335038682236" lon="9.539381125987946"><ele>137.5</ele><time>2026-04-25T09:19:41.001Z</time></trkpt><trkpt lat="45.583261254572115" lon="9.539409760997819"><ele>137.0</ele><time>2026-04-25T09:19:44.001Z</time></trkpt><trkpt lat="45.583191523589925" lon="9.539418927622098"><ele>136.5</ele><time>2026-04-25T09:19:46.001Z</time></trkpt><trkpt lat="45.583103424084555" lon="9.539466851554735"><ele>136.0</ele><time>2026-04-25T09:20:05.001Z</time></trkpt><trkpt lat="45.58303938782399" lon="9.539517547452313"><ele>135.99999999999997</ele><time>2026-04-25T09:20:08Z</time></trkpt><trkpt lat="45.58295621338714" lon="9.539541826614697"><ele>136.0</ele><time>2026-04-25T09:20:11Z</time></trkpt><trkpt lat="45.58288815387866" lon="9.539563001951283"><ele>136.0</ele><time>2026-04-25T09:20:13Z</time></trkpt><trkpt lat="45.58281495147589" lon="9.539592805470058"><ele>136.0</ele><time>2026-04-25T09:20:15Z</time></trkpt><trkpt lat="45.58274469754601" lon="9.539608653263176"><ele>136.0</ele><time>2026-04-25T09:20:17Z</time></trkpt><trkpt lat="45.58268634713988" lon="9.539643310077203"><ele>135.99999999999997</ele><time>2026-04-25T09:20:19Z</time></trkpt><trkpt lat="45.58262711831219" lon="9.539679971283931"><ele>136.0</ele><time>2026-04-25T09:20:21Z</time></trkpt><trkpt lat="45.58256200930558" lon="9.539686314761084"><ele>136.16666666666669</ele><time>2026-04-25T09:20:24Z</time></trkpt><trkpt lat="45.58250160873751" lon="9.53965309345588"><ele>136.33333333333334</ele><time>2026-04-25T09:20:27Z</time></trkpt><trkpt lat="45.582423166784274" lon="9.539590420817914"><ele>136.5</ele><time>2026-04-25T09:20:30Z</time></trkpt><trkpt lat="45.58234483437529" lon="9.539525308631495"><ele>136.66666666666666</ele><time>2026-04-25T09:20:33Z</time></trkpt><trkpt lat="45.58228301272515" lon="9.539489088980384"><ele>136.83333333333331</ele><time>2026-04-25T09:20:35Z</time></trkpt><trkpt lat="45.58221618984008" lon="9.539450526208862"><ele>137.0</ele><time>2026-04-25T09:20:37Z</time></trkpt><trkpt lat="45.58213846976549" lon="9.539436105538952"><ele>136.83333333333331</ele><time>2026-04-25T09:20:39Z</time></trkpt><trkpt lat="45.58206805036727" lon="9.539417580006928"><ele>136.66666666666666</ele><time>2026-04-25T09:20:41Z</time></trkpt><trkpt lat="45.581991072482445" lon="9.539426573730571"><ele>136.5</ele><time>2026-04-25T09:20:43Z</time></trkpt><trkpt lat="45.581918379882346" lon="9.53941103831297"><ele>136.33333333333334</ele><time>2026-04-25T09:20:45Z</time></trkpt><trkpt lat="45.581844651128485" lon="9.539413000625933"><ele>136.16666666666669</ele><time>2026-04-25T09:20:47Z</time></trkpt><trkpt lat="45.58175635623626" lon="9.53941691869017"><ele>136.0</ele><time>2026-04-25T09:20:50Z</time></trkpt><trkpt lat="45.58169007512527" lon="9.539428651897262"><ele>136.0</ele><time>2026-04-25T09:20:53Z</time></trkpt><trkpt lat="45.581622611472916" lon="9.539422951015483"><ele>136.0</ele><time>2026-04-25T09:20:56Z</time></trkpt><trkpt lat="45.581552791025274" lon="9.539412077119936"><ele>136.0</ele><time>2026-04-25T09:20:59Z</time></trkpt><trkpt lat="45.58148986874616" lon="9.539465192464593"><ele>136.0</ele><time>2026-04-25T09:21:02.001Z</time></trkpt><trkpt lat="45.581444673095696" lon="9.539562994032414"><ele>136.0</ele><time>2026-04-25T09:21:05.001Z</time></trkpt><trkpt lat="45.58137674094337" lon="9.539643347910403"><ele>136.0</ele><time>2026-04-25T09:21:08.001Z</time></trkpt><trkpt lat="45.581321482127784" lon="9.539739429090186"><ele>135.7142857142857</ele><time>2026-04-25T09:21:11.001Z</time></trkpt><trkpt lat="45.58127291197275" lon="9.539798491665438"><ele>135.42857142857142</ele><time>2026-04-25T09:21:13.001Z</time></trkpt><trkpt lat="45.58122099398247" lon="9.539854646193787"><ele>135.14285714285714</ele><time>2026-04-25T09:21:15.001Z</time></trkpt><trkpt lat="45.58118117588887" lon="9.539930287050273"><ele>134.85714285714283</ele><time>2026-04-25T09:21:17.001Z</time></trkpt><trkpt lat="45.581128898448696" lon="9.539993471939056"><ele>134.57142857142856</ele><time>2026-04-25T09:21:19.001Z</time></trkpt><trkpt lat="45.581082288590586" lon="9.540063417369117"><ele>134.28571428571428</ele><time>2026-04-25T09:21:21.001Z</time></trkpt><trkpt lat="45.58104067424223" lon="9.540137452023105"><ele>134.0</ele><time>2026-04-25T09:21:23.001Z</time></trkpt><trkpt lat="45.58097508378253" lon="9.540231083018346"><ele>133.5</ele><time>2026-04-25T09:21:26.001Z</time></trkpt><trkpt lat="45.580918658700334" lon="9.540318567788015"><ele>133.0</ele><time>2026-04-25T09:21:29.001Z</time></trkpt><trkpt lat="45.580871912847876" lon="9.54041648419524"><ele>132.5</ele><time>2026-04-25T09:21:32.001Z</time></trkpt><trkpt lat="45.580821138343204" lon="9.540479315310023"><ele>132.0</ele><time>2026-04-25T09:21:34.001Z</time></trkpt><trkpt lat="45.580895141000894" lon="9.540489730728211"><ele>131.5</ele><time>2026-04-25T09:21:43.001Z</time></trkpt><trkpt lat="45.58096767787237" lon="9.540580514597648"><ele>131.0</ele><time>2026-04-25T09:21:46.001Z</time></trkpt><trkpt lat="45.58096830549716" lon="9.54067534056871"><ele>131.0</ele><time>2026-04-25T09:21:48.001Z</time></trkpt><trkpt lat="45.58099201268689" lon="9.540805160822606"><ele>131.0</ele><time>2026-04-25T09:21:51.001Z</time></trkpt><trkpt lat="45.58102257927814" lon="9.540915306515988"><ele>131.0</ele><time>2026-04-25T09:21:54.001Z</time></trkpt><trkpt lat="45.581025665781986" lon="9.541035938879796"><ele>131.0</ele><time>2026-04-25T09:21:57.001Z</time></trkpt><trkpt lat="45.58105359967116" lon="9.541136520646274"><ele>131.0</ele><time>2026-04-25T09:22:00.001Z</time></trkpt><trkpt lat="45.581068531436735" lon="9.541229898427636"><ele>131.0</ele><time>2026-04-25T09:22:05.001Z</time></trkpt><trkpt lat="45.58105456017361" lon="9.541332980085581"><ele>131.2</ele><time>2026-04-25T09:23:24.001Z</time></trkpt><trkpt lat="45.58108508399218" lon="9.541438126432245"><ele>131.39999999999998</ele><time>2026-04-25T09:23:29.001Z</time></trkpt><trkpt lat="45.581098363426314" lon="9.541526648124044"><ele>131.6</ele><time>2026-04-25T09:23:33.001Z</time></trkpt><trkpt lat="45.58111899286598" lon="9.541638942721002"><ele>131.79999999999998</ele><time>2026-04-25T09:23:38.001Z</time></trkpt><trkpt lat="45.58094994109567" lon="9.541624715398163"><ele>132.0</ele><time>2026-04-25T09:23:48.001Z</time></trkpt><trkpt lat="45.58087713525149" lon="9.5416203334817"><ele>132.0</ele><time>2026-04-25T09:23:51.001Z</time></trkpt><trkpt lat="45.580803726474045" lon="9.541621544537955"><ele>132.0</ele><time>2026-04-25T09:23:54.001Z</time></trkpt><trkpt lat="45.58073572140148" lon="9.541645088965371"><ele>132.0</ele><time>2026-04-25T09:23:57.001Z</time></trkpt><trkpt lat="45.58066807207473" lon="9.541614139343011"><ele>132.0</ele><time>2026-04-25T09:24:00.001Z</time></trkpt><trkpt lat="45.58060456312584" lon="9.541639029420738"><ele>132.0</ele><time>2026-04-25T09:24:03.001Z</time></trkpt><trkpt lat="45.58053659752281" lon="9.541630754038511"><ele>132.0</ele><time>2026-04-25T09:24:07.001Z</time></trkpt><trkpt lat="45.58046876040972" lon="9.541625596107314"><ele>132.0</ele><time>2026-04-25T09:24:11.001Z</time></trkpt><trkpt lat="45.58044577420208" lon="9.541335841642686"><ele>132.0</ele><time>2026-04-25T09:24:12.001Z</time></trkpt><trkpt lat="45.580369330996135" lon="9.541304503077349"><ele>132.0</ele><time>2026-04-25T09:24:15.001Z</time></trkpt><trkpt lat="45.580430358791496" lon="9.541372407401301"><ele>132.0</ele><time>2026-04-25T09:24:25Z</time></trkpt><trkpt lat="45.5804981280665" lon="9.54144470214325"><ele>132.0</ele><time>2026-04-25T09:24:28Z</time></trkpt><trkpt lat="45.58054633217763" lon="9.54152064023583"><ele>132.0</ele><time>2026-04-25T09:24:31Z</time></trkpt><trkpt lat="45.580580574606564" lon="9.541625839342238"><ele>132.0</ele><time>2026-04-25T09:24:34Z</time></trkpt><trkpt lat="45.58062434503121" lon="9.541712285196038"><ele>132.0</ele><time>2026-04-25T09:24:37Z</time></trkpt><trkpt lat="45.58068409933892" lon="9.541785401023622"><ele>132.0</ele><time>2026-04-25T09:24:41Z</time></trkpt><trkpt lat="45.58084929889098" lon="9.541648523276724"><ele>132.0</ele><time>2026-04-25T09:24:42Z</time></trkpt><trkpt lat="45.58091472708689" lon="9.541644392085114"><ele>132.0</ele><time>2026-04-25T09:24:44Z</time></trkpt><trkpt lat="45.58098101289929" lon="9.541647498746261"><ele>132.0</ele><time>2026-04-25T09:24:46Z</time></trkpt><trkpt lat="45.581044043739915" lon="9.54168690491478"><ele>132.0</ele><time>2026-04-25T09:24:48Z</time></trkpt><trkpt lat="45.58109346980752" lon="9.541748601637869"><ele>132.0</ele><time>2026-04-25T09:24:50Z</time></trkpt><trkpt lat="45.581118750918" lon="9.541831132643484"><ele>132.0</ele><time>2026-04-25T09:24:52Z</time></trkpt><trkpt lat="45.581155389478006" lon="9.541906713790453"><ele>132.0</ele><time>2026-04-25T09:24:54Z</time></trkpt><trkpt lat="45.581134777378615" lon="9.542003540112745"><ele>132.0</ele><time>2026-04-25T09:24:56Z</time></trkpt><trkpt lat="45.58111019739092" lon="9.542117957609598"><ele>132.0</ele><time>2026-04-25T09:24:59Z</time></trkpt><trkpt lat="45.581074983407234" lon="9.542232926247"><ele>132.0</ele><time>2026-04-25T09:25:02Z</time></trkpt><trkpt lat="45.58102104512457" lon="9.542330181169357"><ele>132.0</ele><time>2026-04-25T09:25:05Z</time></trkpt><trkpt lat="45.58096201678701" lon="9.542388910914951"><ele>132.0</ele><time>2026-04-25T09:25:09Z</time></trkpt><trkpt lat="45.58089912026676" lon="9.54240088031634"><ele>132.0</ele><time>2026-04-25T09:25:15Z</time></trkpt><trkpt lat="45.58086376477476" lon="9.542185359942176"><ele>132.0</ele><time>2026-04-25T09:25:19Z</time></trkpt><trkpt lat="45.58082411730968" lon="9.542103109358532"><ele>132.0</ele><time>2026-04-25T09:25:22Z</time></trkpt><trkpt lat="45.580778155644" lon="9.542014022196454"><ele>132.0</ele><time>2026-04-25T09:25:25Z</time></trkpt><trkpt lat="45.58073413728372" lon="9.541928701746675"><ele>132.0</ele><time>2026-04-25T09:25:28.001Z</time></trkpt><trkpt lat="45.58068143530182" lon="9.541860282237263"><ele>132.0</ele><time>2026-04-25T09:25:31.001Z</time></trkpt><trkpt lat="45.58063715943959" lon="9.541774637591057"><ele>132.0</ele><time>2026-04-25T09:25:34.001Z</time></trkpt><trkpt lat="45.58060001381382" lon="9.541701578603515"><ele>132.0</ele><time>2026-04-25T09:25:36.001Z</time></trkpt><trkpt lat="45.58055165615133" lon="9.54160715503621"><ele>132.0</ele><time>2026-04-25T09:25:39.001Z</time></trkpt><trkpt lat="45.5805142803438" lon="9.54149762241575"><ele>132.0</ele><time>2026-04-25T09:25:42.001Z</time></trkpt><trkpt lat="45.58044568254355" lon="9.541418766750787"><ele>132.0</ele><time>2026-04-25T09:25:45.001Z</time></trkpt><trkpt lat="45.580386405441054" lon="9.541352321670615"><ele>132.0</ele><time>2026-04-25T09:25:48.001Z</time></trkpt><trkpt lat="45.58033048398614" lon="9.541291200569795"><ele>132.0</ele><time>2026-04-25T09:25:51.001Z</time></trkpt><trkpt lat="45.580273117735494" lon="9.541221533390766"><ele>132.0</ele><time>2026-04-25T09:25:57.001Z</time></trkpt><trkpt lat="45.58021920060484" lon="9.54115699830677"><ele>132.0</ele><time>2026-04-25T09:26:00.001Z</time></trkpt><trkpt lat="45.58015936196341" lon="9.541099046261104"><ele>132.0</ele><time>2026-04-25T09:26:03.001Z</time></trkpt><trkpt lat="45.58008827996533" lon="9.541030205344736"><ele>132.16666666666666</ele><time>2026-04-25T09:26:08.001Z</time></trkpt><trkpt lat="45.58002743846814" lon="9.540971282063492"><ele>132.33333333333334</ele><time>2026-04-25T09:26:11.001Z</time></trkpt><trkpt lat="45.57994624993144" lon="9.540917079810034"><ele>132.5</ele><time>2026-04-25T09:26:14.001Z</time></trkpt><trkpt lat="45.579877971857265" lon="9.540825841122206"><ele>132.66666666666669</ele><time>2026-04-25T09:26:17.001Z</time></trkpt><trkpt lat="45.57980135280728" lon="9.540751003910716"><ele>132.83333333333334</ele><time>2026-04-25T09:26:20.001Z</time></trkpt><trkpt lat="45.57972613442995" lon="9.540674979596515"><ele>133.0</ele><time>2026-04-25T09:26:23.001Z</time></trkpt><trkpt lat="45.579649446343296" lon="9.540601656420845"><ele>133.0</ele><time>2026-04-25T09:26:26Z</time></trkpt><trkpt lat="45.579571757421476" lon="9.540540854310745"><ele>133.0</ele><time>2026-04-25T09:26:29Z</time></trkpt><trkpt lat="45.57950342285642" lon="9.540498108594958"><ele>133.0</ele><time>2026-04-25T09:26:32Z</time></trkpt><trkpt lat="45.579430393659685" lon="9.54049328243604"><ele>133.0</ele><time>2026-04-25T09:26:34Z</time></trkpt><trkpt lat="45.579337106297366" lon="9.540488903079629"><ele>133.0</ele><time>2026-04-25T09:26:37Z</time></trkpt><trkpt lat="45.57924893436855" lon="9.540485696701355"><ele>133.0</ele><time>2026-04-25T09:26:40Z</time></trkpt><trkpt lat="45.579156771916566" lon="9.540485696698799"><ele>133.66666666666669</ele><time>2026-04-25T09:26:43Z</time></trkpt><trkpt lat="45.5790565005719" lon="9.540488713217817"><ele>134.33333333333334</ele><time>2026-04-25T09:26:46Z</time></trkpt><trkpt lat="45.57896896758755" lon="9.540518621987202"><ele>135.0</ele><time>2026-04-25T09:26:49Z</time></trkpt><trkpt lat="45.57890171178935" lon="9.540500869236336"><ele>135.66666666666666</ele><time>2026-04-25T09:26:51Z</time></trkpt><trkpt lat="45.578814766101985" lon="9.540508359321757"><ele>136.33333333333331</ele><time>2026-04-25T09:26:54Z</time></trkpt><trkpt lat="45.578753286455026" lon="9.540534635512842"><ele>137.0</ele><time>2026-04-25T09:26:56Z</time></trkpt><trkpt lat="45.5786795287438" lon="9.540530403455756"><ele>137.0</ele><time>2026-04-25T09:26:58Z</time></trkpt><trkpt lat="45.57860013655978" lon="9.540531883779824"><ele>137.0</ele><time>2026-04-25T09:27:00Z</time></trkpt><trkpt lat="45.57852076161242" lon="9.540537561076281"><ele>137.0</ele><time>2026-04-25T09:27:02Z</time></trkpt><trkpt lat="45.57844683539842" lon="9.540537325106367"><ele>137.0</ele><time>2026-04-25T09:27:04Z</time></trkpt><trkpt lat="45.57837733722174" lon="9.540549254213834"><ele>137.0</ele><time>2026-04-25T09:27:06Z</time></trkpt><trkpt lat="45.57830287051718" lon="9.54055516091919"><ele>137.0</ele><time>2026-04-25T09:27:08Z</time></trkpt><trkpt lat="45.57822982680871" lon="9.540540621291608"><ele>137.00000000000003</ele><time>2026-04-25T09:27:10Z</time></trkpt><trkpt lat="45.57816615821576" lon="9.540543440258798"><ele>137.0</ele><time>2026-04-25T09:27:12Z</time></trkpt><trkpt lat="45.57809891687234" lon="9.54056528710715"><ele>137.0</ele><time>2026-04-25T09:27:14Z</time></trkpt><trkpt lat="45.578031061439034" lon="9.540547937671867"><ele>137.0</ele><time>2026-04-25T09:27:16Z</time></trkpt><trkpt lat="45.57796377106327" lon="9.540513286616429"><ele>137.0</ele><time>2026-04-25T09:27:18Z</time></trkpt><trkpt lat="45.57790968572467" lon="9.540451917768124"><ele>137.00000000000003</ele><time>2026-04-25T09:27:20Z</time></trkpt><trkpt lat="45.57786297062482" lon="9.540379172842862"><ele>137.0</ele><time>2026-04-25T09:27:22Z</time></trkpt><trkpt lat="45.57784670222835" lon="9.540285209606614"><ele>137.5</ele><time>2026-04-25T09:27:24Z</time></trkpt><trkpt lat="45.577815944366215" lon="9.540195389543923"><ele>138.0</ele><time>2026-04-25T09:27:26Z</time></trkpt><trkpt lat="45.57771635975261" lon="9.540128050796588"><ele>138.5</ele><time>2026-04-25T09:27:29Z</time></trkpt><trkpt lat="45.57764664180141" lon="9.540111889489236"><ele>139.0</ele><time>2026-04-25T09:27:31Z</time></trkpt><trkpt lat="45.577577256628054" lon="9.540124600389074"><ele>139.5</ele><time>2026-04-25T09:27:33Z</time></trkpt><trkpt lat="45.57750380327523" lon="9.540132803005186"><ele>140.0</ele><time>2026-04-25T09:27:35Z</time></trkpt><trkpt lat="45.57742901667618" lon="9.54014497643945"><ele>140.0</ele><time>2026-04-25T09:27:37Z</time></trkpt><trkpt lat="45.577348370003854" lon="9.540159635875204"><ele>140.0</ele><time>2026-04-25T09:27:39Z</time></trkpt><trkpt lat="45.57727454731699" lon="9.540174163472736"><ele>140.0</ele><time>2026-04-25T09:27:41Z</time></trkpt><trkpt lat="45.577207346540355" lon="9.540173788552865"><ele>140.0</ele><time>2026-04-25T09:27:43Z</time></trkpt><trkpt lat="45.57713594196132" lon="9.540149020258692"><ele>140.0</ele><time>2026-04-25T09:27:46Z</time></trkpt><trkpt lat="45.577086024965475" lon="9.540080491028535"><ele>140.0</ele><time>2026-04-25T09:28:14.001Z</time></trkpt><trkpt lat="45.577081929072975" lon="9.539956380764757"><ele>140.0</ele><time>2026-04-25T09:28:17.001Z</time></trkpt><trkpt lat="45.577071052912665" lon="9.539864630411348"><ele>140.0</ele><time>2026-04-25T09:28:19.001Z</time></trkpt><trkpt lat="45.57705420948494" lon="9.539762962311483"><ele>140.0</ele><time>2026-04-25T09:28:21.001Z</time></trkpt><trkpt lat="45.57704016548242" lon="9.5396602681697"><ele>140.0</ele><time>2026-04-25T09:28:23.001Z</time></trkpt><trkpt lat="45.57702647972054" lon="9.539567050627808"><ele>140.0</ele><time>2026-04-25T09:28:25.001Z</time></trkpt><trkpt lat="45.577014531279595" lon="9.539470667303096"><ele>140.0</ele><time>2026-04-25T09:28:27.001Z</time></trkpt><trkpt lat="45.57699867740904" lon="9.539363946706283"><ele>140.0</ele><time>2026-04-25T09:28:29.001Z</time></trkpt><trkpt lat="45.576985634137515" lon="9.539271149086986"><ele>139.83333333333331</ele><time>2026-04-25T09:28:31Z</time></trkpt><trkpt lat="45.57698960794606" lon="9.53917955835857"><ele>139.66666666666666</ele><time>2026-04-25T09:28:36Z</time></trkpt><trkpt lat="45.57697522995215" lon="9.53904801964938"><ele>139.5</ele><time>2026-04-25T09:28:39Z</time></trkpt><trkpt lat="45.57700849392667" lon="9.538955126034631"><ele>139.33333333333334</ele><time>2026-04-25T09:28:41Z</time></trkpt><trkpt lat="45.577068393047725" lon="9.53885286213426"><ele>139.16666666666669</ele><time>2026-04-25T09:28:44Z</time></trkpt><trkpt lat="45.577074223075016" lon="9.538752241383195"><ele>139.0</ele><time>2026-04-25T09:28:46Z</time></trkpt><trkpt lat="45.57705549746632" lon="9.53863632447817"><ele>138.83333333333334</ele><time>2026-04-25T09:28:49Z</time></trkpt><trkpt lat="45.576999911729565" lon="9.538575295477864"><ele>138.66666666666669</ele><time>2026-04-25T09:28:52Z</time></trkpt><trkpt lat="45.57693715464384" lon="9.538513052334968"><ele>138.5</ele><time>2026-04-25T09:28:55Z</time></trkpt><trkpt lat="45.576939665833365" lon="9.538404279815259"><ele>138.33333333333334</ele><time>2026-04-25T09:28:59Z</time></trkpt><trkpt lat="45.576887994238085" lon="9.53854799340327"><ele>138.16666666666666</ele><time>2026-04-25T09:29:03Z</time></trkpt><trkpt lat="45.576813168755656" lon="9.538593812532188"><ele>138.0</ele><time>2026-04-25T09:29:09Z</time></trkpt><trkpt lat="45.57671985825773" lon="9.538586172032293"><ele>138.0</ele><time>2026-04-25T09:29:12Z</time></trkpt><trkpt lat="45.57665885762371" lon="9.53855531454736"><ele>138.0</ele><time>2026-04-25T09:29:14Z</time></trkpt><trkpt lat="45.57659094492175" lon="9.538536656784087"><ele>138.0</ele><time>2026-04-25T09:29:16Z</time></trkpt><trkpt lat="45.576520472353245" lon="9.538522579338075"><ele>138.0</ele><time>2026-04-25T09:29:18Z</time></trkpt><trkpt lat="45.57643948453957" lon="9.538518773319543"><ele>138.0</ele><time>2026-04-25T09:29:20Z</time></trkpt><trkpt lat="45.576359827223506" lon="9.538511200415574"><ele>138.0</ele><time>2026-04-25T09:29:22Z</time></trkpt><trkpt lat="45.57628794811674" lon="9.53850244694113"><ele>138.0</ele><time>2026-04-25T09:29:24Z</time></trkpt><trkpt lat="45.57622476007823" lon="9.53849416052094"><ele>138.0</ele><time>2026-04-25T09:29:27Z</time></trkpt><trkpt lat="45.57616741798522" lon="9.538568344907064"><ele>138.0</ele><time>2026-04-25T09:29:31Z</time></trkpt><trkpt lat="45.57611610728714" lon="9.538650163195644"><ele>138.0</ele><time>2026-04-25T09:29:33Z</time></trkpt><trkpt lat="45.57604598834795" lon="9.53871324069831"><ele>138.0</ele><time>2026-04-25T09:29:35Z</time></trkpt><trkpt lat="45.57597415041022" lon="9.538479803189752"><ele>138.0</ele><time>2026-04-25T09:29:37Z</time></trkpt><trkpt lat="45.57589324084772" lon="9.538474208722318"><ele>138.0</ele><time>2026-04-25T09:29:39Z</time></trkpt><trkpt lat="45.575818706170374" lon="9.538470339752028"><ele>138.0</ele><time>2026-04-25T09:29:41Z</time></trkpt><trkpt lat="45.57574130686686" lon="9.538466057406612"><ele>138.0</ele><time>2026-04-25T09:29:43Z</time></trkpt><trkpt lat="45.575665601533906" lon="9.53846084769367"><ele>138.0</ele><time>2026-04-25T09:29:45Z</time></trkpt><trkpt lat="45.57559154795616" lon="9.538455589043954"><ele>138.0</ele><time>2026-04-25T09:29:47Z</time></trkpt><trkpt lat="45.575515720842084" lon="9.53844968043817"><ele>138.0</ele><time>2026-04-25T09:29:49Z</time></trkpt><trkpt lat="45.57544097832817" lon="9.538443856337027"><ele>138.0</ele><time>2026-04-25T09:29:51Z</time></trkpt><trkpt lat="45.575398194623695" lon="9.53862101368788"><ele>138.0</ele><time>2026-04-25T09:29:52Z</time></trkpt><trkpt lat="45.575323521232626" lon="9.538629045380562"><ele>138.0</ele><time>2026-04-25T09:29:54Z</time></trkpt><trkpt lat="45.57526015576246" lon="9.538663355348536"><ele>138.0</ele><time>2026-04-25T09:29:56Z</time></trkpt><trkpt lat="45.575251490866684" lon="9.538781686124024"><ele>138.0</ele><time>2026-04-25T09:29:58.001Z</time></trkpt><trkpt lat="45.5751652282989" lon="9.538834197665755"><ele>138.0</ele><time>2026-04-25T09:29:59.001Z</time></trkpt><trkpt lat="45.5751580477847" lon="9.538938148718861"><ele>138.0</ele><time>2026-04-25T09:30:01.001Z</time></trkpt><trkpt lat="45.57515967769292" lon="9.539040502540098"><ele>138.0</ele><time>2026-04-25T09:30:03.001Z</time></trkpt><trkpt lat="45.575130348087306" lon="9.539138590275439"><ele>138.0</ele><time>2026-04-25T09:30:05.001Z</time></trkpt><trkpt lat="45.575026880681705" lon="9.539200138682071"><ele>138.0</ele><time>2026-04-25T09:30:09.001Z</time></trkpt><trkpt lat="45.5749634652099" lon="9.539184434244753"><ele>138.0</ele><time>2026-04-25T09:30:11.001Z</time></trkpt><trkpt lat="45.574892709126374" lon="9.539171675932083"><ele>138.0</ele><time>2026-04-25T09:30:15.001Z</time></trkpt><trkpt lat="45.57479332887952" lon="9.539301817772785"><ele>138.0</ele><time>2026-04-25T09:30:21.001Z</time></trkpt><trkpt lat="45.57474165820344" lon="9.53937843023004"><ele>138.0</ele><time>2026-04-25T09:30:24.001Z</time></trkpt><trkpt lat="45.57468912974983" lon="9.539458154775131"><ele>138.0</ele><time>2026-04-25T09:30:26.001Z</time></trkpt><trkpt lat="45.574637581416276" lon="9.539545829688038"><ele>138.0</ele><time>2026-04-25T09:30:28.001Z</time></trkpt><trkpt lat="45.57458453251934" lon="9.539629375012117"><ele>138.0</ele><time>2026-04-25T09:30:30.001Z</time></trkpt><trkpt lat="45.57452512844552" lon="9.539720442729353"><ele>138.0</ele><time>2026-04-25T09:30:32.001Z</time></trkpt><trkpt lat="45.574466285968505" lon="9.539806655841694"><ele>138.0</ele><time>2026-04-25T09:30:34.001Z</time></trkpt><trkpt lat="45.57440804276239" lon="9.53989956354913"><ele>138.0</ele><time>2026-04-25T09:30:36.001Z</time></trkpt><trkpt lat="45.57434784961906" lon="9.539987786180287"><ele>138.0</ele><time>2026-04-25T09:30:38Z</time></trkpt><trkpt lat="45.5742781705206" lon="9.54006036991106"><ele>138.0</ele><time>2026-04-25T09:30:40Z</time></trkpt><trkpt lat="45.574227953813924" lon="9.540170557529592"><ele>138.0</ele><time>2026-04-25T09:30:42Z</time></trkpt><trkpt lat="45.57416181723206" lon="9.540255901669521"><ele>138.0</ele><time>2026-04-25T09:30:44Z</time></trkpt><trkpt lat="45.57409701731344" lon="9.540353402287174"><ele>138.0</ele><time>2026-04-25T09:30:46Z</time></trkpt><trkpt lat="45.57403453840582" lon="9.540446173534376"><ele>138.0</ele><time>2026-04-25T09:30:48Z</time></trkpt><trkpt lat="45.57397190419888" lon="9.540503829417624"><ele>138.0</ele><time>2026-04-25T09:30:50Z</time></trkpt><trkpt lat="45.57389020191384" lon="9.540585826389776"><ele>138.0</ele><time>2026-04-25T09:30:52Z</time></trkpt><trkpt lat="45.5738230771796" lon="9.540666158648618"><ele>138.0</ele><time>2026-04-25T09:30:54Z</time></trkpt><trkpt lat="45.57374428024088" lon="9.54073430723726"><ele>138.0</ele><time>2026-04-25T09:30:56Z</time></trkpt><trkpt lat="45.573672752594085" lon="9.540806986909562"><ele>138.0</ele><time>2026-04-25T09:30:58Z</time></trkpt><trkpt lat="45.5735956657834" lon="9.540871804186132"><ele>138.0</ele><time>2026-04-25T09:31:00Z</time></trkpt><trkpt lat="45.57352116660249" lon="9.54094460393207"><ele>138.0</ele><time>2026-04-25T09:31:02Z</time></trkpt><trkpt lat="45.57344381811902" lon="9.541013533210396"><ele>138.0</ele><time>2026-04-25T09:31:04Z</time></trkpt><trkpt lat="45.573369681664005" lon="9.541089909594902"><ele>138.0</ele><time>2026-04-25T09:31:06Z</time></trkpt><trkpt lat="45.573298738206574" lon="9.541180832925487"><ele>138.0</ele><time>2026-04-25T09:31:08Z</time></trkpt><trkpt lat="45.573216289077294" lon="9.541263142616252"><ele>138.0</ele><time>2026-04-25T09:31:10Z</time></trkpt><trkpt lat="45.573125583769325" lon="9.541341691586073"><ele>138.0</ele><time>2026-04-25T09:31:12Z</time></trkpt><trkpt lat="45.573032787113576" lon="9.541418328243948"><ele>138.0</ele><time>2026-04-25T09:31:14Z</time></trkpt><trkpt lat="45.57293443791844" lon="9.541493353958305"><ele>138.5</ele><time>2026-04-25T09:31:16Z</time></trkpt><trkpt lat="45.572840376150396" lon="9.541579416497012"><ele>139.0</ele><time>2026-04-25T09:31:18Z</time></trkpt><trkpt lat="45.57274351824486" lon="9.541663159367527"><ele>139.5</ele><time>2026-04-25T09:31:20Z</time></trkpt><trkpt lat="45.572644032121474" lon="9.541747922085294"><ele>140.0</ele><time>2026-04-25T09:31:22Z</time></trkpt><trkpt lat="45.57254585789299" lon="9.54183355996944"><ele>140.0</ele><time>2026-04-25T09:31:24Z</time></trkpt><trkpt lat="45.57245227258411" lon="9.541927977911774"><ele>140.0</ele><time>2026-04-25T09:31:26Z</time></trkpt><trkpt lat="45.572367329612085" lon="9.542024687193997"><ele>140.0</ele><time>2026-04-25T09:31:28Z</time></trkpt><trkpt lat="45.57230291871501" lon="9.542163972044856"><ele>140.0</ele><time>2026-04-25T09:31:30Z</time></trkpt><trkpt lat="45.572233907386924" lon="9.542294925957071"><ele>140.0</ele><time>2026-04-25T09:31:32Z</time></trkpt><trkpt lat="45.57216656465769" lon="9.542419684888591"><ele>140.0</ele><time>2026-04-25T09:31:34Z</time></trkpt><trkpt lat="45.57209783666316" lon="9.54254665098076"><ele>140.0</ele><time>2026-04-25T09:31:36Z</time></trkpt><trkpt lat="45.57202427577711" lon="9.542673745940585"><ele>140.0</ele><time>2026-04-25T09:31:38Z</time></trkpt><trkpt lat="45.57194044130603" lon="9.542793696941528"><ele>139.5</ele><time>2026-04-25T09:31:40Z</time></trkpt><trkpt lat="45.57185774278239" lon="9.542902448109789"><ele>139.0</ele><time>2026-04-25T09:31:42Z</time></trkpt><trkpt lat="45.57176797059079" lon="9.543007373310889"><ele>138.5</ele><time>2026-04-25T09:31:44Z</time></trkpt><trkpt lat="45.57167285083129" lon="9.543101683861765"><ele>138.0</ele><time>2026-04-25T09:31:46Z</time></trkpt><trkpt lat="45.5715798400785" lon="9.543179932488313"><ele>138.0</ele><time>2026-04-25T09:31:48Z</time></trkpt><trkpt lat="45.57148102100196" lon="9.543254706778733"><ele>138.0</ele><time>2026-04-25T09:31:50Z</time></trkpt><trkpt lat="45.571374099974605" lon="9.543335060049477"><ele>138.0</ele><time>2026-04-25T09:31:52Z</time></trkpt><trkpt lat="45.57127176140161" lon="9.543429358430608"><ele>138.0</ele><time>2026-04-25T09:31:54Z</time></trkpt><trkpt lat="45.57119960261317" lon="9.54354957103918"><ele>138.0</ele><time>2026-04-25T09:31:56Z</time></trkpt><trkpt lat="45.571125767372145" lon="9.543676802673769"><ele>138.0</ele><time>2026-04-25T09:31:58Z</time></trkpt><trkpt lat="45.57108676515964" lon="9.54382926812153"><ele>138.0</ele><time>2026-04-25T09:32:00Z</time></trkpt><trkpt lat="45.571072999126265" lon="9.543995229546853"><ele>138.0</ele><time>2026-04-25T09:32:02Z</time></trkpt><trkpt lat="45.57107219681183" lon="9.54414045337289"><ele>138.0</ele><time>2026-04-25T09:32:04Z</time></trkpt><trkpt lat="45.571087618593005" lon="9.544236408612488"><ele>138.0</ele><time>2026-04-25T09:32:05Z</time></trkpt><trkpt lat="45.5711173297705" lon="9.544399402634706"><ele>138.0</ele><time>2026-04-25T09:32:07.001Z</time></trkpt><trkpt lat="45.57113894243338" lon="9.544529570196632"><ele>138.0</ele><time>2026-04-25T09:32:09.001Z</time></trkpt><trkpt lat="45.57116479344257" lon="9.544623866690157"><ele>138.0</ele><time>2026-04-25T09:32:10.001Z</time></trkpt><trkpt lat="45.57117838565423" lon="9.544790729316203"><ele>138.0</ele><time>2026-04-25T09:32:12.001Z</time></trkpt><trkpt lat="45.57121415401926" lon="9.544950313361237"><ele>138.0</ele><time>2026-04-25T09:32:14.001Z</time></trkpt><trkpt lat="45.571243264120646" lon="9.54511688051708"><ele>138.0</ele><time>2026-04-25T09:32:16.001Z</time></trkpt><trkpt lat="45.571267240727124" lon="9.545285659786135"><ele>138.0</ele><time>2026-04-25T09:32:18.001Z</time></trkpt><trkpt lat="45.57128536622397" lon="9.545452710563406"><ele>138.0</ele><time>2026-04-25T09:32:20.001Z</time></trkpt><trkpt lat="45.57129343381893" lon="9.545619152794437"><ele>138.25</ele><time>2026-04-25T09:32:22.001Z</time></trkpt><trkpt lat="45.57128011626947" lon="9.545784996076225"><ele>138.5</ele><time>2026-04-25T09:32:24.001Z</time></trkpt><trkpt lat="45.57125602763233" lon="9.545944429533227"><ele>138.75</ele><time>2026-04-25T09:32:26.001Z</time></trkpt><trkpt lat="45.57122818841324" lon="9.546103682821855"><ele>139.0</ele><time>2026-04-25T09:32:28.001Z</time></trkpt><trkpt lat="45.571200538992514" lon="9.546263353843845"><ele>138.75</ele><time>2026-04-25T09:32:30.001Z</time></trkpt><trkpt lat="45.57118065532097" lon="9.546428791856284"><ele>138.5</ele><time>2026-04-25T09:32:32.001Z</time></trkpt><trkpt lat="45.57114803114633" lon="9.546585392436775"><ele>138.25</ele><time>2026-04-25T09:32:34.001Z</time></trkpt><trkpt lat="45.571120358247605" lon="9.54675497856909"><ele>138.0</ele><time>2026-04-25T09:32:36.001Z</time></trkpt><trkpt lat="45.571091431485776" lon="9.54691985281063"><ele>137.75</ele><time>2026-04-25T09:32:38.001Z</time></trkpt><trkpt lat="45.57105818356162" lon="9.547088772667495"><ele>137.5</ele><time>2026-04-25T09:32:40.001Z</time></trkpt><trkpt lat="45.57102232543035" lon="9.547253913190715"><ele>137.25</ele><time>2026-04-25T09:32:42.001Z</time></trkpt><trkpt lat="45.57098199238529" lon="9.547421635127394"><ele>137.0</ele><time>2026-04-25T09:32:44Z</time></trkpt><trkpt lat="45.57093957639481" lon="9.547589856950397"><ele>137.0</ele><time>2026-04-25T09:32:46Z</time></trkpt><trkpt lat="45.57090169923463" lon="9.547759681351918"><ele>137.0</ele><time>2026-04-25T09:32:48Z</time></trkpt><trkpt lat="45.57086453046971" lon="9.54792863456365"><ele>137.0</ele><time>2026-04-25T09:32:50Z</time></trkpt><trkpt lat="45.57082451173758" lon="9.548093918463964"><ele>137.0</ele><time>2026-04-25T09:32:52Z</time></trkpt><trkpt lat="45.57078473128975" lon="9.548259427983757"><ele>137.25</ele><time>2026-04-25T09:32:54Z</time></trkpt><trkpt lat="45.57075076068048" lon="9.548419600667856"><ele>137.5</ele><time>2026-04-25T09:32:56Z</time></trkpt><trkpt lat="45.570722346633275" lon="9.548576350278625"><ele>137.75</ele><time>2026-04-25T09:32:58Z</time></trkpt><trkpt lat="45.57072311558432" lon="9.548735957997264"><ele>138.0</ele><time>2026-04-25T09:33:00Z</time></trkpt><trkpt lat="45.57073878737595" lon="9.548894875048841"><ele>138.0</ele><time>2026-04-25T09:33:02Z</time></trkpt><trkpt lat="45.57074419606965" lon="9.54904901043958"><ele>138.0</ele><time>2026-04-25T09:33:04Z</time></trkpt><trkpt lat="45.57075454613555" lon="9.549208425758026"><ele>138.0</ele><time>2026-04-25T09:33:06Z</time></trkpt><trkpt lat="45.57076588583995" lon="9.549372992782372"><ele>138.0</ele><time>2026-04-25T09:33:08Z</time></trkpt><trkpt lat="45.57078272407862" lon="9.54953826360695"><ele>138.0</ele><time>2026-04-25T09:33:10Z</time></trkpt><trkpt lat="45.570793257889655" lon="9.549704960704544"><ele>138.0</ele><time>2026-04-25T09:33:12Z</time></trkpt><trkpt lat="45.57080363426399" lon="9.549869202546098"><ele>138.0</ele><time>2026-04-25T09:33:14Z</time></trkpt><trkpt lat="45.570811640754805" lon="9.550038084801757"><ele>138.0</ele><time>2026-04-25T09:33:16Z</time></trkpt><trkpt lat="45.57081706812278" lon="9.550205945837597"><ele>138.0</ele><time>2026-04-25T09:33:18Z</time></trkpt><trkpt lat="45.570831701135006" lon="9.550374180356924"><ele>138.0</ele><time>2026-04-25T09:33:20Z</time></trkpt><trkpt lat="45.57083806808955" lon="9.55053958078734"><ele>138.0</ele><time>2026-04-25T09:33:22Z</time></trkpt><trkpt lat="45.57084815721827" lon="9.550701503224069"><ele>138.0</ele><time>2026-04-25T09:33:24Z</time></trkpt><trkpt lat="45.570859497476036" lon="9.550860019519689"><ele>138.0</ele><time>2026-04-25T09:33:26Z</time></trkpt><trkpt lat="45.570872348074275" lon="9.551027182294453"><ele>138.0</ele><time>2026-04-25T09:33:28Z</time></trkpt><trkpt lat="45.57088226246118" lon="9.55120001219525"><ele>138.0</ele><time>2026-04-25T09:33:30Z</time></trkpt><trkpt lat="45.570894547948335" lon="9.551364148810212"><ele>138.0</ele><time>2026-04-25T09:33:32Z</time></trkpt><trkpt lat="45.57089778801247" lon="9.551524023579862"><ele>138.25</ele><time>2026-04-25T09:33:34Z</time></trkpt><trkpt lat="45.570904121525594" lon="9.551687357364317"><ele>138.5</ele><time>2026-04-25T09:33:36Z</time></trkpt><trkpt lat="45.57092199647436" lon="9.551846231178033"><ele>138.75</ele><time>2026-04-25T09:33:38Z</time></trkpt><trkpt lat="45.57093188812732" lon="9.552007278404156"><ele>139.0</ele><time>2026-04-25T09:33:40Z</time></trkpt><trkpt lat="45.57094268200199" lon="9.552167376574678"><ele>139.0</ele><time>2026-04-25T09:33:42Z</time></trkpt><trkpt lat="45.570954172545186" lon="9.552329639650084"><ele>139.0</ele><time>2026-04-25T09:33:44Z</time></trkpt><trkpt lat="45.5709616445748" lon="9.552493543940889"><ele>139.0</ele><time>2026-04-25T09:33:46Z</time></trkpt><trkpt lat="45.57097305067496" lon="9.552656821165389"><ele>139.0</ele><time>2026-04-25T09:33:48Z</time></trkpt><trkpt lat="45.57098190152988" lon="9.552819972863832"><ele>139.0</ele><time>2026-04-25T09:33:50Z</time></trkpt><trkpt lat="45.57099176263288" lon="9.552984368927572"><ele>139.0</ele><time>2026-04-25T09:33:52Z</time></trkpt><trkpt lat="45.571002636949046" lon="9.55315224820494"><ele>139.0</ele><time>2026-04-25T09:33:54Z</time></trkpt><trkpt lat="45.57101047490055" lon="9.553318462087091"><ele>139.0</ele><time>2026-04-25T09:33:56Z</time></trkpt><trkpt lat="45.57102120212106" lon="9.553483327087436"><ele>139.0</ele><time>2026-04-25T09:33:58Z</time></trkpt><trkpt lat="45.5710313088493" lon="9.553632235972502"><ele>139.0</ele><time>2026-04-25T09:34:00Z</time></trkpt><trkpt lat="45.571042238159656" lon="9.553801039089151"><ele>139.0</ele><time>2026-04-25T09:34:02Z</time></trkpt><trkpt lat="45.571050290770785" lon="9.55396070653226"><ele>139.0</ele><time>2026-04-25T09:34:04.001Z</time></trkpt><trkpt lat="45.571057374773886" lon="9.554118247063181"><ele>139.0</ele><time>2026-04-25T09:34:06.001Z</time></trkpt><trkpt lat="45.571067267630276" lon="9.554277638417203"><ele>139.4</ele><time>2026-04-25T09:34:08.001Z</time></trkpt><trkpt lat="45.571077669791926" lon="9.554433924870406"><ele>139.8</ele><time>2026-04-25T09:34:10.001Z</time></trkpt><trkpt lat="45.57108348729136" lon="9.55458951134715"><ele>140.2</ele><time>2026-04-25T09:34:12.001Z</time></trkpt><trkpt lat="45.57109556784516" lon="9.554731505110961"><ele>140.6</ele><time>2026-04-25T09:34:14.001Z</time></trkpt><trkpt lat="45.57110468478544" lon="9.554876311824833"><ele>141.0</ele><time>2026-04-25T09:34:16.001Z</time></trkpt><trkpt lat="45.57110958879586" lon="9.555017278750583"><ele>141.2</ele><time>2026-04-25T09:34:18.001Z</time></trkpt><trkpt lat="45.57112270289883" lon="9.555157780522434"><ele>141.39999999999998</ele><time>2026-04-25T09:34:20.001Z</time></trkpt><trkpt lat="45.571126152340604" lon="9.555304348286887"><ele>141.6</ele><time>2026-04-25T09:34:22.001Z</time></trkpt><trkpt lat="45.57113366130327" lon="9.555449609810326"><ele>141.79999999999998</ele><time>2026-04-25T09:34:24.001Z</time></trkpt><trkpt lat="45.57114563998631" lon="9.555594694367992"><ele>142.0</ele><time>2026-04-25T09:34:26.001Z</time></trkpt><trkpt lat="45.57115142796101" lon="9.555746751060099"><ele>142.2</ele><time>2026-04-25T09:34:28.001Z</time></trkpt><trkpt lat="45.571161871193816" lon="9.5558952435357"><ele>142.39999999999998</ele><time>2026-04-25T09:34:30.001Z</time></trkpt><trkpt lat="45.57117589391092" lon="9.556040113294095"><ele>142.60000000000002</ele><time>2026-04-25T09:34:32.001Z</time></trkpt><trkpt lat="45.57118093656018" lon="9.556171333861217"><ele>142.8</ele><time>2026-04-25T09:34:34.001Z</time></trkpt><trkpt lat="45.57118779532603" lon="9.55629674316544"><ele>143.0</ele><time>2026-04-25T09:34:36.001Z</time></trkpt><trkpt lat="45.57119459945333" lon="9.556432411767103"><ele>143.0</ele><time>2026-04-25T09:34:38.001Z</time></trkpt><trkpt lat="45.571201845657804" lon="9.556582339722608"><ele>143.0</ele><time>2026-04-25T09:34:40.001Z</time></trkpt><trkpt lat="45.571215054782186" lon="9.55674452432244"><ele>143.0</ele><time>2026-04-25T09:34:42.001Z</time></trkpt><trkpt lat="45.57120468058149" lon="9.556914832605932"><ele>143.0</ele><time>2026-04-25T09:34:44.001Z</time></trkpt><trkpt lat="45.57118550656666" lon="9.557082409035184"><ele>143.0</ele><time>2026-04-25T09:34:46.001Z</time></trkpt><trkpt lat="45.571168471858115" lon="9.557246506300768"><ele>143.0</ele><time>2026-04-25T09:34:48.001Z</time></trkpt><trkpt lat="45.57114950364534" lon="9.557412156483895"><ele>143.0</ele><time>2026-04-25T09:34:50Z</time></trkpt><trkpt lat="45.571133596554795" lon="9.55757518120467"><ele>143.0</ele><time>2026-04-25T09:34:52Z</time></trkpt><trkpt lat="45.57111554015842" lon="9.557745517635169"><ele>143.0</ele><time>2026-04-25T09:34:54Z</time></trkpt><trkpt lat="45.5710983442732" lon="9.55790713807992"><ele>143.0</ele><time>2026-04-25T09:34:56Z</time></trkpt><trkpt lat="45.57107728398294" lon="9.558072095556104"><ele>143.0</ele><time>2026-04-25T09:34:58Z</time></trkpt><trkpt lat="45.571070876103455" lon="9.558166074458816"><ele>143.0</ele><time>2026-04-25T09:34:59Z</time></trkpt><trkpt lat="45.571045126962325" lon="9.558323511419268"><ele>143.0</ele><time>2026-04-25T09:35:01Z</time></trkpt><trkpt lat="45.57102723422768" lon="9.55849488800785"><ele>143.0</ele><time>2026-04-25T09:35:03Z</time></trkpt><trkpt lat="45.571005717479885" lon="9.558669993398505"><ele>143.0</ele><time>2026-04-25T09:35:05Z</time></trkpt><trkpt lat="45.57098836293575" lon="9.558841789244534"><ele>143.0</ele><time>2026-04-25T09:35:07Z</time></trkpt><trkpt lat="45.57097911680784" lon="9.558932055780634"><ele>143.0</ele><time>2026-04-25T09:35:08Z</time></trkpt><trkpt lat="45.57095820653658" lon="9.559113333841008"><ele>143.0</ele><time>2026-04-25T09:35:10Z</time></trkpt><trkpt lat="45.57094047620019" lon="9.559282651088969"><ele>143.0</ele><time>2026-04-25T09:35:12Z</time></trkpt><trkpt lat="45.57092751510232" lon="9.559372119178255"><ele>143.0</ele><time>2026-04-25T09:35:13Z</time></trkpt><trkpt lat="45.57091310113006" lon="9.559542986466854"><ele>143.0</ele><time>2026-04-25T09:35:15Z</time></trkpt><trkpt lat="45.570892487567185" lon="9.5597113084299"><ele>143.0</ele><time>2026-04-25T09:35:17Z</time></trkpt><trkpt lat="45.57087749159712" lon="9.559874035476918"><ele>143.0</ele><time>2026-04-25T09:35:19Z</time></trkpt><trkpt lat="45.570854428479514" lon="9.560041567841962"><ele>143.0</ele><time>2026-04-25T09:35:21Z</time></trkpt><trkpt lat="45.570833829610386" lon="9.560215195440364"><ele>143.0</ele><time>2026-04-25T09:35:23Z</time></trkpt><trkpt lat="45.57081570107142" lon="9.56038696426966"><ele>143.0</ele><time>2026-04-25T09:35:25Z</time></trkpt><trkpt lat="45.57079352747204" lon="9.560565289138292"><ele>143.0</ele><time>2026-04-25T09:35:27Z</time></trkpt><trkpt lat="45.570774184592835" lon="9.560733282442088"><ele>143.0</ele><time>2026-04-25T09:35:29Z</time></trkpt><trkpt lat="45.5707545986706" lon="9.560906660793007"><ele>143.0</ele><time>2026-04-25T09:35:31Z</time></trkpt><trkpt lat="45.57074531969539" lon="9.56099598520211"><ele>143.0</ele><time>2026-04-25T09:35:32Z</time></trkpt><trkpt lat="45.57072123898627" lon="9.561170279956473"><ele>143.0</ele><time>2026-04-25T09:35:34Z</time></trkpt><trkpt lat="45.57070410498649" lon="9.561346946130042"><ele>143.0</ele><time>2026-04-25T09:35:36Z</time></trkpt><trkpt lat="45.570695066518894" lon="9.561436882126989"><ele>143.0</ele><time>2026-04-25T09:35:37Z</time></trkpt><trkpt lat="45.57067266328759" lon="9.561612367399364"><ele>143.0</ele><time>2026-04-25T09:35:39Z</time></trkpt><trkpt lat="45.57065466013324" lon="9.561790256266066"><ele>143.0</ele><time>2026-04-25T09:35:41Z</time></trkpt><trkpt lat="45.57064043202193" lon="9.561879060684268"><ele>143.0</ele><time>2026-04-25T09:35:42Z</time></trkpt><trkpt lat="45.570617842241454" lon="9.562055481893502"><ele>143.0</ele><time>2026-04-25T09:35:44Z</time></trkpt><trkpt lat="45.570595156567805" lon="9.562234666824763"><ele>142.6</ele><time>2026-04-25T09:35:46Z</time></trkpt><trkpt lat="45.57057364773229" lon="9.562408659086486"><ele>142.20000000000002</ele><time>2026-04-25T09:35:48Z</time></trkpt><trkpt lat="45.570565629784916" lon="9.562498775594209"><ele>141.8</ele><time>2026-04-25T09:35:49Z</time></trkpt><trkpt lat="45.57054489358589" lon="9.56267257375247"><ele>141.4</ele><time>2026-04-25T09:35:51Z</time></trkpt><trkpt lat="45.570525767620055" lon="9.562844252731518"><ele>141.0</ele><time>2026-04-25T09:35:53Z</time></trkpt><trkpt lat="45.57050924674686" lon="9.563014938512719"><ele>141.0</ele><time>2026-04-25T09:35:55Z</time></trkpt><trkpt lat="45.57048993783225" lon="9.563186911177368"><ele>141.0</ele><time>2026-04-25T09:35:57Z</time></trkpt><trkpt lat="45.57046869404494" lon="9.563361659344743"><ele>141.0</ele><time>2026-04-25T09:35:59Z</time></trkpt><trkpt lat="45.57045189689095" lon="9.563532401245121"><ele>141.0</ele><time>2026-04-25T09:36:01Z</time></trkpt><trkpt lat="45.57043531017697" lon="9.563703985377652"><ele>141.6</ele><time>2026-04-25T09:36:03Z</time></trkpt><trkpt lat="45.570415862872345" lon="9.563874011714837"><ele>142.2</ele><time>2026-04-25T09:36:05Z</time></trkpt><trkpt lat="45.57039419595959" lon="9.564022141649101"><ele>142.8</ele><time>2026-04-25T09:36:07Z</time></trkpt><trkpt lat="45.57038239481309" lon="9.564123909686916"><ele>143.4</ele><time>2026-04-25T09:36:08Z</time></trkpt><trkpt lat="45.57037075285192" lon="9.564276939536002"><ele>144.0</ele><time>2026-04-25T09:36:10Z</time></trkpt><trkpt lat="45.570349645815256" lon="9.564430948592737"><ele>144.0</ele><time>2026-04-25T09:36:12.001Z</time></trkpt><trkpt lat="45.57033154883372" lon="9.564577731869042"><ele>144.0</ele><time>2026-04-25T09:36:14.001Z</time></trkpt><trkpt lat="45.57030759600299" lon="9.564679550363556"><ele>144.0</ele><time>2026-04-25T09:36:16.001Z</time></trkpt><trkpt lat="45.57023930630139" lon="9.564650950284088"><ele>144.0</ele><time>2026-04-25T09:36:17.001Z</time></trkpt><trkpt lat="45.57014364474986" lon="9.564613219947784"><ele>144.0</ele><time>2026-04-25T09:36:19.001Z</time></trkpt><trkpt lat="45.57004348500999" lon="9.564566199965066"><ele>144.0</ele><time>2026-04-25T09:36:21.001Z</time></trkpt><trkpt lat="45.56993263805447" lon="9.564521095453635"><ele>144.0</ele><time>2026-04-25T09:36:23.001Z</time></trkpt><trkpt lat="45.569818173306906" lon="9.564462807286938"><ele>144.0</ele><time>2026-04-25T09:36:25.001Z</time></trkpt><trkpt lat="45.56970273939881" lon="9.564405882431664"><ele>144.0</ele><time>2026-04-25T09:36:27.001Z</time></trkpt><trkpt lat="45.56958621889304" lon="9.564353616851697"><ele>143.75</ele><time>2026-04-25T09:36:29.001Z</time></trkpt><trkpt lat="45.56946808877865" lon="9.564305681937228"><ele>143.5</ele><time>2026-04-25T09:36:31.001Z</time></trkpt><trkpt lat="45.56935219626973" lon="9.564257486952544"><ele>143.25</ele><time>2026-04-25T09:36:33.001Z</time></trkpt><trkpt lat="45.569233439385435" lon="9.564206938361577"><ele>143.0</ele><time>2026-04-25T09:36:35.001Z</time></trkpt><trkpt lat="45.56911875772645" lon="9.56415346978012"><ele>143.0</ele><time>2026-04-25T09:36:37.001Z</time></trkpt><trkpt lat="45.56900638662059" lon="9.564079083121227"><ele>143.0</ele><time>2026-04-25T09:36:39.001Z</time></trkpt><trkpt lat="45.56889414558683" lon="9.564030720225594"><ele>143.0</ele><time>2026-04-25T09:36:41.001Z</time></trkpt><trkpt lat="45.56882535405769" lon="9.563894908857339"><ele>143.0</ele><time>2026-04-25T09:36:43.001Z</time></trkpt><trkpt lat="45.56879703266337" lon="9.563738106477272"><ele>143.0</ele><time>2026-04-25T09:36:45.001Z</time></trkpt><trkpt lat="45.56879752078215" lon="9.563573253575111"><ele>143.0</ele><time>2026-04-25T09:36:47.001Z</time></trkpt><trkpt lat="45.56877258197215" lon="9.5634104283849"><ele>143.0</ele><time>2026-04-25T09:36:49.001Z</time></trkpt><trkpt lat="45.568693581653314" lon="9.5632852999985"><ele>143.0</ele><time>2026-04-25T09:36:51.001Z</time></trkpt><trkpt lat="45.56858023363176" lon="9.563225464548859"><ele>142.75</ele><time>2026-04-25T09:36:53.001Z</time></trkpt><trkpt lat="45.568461500998914" lon="9.56318809559229"><ele>142.5</ele><time>2026-04-25T09:36:55Z</time></trkpt><trkpt lat="45.56835107116964" lon="9.563142286376207"><ele>142.25</ele><time>2026-04-25T09:36:57Z</time></trkpt><trkpt lat="45.56823596003767" lon="9.563088878750136"><ele>142.0</ele><time>2026-04-25T09:36:59Z</time></trkpt><trkpt lat="45.56812007749908" lon="9.563032541184725"><ele>142.0</ele><time>2026-04-25T09:37:01Z</time></trkpt><trkpt lat="45.5680587906354" lon="9.563007775234118"><ele>142.0</ele><time>2026-04-25T09:37:02Z</time></trkpt><trkpt lat="45.56794125068876" lon="9.562950367486177"><ele>142.0</ele><time>2026-04-25T09:37:04Z</time></trkpt><trkpt lat="45.56781903739709" lon="9.562902719780059"><ele>142.0</ele><time>2026-04-25T09:37:06Z</time></trkpt><trkpt lat="45.56770295258665" lon="9.562858746337529"><ele>142.0</ele><time>2026-04-25T09:37:08Z</time></trkpt><trkpt lat="45.567584040290775" lon="9.562801900644098"><ele>141.4</ele><time>2026-04-25T09:37:10Z</time></trkpt><trkpt lat="45.567477876721384" lon="9.562716369349651"><ele>140.79999999999998</ele><time>2026-04-25T09:37:12Z</time></trkpt><trkpt lat="45.567413761573626" lon="9.562719556720747"><ele>140.2</ele><time>2026-04-25T09:37:13Z</time></trkpt><trkpt lat="45.567312767255586" lon="9.562659136614776"><ele>139.6</ele><time>2026-04-25T09:37:15Z</time></trkpt><trkpt lat="45.567245289526056" lon="9.562644600195217"><ele>139.0</ele><time>2026-04-25T09:37:16Z</time></trkpt><trkpt lat="45.56715245687452" lon="9.562583835814175"><ele>139.0</ele><time>2026-04-25T09:37:18Z</time></trkpt><trkpt lat="45.56705727906651" lon="9.56254817257407"><ele>139.0</ele><time>2026-04-25T09:37:20Z</time></trkpt><trkpt lat="45.56697743394568" lon="9.562476378279309"><ele>139.0</ele><time>2026-04-25T09:37:22Z</time></trkpt><trkpt lat="45.56689915187895" lon="9.562446315277045"><ele>139.0</ele><time>2026-04-25T09:37:24Z</time></trkpt><trkpt lat="45.56681514933589" lon="9.562364996927895"><ele>139.0</ele><time>2026-04-25T09:37:26Z</time></trkpt><trkpt lat="45.566724905429545" lon="9.562326661019622"><ele>139.0</ele><time>2026-04-25T09:37:28Z</time></trkpt><trkpt lat="45.56663233936957" lon="9.562229773807276"><ele>139.0</ele><time>2026-04-25T09:37:30Z</time></trkpt><trkpt lat="45.56652471424646" lon="9.562189155325495"><ele>139.0</ele><time>2026-04-25T09:37:32Z</time></trkpt><trkpt lat="45.56642248226225" lon="9.562100525372482"><ele>139.0</ele><time>2026-04-25T09:37:34Z</time></trkpt><trkpt lat="45.56632026889962" lon="9.562043267251006"><ele>139.0</ele><time>2026-04-25T09:37:36Z</time></trkpt><trkpt lat="45.56622889924764" lon="9.561971371625614"><ele>139.0</ele><time>2026-04-25T09:37:38Z</time></trkpt><trkpt lat="45.566161120301366" lon="9.561918826041644"><ele>139.0</ele><time>2026-04-25T09:37:40Z</time></trkpt><trkpt lat="45.56610601558225" lon="9.561834229047019"><ele>139.0</ele><time>2026-04-25T09:37:42Z</time></trkpt><trkpt lat="45.5660639832489" lon="9.561723694643536"><ele>139.0</ele><time>2026-04-25T09:37:45Z</time></trkpt><trkpt lat="45.56605615003526" lon="9.561603069929525"><ele>139.0</ele><time>2026-04-25T09:37:48Z</time></trkpt><trkpt lat="45.566002473114956" lon="9.561528994540126"><ele>139.16666666666669</ele><time>2026-04-25T09:37:51Z</time></trkpt><trkpt lat="45.56591757577692" lon="9.561493824505572"><ele>139.33333333333334</ele><time>2026-04-25T09:37:54Z</time></trkpt><trkpt lat="45.56584578446922" lon="9.561473857046783"><ele>139.5</ele><time>2026-04-25T09:37:56Z</time></trkpt><trkpt lat="45.56577893559089" lon="9.561447240348198"><ele>139.66666666666666</ele><time>2026-04-25T09:37:58Z</time></trkpt><trkpt lat="45.565707172231285" lon="9.561438697990495"><ele>139.83333333333331</ele><time>2026-04-25T09:38:00Z</time></trkpt><trkpt lat="45.56564278142563" lon="9.561410678702893"><ele>140.0</ele><time>2026-04-25T09:38:02Z</time></trkpt><trkpt lat="45.56555995165811" lon="9.561388599744715"><ele>140.0</ele><time>2026-04-25T09:38:04.001Z</time></trkpt><trkpt lat="45.565470711838145" lon="9.56136750495873"><ele>140.0</ele><time>2026-04-25T09:38:06Z</time></trkpt><trkpt lat="45.56539444080875" lon="9.561347009925216"><ele>140.0</ele><time>2026-04-25T09:38:08Z</time></trkpt><trkpt lat="45.5653240272804" lon="9.561330002058986"><ele>140.0</ele><time>2026-04-25T09:38:10Z</time></trkpt><trkpt lat="45.56524388567279" lon="9.561323593922912"><ele>140.0</ele><time>2026-04-25T09:38:12.001Z</time></trkpt><trkpt lat="45.56516728534754" lon="9.561330626398332"><ele>140.0</ele><time>2026-04-25T09:38:14.001Z</time></trkpt><trkpt lat="45.565091997684554" lon="9.561308711916759"><ele>139.83333333333331</ele><time>2026-04-25T09:38:16.001Z</time></trkpt><trkpt lat="45.5650174942463" lon="9.561297030683955"><ele>139.66666666666666</ele><time>2026-04-25T09:38:18.001Z</time></trkpt><trkpt lat="45.564949760941644" lon="9.561295676383946"><ele>139.5</ele><time>2026-04-25T09:38:20.001Z</time></trkpt><trkpt lat="45.56487833376062" lon="9.561336599572785"><ele>139.33333333333334</ele><time>2026-04-25T09:38:22.001Z</time></trkpt><trkpt lat="45.56480392562597" lon="9.561371196115646"><ele>139.16666666666669</ele><time>2026-04-25T09:38:24.001Z</time></trkpt><trkpt lat="45.56472207853439" lon="9.56138687158714"><ele>139.0</ele><time>2026-04-25T09:38:26.001Z</time></trkpt><trkpt lat="45.56464040974033" lon="9.561373099527021"><ele>139.0</ele><time>2026-04-25T09:38:28.001Z</time></trkpt><trkpt lat="45.564554732579865" lon="9.561366022315772"><ele>139.0</ele><time>2026-04-25T09:38:30.001Z</time></trkpt><trkpt lat="45.564476410160914" lon="9.56135310751453"><ele>139.0</ele><time>2026-04-25T09:38:32.001Z</time></trkpt><trkpt lat="45.56440630671663" lon="9.561333894126172"><ele>139.0</ele><time>2026-04-25T09:38:34.001Z</time></trkpt><trkpt lat="45.56433566437971" lon="9.561316751947539"><ele>139.0</ele><time>2026-04-25T09:38:36.001Z</time></trkpt><trkpt lat="45.56427686139293" lon="9.561276314303797"><ele>139.0</ele><time>2026-04-25T09:38:39.001Z</time></trkpt><trkpt lat="45.56424696530545" lon="9.561365213216158"><ele>139.0</ele><time>2026-04-25T09:38:43.001Z</time></trkpt><trkpt lat="45.564265064754764" lon="9.561471148489138"><ele>139.0</ele><time>2026-04-25T09:38:45.001Z</time></trkpt><trkpt lat="45.56426694161004" lon="9.561584867848795"><ele>139.0</ele><time>2026-04-25T09:38:47.001Z</time></trkpt><trkpt lat="45.56426821973065" lon="9.56171380161033"><ele>139.0</ele><time>2026-04-25T09:38:49.001Z</time></trkpt><trkpt lat="45.56426151703897" lon="9.561845021391814"><ele>139.0</ele><time>2026-04-25T09:38:51.001Z</time></trkpt><trkpt lat="45.56425686867827" lon="9.561997181122752"><ele>139.0</ele><time>2026-04-25T09:38:53.001Z</time></trkpt><trkpt lat="45.5642452295839" lon="9.56212125896297"><ele>139.0</ele><time>2026-04-25T09:38:55.001Z</time></trkpt><trkpt lat="45.564177738570265" lon="9.562172302063944"><ele>139.0</ele><time>2026-04-25T09:38:59.001Z</time></trkpt><trkpt lat="45.564101095712644" lon="9.562141419537383"><ele>139.0</ele><time>2026-04-25T09:39:01Z</time></trkpt><trkpt lat="45.56402513245229" lon="9.562111113454268"><ele>139.0</ele><time>2026-04-25T09:39:03Z</time></trkpt><trkpt lat="45.56395236718416" lon="9.562049258981805"><ele>139.0</ele><time>2026-04-25T09:39:05Z</time></trkpt><trkpt lat="45.56387812536375" lon="9.561986339466904"><ele>139.0</ele><time>2026-04-25T09:39:07Z</time></trkpt><trkpt lat="45.56379327424594" lon="9.561950281555188"><ele>138.6</ele><time>2026-04-25T09:39:09Z</time></trkpt><trkpt lat="45.56370383193755" lon="9.561924076672529"><ele>138.2</ele><time>2026-04-25T09:39:11Z</time></trkpt><trkpt lat="45.563614430383545" lon="9.561902837202465"><ele>137.79999999999998</ele><time>2026-04-25T09:39:13Z</time></trkpt><trkpt lat="45.56352910788723" lon="9.561864116063509"><ele>137.4</ele><time>2026-04-25T09:39:15Z</time></trkpt><trkpt lat="45.56344219007672" lon="9.561834411256742"><ele>137.0</ele><time>2026-04-25T09:39:17Z</time></trkpt><trkpt lat="45.563352166019634" lon="9.561818516239514"><ele>136.83333333333331</ele><time>2026-04-25T09:39:19Z</time></trkpt><trkpt lat="45.56326777196412" lon="9.56180332012371"><ele>136.66666666666666</ele><time>2026-04-25T09:39:21Z</time></trkpt><trkpt lat="45.56318511210093" lon="9.56179865280019"><ele>136.5</ele><time>2026-04-25T09:39:23Z</time></trkpt><trkpt lat="45.56310092288638" lon="9.561787012254452"><ele>136.33333333333334</ele><time>2026-04-25T09:39:25Z</time></trkpt><trkpt lat="45.56301847165678" lon="9.561780626362605"><ele>136.16666666666669</ele><time>2026-04-25T09:39:27Z</time></trkpt><trkpt lat="45.56294321930259" lon="9.561784309751346"><ele>136.0</ele><time>2026-04-25T09:39:29Z</time></trkpt><trkpt lat="45.56289083276809" lon="9.561862904227219"><ele>136.0</ele><time>2026-04-25T09:39:33Z</time></trkpt><trkpt lat="45.56282589250495" lon="9.5619176156667"><ele>136.0</ele><time>2026-04-25T09:39:37Z</time></trkpt><trkpt lat="45.56274813232029" lon="9.561891112999424"><ele>136.0</ele><time>2026-04-25T09:39:40Z</time></trkpt><trkpt lat="45.56266167704721" lon="9.56189797625212"><ele>136.0</ele><time>2026-04-25T09:39:43Z</time></trkpt><trkpt lat="45.562621613884374" lon="9.561811634650386"><ele>136.0</ele><time>2026-04-25T09:39:48Z</time></trkpt><trkpt lat="45.56255898784198" lon="9.561758616765903"><ele>136.0</ele><time>2026-04-25T09:39:52Z</time></trkpt><trkpt lat="45.56249002474327" lon="9.56174183875223"><ele>136.0</ele><time>2026-04-25T09:39:55Z</time></trkpt><trkpt lat="45.56240061170097" lon="9.56170984159186"><ele>136.0</ele><time>2026-04-25T09:39:58Z</time></trkpt><trkpt lat="45.56232271825673" lon="9.561701213466296"><ele>136.0</ele><time>2026-04-25T09:40:01Z</time></trkpt><trkpt lat="45.56225582371137" lon="9.561692122406948"><ele>136.0</ele><time>2026-04-25T09:40:03Z</time></trkpt><trkpt lat="45.562192645984844" lon="9.561686405989578"><ele>136.0</ele><time>2026-04-25T09:40:05Z</time></trkpt><trkpt lat="45.56210407697622" lon="9.561640910189391"><ele>136.0</ele><time>2026-04-25T09:40:08Z</time></trkpt><trkpt lat="45.56204159468839" lon="9.561617811851601"><ele>136.33333333333334</ele><time>2026-04-25T09:40:10Z</time></trkpt><trkpt lat="45.561962139143965" lon="9.561598190614552"><ele>136.66666666666669</ele><time>2026-04-25T09:40:13Z</time></trkpt><trkpt lat="45.56187335603032" lon="9.56158375467037"><ele>137.0</ele><time>2026-04-25T09:40:16.001Z</time></trkpt><trkpt lat="45.56180261581831" lon="9.561533634440726"><ele>137.33333333333334</ele><time>2026-04-25T09:40:19.001Z</time></trkpt><trkpt lat="45.56177027854144" lon="9.561431541200799"><ele>137.66666666666666</ele><time>2026-04-25T09:40:23.001Z</time></trkpt><trkpt lat="45.561762264686095" lon="9.561336863601786"><ele>138.0</ele><time>2026-04-25T09:40:27.001Z</time></trkpt><trkpt lat="45.561778634246345" lon="9.561245592390273"><ele>137.71428571428572</ele><time>2026-04-25T09:40:30.001Z</time></trkpt><trkpt lat="45.56177969099402" lon="9.561150364548457"><ele>137.42857142857144</ele><time>2026-04-25T09:40:33.001Z</time></trkpt><trkpt lat="45.56177057349788" lon="9.56104573815285"><ele>137.14285714285714</ele><time>2026-04-25T09:40:36.001Z</time></trkpt><trkpt lat="45.56176369632456" lon="9.560946537311892"><ele>136.85714285714286</ele><time>2026-04-25T09:40:39.001Z</time></trkpt><trkpt lat="45.56176389505376" lon="9.56083948200356"><ele>136.57142857142856</ele><time>2026-04-25T09:40:42.001Z</time></trkpt><trkpt lat="45.561756461399554" lon="9.56073673475112"><ele>136.28571428571428</ele><time>2026-04-25T09:40:45.001Z</time></trkpt><trkpt lat="45.56175157764779" lon="9.5606298514357"><ele>136.0</ele><time>2026-04-25T09:40:48.001Z</time></trkpt><trkpt lat="45.5617431404985" lon="9.560515268764028"><ele>135.99999999999997</ele><time>2026-04-25T09:40:51.001Z</time></trkpt><trkpt lat="45.56173462462394" lon="9.56040796426456"><ele>136.0</ele><time>2026-04-25T09:40:54.001Z</time></trkpt><trkpt lat="45.56172555028045" lon="9.560307674899734"><ele>136.0</ele><time>2026-04-25T09:40:57.001Z</time></trkpt><trkpt lat="45.56171286028522" lon="9.56021079544286"><ele>136.0</ele><time>2026-04-25T09:41:00.001Z</time></trkpt><trkpt lat="45.56171140654377" lon="9.560119291175841"><ele>136.0</ele><time>2026-04-25T09:41:03.001Z</time></trkpt><trkpt lat="45.56172884651112" lon="9.560028780244926"><ele>135.99999999999997</ele><time>2026-04-25T09:41:08Z</time></trkpt><trkpt lat="45.561766808980984" lon="9.559929141670304"><ele>136.0</ele><time>2026-04-25T09:41:14Z</time></trkpt><trkpt lat="45.561703755902215" lon="9.559861715517304"><ele>136.0</ele><time>2026-04-25T09:41:30Z</time></trkpt><trkpt lat="45.5616334912461" lon="9.559909486820239"><ele>136.0</ele><time>2026-04-25T09:41:32Z</time></trkpt><trkpt lat="45.56156637294925" lon="9.559967208027063"><ele>136.0</ele><time>2026-04-25T09:41:34Z</time></trkpt><trkpt lat="45.561487418979816" lon="9.560015189072235"><ele>136.0</ele><time>2026-04-25T09:41:36Z</time></trkpt><trkpt lat="45.56140580731928" lon="9.560066698795348"><ele>136.0</ele><time>2026-04-25T09:41:38Z</time></trkpt><trkpt lat="45.56132274521126" lon="9.560131007785815"><ele>136.0</ele><time>2026-04-25T09:41:40Z</time></trkpt><trkpt lat="45.561245068773566" lon="9.560189133391958"><ele>135.83333333333334</ele><time>2026-04-25T09:41:42Z</time></trkpt><trkpt lat="45.5611679091287" lon="9.56024091524453"><ele>135.66666666666669</ele><time>2026-04-25T09:41:44Z</time></trkpt><trkpt lat="45.56109510792445" lon="9.560291975220014"><ele>135.5</ele><time>2026-04-25T09:41:46Z</time></trkpt><trkpt lat="45.56102528756232" lon="9.560340837435401"><ele>135.33333333333334</ele><time>2026-04-25T09:41:48Z</time></trkpt><trkpt lat="45.560944616159475" lon="9.560373741548824"><ele>135.16666666666666</ele><time>2026-04-25T09:41:50Z</time></trkpt><trkpt lat="45.56086137611584" lon="9.560445858078328"><ele>135.0</ele><time>2026-04-25T09:41:52Z</time></trkpt><trkpt lat="45.560772336185266" lon="9.560498926477376"><ele>135.0</ele><time>2026-04-25T09:41:54Z</time></trkpt><trkpt lat="45.56068787843442" lon="9.560558555511964"><ele>135.0</ele><time>2026-04-25T09:41:56Z</time></trkpt><trkpt lat="45.56061107343141" lon="9.560618893953253"><ele>135.0</ele><time>2026-04-25T09:41:58Z</time></trkpt><trkpt lat="45.560528278794585" lon="9.560679431778633"><ele>135.0</ele><time>2026-04-25T09:42:00Z</time></trkpt><trkpt lat="45.560446679999856" lon="9.560744698053828"><ele>135.0</ele><time>2026-04-25T09:42:02Z</time></trkpt><trkpt lat="45.56036714920549" lon="9.560813594101688"><ele>135.16666666666666</ele><time>2026-04-25T09:42:04Z</time></trkpt><trkpt lat="45.56028600020067" lon="9.560880974433097"><ele>135.33333333333334</ele><time>2026-04-25T09:42:06Z</time></trkpt><trkpt lat="45.56020792053477" lon="9.560954407614213"><ele>135.5</ele><time>2026-04-25T09:42:08Z</time></trkpt><trkpt lat="45.56013620658344" lon="9.561027293806358"><ele>135.66666666666669</ele><time>2026-04-25T09:42:10Z</time></trkpt><trkpt lat="45.560072820645445" lon="9.561115784057503"><ele>135.83333333333334</ele><time>2026-04-25T09:42:12Z</time></trkpt><trkpt lat="45.560009631469775" lon="9.561194780326995"><ele>136.0</ele><time>2026-04-25T09:42:14Z</time></trkpt><trkpt lat="45.55994343062599" lon="9.561286237498303"><ele>136.2</ele><time>2026-04-25T09:42:16Z</time></trkpt><trkpt lat="45.559869324410634" lon="9.561371997538238"><ele>136.39999999999998</ele><time>2026-04-25T09:42:18Z</time></trkpt><trkpt lat="45.55979660123663" lon="9.561463604891053"><ele>136.6</ele><time>2026-04-25T09:42:20Z</time></trkpt><trkpt lat="45.559723763680026" lon="9.561563491915601"><ele>136.79999999999998</ele><time>2026-04-25T09:42:22Z</time></trkpt><trkpt lat="45.55964358753668" lon="9.561657376810375"><ele>137.0</ele><time>2026-04-25T09:42:24Z</time></trkpt><trkpt lat="45.55955876910042" lon="9.561754268363932"><ele>137.2</ele><time>2026-04-25T09:42:26Z</time></trkpt><trkpt lat="45.55946712881134" lon="9.561836779750143"><ele>137.39999999999998</ele><time>2026-04-25T09:42:28Z</time></trkpt><trkpt lat="45.55937362249386" lon="9.561924547440936"><ele>137.60000000000002</ele><time>2026-04-25T09:42:30Z</time></trkpt><trkpt lat="45.559267985086784" lon="9.561988773083433"><ele>137.8</ele><time>2026-04-25T09:42:32Z</time></trkpt><trkpt lat="45.559213839517184" lon="9.562040688221256"><ele>138.0</ele><time>2026-04-25T09:42:33.001Z</time></trkpt><trkpt lat="45.559161215116674" lon="9.56209091846306"><ele>138.20000000000002</ele><time>2026-04-25T09:42:34.001Z</time></trkpt><trkpt lat="45.55905174320604" lon="9.56217300861695"><ele>138.4</ele><time>2026-04-25T09:42:36.001Z</time></trkpt><trkpt lat="45.558997801724296" lon="9.562219808434763"><ele>138.60000000000002</ele><time>2026-04-25T09:42:37.001Z</time></trkpt><trkpt lat="45.55889430463455" lon="9.562316472107476"><ele>138.8</ele><time>2026-04-25T09:42:39.001Z</time></trkpt><trkpt lat="45.5588194583688" lon="9.562447088008494"><ele>139.0</ele><time>2026-04-25T09:42:41.001Z</time></trkpt><trkpt lat="45.55877088809953" lon="9.562604760186519"><ele>139.0</ele><time>2026-04-25T09:42:43.001Z</time></trkpt><trkpt lat="45.55872934686932" lon="9.562763126654145"><ele>139.0</ele><time>2026-04-25T09:42:45.001Z</time></trkpt><trkpt lat="45.55868230426521" lon="9.562914642672528"><ele>139.0</ele><time>2026-04-25T09:42:47.001Z</time></trkpt><trkpt lat="45.55862922916622" lon="9.56306443010407"><ele>139.0</ele><time>2026-04-25T09:42:49.001Z</time></trkpt><trkpt lat="45.55855248260419" lon="9.563185236846028"><ele>139.0</ele><time>2026-04-25T09:42:51.001Z</time></trkpt><trkpt lat="45.55846226106362" lon="9.56327774942127"><ele>139.0</ele><time>2026-04-25T09:42:53.001Z</time></trkpt><trkpt lat="45.558364142570916" lon="9.56335707898311"><ele>139.0</ele><time>2026-04-25T09:42:55.001Z</time></trkpt><trkpt lat="45.558262321557294" lon="9.563426919285815"><ele>139.0</ele><time>2026-04-25T09:42:57.001Z</time></trkpt><trkpt lat="45.558149324508705" lon="9.56347716421602"><ele>139.0</ele><time>2026-04-25T09:42:59.001Z</time></trkpt><trkpt lat="45.55803092548694" lon="9.56351455108705"><ele>139.0</ele><time>2026-04-25T09:43:01.001Z</time></trkpt><trkpt lat="45.5579098162055" lon="9.563526623025078"><ele>139.0</ele><time>2026-04-25T09:43:03.001Z</time></trkpt><trkpt lat="45.557789173883926" lon="9.563520624094757"><ele>139.0</ele><time>2026-04-25T09:43:05.001Z</time></trkpt><trkpt lat="45.55766959567267" lon="9.56351249454502"><ele>139.0</ele><time>2026-04-25T09:43:07.001Z</time></trkpt><trkpt lat="45.55754933733442" lon="9.563501363274998"><ele>139.0</ele><time>2026-04-25T09:43:09.001Z</time></trkpt><trkpt lat="45.55742680944486" lon="9.563489895050356"><ele>139.0</ele><time>2026-04-25T09:43:11.001Z</time></trkpt><trkpt lat="45.55724292274162" lon="9.56349676382853"><ele>139.0</ele><time>2026-04-25T09:43:13.999Z</time></trkpt><trkpt lat="45.557122611555705" lon="9.563527237127238"><ele>138.8</ele><time>2026-04-25T09:43:15.999Z</time></trkpt><trkpt lat="45.55700711991269" lon="9.5635672078269"><ele>138.60000000000002</ele><time>2026-04-25T09:43:17.999Z</time></trkpt><trkpt lat="45.5568908368662" lon="9.563632304341015"><ele>138.4</ele><time>2026-04-25T09:43:19.999Z</time></trkpt><trkpt lat="45.556778722124484" lon="9.563717288507227"><ele>138.20000000000002</ele><time>2026-04-25T09:43:21.999Z</time></trkpt><trkpt lat="45.55672198604397" lon="9.563761630053845"><ele>138.0</ele><time>2026-04-25T09:43:22.999Z</time></trkpt><trkpt lat="45.55666553016587" lon="9.563811698145944"><ele>138.0</ele><time>2026-04-25T09:43:23.999Z</time></trkpt><trkpt lat="45.55660761130084" lon="9.563859856068389"><ele>138.0</ele><time>2026-04-25T09:43:24.999Z</time></trkpt><trkpt lat="45.55654917580631" lon="9.563904959385672"><ele>138.0</ele><time>2026-04-25T09:43:25.999Z</time></trkpt><trkpt lat="45.55648954213419" lon="9.563948219037506"><ele>138.0</ele><time>2026-04-25T09:43:26.999Z</time></trkpt><trkpt lat="45.556431529970055" lon="9.563994351833422"><ele>138.0</ele><time>2026-04-25T09:43:27.999Z</time></trkpt><trkpt lat="45.55637562683151" lon="9.564037940477851"><ele>138.0</ele><time>2026-04-25T09:43:28.999Z</time></trkpt><trkpt lat="45.55631770123772" lon="9.564077283054074"><ele>138.0</ele><time>2026-04-25T09:43:29.999Z</time></trkpt><trkpt lat="45.55621000475447" lon="9.564164086345924"><ele>137.6</ele><time>2026-04-25T09:43:32Z</time></trkpt><trkpt lat="45.55615236229881" lon="9.56420582073384"><ele>137.20000000000002</ele><time>2026-04-25T09:43:33Z</time></trkpt><trkpt lat="45.55603891610852" lon="9.564284192215469"><ele>136.8</ele><time>2026-04-25T09:43:35Z</time></trkpt><trkpt lat="45.55598323076721" lon="9.564327184680295"><ele>136.4</ele><time>2026-04-25T09:43:36Z</time></trkpt><trkpt lat="45.55586913365744" lon="9.564406243883186"><ele>136.0</ele><time>2026-04-25T09:43:38Z</time></trkpt><trkpt lat="45.55575615770402" lon="9.564482989581453"><ele>136.5</ele><time>2026-04-25T09:43:40Z</time></trkpt><trkpt lat="45.55564274269896" lon="9.56455419844014"><ele>137.0</ele><time>2026-04-25T09:43:42Z</time></trkpt><trkpt lat="45.5555319277118" lon="9.56463371610192"><ele>137.5</ele><time>2026-04-25T09:43:44Z</time></trkpt><trkpt lat="45.5554253292325" lon="9.564721124802254"><ele>138.0</ele><time>2026-04-25T09:43:46Z</time></trkpt><trkpt lat="45.555320641489345" lon="9.564797757975011"><ele>138.0</ele><time>2026-04-25T09:43:48Z</time></trkpt><trkpt lat="45.55526799155468" lon="9.564848262239748"><ele>138.0</ele><time>2026-04-25T09:43:49Z</time></trkpt><trkpt lat="45.555169165156784" lon="9.564951237276707"><ele>138.0</ele><time>2026-04-25T09:43:51Z</time></trkpt><trkpt lat="45.555077766191836" lon="9.56506571999827"><ele>138.0</ele><time>2026-04-25T09:43:53Z</time></trkpt><trkpt lat="45.55499067612271" lon="9.565177229447961"><ele>138.0</ele><time>2026-04-25T09:43:55Z</time></trkpt><trkpt lat="45.55490952211072" lon="9.565294482396961"><ele>138.75</ele><time>2026-04-25T09:43:57Z</time></trkpt><trkpt lat="45.55483134021522" lon="9.56542388216433"><ele>139.5</ele><time>2026-04-25T09:43:59Z</time></trkpt><trkpt lat="45.5547490587259" lon="9.565542117169764"><ele>140.25</ele><time>2026-04-25T09:44:01Z</time></trkpt><trkpt lat="45.55466514719335" lon="9.565664280551834"><ele>141.0</ele><time>2026-04-25T09:44:03Z</time></trkpt><trkpt lat="45.554577720365096" lon="9.565783872703953"><ele>140.0</ele><time>2026-04-25T09:44:05Z</time></trkpt><trkpt lat="45.554481450369785" lon="9.565896239421003"><ele>139.0</ele><time>2026-04-25T09:44:07Z</time></trkpt><trkpt lat="45.55437850963336" lon="9.565996193885358"><ele>138.0</ele><time>2026-04-25T09:44:09Z</time></trkpt><trkpt lat="45.554271246318194" lon="9.56607040716016"><ele>137.0</ele><time>2026-04-25T09:44:11Z</time></trkpt><trkpt lat="45.554162152623604" lon="9.566134213977161"><ele>137.0</ele><time>2026-04-25T09:44:13Z</time></trkpt><trkpt lat="45.55405271865179" lon="9.566182911311785"><ele>137.0</ele><time>2026-04-25T09:44:15Z</time></trkpt><trkpt lat="45.55394260705289" lon="9.56621759233319"><ele>137.0</ele><time>2026-04-25T09:44:17Z</time></trkpt><trkpt lat="45.55384416278557" lon="9.566261531490284"><ele>137.0</ele><time>2026-04-25T09:44:19Z</time></trkpt><trkpt lat="45.55375441720642" lon="9.5663221617988"><ele>137.0</ele><time>2026-04-25T09:44:21Z</time></trkpt><trkpt lat="45.553667698766944" lon="9.566378082867901"><ele>137.66666666666666</ele><time>2026-04-25T09:44:23Z</time></trkpt><trkpt lat="45.5536438024567" lon="9.566475662268088"><ele>138.33333333333331</ele><time>2026-04-25T09:44:26Z</time></trkpt><trkpt lat="45.55364826720911" lon="9.566573686424695"><ele>139.0</ele><time>2026-04-25T09:44:36Z</time></trkpt><trkpt lat="45.5537185699271" lon="9.566576979486745"><ele>139.66666666666666</ele><time>2026-04-25T09:44:41Z</time></trkpt><trkpt lat="45.553733242605546" lon="9.566713666932614"><ele>140.33333333333334</ele><time>2026-04-25T09:44:44Z</time></trkpt><trkpt lat="45.55374550735693" lon="9.566811839307515"><ele>141.0</ele><time>2026-04-25T09:44:46Z</time></trkpt><trkpt lat="45.55376115329225" lon="9.566921457050901"><ele>141.2</ele><time>2026-04-25T09:44:48Z</time></trkpt><trkpt lat="45.5537793974385" lon="9.567037525952191"><ele>141.39999999999998</ele><time>2026-04-25T09:44:50Z</time></trkpt><trkpt lat="45.55380489134648" lon="9.567171419404985"><ele>141.6</ele><time>2026-04-25T09:44:52Z</time></trkpt><trkpt lat="45.553826481970425" lon="9.56731358305555"><ele>141.79999999999998</ele><time>2026-04-25T09:44:54Z</time></trkpt><trkpt lat="45.55384604010457" lon="9.56745993281067"><ele>142.0</ele><time>2026-04-25T09:44:56Z</time></trkpt><trkpt lat="45.55386756921852" lon="9.567614035600213"><ele>142.0</ele><time>2026-04-25T09:44:58.001Z</time></trkpt><trkpt lat="45.55388542441761" lon="9.567758292557267"><ele>142.0</ele><time>2026-04-25T09:45:00.001Z</time></trkpt><trkpt lat="45.55390190792239" lon="9.567892312311736"><ele>142.0</ele><time>2026-04-25T09:45:02.001Z</time></trkpt><trkpt lat="45.55392145095594" lon="9.568017766268131"><ele>142.0</ele><time>2026-04-25T09:45:04.001Z</time></trkpt><trkpt lat="45.55393640049828" lon="9.568141249184459"><ele>142.0</ele><time>2026-04-25T09:45:06.001Z</time></trkpt><trkpt lat="45.55396285857642" lon="9.568271506276108"><ele>141.79999999999998</ele><time>2026-04-25T09:45:08.001Z</time></trkpt><trkpt lat="45.55397932034502" lon="9.568409352190733"><ele>141.6</ele><time>2026-04-25T09:45:10.001Z</time></trkpt><trkpt lat="45.55399192522844" lon="9.568541181758231"><ele>141.39999999999998</ele><time>2026-04-25T09:45:12.001Z</time></trkpt><trkpt lat="45.55401486221676" lon="9.568676192921732"><ele>141.2</ele><time>2026-04-25T09:45:14.001Z</time></trkpt><trkpt lat="45.55403105771518" lon="9.568815124317135"><ele>141.0</ele><time>2026-04-25T09:45:16.001Z</time></trkpt><trkpt lat="45.55405171869986" lon="9.568951136335587"><ele>141.0</ele><time>2026-04-25T09:45:18.001Z</time></trkpt><trkpt lat="45.55407962662937" lon="9.569089086977614"><ele>141.0</ele><time>2026-04-25T09:45:19.999Z</time></trkpt><trkpt lat="45.55409980950488" lon="9.569229441878342"><ele>141.0</ele><time>2026-04-25T09:45:21.999Z</time></trkpt><trkpt lat="45.55412587753798" lon="9.569370655523407"><ele>141.0</ele><time>2026-04-25T09:45:23.999Z</time></trkpt><trkpt lat="45.55414955337694" lon="9.569513538935851"><ele>141.0</ele><time>2026-04-25T09:45:25.999Z</time></trkpt><trkpt lat="45.55417087445287" lon="9.569658484731828"><ele>141.16666666666666</ele><time>2026-04-25T09:45:27.999Z</time></trkpt><trkpt lat="45.554179576743095" lon="9.569803869635411"><ele>141.33333333333334</ele><time>2026-04-25T09:45:29.999Z</time></trkpt><trkpt lat="45.554220366383035" lon="9.569926501922888"><ele>141.5</ele><time>2026-04-25T09:45:31.999Z</time></trkpt><trkpt lat="45.55422984308797" lon="9.570052182469206"><ele>141.66666666666669</ele><time>2026-04-25T09:45:33.999Z</time></trkpt><trkpt lat="45.55425487719414" lon="9.570152060936122"><ele>141.83333333333334</ele><time>2026-04-25T09:45:35.999Z</time></trkpt><trkpt lat="45.55426710619857" lon="9.570244363788253"><ele>142.0</ele><time>2026-04-25T09:45:38Z</time></trkpt><trkpt lat="45.554306312630274" lon="9.5703567132027"><ele>141.83333333333334</ele><time>2026-04-25T09:45:41Z</time></trkpt><trkpt lat="45.55431129883905" lon="9.570457849227713"><ele>141.66666666666669</ele><time>2026-04-25T09:45:45Z</time></trkpt><trkpt lat="45.554334370613276" lon="9.570554370029727"><ele>141.5</ele><time>2026-04-25T09:45:48Z</time></trkpt><trkpt lat="45.554381473141824" lon="9.570669112564554"><ele>141.33333333333334</ele><time>2026-04-25T09:45:51Z</time></trkpt><trkpt lat="45.55443955188596" lon="9.57073700530125"><ele>141.16666666666666</ele><time>2026-04-25T09:45:53Z</time></trkpt><trkpt lat="45.55449935123677" lon="9.570784426533175"><ele>141.0</ele><time>2026-04-25T09:45:55Z</time></trkpt><trkpt lat="45.55457923476162" lon="9.570867077144198"><ele>142.0</ele><time>2026-04-25T09:45:59Z</time></trkpt><trkpt lat="45.55463535610209" lon="9.570916526393939"><ele>143.0</ele><time>2026-04-25T09:46:01Z</time></trkpt><trkpt lat="45.55482619200409" lon="9.570669363992113"><ele>144.0</ele><time>2026-04-25T09:46:04Z</time></trkpt><trkpt lat="45.55491005813427" lon="9.570677592593468"><ele>145.0</ele><time>2026-04-25T09:46:06Z</time></trkpt><trkpt lat="45.554989018862535" lon="9.570662014952482"><ele>145.0</ele><time>2026-04-25T09:46:08Z</time></trkpt><trkpt lat="45.555059856646444" lon="9.570641297790278"><ele>145.0</ele><time>2026-04-25T09:46:10Z</time></trkpt><trkpt lat="45.55513051461664" lon="9.570613554085215"><ele>145.0</ele><time>2026-04-25T09:46:12Z</time></trkpt><trkpt lat="45.55520074324852" lon="9.570625161253053"><ele>145.0</ele><time>2026-04-25T09:46:14Z</time></trkpt><trkpt lat="45.55528036983716" lon="9.570633736710487"><ele>145.0</ele><time>2026-04-25T09:46:17Z</time></trkpt><trkpt lat="45.55525882960935" lon="9.570722274863135"><ele>145.0</ele><time>2026-04-25T09:46:25Z</time></trkpt><trkpt lat="45.55516792606819" lon="9.5708190467304"><ele>145.0</ele><time>2026-04-25T09:46:30Z</time></trkpt><trkpt lat="45.55516682469079" lon="9.57092598036048"><ele>145.0</ele><time>2026-04-25T09:46:52Z</time></trkpt><trkpt lat="45.555169093589285" lon="9.571020117873244"><ele>145.0</ele><time>2026-04-25T09:46:55Z</time></trkpt><trkpt lat="45.555177991962694" lon="9.571111356060166"><ele>145.0</ele><time>2026-04-25T09:46:58Z</time></trkpt><trkpt lat="45.55515812783803" lon="9.571227104098602"><ele>145.0</ele><time>2026-04-25T09:47:01.001Z</time></trkpt><trkpt lat="45.555137760417885" lon="9.571335034032254"><ele>145.0</ele><time>2026-04-25T09:47:04.001Z</time></trkpt><trkpt lat="45.555113221554365" lon="9.571425874801395"><ele>145.0</ele><time>2026-04-25T09:47:06.001Z</time></trkpt><trkpt lat="45.55507956260781" lon="9.571541524424342"><ele>145.0</ele><time>2026-04-25T09:47:09.002Z</time></trkpt><trkpt lat="45.55506041592357" lon="9.571628882504127"><ele>145.0</ele><time>2026-04-25T09:47:11.002Z</time></trkpt><trkpt lat="45.55500505284435" lon="9.571725745182409"><ele>145.0</ele><time>2026-04-25T09:47:14.002Z</time></trkpt><trkpt lat="45.55497461699804" lon="9.57181020207484"><ele>145.0</ele><time>2026-04-25T09:47:16.002Z</time></trkpt><trkpt lat="45.55493833181374" lon="9.571885343918796"><ele>145.0</ele><time>2026-04-25T09:47:18.002Z</time></trkpt><trkpt lat="45.55489046588852" lon="9.571997290650616"><ele>145.0</ele><time>2026-04-25T09:47:21.002Z</time></trkpt><trkpt lat="45.554839056308545" lon="9.572098550313898"><ele>144.71428571428572</ele><time>2026-04-25T09:47:24.002Z</time></trkpt><trkpt lat="45.554789085347295" lon="9.5721841307724"><ele>144.42857142857144</ele><time>2026-04-25T09:47:27.001Z</time></trkpt><trkpt lat="45.554707571177914" lon="9.572273358777235"><ele>144.14285714285714</ele><time>2026-04-25T09:47:30.001Z</time></trkpt><trkpt lat="45.55464895568465" lon="9.572315123997361"><ele>143.85714285714286</ele><time>2026-04-25T09:47:32.001Z</time></trkpt><trkpt lat="45.55460898218357" lon="9.572387008501945"><ele>143.57142857142856</ele><time>2026-04-25T09:47:34.001Z</time></trkpt><trkpt lat="45.554555042595766" lon="9.572445331144529"><ele>143.28571428571428</ele><time>2026-04-25T09:47:36.001Z</time></trkpt><trkpt lat="45.55451807238334" lon="9.572524839084403"><ele>143.0</ele><time>2026-04-25T09:47:38.001Z</time></trkpt><trkpt lat="45.55446318633279" lon="9.572586360687247"><ele>142.8</ele><time>2026-04-25T09:47:40.001Z</time></trkpt><trkpt lat="45.55439108809267" lon="9.572637706067482"><ele>142.60000000000002</ele><time>2026-04-25T09:47:43.001Z</time></trkpt><trkpt lat="45.55431067151871" lon="9.572720870659099"><ele>142.39999999999998</ele><time>2026-04-25T09:47:46.001Z</time></trkpt><trkpt lat="45.55423416655923" lon="9.57278743695536"><ele>142.2</ele><time>2026-04-25T09:47:48.001Z</time></trkpt><trkpt lat="45.5541407881917" lon="9.572857708903463"><ele>142.0</ele><time>2026-04-25T09:47:50.001Z</time></trkpt><trkpt lat="45.55405292237462" lon="9.572923197539467"><ele>142.0</ele><time>2026-04-25T09:47:52.001Z</time></trkpt><trkpt lat="45.55396306405034" lon="9.572984323915854"><ele>142.0</ele><time>2026-04-25T09:47:54.001Z</time></trkpt><trkpt lat="45.55386835176988" lon="9.573045250119904"><ele>142.0</ele><time>2026-04-25T09:47:56.001Z</time></trkpt><trkpt lat="45.553773588762674" lon="9.573124906093247"><ele>142.0</ele><time>2026-04-25T09:47:58.001Z</time></trkpt><trkpt lat="45.55368129015352" lon="9.57318313166186"><ele>142.0</ele><time>2026-04-25T09:48:00.001Z</time></trkpt><trkpt lat="45.55359183534101" lon="9.573237190080484"><ele>141.6</ele><time>2026-04-25T09:48:02.001Z</time></trkpt><trkpt lat="45.55349454234058" lon="9.573268855503168"><ele>141.2</ele><time>2026-04-25T09:48:04.001Z</time></trkpt><trkpt lat="45.55340052533832" lon="9.573320402010678"><ele>140.8</ele><time>2026-04-25T09:48:06.001Z</time></trkpt><trkpt lat="45.55330751329271" lon="9.573371870966247"><ele>140.4</ele><time>2026-04-25T09:48:08.001Z</time></trkpt><trkpt lat="45.55321686568796" lon="9.573427170617393"><ele>140.0</ele><time>2026-04-25T09:48:10.001Z</time></trkpt><trkpt lat="45.55312887097268" lon="9.573482851756987"><ele>140.0</ele><time>2026-04-25T09:48:12.001Z</time></trkpt><trkpt lat="45.553037870193464" lon="9.573527993142848"><ele>140.0</ele><time>2026-04-25T09:48:14.001Z</time></trkpt><trkpt lat="45.552959408327844" lon="9.573579387195513"><ele>140.0</ele><time>2026-04-25T09:48:16.001Z</time></trkpt><trkpt lat="45.5529018356839" lon="9.573631512399485"><ele>140.0</ele><time>2026-04-25T09:48:18.001Z</time></trkpt><trkpt lat="45.55286399952346" lon="9.573758019616443"><ele>140.0</ele><time>2026-04-25T09:48:20.001Z</time></trkpt><trkpt lat="45.55282572972769" lon="9.573869801544344"><ele>140.0</ele><time>2026-04-25T09:48:22.001Z</time></trkpt><trkpt lat="45.55278331601825" lon="9.573980301021168"><ele>140.2</ele><time>2026-04-25T09:48:24.001Z</time></trkpt><trkpt lat="45.552731470382554" lon="9.57411322818616"><ele>140.4</ele><time>2026-04-25T09:48:26.001Z</time></trkpt><trkpt lat="45.552687722522585" lon="9.574230050710147"><ele>140.6</ele><time>2026-04-25T09:48:28.001Z</time></trkpt><trkpt lat="45.552649420291964" lon="9.574354517061012"><ele>140.8</ele><time>2026-04-25T09:48:30.001Z</time></trkpt><trkpt lat="45.55263704972275" lon="9.574481995506353"><ele>141.0</ele><time>2026-04-25T09:48:32.001Z</time></trkpt><trkpt lat="45.55264366895351" lon="9.574613314735021"><ele>141.2</ele><time>2026-04-25T09:48:34.001Z</time></trkpt><trkpt lat="45.55265988087441" lon="9.574745429292632"><ele>141.39999999999998</ele><time>2026-04-25T09:48:36.001Z</time></trkpt><trkpt lat="45.55266229388703" lon="9.574871716468802"><ele>141.6</ele><time>2026-04-25T09:48:38.001Z</time></trkpt><trkpt lat="45.55267126860006" lon="9.57501115668063"><ele>141.79999999999998</ele><time>2026-04-25T09:48:40.001Z</time></trkpt><trkpt lat="45.552686539602774" lon="9.575147600401447"><ele>142.0</ele><time>2026-04-25T09:48:42.001Z</time></trkpt><trkpt lat="45.55269295877027" lon="9.575287340590805"><ele>141.79999999999998</ele><time>2026-04-25T09:48:44.001Z</time></trkpt><trkpt lat="45.552706348438115" lon="9.575424530956612"><ele>141.6</ele><time>2026-04-25T09:48:46.001Z</time></trkpt><trkpt lat="45.55271327045824" lon="9.575560113423021"><ele>141.39999999999998</ele><time>2026-04-25T09:48:48.001Z</time></trkpt><trkpt lat="45.55272951845387" lon="9.575691961492938"><ele>141.2</ele><time>2026-04-25T09:48:50.001Z</time></trkpt><trkpt lat="45.55273881724693" lon="9.575825048907989"><ele>141.0</ele><time>2026-04-25T09:48:52.001Z</time></trkpt><trkpt lat="45.55274787171428" lon="9.575953998146518"><ele>141.0</ele><time>2026-04-25T09:48:54.001Z</time></trkpt><trkpt lat="45.55275740813894" lon="9.57608078411945"><ele>141.0</ele><time>2026-04-25T09:48:56.001Z</time></trkpt><trkpt lat="45.55276784629807" lon="9.576194904866792"><ele>141.0</ele><time>2026-04-25T09:48:58.001Z</time></trkpt><trkpt lat="45.552780602897016" lon="9.576305073707477"><ele>141.0</ele><time>2026-04-25T09:49:00.001Z</time></trkpt><trkpt lat="45.552729943997925" lon="9.576406381817094"><ele>141.0</ele><time>2026-04-25T09:49:03.001Z</time></trkpt><trkpt lat="45.55265546358197" lon="9.576434391103723"><ele>141.0</ele><time>2026-04-25T09:49:05.002Z</time></trkpt><trkpt lat="45.552576735921306" lon="9.576465182555612"><ele>141.0</ele><time>2026-04-25T09:49:07.002Z</time></trkpt><trkpt lat="45.5524904352372" lon="9.57647615385835"><ele>141.0</ele><time>2026-04-25T09:49:09.002Z</time></trkpt><trkpt lat="45.55240467253656" lon="9.576496800826641"><ele>141.0</ele><time>2026-04-25T09:49:11.002Z</time></trkpt><trkpt lat="45.55231789822076" lon="9.57652193726455"><ele>141.0</ele><time>2026-04-25T09:49:13.002Z</time></trkpt><trkpt lat="45.55223346127226" lon="9.576543049581643"><ele>141.0</ele><time>2026-04-25T09:49:15.002Z</time></trkpt><trkpt lat="45.5521528409631" lon="9.576571004185842"><ele>141.0</ele><time>2026-04-25T09:49:17.002Z</time></trkpt><trkpt lat="45.55207168467968" lon="9.576598926527247"><ele>140.83333333333334</ele><time>2026-04-25T09:49:19.002Z</time></trkpt><trkpt lat="45.55199808420934" lon="9.576631221938289"><ele>140.66666666666666</ele><time>2026-04-25T09:49:21.002Z</time></trkpt><trkpt lat="45.551927442073236" lon="9.576651543458473"><ele>140.5</ele><time>2026-04-25T09:49:23.002Z</time></trkpt><trkpt lat="45.55185324267309" lon="9.576676889162977"><ele>140.33333333333331</ele><time>2026-04-25T09:49:25.002Z</time></trkpt><trkpt lat="45.55177316005549" lon="9.576695948358878"><ele>140.16666666666666</ele><time>2026-04-25T09:49:27.002Z</time></trkpt><trkpt lat="45.55169164080269" lon="9.576715415374435"><ele>140.0</ele><time>2026-04-25T09:49:29.002Z</time></trkpt><trkpt lat="45.55160950044795" lon="9.57672716928292"><ele>140.0</ele><time>2026-04-25T09:49:31.001Z</time></trkpt><trkpt lat="45.55153020739024" lon="9.576762061261784"><ele>140.0</ele><time>2026-04-25T09:49:33.001Z</time></trkpt><trkpt lat="45.55145709937996" lon="9.576817742479578"><ele>140.0</ele><time>2026-04-25T09:49:35.001Z</time></trkpt><trkpt lat="45.551374371918925" lon="9.57686434093554"><ele>140.0</ele><time>2026-04-25T09:49:37.001Z</time></trkpt><trkpt lat="45.55127238616326" lon="9.576880460919822"><ele>140.0</ele><time>2026-04-25T09:49:39.001Z</time></trkpt><trkpt lat="45.55117577963414" lon="9.576909138883973"><ele>140.2</ele><time>2026-04-25T09:49:41.001Z</time></trkpt><trkpt lat="45.55108207308113" lon="9.576927860690944"><ele>140.4</ele><time>2026-04-25T09:49:43.001Z</time></trkpt><trkpt lat="45.55098990352508" lon="9.576917432201888"><ele>140.6</ele><time>2026-04-25T09:49:45.001Z</time></trkpt><trkpt lat="45.55089414226479" lon="9.576956163892689"><ele>140.8</ele><time>2026-04-25T09:49:47.001Z</time></trkpt><trkpt lat="45.55081031977744" lon="9.576980209381459"><ele>141.0</ele><time>2026-04-25T09:49:49.001Z</time></trkpt><trkpt lat="45.55073319306793" lon="9.576998869861953"><ele>141.16666666666666</ele><time>2026-04-25T09:49:51.001Z</time></trkpt><trkpt lat="45.550665058862286" lon="9.577021793730488"><ele>141.33333333333334</ele><time>2026-04-25T09:49:53.001Z</time></trkpt><trkpt lat="45.55058644884867" lon="9.57702960854795"><ele>141.5</ele><time>2026-04-25T09:49:55.001Z</time></trkpt><trkpt lat="45.550504771348294" lon="9.577050580525226"><ele>141.66666666666669</ele><time>2026-04-25T09:49:57.001Z</time></trkpt><trkpt lat="45.550418825691104" lon="9.577070834531021"><ele>141.83333333333334</ele><time>2026-04-25T09:49:59.001Z</time></trkpt><trkpt lat="45.550330927789325" lon="9.57709662186672"><ele>142.0</ele><time>2026-04-25T09:50:01.001Z</time></trkpt><trkpt lat="45.55023581889122" lon="9.57711578375965"><ele>142.0</ele><time>2026-04-25T09:50:03.001Z</time></trkpt><trkpt lat="45.55014226603022" lon="9.577141221356833"><ele>142.0</ele><time>2026-04-25T09:50:05.001Z</time></trkpt><trkpt lat="45.550048948164545" lon="9.577170496903882"><ele>142.0</ele><time>2026-04-25T09:50:07.001Z</time></trkpt><trkpt lat="45.549956303736465" lon="9.577202457753831"><ele>142.0</ele><time>2026-04-25T09:50:09.001Z</time></trkpt><trkpt lat="45.54986164056304" lon="9.5772377662246"><ele>142.0</ele><time>2026-04-25T09:50:11.001Z</time></trkpt><trkpt lat="45.549767549020345" lon="9.577267327448636"><ele>142.0</ele><time>2026-04-25T09:50:13.001Z</time></trkpt><trkpt lat="45.54966770602762" lon="9.577298057575408"><ele>142.0</ele><time>2026-04-25T09:50:15.001Z</time></trkpt><trkpt lat="45.54956815945592" lon="9.577334317765734"><ele>142.0</ele><time>2026-04-25T09:50:17.001Z</time></trkpt><trkpt lat="45.54946889457791" lon="9.577356803192501"><ele>142.0</ele><time>2026-04-25T09:50:19.001Z</time></trkpt><trkpt lat="45.54936453281475" lon="9.577381629454111"><ele>142.0</ele><time>2026-04-25T09:50:21.001Z</time></trkpt><trkpt lat="45.54925715829374" lon="9.577407334856195"><ele>141.4</ele><time>2026-04-25T09:50:23.001Z</time></trkpt><trkpt lat="45.54915195532774" lon="9.577440292498137"><ele>140.79999999999998</ele><time>2026-04-25T09:50:25.001Z</time></trkpt><trkpt lat="45.54904479483011" lon="9.577463882184718"><ele>140.2</ele><time>2026-04-25T09:50:27.001Z</time></trkpt><trkpt lat="45.54893877177738" lon="9.57749994612007"><ele>139.6</ele><time>2026-04-25T09:50:29.001Z</time></trkpt><trkpt lat="45.54883202993667" lon="9.577526847296363"><ele>139.0</ele><time>2026-04-25T09:50:31.001Z</time></trkpt><trkpt lat="45.54872678433459" lon="9.577558941309418"><ele>138.5</ele><time>2026-04-25T09:50:33.001Z</time></trkpt><trkpt lat="45.54861670138501" lon="9.577593421130276"><ele>138.0</ele><time>2026-04-25T09:50:35.001Z</time></trkpt><trkpt lat="45.54850936347933" lon="9.577624539250612"><ele>137.5</ele><time>2026-04-25T09:50:37.001Z</time></trkpt><trkpt lat="45.548398433643136" lon="9.57764996695078"><ele>137.0</ele><time>2026-04-25T09:50:39.001Z</time></trkpt><trkpt lat="45.54828634692572" lon="9.577690387907333"><ele>137.0</ele><time>2026-04-25T09:50:41.001Z</time></trkpt><trkpt lat="45.54818184433129" lon="9.577719195371392"><ele>137.0</ele><time>2026-04-25T09:50:43.001Z</time></trkpt><trkpt lat="45.54809556445159" lon="9.577754256255652"><ele>137.0</ele><time>2026-04-25T09:50:45.001Z</time></trkpt><trkpt lat="45.54797378335917" lon="9.577777895237565"><ele>137.0</ele><time>2026-04-25T09:50:47.001Z</time></trkpt><trkpt lat="45.5478689704096" lon="9.57780885574989"><ele>137.0</ele><time>2026-04-25T09:50:49.001Z</time></trkpt><trkpt lat="45.547764901927984" lon="9.57783924758211"><ele>136.6</ele><time>2026-04-25T09:50:51.001Z</time></trkpt><trkpt lat="45.54766536213774" lon="9.577865739370871"><ele>136.2</ele><time>2026-04-25T09:50:53.001Z</time></trkpt><trkpt lat="45.54755690661718" lon="9.577896923456843"><ele>135.8</ele><time>2026-04-25T09:50:55.001Z</time></trkpt><trkpt lat="45.54744971982842" lon="9.577931029005773"><ele>135.4</ele><time>2026-04-25T09:50:57.001Z</time></trkpt><trkpt lat="45.54734103932654" lon="9.577950679347113"><ele>135.0</ele><time>2026-04-25T09:50:59.001Z</time></trkpt><trkpt lat="45.54723422453357" lon="9.577988224704793"><ele>135.0</ele><time>2026-04-25T09:51:01.001Z</time></trkpt><trkpt lat="45.54712883547713" lon="9.578016944288242"><ele>135.0</ele><time>2026-04-25T09:51:03.001Z</time></trkpt><trkpt lat="45.547021819048084" lon="9.578045512710112"><ele>135.0</ele><time>2026-04-25T09:51:05.002Z</time></trkpt><trkpt lat="45.5469127408524" lon="9.578079977184338"><ele>135.0</ele><time>2026-04-25T09:51:07.002Z</time></trkpt><trkpt lat="45.54680233894175" lon="9.578111235690148"><ele>135.0</ele><time>2026-04-25T09:51:09.002Z</time></trkpt><trkpt lat="45.54669465406597" lon="9.578146387416934"><ele>135.2</ele><time>2026-04-25T09:51:11.002Z</time></trkpt><trkpt lat="45.546588908008175" lon="9.578178374560409"><ele>135.4</ele><time>2026-04-25T09:51:13.002Z</time></trkpt><trkpt lat="45.54648250396417" lon="9.578211411198822"><ele>135.6</ele><time>2026-04-25T09:51:15.002Z</time></trkpt><trkpt lat="45.546377384570405" lon="9.578246129669767"><ele>135.8</ele><time>2026-04-25T09:51:17.002Z</time></trkpt><trkpt lat="45.546270906919084" lon="9.578278958659002"><ele>136.0</ele><time>2026-04-25T09:51:19.002Z</time></trkpt><trkpt lat="45.546158771399185" lon="9.578306399064573"><ele>136.0</ele><time>2026-04-25T09:51:21.002Z</time></trkpt><trkpt lat="45.54604684620468" lon="9.57833614621394"><ele>136.0</ele><time>2026-04-25T09:51:23.002Z</time></trkpt><trkpt lat="45.5459399288359" lon="9.578372250707048"><ele>136.0</ele><time>2026-04-25T09:51:25.002Z</time></trkpt><trkpt lat="45.54583970571921" lon="9.578404223660815"><ele>136.0</ele><time>2026-04-25T09:51:27.002Z</time></trkpt><trkpt lat="45.545741616898674" lon="9.578415310157428"><ele>136.0</ele><time>2026-04-25T09:51:29.002Z</time></trkpt><trkpt lat="45.54564165245354" lon="9.578443033161822"><ele>136.0</ele><time>2026-04-25T09:51:31.002Z</time></trkpt><trkpt lat="45.54554543813858" lon="9.578474643942979"><ele>136.0</ele><time>2026-04-25T09:51:33.002Z</time></trkpt><trkpt lat="45.545455847527016" lon="9.578492752504124"><ele>136.0</ele><time>2026-04-25T09:51:35.002Z</time></trkpt><trkpt lat="45.54537213190141" lon="9.57851513881145"><ele>136.0</ele><time>2026-04-25T09:51:37.001Z</time></trkpt><trkpt lat="45.545288571250545" lon="9.57854599261158"><ele>136.0</ele><time>2026-04-25T09:51:39.001Z</time></trkpt><trkpt lat="45.54520197536977" lon="9.578572423519844"><ele>136.0</ele><time>2026-04-25T09:51:41.001Z</time></trkpt><trkpt lat="45.5451107218816" lon="9.578598523945638"><ele>135.8</ele><time>2026-04-25T09:51:43.001Z</time></trkpt><trkpt lat="45.54501640523134" lon="9.578620554755751"><ele>135.6</ele><time>2026-04-25T09:51:45.001Z</time></trkpt><trkpt lat="45.54492592094424" lon="9.578646417329086"><ele>135.4</ele><time>2026-04-25T09:51:47.001Z</time></trkpt><trkpt lat="45.54483410942582" lon="9.578679213124438"><ele>135.2</ele><time>2026-04-25T09:51:49.001Z</time></trkpt><trkpt lat="45.54474281134985" lon="9.57870402200857"><ele>135.0</ele><time>2026-04-25T09:51:51.001Z</time></trkpt><trkpt lat="45.544648803421936" lon="9.578729011539536"><ele>135.0</ele><time>2026-04-25T09:51:53.001Z</time></trkpt><trkpt lat="45.544562265503664" lon="9.57875617402727"><ele>135.0</ele><time>2026-04-25T09:51:55.001Z</time></trkpt><trkpt lat="45.5444723206699" lon="9.578785597583206"><ele>135.0</ele><time>2026-04-25T09:51:57.001Z</time></trkpt><trkpt lat="45.54438126962257" lon="9.578802336995125"><ele>135.0</ele><time>2026-04-25T09:51:59.001Z</time></trkpt><trkpt lat="45.544286499103436" lon="9.578832414462587"><ele>135.0</ele><time>2026-04-25T09:52:01.001Z</time></trkpt><trkpt lat="45.54419241985639" lon="9.578866825342779"><ele>135.0</ele><time>2026-04-25T09:52:03.001Z</time></trkpt><trkpt lat="45.544097481922655" lon="9.57888845078421"><ele>135.0</ele><time>2026-04-25T09:52:05.001Z</time></trkpt><trkpt lat="45.544002626220184" lon="9.578924159110658"><ele>135.0</ele><time>2026-04-25T09:52:07.001Z</time></trkpt><trkpt lat="45.543903105947614" lon="9.578951674281527"><ele>135.0</ele><time>2026-04-25T09:52:09.001Z</time></trkpt><trkpt lat="45.54380384731438" lon="9.578979740547492"><ele>135.0</ele><time>2026-04-25T09:52:11.001Z</time></trkpt><trkpt lat="45.543705380751355" lon="9.578998210558693"><ele>135.2</ele><time>2026-04-25T09:52:13.001Z</time></trkpt><trkpt lat="45.543612887425" lon="9.579028848083233"><ele>135.4</ele><time>2026-04-25T09:52:15.001Z</time></trkpt><trkpt lat="45.54351529685835" lon="9.579062171289726"><ele>135.6</ele><time>2026-04-25T09:52:17.001Z</time></trkpt><trkpt lat="45.54341768329604" lon="9.579088532018861"><ele>135.8</ele><time>2026-04-25T09:52:19.001Z</time></trkpt><trkpt lat="45.54332292699443" lon="9.579112528638866"><ele>136.0</ele><time>2026-04-25T09:52:21.001Z</time></trkpt><trkpt lat="45.54322601651623" lon="9.579138054495909"><ele>136.0</ele><time>2026-04-25T09:52:23.001Z</time></trkpt><trkpt lat="45.54312898884853" lon="9.579168760346684"><ele>136.0</ele><time>2026-04-25T09:52:25.001Z</time></trkpt><trkpt lat="45.54303441734678" lon="9.579197157665922"><ele>136.0</ele><time>2026-04-25T09:52:27.001Z</time></trkpt><trkpt lat="45.542938674174934" lon="9.579222079387135"><ele>136.0</ele><time>2026-04-25T09:52:29.001Z</time></trkpt><trkpt lat="45.542841731300584" lon="9.579247309516031"><ele>136.0</ele><time>2026-04-25T09:52:31.001Z</time></trkpt><trkpt lat="45.542743391996275" lon="9.579277921332137"><ele>135.8</ele><time>2026-04-25T09:52:33.001Z</time></trkpt><trkpt lat="45.5426453417954" lon="9.579308544821698"><ele>135.6</ele><time>2026-04-25T09:52:35.001Z</time></trkpt><trkpt lat="45.542545790236105" lon="9.579345005900054"><ele>135.4</ele><time>2026-04-25T09:52:37.001Z</time></trkpt><trkpt lat="45.54244333401953" lon="9.57936649293573"><ele>135.2</ele><time>2026-04-25T09:52:39.001Z</time></trkpt><trkpt lat="45.54234410226518" lon="9.579397077870679"><ele>135.0</ele><time>2026-04-25T09:52:41.001Z</time></trkpt><trkpt lat="45.54224417569288" lon="9.579427334544958"><ele>135.0</ele><time>2026-04-25T09:52:43.001Z</time></trkpt><trkpt lat="45.54214383066631" lon="9.579458648993437"><ele>135.0</ele><time>2026-04-25T09:52:45.001Z</time></trkpt><trkpt lat="45.54204344804455" lon="9.579489191841098"><ele>135.0</ele><time>2026-04-25T09:52:47.001Z</time></trkpt><trkpt lat="45.541945926152906" lon="9.57952896995614"><ele>135.0</ele><time>2026-04-25T09:52:49.001Z</time></trkpt><trkpt lat="45.54184711642638" lon="9.579548675854607"><ele>135.0</ele><time>2026-04-25T09:52:51.001Z</time></trkpt><trkpt lat="45.541747612715604" lon="9.579569134780488"><ele>135.0</ele><time>2026-04-25T09:52:53.001Z</time></trkpt><trkpt lat="45.54164717267486" lon="9.579597937149245"><ele>135.0</ele><time>2026-04-25T09:52:55.001Z</time></trkpt><trkpt lat="45.54154908313789" lon="9.579631219457966"><ele>135.0</ele><time>2026-04-25T09:52:57.001Z</time></trkpt><trkpt lat="45.54144989147921" lon="9.579658691118158"><ele>135.0</ele><time>2026-04-25T09:52:59.001Z</time></trkpt><trkpt lat="45.54134838161846" lon="9.57968570821952"><ele>135.0</ele><time>2026-04-25T09:53:01.001Z</time></trkpt><trkpt lat="45.54124957704137" lon="9.579715111372819"><ele>135.0</ele><time>2026-04-25T09:53:03.001Z</time></trkpt><trkpt lat="45.54114927866668" lon="9.579744280568153"><ele>135.0</ele><time>2026-04-25T09:53:05.001Z</time></trkpt><trkpt lat="45.541048076468144" lon="9.579781141602993"><ele>135.0</ele><time>2026-04-25T09:53:07.001Z</time></trkpt><trkpt lat="45.54095282540472" lon="9.579812582145765"><ele>135.0</ele><time>2026-04-25T09:53:09.001Z</time></trkpt><trkpt lat="45.54086079725904" lon="9.57984167677592"><ele>135.0</ele><time>2026-04-25T09:53:11.001Z</time></trkpt><trkpt lat="45.540773029527834" lon="9.579866066015159"><ele>135.0</ele><time>2026-04-25T09:53:13.001Z</time></trkpt><trkpt lat="45.54068700911005" lon="9.579892206048862"><ele>135.0</ele><time>2026-04-25T09:53:15.001Z</time></trkpt><trkpt lat="45.5406072369294" lon="9.579904674414081"><ele>135.0</ele><time>2026-04-25T09:53:17.002Z</time></trkpt><trkpt lat="45.540544067104875" lon="9.579834021425716"><ele>135.0</ele><time>2026-04-25T09:53:19.002Z</time></trkpt><trkpt lat="45.54052664569919" lon="9.579722466234461"><ele>135.0</ele><time>2026-04-25T09:53:21.002Z</time></trkpt><trkpt lat="45.54050378279788" lon="9.57961357246888"><ele>135.0</ele><time>2026-04-25T09:53:23.002Z</time></trkpt><trkpt lat="45.540491841505286" lon="9.579498325154256"><ele>134.83333333333334</ele><time>2026-04-25T09:53:25.002Z</time></trkpt><trkpt lat="45.540476491676955" lon="9.579389022617699"><ele>134.66666666666666</ele><time>2026-04-25T09:53:27.002Z</time></trkpt><trkpt lat="45.54045765710259" lon="9.57927563241863"><ele>134.5</ele><time>2026-04-25T09:53:29.002Z</time></trkpt><trkpt lat="45.5404405590444" lon="9.579154327341879"><ele>134.33333333333331</ele><time>2026-04-25T09:53:31.002Z</time></trkpt><trkpt lat="45.540420418508226" lon="9.579024403619528"><ele>134.16666666666666</ele><time>2026-04-25T09:53:33.002Z</time></trkpt><trkpt lat="45.54040395498777" lon="9.578897413093461"><ele>134.0</ele><time>2026-04-25T09:53:35.002Z</time></trkpt><trkpt lat="45.54038708030834" lon="9.578764927541464"><ele>134.2</ele><time>2026-04-25T09:53:37.002Z</time></trkpt><trkpt lat="45.540367941646934" lon="9.578639726575542"><ele>134.4</ele><time>2026-04-25T09:53:39.002Z</time></trkpt><trkpt lat="45.54033449187237" lon="9.578520056564665"><ele>134.6</ele><time>2026-04-25T09:53:41.002Z</time></trkpt><trkpt lat="45.54032791109422" lon="9.578385825878328"><ele>134.8</ele><time>2026-04-25T09:53:43.001Z</time></trkpt><trkpt lat="45.54031389260017" lon="9.578237149613448"><ele>135.0</ele><time>2026-04-25T09:53:45.001Z</time></trkpt><trkpt lat="45.54028709462263" lon="9.578079827706306"><ele>135.0</ele><time>2026-04-25T09:53:47.001Z</time></trkpt><trkpt lat="45.54026715783935" lon="9.577922732398614"><ele>135.0</ele><time>2026-04-25T09:53:49.001Z</time></trkpt><trkpt lat="45.54024404178472" lon="9.577771220619107"><ele>135.0</ele><time>2026-04-25T09:53:51.001Z</time></trkpt><trkpt lat="45.54022098339031" lon="9.577622306464228"><ele>135.0</ele><time>2026-04-25T09:53:53.001Z</time></trkpt><trkpt lat="45.54020804876244" lon="9.577489579799028"><ele>135.0</ele><time>2026-04-25T09:53:55.001Z</time></trkpt><trkpt lat="45.5401960072802" lon="9.577340673316028"><ele>135.0</ele><time>2026-04-25T09:53:57.001Z</time></trkpt><trkpt lat="45.54017227024801" lon="9.577207586773438"><ele>135.0</ele><time>2026-04-25T09:53:59.001Z</time></trkpt><trkpt lat="45.540159709938926" lon="9.577063648241042"><ele>135.0</ele><time>2026-04-25T09:54:01.001Z</time></trkpt><trkpt lat="45.54014799035695" lon="9.57691848372142"><ele>135.0</ele><time>2026-04-25T09:54:03.001Z</time></trkpt><trkpt lat="45.540132312684" lon="9.576775087970764"><ele>135.0</ele><time>2026-04-25T09:54:05.001Z</time></trkpt><trkpt lat="45.54012784095275" lon="9.576627541549094"><ele>135.0</ele><time>2026-04-25T09:54:07.001Z</time></trkpt><trkpt lat="45.540115279850006" lon="9.576478023321364"><ele>135.0</ele><time>2026-04-25T09:54:09.001Z</time></trkpt><trkpt lat="45.540103406040146" lon="9.576326344284576"><ele>135.0</ele><time>2026-04-25T09:54:11.001Z</time></trkpt><trkpt lat="45.54009045121705" lon="9.576176140253324"><ele>135.0</ele><time>2026-04-25T09:54:13.001Z</time></trkpt><trkpt lat="45.54007079913195" lon="9.576028685974922"><ele>135.0</ele><time>2026-04-25T09:54:15.001Z</time></trkpt><trkpt lat="45.54005562008388" lon="9.575885201231173"><ele>135.0</ele><time>2026-04-25T09:54:17.001Z</time></trkpt><trkpt lat="45.54003949511672" lon="9.57574372353318"><ele>135.0</ele><time>2026-04-25T09:54:19.001Z</time></trkpt><trkpt lat="45.54002118687231" lon="9.575602762800933"><ele>135.0</ele><time>2026-04-25T09:54:21.001Z</time></trkpt><trkpt lat="45.53999690841661" lon="9.575458070132102"><ele>135.0</ele><time>2026-04-25T09:54:23.001Z</time></trkpt><trkpt lat="45.5399639956685" lon="9.575316189703594"><ele>135.0</ele><time>2026-04-25T09:54:25.001Z</time></trkpt><trkpt lat="45.53994191465564" lon="9.575175543735686"><ele>135.0</ele><time>2026-04-25T09:54:27.001Z</time></trkpt><trkpt lat="45.53992161733909" lon="9.575027550796355"><ele>135.0</ele><time>2026-04-25T09:54:29.001Z</time></trkpt><trkpt lat="45.53992272462372" lon="9.574880533642716"><ele>135.0</ele><time>2026-04-25T09:54:31.001Z</time></trkpt><trkpt lat="45.539950631592696" lon="9.574744186182144"><ele>135.0</ele><time>2026-04-25T09:54:33.001Z</time></trkpt><trkpt lat="45.53998456335379" lon="9.574639456725068"><ele>135.0</ele><time>2026-04-25T09:54:35.001Z</time></trkpt><trkpt lat="45.5400313239023" lon="9.574528935687406"><ele>135.0</ele><time>2026-04-25T09:54:38.001Z</time></trkpt><trkpt lat="45.540066605255134" lon="9.574402778222698"><ele>135.0</ele><time>2026-04-25T09:54:41.001Z</time></trkpt><trkpt lat="45.540098522793485" lon="9.57427624279432"><ele>135.0</ele><time>2026-04-25T09:54:44.001Z</time></trkpt><trkpt lat="45.540114855097656" lon="9.574182162457255"><ele>135.0</ele><time>2026-04-25T09:54:47.001Z</time></trkpt><trkpt lat="45.540050845874156" lon="9.57411161862268"><ele>135.0</ele><time>2026-04-25T09:54:53.001Z</time></trkpt><trkpt lat="45.53998870815926" lon="9.574096971114788"><ele>135.0</ele><time>2026-04-25T09:54:55.001Z</time></trkpt><trkpt lat="45.53995989209762" lon="9.574001566492425"><ele>135.0</ele><time>2026-04-25T09:54:57.001Z</time></trkpt><trkpt lat="45.54001970776722" lon="9.573905705002351"><ele>135.0</ele><time>2026-04-25T09:54:59.001Z</time></trkpt><trkpt lat="45.540062328771384" lon="9.5738005227688"><ele>135.0</ele><time>2026-04-25T09:55:01.001Z</time></trkpt><trkpt lat="45.54010400710812" lon="9.573698047313796"><ele>135.0</ele><time>2026-04-25T09:55:03.001Z</time></trkpt><trkpt lat="45.540127438187554" lon="9.573595735860893"><ele>135.0</ele><time>2026-04-25T09:55:05.001Z</time></trkpt><trkpt lat="45.54015697358043" lon="9.573501185412248"><ele>135.0</ele><time>2026-04-25T09:55:07.001Z</time></trkpt><trkpt lat="45.54018624858341" lon="9.573403156771791"><ele>135.0</ele><time>2026-04-25T09:55:09.001Z</time></trkpt><trkpt lat="45.54022418847857" lon="9.573305718113698"><ele>135.0</ele><time>2026-04-25T09:55:11.001Z</time></trkpt><trkpt lat="45.540254746498114" lon="9.573208436014776"><ele>135.0</ele><time>2026-04-25T09:55:13.001Z</time></trkpt><trkpt lat="45.5402888883715" lon="9.573099208548387"><ele>135.0</ele><time>2026-04-25T09:55:15.001Z</time></trkpt><trkpt lat="45.5403293080852" lon="9.573006969839769"><ele>135.0</ele><time>2026-04-25T09:55:17.001Z</time></trkpt><trkpt lat="45.54036298141135" lon="9.572916159920219"><ele>135.0</ele><time>2026-04-25T09:55:19.001Z</time></trkpt><trkpt lat="45.540394577892265" lon="9.572803570758671"><ele>135.0</ele><time>2026-04-25T09:55:21.001Z</time></trkpt><trkpt lat="45.540438799367536" lon="9.572690339590638"><ele>135.0</ele><time>2026-04-25T09:55:23.001Z</time></trkpt><trkpt lat="45.54047936421233" lon="9.572579115224913"><ele>135.0</ele><time>2026-04-25T09:55:25.001Z</time></trkpt><trkpt lat="45.54051978684115" lon="9.572460220728864"><ele>135.0</ele><time>2026-04-25T09:55:27.001Z</time></trkpt><trkpt lat="45.5405614164559" lon="9.572350924705225"><ele>135.0</ele><time>2026-04-25T09:55:29.002Z</time></trkpt><trkpt lat="45.54059467113702" lon="9.572229556659083"><ele>135.0</ele><time>2026-04-25T09:55:31.002Z</time></trkpt><trkpt lat="45.540617889225956" lon="9.572105233363235"><ele>135.0</ele><time>2026-04-25T09:55:33.002Z</time></trkpt><trkpt lat="45.540604454342215" lon="9.571970005401532"><ele>135.0</ele><time>2026-04-25T09:55:35.002Z</time></trkpt><trkpt lat="45.54060177742176" lon="9.57184810045652"><ele>135.0</ele><time>2026-04-25T09:55:37.002Z</time></trkpt><trkpt lat="45.54061654324665" lon="9.5717246250712"><ele>135.0</ele><time>2026-04-25T09:55:39.002Z</time></trkpt><trkpt lat="45.540639010161584" lon="9.571617458389886"><ele>135.0</ele><time>2026-04-25T09:55:41.002Z</time></trkpt><trkpt lat="45.540650908862325" lon="9.571503850121092"><ele>134.71428571428572</ele><time>2026-04-25T09:55:43.002Z</time></trkpt><trkpt lat="45.5406705843074" lon="9.571399431446405"><ele>134.42857142857142</ele><time>2026-04-25T09:55:45.002Z</time></trkpt><trkpt lat="45.540728227078276" lon="9.571333891662992"><ele>134.14285714285714</ele><time>2026-04-25T09:55:47.002Z</time></trkpt><trkpt lat="45.54079962413839" lon="9.57132301776889"><ele>133.85714285714286</ele><time>2026-04-25T09:55:49.001Z</time></trkpt><trkpt lat="45.54086490357055" lon="9.571293869070658"><ele>133.57142857142856</ele><time>2026-04-25T09:55:51.001Z</time></trkpt><trkpt lat="45.54092717038489" lon="9.571244284531709"><ele>133.28571428571428</ele><time>2026-04-25T09:55:53.001Z</time></trkpt><trkpt lat="45.54098030453112" lon="9.571170128501379"><ele>133.0</ele><time>2026-04-25T09:55:55.001Z</time></trkpt><trkpt lat="45.54102049859643" lon="9.57109399395688"><ele>132.85714285714286</ele><time>2026-04-25T09:55:57.001Z</time></trkpt><trkpt lat="45.5410477564986" lon="9.571011991896476"><ele>132.71428571428572</ele><time>2026-04-25T09:55:59.001Z</time></trkpt><trkpt lat="45.54107652383611" lon="9.570915697589891"><ele>132.57142857142856</ele><time>2026-04-25T09:56:01.001Z</time></trkpt><trkpt lat="45.54110569433459" lon="9.570818685292178"><ele>132.42857142857144</ele><time>2026-04-25T09:56:03.001Z</time></trkpt><trkpt lat="45.54113783268493" lon="9.570717071476446"><ele>132.28571428571428</ele><time>2026-04-25T09:56:05.001Z</time></trkpt><trkpt lat="45.54116808961851" lon="9.57061703061576"><ele>132.14285714285714</ele><time>2026-04-25T09:56:07.001Z</time></trkpt><trkpt lat="45.5411968400468" lon="9.570531842913082"><ele>132.0</ele><time>2026-04-25T09:56:09.001Z</time></trkpt><trkpt lat="45.54123376005775" lon="9.570451985684812"><ele>132.83333333333334</ele><time>2026-04-25T09:56:13.001Z</time></trkpt><trkpt lat="45.54127818236315" lon="9.570343268317066"><ele>133.66666666666666</ele><time>2026-04-25T09:56:17.001Z</time></trkpt><trkpt lat="45.54132637224051" lon="9.570230125788996"><ele>134.5</ele><time>2026-04-25T09:56:20.001Z</time></trkpt><trkpt lat="45.54136276978745" lon="9.570140187695868"><ele>135.33333333333331</ele><time>2026-04-25T09:56:22.001Z</time></trkpt><trkpt lat="45.541404806336665" lon="9.570064096799317"><ele>136.16666666666666</ele><time>2026-04-25T09:56:24.001Z</time></trkpt><trkpt lat="45.54145125389631" lon="9.570003127054134"><ele>137.0</ele><time>2026-04-25T09:56:26.001Z</time></trkpt><trkpt lat="45.54150841256176" lon="9.569948680482568"><ele>137.00000000000003</ele><time>2026-04-25T09:56:28.001Z</time></trkpt><trkpt lat="45.5415640743946" lon="9.569881113428021"><ele>137.0</ele><time>2026-04-25T09:56:30.001Z</time></trkpt><trkpt lat="45.54161586468825" lon="9.569814856243124"><ele>137.0</ele><time>2026-04-25T09:56:32.001Z</time></trkpt><trkpt lat="45.541671321542545" lon="9.569755376777175"><ele>137.0</ele><time>2026-04-25T09:56:34.001Z</time></trkpt><trkpt lat="45.54172598110205" lon="9.569695096646024"><ele>137.0</ele><time>2026-04-25T09:56:36.001Z</time></trkpt><trkpt lat="45.541773441600874" lon="9.569619926081876"><ele>137.00000000000003</ele><time>2026-04-25T09:56:38.001Z</time></trkpt><trkpt lat="45.5418228207356" lon="9.569560683823443"><ele>137.0</ele><time>2026-04-25T09:56:40.001Z</time></trkpt><trkpt lat="45.54187010682019" lon="9.569442314115664"><ele>136.6</ele><time>2026-04-25T09:56:43.001Z</time></trkpt><trkpt lat="45.541861400193525" lon="9.56932753093948"><ele>136.2</ele><time>2026-04-25T09:56:45.001Z</time></trkpt><trkpt lat="45.54181421704625" lon="9.569224218552643"><ele>135.8</ele><time>2026-04-25T09:56:47.001Z</time></trkpt><trkpt lat="45.54172763028546" lon="9.569143634639861"><ele>135.4</ele><time>2026-04-25T09:56:49.001Z</time></trkpt><trkpt lat="45.54165248494588" lon="9.56906618404977"><ele>135.0</ele><time>2026-04-25T09:56:51.001Z</time></trkpt><trkpt lat="45.54158837084999" lon="9.568954307465807"><ele>135.0</ele><time>2026-04-25T09:56:53.001Z</time></trkpt><trkpt lat="45.54151506141656" lon="9.568851256864306"><ele>135.0</ele><time>2026-04-25T09:56:55.001Z</time></trkpt><trkpt lat="45.54145273236624" lon="9.568753924510247"><ele>135.0</ele><time>2026-04-25T09:56:57.001Z</time></trkpt><trkpt lat="45.541360503395126" lon="9.568716586050577"><ele>135.0</ele><time>2026-04-25T09:57:00.001Z</time></trkpt><trkpt lat="45.54127338468995" lon="9.56872418487414"><ele>135.0</ele><time>2026-04-25T09:57:02.001Z</time></trkpt><trkpt lat="45.54117877511239" lon="9.56873545512511"><ele>136.2</ele><time>2026-04-25T09:57:04.001Z</time></trkpt><trkpt lat="45.54107958726458" lon="9.56874592584713"><ele>137.4</ele><time>2026-04-25T09:57:06.001Z</time></trkpt><trkpt lat="45.5409806160371" lon="9.568750702036972"><ele>138.6</ele><time>2026-04-25T09:57:08.001Z</time></trkpt><trkpt lat="45.540871421680535" lon="9.568759348546655"><ele>139.8</ele><time>2026-04-25T09:57:10.001Z</time></trkpt><trkpt lat="45.540770639140725" lon="9.56876799198943"><ele>141.0</ele><time>2026-04-25T09:57:12.001Z</time></trkpt><trkpt lat="45.54067545393644" lon="9.568753134265899"><ele>141.0</ele><time>2026-04-25T09:57:14.001Z</time></trkpt><trkpt lat="45.54058142987943" lon="9.56877817609338"><ele>141.0</ele><time>2026-04-25T09:57:16.001Z</time></trkpt><trkpt lat="45.54047461179023" lon="9.56878883390141"><ele>141.0</ele><time>2026-04-25T09:57:18.001Z</time></trkpt><trkpt lat="45.54037236243327" lon="9.568811342209399"><ele>141.0</ele><time>2026-04-25T09:57:20.001Z</time></trkpt><trkpt lat="45.54027356587758" lon="9.568851339388033"><ele>141.0</ele><time>2026-04-25T09:57:22.001Z</time></trkpt><trkpt lat="45.54018251407436" lon="9.568922494523736"><ele>138.6</ele><time>2026-04-25T09:57:24.001Z</time></trkpt><trkpt lat="45.540092010933044" lon="9.56900167059177"><ele>136.2</ele><time>2026-04-25T09:57:26.001Z</time></trkpt><trkpt lat="45.53999602112017" lon="9.569068397041764"><ele>133.8</ele><time>2026-04-25T09:57:28.001Z</time></trkpt><trkpt lat="45.53990733583988" lon="9.569137402742342"><ele>131.4</ele><time>2026-04-25T09:57:30.001Z</time></trkpt><trkpt lat="45.53981580105268" lon="9.569182727083005"><ele>129.0</ele><time>2026-04-25T09:57:32.001Z</time></trkpt><trkpt lat="45.53971941071582" lon="9.569199126926517"><ele>129.0</ele><time>2026-04-25T09:57:34.001Z</time></trkpt><trkpt lat="45.53962155681422" lon="9.569181644833169"><ele>129.0</ele><time>2026-04-25T09:57:36.001Z</time></trkpt><trkpt lat="45.53953210289824" lon="9.569156059764984"><ele>129.0</ele><time>2026-04-25T09:57:38.001Z</time></trkpt><trkpt lat="45.53943678531714" lon="9.569138621719926"><ele>129.0</ele><time>2026-04-25T09:57:40.001Z</time></trkpt><trkpt lat="45.53933761963418" lon="9.569139056775606"><ele>129.0</ele><time>2026-04-25T09:57:42.001Z</time></trkpt><trkpt lat="45.539242103931485" lon="9.569165758600773"><ele>129.2</ele><time>2026-04-25T09:57:44.001Z</time></trkpt><trkpt lat="45.53914859793845" lon="9.5691993363408"><ele>129.4</ele><time>2026-04-25T09:57:46.001Z</time></trkpt><trkpt lat="45.5390581171983" lon="9.569259696506391"><ele>129.6</ele><time>2026-04-25T09:57:48.001Z</time></trkpt><trkpt lat="45.538962534729045" lon="9.569325109044081"><ele>129.8</ele><time>2026-04-25T09:57:50.001Z</time></trkpt><trkpt lat="45.53886209169963" lon="9.569368030650393"><ele>130.0</ele><time>2026-04-25T09:57:52.001Z</time></trkpt><trkpt lat="45.53876453999657" lon="9.569416724315573"><ele>129.8</ele><time>2026-04-25T09:57:54.001Z</time></trkpt><trkpt lat="45.5386625894845" lon="9.569453547036085"><ele>129.6</ele><time>2026-04-25T09:57:56Z</time></trkpt><trkpt lat="45.53856215239344" lon="9.569493400459809"><ele>129.4</ele><time>2026-04-25T09:57:58Z</time></trkpt><trkpt lat="45.53846357981729" lon="9.569526001125016"><ele>129.2</ele><time>2026-04-25T09:58:00Z</time></trkpt><trkpt lat="45.53836273014758" lon="9.569557953923713"><ele>129.0</ele><time>2026-04-25T09:58:02Z</time></trkpt><trkpt lat="45.53826270400898" lon="9.56959578494256"><ele>129.0</ele><time>2026-04-25T09:58:04Z</time></trkpt><trkpt lat="45.53816170806862" lon="9.569631391746976"><ele>129.0</ele><time>2026-04-25T09:58:06Z</time></trkpt><trkpt lat="45.538061316108866" lon="9.56967892887624"><ele>129.0</ele><time>2026-04-25T09:58:08Z</time></trkpt><trkpt lat="45.537964840537654" lon="9.569705997127045"><ele>129.0</ele><time>2026-04-25T09:58:10Z</time></trkpt><trkpt lat="45.537863359472915" lon="9.569754829415979"><ele>129.0</ele><time>2026-04-25T09:58:12Z</time></trkpt><trkpt lat="45.53776991410727" lon="9.569824177881355"><ele>129.0</ele><time>2026-04-25T09:58:14Z</time></trkpt><trkpt lat="45.53769815996756" lon="9.569934599103307"><ele>129.0</ele><time>2026-04-25T09:58:16Z</time></trkpt><trkpt lat="45.537685199196964" lon="9.57008288432063"><ele>129.0</ele><time>2026-04-25T09:58:18Z</time></trkpt><trkpt lat="45.537704361065934" lon="9.57022551637817"><ele>129.0</ele><time>2026-04-25T09:58:20Z</time></trkpt><trkpt lat="45.53773045006582" lon="9.570362843538698"><ele>129.0</ele><time>2026-04-25T09:58:22Z</time></trkpt><trkpt lat="45.537747101541726" lon="9.570502737730017"><ele>129.0</ele><time>2026-04-25T09:58:24Z</time></trkpt><trkpt lat="45.537756905677846" lon="9.570647275100098"><ele>129.0</ele><time>2026-04-25T09:58:26Z</time></trkpt><trkpt lat="45.53772670530161" lon="9.570790650733521"><ele>129.0</ele><time>2026-04-25T09:58:28Z</time></trkpt><trkpt lat="45.53764254564668" lon="9.57088325739624"><ele>129.0</ele><time>2026-04-25T09:58:30Z</time></trkpt><trkpt lat="45.53754786969265" lon="9.570947199422209"><ele>129.0</ele><time>2026-04-25T09:58:32Z</time></trkpt><trkpt lat="45.53745026339711" lon="9.57100186834822"><ele>129.0</ele><time>2026-04-25T09:58:34Z</time></trkpt><trkpt lat="45.537354715335965" lon="9.571062619228806"><ele>129.0</ele><time>2026-04-25T09:58:36Z</time></trkpt><trkpt lat="45.537256347959186" lon="9.571115066785714"><ele>129.0</ele><time>2026-04-25T09:58:38Z</time></trkpt><trkpt lat="45.53715270871755" lon="9.571185405431034"><ele>129.0</ele><time>2026-04-25T09:58:40Z</time></trkpt><trkpt lat="45.53704322676121" lon="9.571234254949992"><ele>129.0</ele><time>2026-04-25T09:58:42Z</time></trkpt><trkpt lat="45.536945279221705" lon="9.57128412446513"><ele>129.4</ele><time>2026-04-25T09:58:44.001Z</time></trkpt><trkpt lat="45.53684703268259" lon="9.57134231088987"><ele>129.8</ele><time>2026-04-25T09:58:46.001Z</time></trkpt><trkpt lat="45.53674277965226" lon="9.571361344754784"><ele>130.2</ele><time>2026-04-25T09:58:48.001Z</time></trkpt><trkpt lat="45.53663541692639" lon="9.571364655503713"><ele>130.6</ele><time>2026-04-25T09:58:50.001Z</time></trkpt><trkpt lat="45.53653392820618" lon="9.571355110510428"><ele>131.0</ele><time>2026-04-25T09:58:52.001Z</time></trkpt><trkpt lat="45.53644808680214" lon="9.571338558497228"><ele>131.0</ele><time>2026-04-25T09:58:54.001Z</time></trkpt><trkpt lat="45.536355269293416" lon="9.571350930000635"><ele>131.0</ele><time>2026-04-25T09:58:56.001Z</time></trkpt><trkpt lat="45.53627594656393" lon="9.571358361265332"><ele>131.0</ele><time>2026-04-25T09:58:58.001Z</time></trkpt><trkpt lat="45.53619786042435" lon="9.571382904550337"><ele>131.0</ele><time>2026-04-25T09:59:00.001Z</time></trkpt><trkpt lat="45.536121348192886" lon="9.571422568018262"><ele>131.0</ele><time>2026-04-25T09:59:02.001Z</time></trkpt><trkpt lat="45.53608321933299" lon="9.571525525861423"><ele>131.0</ele><time>2026-04-25T09:59:04.001Z</time></trkpt><trkpt lat="45.53609447782691" lon="9.571658383479798"><ele>130.83333333333331</ele><time>2026-04-25T09:59:06.001Z</time></trkpt><trkpt lat="45.53610640485708" lon="9.57178294247475"><ele>130.66666666666666</ele><time>2026-04-25T09:59:08.001Z</time></trkpt><trkpt lat="45.53612702019318" lon="9.571906207193392"><ele>130.5</ele><time>2026-04-25T09:59:10.001Z</time></trkpt><trkpt lat="45.53613825212091" lon="9.572029947658137"><ele>130.33333333333334</ele><time>2026-04-25T09:59:12.001Z</time></trkpt><trkpt lat="45.53614745649047" lon="9.572148535636389"><ele>130.16666666666669</ele><time>2026-04-25T09:59:14.001Z</time></trkpt><trkpt lat="45.53616360453492" lon="9.572263912831401"><ele>130.0</ele><time>2026-04-25T09:59:16.001Z</time></trkpt><trkpt lat="45.536168792981485" lon="9.572380967235327"><ele>130.0</ele><time>2026-04-25T09:59:18.001Z</time></trkpt><trkpt lat="45.536184217220445" lon="9.572490130726194"><ele>130.0</ele><time>2026-04-25T09:59:20.001Z</time></trkpt><trkpt lat="45.53611546297008" lon="9.572564097025849"><ele>130.0</ele><time>2026-04-25T09:59:23.001Z</time></trkpt><trkpt lat="45.5360461070975" lon="9.572537621329523"><ele>130.0</ele><time>2026-04-25T09:59:25.001Z</time></trkpt><trkpt lat="45.53597217628927" lon="9.57252784535637"><ele>130.0</ele><time>2026-04-25T09:59:27.001Z</time></trkpt><trkpt lat="45.535904731666484" lon="9.57252135615109"><ele>130.0</ele><time>2026-04-25T09:59:29.001Z</time></trkpt><trkpt lat="45.535823688094496" lon="9.572544682230403"><ele>130.0</ele><time>2026-04-25T09:59:31.001Z</time></trkpt><trkpt lat="45.53574019497894" lon="9.572521454989658"><ele>130.0</ele><time>2026-04-25T09:59:33.001Z</time></trkpt><trkpt lat="45.5356509476215" lon="9.572517836489656"><ele>130.0</ele><time>2026-04-25T09:59:35.001Z</time></trkpt><trkpt lat="45.53556114874891" lon="9.572524637718821"><ele>130.0</ele><time>2026-04-25T09:59:37.001Z</time></trkpt><trkpt lat="45.53547484973268" lon="9.572478588338328"><ele>130.0</ele><time>2026-04-25T09:59:39.001Z</time></trkpt><trkpt lat="45.535387941684384" lon="9.572455534861579"><ele>130.0</ele><time>2026-04-25T09:59:41.001Z</time></trkpt><trkpt lat="45.53529974864334" lon="9.572426178155098"><ele>130.0</ele><time>2026-04-25T09:59:43.001Z</time></trkpt><trkpt lat="45.535208665510176" lon="9.572422297781795"><ele>130.0</ele><time>2026-04-25T09:59:45.001Z</time></trkpt><trkpt lat="45.535125226808326" lon="9.572416402837613"><ele>130.0</ele><time>2026-04-25T09:59:47.001Z</time></trkpt><trkpt lat="45.535050631657285" lon="9.57244102575729"><ele>130.0</ele><time>2026-04-25T09:59:49.001Z</time></trkpt><trkpt lat="45.53498207458476" lon="9.572444196434187"><ele>130.0</ele><time>2026-04-25T09:59:51.001Z</time></trkpt><trkpt lat="45.53491716525579" lon="9.57242015668375"><ele>130.0</ele><time>2026-04-25T09:59:53.001Z</time></trkpt><trkpt lat="45.53484765977345" lon="9.57244358709861"><ele>130.0</ele><time>2026-04-25T09:59:55.001Z</time></trkpt><trkpt lat="45.534767056474664" lon="9.572477522366112"><ele>130.0</ele><time>2026-04-25T09:59:57.001Z</time></trkpt><trkpt lat="45.53467405451169" lon="9.572510582361645"><ele>130.0</ele><time>2026-04-25T09:59:59.001Z</time></trkpt><trkpt lat="45.53459158341286" lon="9.572542148935154"><ele>130.0</ele><time>2026-04-25T10:00:01Z</time></trkpt><trkpt lat="45.534502476437716" lon="9.572582013272784"><ele>130.0</ele><time>2026-04-25T10:00:03Z</time></trkpt><trkpt lat="45.534413448214195" lon="9.572614795934662"><ele>130.0</ele><time>2026-04-25T10:00:05Z</time></trkpt><trkpt lat="45.534327029133536" lon="9.57264761573569"><ele>130.0</ele><time>2026-04-25T10:00:07Z</time></trkpt><trkpt lat="45.53425015455096" lon="9.572694868698953"><ele>130.0</ele><time>2026-04-25T10:00:09Z</time></trkpt><trkpt lat="45.53418110157254" lon="9.572748451548057"><ele>130.0</ele><time>2026-04-25T10:00:11Z</time></trkpt><trkpt lat="45.53409196611487" lon="9.572770451898132"><ele>130.0</ele><time>2026-04-25T10:00:13Z</time></trkpt><trkpt lat="45.53400627929733" lon="9.572813359553631"><ele>130.0</ele><time>2026-04-25T10:00:15Z</time></trkpt><trkpt lat="45.533934298928685" lon="9.57278573431117"><ele>130.0</ele><time>2026-04-25T10:00:17Z</time></trkpt><trkpt lat="45.533933289090655" lon="9.57265541987909"><ele>130.0</ele><time>2026-04-25T10:00:19Z</time></trkpt><trkpt lat="45.53391771074723" lon="9.572567248842844"><ele>130.0</ele><time>2026-04-25T10:00:21Z</time></trkpt><trkpt lat="45.533813575981625" lon="9.572586436517005"><ele>130.0</ele><time>2026-04-25T10:00:24Z</time></trkpt><trkpt lat="45.53373208168745" lon="9.572608750776213"><ele>130.0</ele><time>2026-04-25T10:00:26Z</time></trkpt><trkpt lat="45.53365816398751" lon="9.57264999839886"><ele>130.0</ele><time>2026-04-25T10:00:28Z</time></trkpt><trkpt lat="45.53357390465887" lon="9.572681216019275"><ele>129.6</ele><time>2026-04-25T10:00:30Z</time></trkpt><trkpt lat="45.533483595671505" lon="9.572701843552833"><ele>129.2</ele><time>2026-04-25T10:00:32Z</time></trkpt><trkpt lat="45.53339552079298" lon="9.572723527998576"><ele>128.8</ele><time>2026-04-25T10:00:34Z</time></trkpt><trkpt lat="45.53330270527298" lon="9.57274995687719"><ele>128.4</ele><time>2026-04-25T10:00:36Z</time></trkpt><trkpt lat="45.53321207865811" lon="9.57277982198736"><ele>128.0</ele><time>2026-04-25T10:00:38Z</time></trkpt><trkpt lat="45.533119075443174" lon="9.57279941142423"><ele>128.0</ele><time>2026-04-25T10:00:40Z</time></trkpt><trkpt lat="45.533027131571075" lon="9.572831440439955"><ele>128.0</ele><time>2026-04-25T10:00:42Z</time></trkpt><trkpt lat="45.53293141543179" lon="9.572858406305887"><ele>128.0</ele><time>2026-04-25T10:00:44Z</time></trkpt><trkpt lat="45.53283084146187" lon="9.5728884168306"><ele>128.0</ele><time>2026-04-25T10:00:46Z</time></trkpt><trkpt lat="45.53273370365888" lon="9.572915735824967"><ele>128.0</ele><time>2026-04-25T10:00:48Z</time></trkpt><trkpt lat="45.532630037514956" lon="9.57294306759179"><ele>127.83333333333333</ele><time>2026-04-25T10:00:50Z</time></trkpt><trkpt lat="45.53253449775486" lon="9.572972071498627"><ele>127.66666666666666</ele><time>2026-04-25T10:00:52Z</time></trkpt><trkpt lat="45.53244360748042" lon="9.57299773430175"><ele>127.5</ele><time>2026-04-25T10:00:54Z</time></trkpt><trkpt lat="45.532365295248475" lon="9.57301728971517"><ele>127.33333333333334</ele><time>2026-04-25T10:00:56Z</time></trkpt><trkpt lat="45.53228445194267" lon="9.573035819829295"><ele>127.16666666666667</ele><time>2026-04-25T10:00:58Z</time></trkpt><trkpt lat="45.53221899173339" lon="9.573050355549443"><ele>127.0</ele><time>2026-04-25T10:01:00Z</time></trkpt><trkpt lat="45.53221641550722" lon="9.573163189869508"><ele>127.00000000000001</ele><time>2026-04-25T10:01:04Z</time></trkpt><trkpt lat="45.532251833574534" lon="9.573250600466144"><ele>127.0</ele><time>2026-04-25T10:01:06Z</time></trkpt><trkpt lat="45.53227050483482" lon="9.573348208706193"><ele>127.0</ele><time>2026-04-25T10:01:08Z</time></trkpt><trkpt lat="45.53229468974307" lon="9.573450568346807"><ele>127.0</ele><time>2026-04-25T10:01:10Z</time></trkpt><trkpt lat="45.53232154413549" lon="9.573555671983616"><ele>127.00000000000001</ele><time>2026-04-25T10:01:12Z</time></trkpt><trkpt lat="45.532339626401225" lon="9.57366740165149"><ele>127.0</ele><time>2026-04-25T10:01:14Z</time></trkpt><trkpt lat="45.5323651507792" lon="9.573766823130956"><ele>126.83333333333334</ele><time>2026-04-25T10:01:16Z</time></trkpt><trkpt lat="45.53243420303373" lon="9.573804958026706"><ele>126.66666666666667</ele><time>2026-04-25T10:01:20Z</time></trkpt><trkpt lat="45.53250674836458" lon="9.573774958320593"><ele>126.5</ele><time>2026-04-25T10:01:22Z</time></trkpt><trkpt lat="45.53257520597445" lon="9.573751865332039"><ele>126.33333333333334</ele><time>2026-04-25T10:01:24Z</time></trkpt><trkpt lat="45.532643742570784" lon="9.573723429280154"><ele>126.16666666666667</ele><time>2026-04-25T10:01:26Z</time></trkpt><trkpt lat="45.53269962924286" lon="9.573772702245734"><ele>126.0</ele><time>2026-04-25T10:01:28Z</time></trkpt><trkpt lat="45.53279458952285" lon="9.573789592614116"><ele>126.0</ele><time>2026-04-25T10:01:31Z</time></trkpt><trkpt lat="45.532865532094746" lon="9.573739337628076"><ele>126.0</ele><time>2026-04-25T10:01:33.001Z</time></trkpt><trkpt lat="45.532937685493785" lon="9.573704191785568"><ele>126.0</ele><time>2026-04-25T10:01:35.001Z</time></trkpt><trkpt lat="45.53300632937899" lon="9.573672904190834"><ele>126.0</ele><time>2026-04-25T10:01:37.001Z</time></trkpt><trkpt lat="45.533078754621904" lon="9.57365142978527"><ele>126.0</ele><time>2026-04-25T10:01:39.001Z</time></trkpt><trkpt lat="45.53315193695098" lon="9.57363479180848"><ele>126.0</ele><time>2026-04-25T10:01:41.001Z</time></trkpt><trkpt lat="45.53322248343945" lon="9.573651562520238"><ele>126.0</ele><time>2026-04-25T10:01:43.001Z</time></trkpt><trkpt lat="45.53329703801521" lon="9.573693833965624"><ele>126.5</ele><time>2026-04-25T10:01:45.001Z</time></trkpt><trkpt lat="45.53334161893997" lon="9.573793578273476"><ele>127.0</ele><time>2026-04-25T10:01:47.001Z</time></trkpt><trkpt lat="45.53336506035756" lon="9.57389769339655"><ele>127.5</ele><time>2026-04-25T10:01:49.001Z</time></trkpt><trkpt lat="45.533374720952175" lon="9.574011625020763"><ele>128.0</ele><time>2026-04-25T10:01:51.001Z</time></trkpt><trkpt lat="45.53339358857193" lon="9.574127274995103"><ele>128.5</ele><time>2026-04-25T10:01:53.001Z</time></trkpt><trkpt lat="45.53340914511313" lon="9.574246827039108"><ele>129.0</ele><time>2026-04-25T10:01:55.001Z</time></trkpt><trkpt lat="45.53342515975333" lon="9.574365210074447"><ele>129.0</ele><time>2026-04-25T10:01:57.001Z</time></trkpt><trkpt lat="45.53343843828115" lon="9.574472734394648"><ele>129.0</ele><time>2026-04-25T10:01:59.001Z</time></trkpt><trkpt lat="45.53345442986028" lon="9.574589237619367"><ele>129.0</ele><time>2026-04-25T10:02:01.001Z</time></trkpt><trkpt lat="45.53347403896089" lon="9.57471716971687"><ele>129.0</ele><time>2026-04-25T10:02:03.001Z</time></trkpt><trkpt lat="45.53348896257965" lon="9.574841468297015"><ele>129.0</ele><time>2026-04-25T10:02:05.001Z</time></trkpt><trkpt lat="45.5335025609528" lon="9.574960427897535"><ele>129.0</ele><time>2026-04-25T10:02:07Z</time></trkpt><trkpt lat="45.53352797935293" lon="9.575108077219797"><ele>129.0</ele><time>2026-04-25T10:02:09Z</time></trkpt><trkpt lat="45.53354401541745" lon="9.575244179561468"><ele>129.0</ele><time>2026-04-25T10:02:11Z</time></trkpt><trkpt lat="45.533563522779225" lon="9.575381741136967"><ele>129.0</ele><time>2026-04-25T10:02:13Z</time></trkpt><trkpt lat="45.5335851452817" lon="9.575521754077865"><ele>129.0</ele><time>2026-04-25T10:02:15Z</time></trkpt><trkpt lat="45.53361920112812" lon="9.575665301764962"><ele>129.0</ele><time>2026-04-25T10:02:17Z</time></trkpt><trkpt lat="45.53364677719931" lon="9.575809931050548"><ele>129.0</ele><time>2026-04-25T10:02:19Z</time></trkpt><trkpt lat="45.53368056578389" lon="9.575948213924239"><ele>129.0</ele><time>2026-04-25T10:02:21Z</time></trkpt><trkpt lat="45.533717801606244" lon="9.576093179363914"><ele>129.0</ele><time>2026-04-25T10:02:23Z</time></trkpt><trkpt lat="45.533753721116135" lon="9.576239859081497"><ele>129.0</ele><time>2026-04-25T10:02:24.999Z</time></trkpt><trkpt lat="45.53378366589013" lon="9.576391245287493"><ele>129.0</ele><time>2026-04-25T10:02:26.999Z</time></trkpt><trkpt lat="45.53382383006025" lon="9.57653676645919"><ele>129.0</ele><time>2026-04-25T10:02:28.999Z</time></trkpt><trkpt lat="45.53386057311663" lon="9.576691220421269"><ele>129.0</ele><time>2026-04-25T10:02:30.999Z</time></trkpt><trkpt lat="45.5338949913573" lon="9.576849034727415"><ele>129.0</ele><time>2026-04-25T10:02:32.999Z</time></trkpt><trkpt lat="45.53393196776162" lon="9.577002280974947"><ele>129.0</ele><time>2026-04-25T10:02:34.999Z</time></trkpt><trkpt lat="45.533959650800476" lon="9.577150251775082"><ele>129.0</ele><time>2026-04-25T10:02:36.999Z</time></trkpt><trkpt lat="45.53399081224503" lon="9.577288229454433"><ele>129.0</ele><time>2026-04-25T10:02:38.999Z</time></trkpt><trkpt lat="45.534023375686004" lon="9.57741401001963"><ele>129.0</ele><time>2026-04-25T10:02:40.999Z</time></trkpt><trkpt lat="45.534084790014596" lon="9.577479613199028"><ele>129.0</ele><time>2026-04-25T10:02:44.999Z</time></trkpt><trkpt lat="45.5341441021113" lon="9.577409592955005"><ele>129.0</ele><time>2026-04-25T10:02:46.999Z</time></trkpt><trkpt lat="45.53421727355769" lon="9.577481964859826"><ele>129.0</ele><time>2026-04-25T10:02:50.999Z</time></trkpt><trkpt lat="45.53430074038393" lon="9.577457962545852"><ele>128.99999999999997</ele><time>2026-04-25T10:02:53.999Z</time></trkpt><trkpt lat="45.534363359307946" lon="9.577402296261653"><ele>129.0</ele><time>2026-04-25T10:02:55.999Z</time></trkpt><trkpt lat="45.534422397170914" lon="9.577354563819863"><ele>129.0</ele><time>2026-04-25T10:02:57.999Z</time></trkpt><trkpt lat="45.53448580480634" lon="9.577305882877607"><ele>129.0</ele><time>2026-04-25T10:02:59.999Z</time></trkpt><trkpt lat="45.53453273604593" lon="9.57738231229497"><ele>129.0</ele><time>2026-04-25T10:03:01.999Z</time></trkpt><trkpt lat="45.53455846119645" lon="9.577505627079455"><ele>128.99999999999997</ele><time>2026-04-25T10:03:04.999Z</time></trkpt><trkpt lat="45.53456459694748" lon="9.57759845816307"><ele>129.0</ele><time>2026-04-25T10:03:06.999Z</time></trkpt><trkpt lat="45.5345676421912" lon="9.577688442546611"><ele>129.0</ele><time>2026-04-25T10:03:08.999Z</time></trkpt><trkpt lat="45.53456860864392" lon="9.577781733398414"><ele>129.0</ele><time>2026-04-25T10:03:10.999Z</time></trkpt><trkpt lat="45.53456726389815" lon="9.577892832579836"><ele>129.0</ele><time>2026-04-25T10:03:12.999Z</time></trkpt><trkpt lat="45.5345940763925" lon="9.578018645088866"><ele>129.0</ele><time>2026-04-25T10:03:15.999Z</time></trkpt><trkpt lat="45.53461330157349" lon="9.578120411425289"><ele>129.0</ele><time>2026-04-25T10:03:17.999Z</time></trkpt><trkpt lat="45.53463421744908" lon="9.57822955825696"><ele>129.0</ele><time>2026-04-25T10:03:19.999Z</time></trkpt><trkpt lat="45.53464515360665" lon="9.578342470579795"><ele>129.16666666666666</ele><time>2026-04-25T10:03:21.999Z</time></trkpt><trkpt lat="45.534648755032535" lon="9.578464172950168"><ele>129.33333333333334</ele><time>2026-04-25T10:03:23.999Z</time></trkpt><trkpt lat="45.53467118097479" lon="9.578586767028918"><ele>129.5</ele><time>2026-04-25T10:03:25.999Z</time></trkpt><trkpt lat="45.53469314805035" lon="9.578712446177466"><ele>129.66666666666669</ele><time>2026-04-25T10:03:27.999Z</time></trkpt><trkpt lat="45.53471592135526" lon="9.57882779914545"><ele>129.83333333333334</ele><time>2026-04-25T10:03:29.999Z</time></trkpt><trkpt lat="45.53473904340085" lon="9.578938874637615"><ele>130.0</ele><time>2026-04-25T10:03:31.999Z</time></trkpt><trkpt lat="45.534766686280236" lon="9.579029747137369"><ele>130.00000000000003</ele><time>2026-04-25T10:03:33.999Z</time></trkpt><trkpt lat="45.53484123336288" lon="9.579013899948508"><ele>130.0</ele><time>2026-04-25T10:03:35.999Z</time></trkpt><trkpt lat="45.53490457697251" lon="9.578998022726093"><ele>130.0</ele><time>2026-04-25T10:03:37.999Z</time></trkpt><trkpt lat="45.534979069329026" lon="9.578972605997103"><ele>130.0</ele><time>2026-04-25T10:03:39.999Z</time></trkpt><trkpt lat="45.535045911916605" lon="9.578944902556126"><ele>130.0</ele><time>2026-04-25T10:03:41.999Z</time></trkpt><trkpt lat="45.53511315399465" lon="9.578912677877845"><ele>130.00000000000003</ele><time>2026-04-25T10:03:43.999Z</time></trkpt><trkpt lat="45.53518251437643" lon="9.578907728339932"><ele>130.0</ele><time>2026-04-25T10:03:45.999Z</time></trkpt><trkpt lat="45.535258133784936" lon="9.578893884667849"><ele>130.0</ele><time>2026-04-25T10:03:47.999Z</time></trkpt><trkpt lat="45.53532509964534" lon="9.57886205114627"><ele>130.0</ele><time>2026-04-25T10:03:49.999Z</time></trkpt><trkpt lat="45.5354118043197" lon="9.578826351438535"><ele>130.0</ele><time>2026-04-25T10:03:52.999Z</time></trkpt><trkpt lat="45.535492755271754" lon="9.578811590127636"><ele>130.0</ele><time>2026-04-25T10:03:55.999Z</time></trkpt><trkpt lat="45.535543297861956" lon="9.578757953485091"><ele>130.0</ele><time>2026-04-25T10:03:58.999Z</time></trkpt><trkpt lat="45.535531754738045" lon="9.578636074128058"><ele>130.0</ele><time>2026-04-25T10:04:01.999Z</time></trkpt><trkpt lat="45.53550472040114" lon="9.578530547325458"><ele>130.0</ele><time>2026-04-25T10:04:03.999Z</time></trkpt><trkpt lat="45.535440779271056" lon="9.578459675240723"><ele>130.0</ele><time>2026-04-25T10:04:06.999Z</time></trkpt><trkpt lat="45.53536378180169" lon="9.578386420638546"><ele>130.0</ele><time>2026-04-25T10:04:09.999Z</time></trkpt><trkpt lat="45.53529954678365" lon="9.578331826423115"><ele>130.0</ele><time>2026-04-25T10:04:11.999Z</time></trkpt><trkpt lat="45.535250205912085" lon="9.578264826335438"><ele>130.0</ele><time>2026-04-25T10:04:14.059Z</time></trkpt><trkpt lat="45.53531949402746" lon="9.578710822347311"><ele>130.0</ele><time>2026-04-25T10:04:24.949Z</time></trkpt><trkpt lat="45.535388232431636" lon="9.5787149005596"><ele>130.0</ele><time>2026-04-25T10:11:10.015Z</time></trkpt><trkpt lat="45.53532539927452" lon="9.578678953046092"><ele>130.0</ele><time>2026-04-25T10:11:15.013Z</time></trkpt><trkpt lat="45.535383806449744" lon="9.578594958613612"><ele>130.0</ele><time>2026-04-25T10:12:28.013Z</time></trkpt><trkpt lat="45.53534261785406" lon="9.578692830691718"><ele>130.0</ele><time>2026-04-25T10:12:34.013Z</time></trkpt><trkpt lat="45.535316344700064" lon="9.578788453836415"><ele>130.0</ele><time>2026-04-25T10:12:46.017Z</time></trkpt><trkpt lat="45.53518948904406" lon="9.578696416354894"><ele>130.00000000000003</ele><time>2026-04-25T10:12:56.014Z</time></trkpt><trkpt lat="45.53528076249964" lon="9.578597514073408"><ele>130.0</ele><time>2026-04-25T10:13:15.001Z</time></trkpt><trkpt lat="45.53534345973835" lon="9.578608633165342"><ele>130.0</ele><time>2026-04-25T10:13:23.001Z</time></trkpt><trkpt lat="45.53537485518829" lon="9.578690187936733"><ele>130.0</ele><time>2026-04-25T10:13:57Z</time></trkpt><trkpt lat="45.53532881683984" lon="9.578753044459026"><ele>130.0</ele><time>2026-04-25T10:14:04Z</time></trkpt><trkpt lat="45.535381600139935" lon="9.578811607333671"><ele>130.00000000000003</ele><time>2026-04-25T10:14:11Z</time></trkpt><trkpt lat="45.5354374004378" lon="9.578758402225935"><ele>130.0</ele><time>2026-04-25T10:14:17Z</time></trkpt><trkpt lat="45.535370282261525" lon="9.578726348374643"><ele>130.0</ele><time>2026-04-25T10:14:24Z</time></trkpt><trkpt lat="45.53533017636272" lon="9.578616955061202"><ele>131.0</ele><time>2026-04-25T10:14:38Z</time></trkpt></trkseg></trk></gpx>